<?xml version="1.0" encoding="UTF-8" standalone="no" ?>
<gpx xmlns="http://www.topografix.com/GPX/1/1" xmlns:xsi="http://www.w3.org/2001/XMLSchema-instance" xsi:schemaLocation="http://www.topografix.com/GPX/1/1 http://www.topografix.com/GPX/1/1/gpx.xsd" version="1.1" creator="VisuGPX - https://www.visugpx.com">
  <metadata>
    <name>La Justice</name>
    <desc><![CDATA[Col de la justice]]></desc>
  </metadata>
  <trk>
    <name><![CDATA[La justice]]></name>
    <trkseg>
      <trkpt lat="45.11575" lon="4.96431">
        <ele>202.00100708008</ele>
        <time>2011-01-19T12:22:25Z</time>
      </trkpt>
      <trkpt lat="45.11575" lon="4.96431">
        <ele>202.00100708008</ele>
        <time>2011-01-19T12:22:26Z</time>
      </trkpt>
      <trkpt lat="45.11575" lon="4.96431">
        <ele>203.1130065918</ele>
        <time>2011-01-19T12:22:28Z</time>
      </trkpt>
      <trkpt lat="45.1157" lon="4.96431">
        <ele>204.14100646973</ele>
        <time>2011-01-19T12:22:34Z</time>
      </trkpt>
      <trkpt lat="45.11556" lon="4.96431">
        <ele>203.48500061035</ele>
        <time>2011-01-19T12:22:47Z</time>
      </trkpt>
      <trkpt lat="45.11555" lon="4.96437">
        <ele>202.85000610352</ele>
        <time>2011-01-19T12:22:49Z</time>
      </trkpt>
      <trkpt lat="45.11559" lon="4.96448">
        <ele>202.65199279785</ele>
        <time>2011-01-19T12:22:52Z</time>
      </trkpt>
      <trkpt lat="45.11567" lon="4.96454">
        <ele>202.86199951172</ele>
        <time>2011-01-19T12:22:55Z</time>
      </trkpt>
      <trkpt lat="45.11569" lon="4.96453">
        <ele>202.88800048828</ele>
        <time>2011-01-19T12:22:56Z</time>
      </trkpt>
      <trkpt lat="45.11573" lon="4.9645">
        <ele>202.94900512695</ele>
        <time>2011-01-19T12:23:00Z</time>
      </trkpt>
      <trkpt lat="45.11578" lon="4.96464">
        <ele>202.71099853516</ele>
        <time>2011-01-19T12:23:06Z</time>
      </trkpt>
      <trkpt lat="45.11578" lon="4.96473">
        <ele>202.36799621582</ele>
        <time>2011-01-19T12:23:08Z</time>
      </trkpt>
      <trkpt lat="45.11577" lon="4.96494">
        <ele>202.07800292969</ele>
        <time>2011-01-19T12:23:13Z</time>
      </trkpt>
      <trkpt lat="45.11576" lon="4.96502">
        <ele>201.74899291992</ele>
        <time>2011-01-19T12:23:16Z</time>
      </trkpt>
      <trkpt lat="45.11581" lon="4.96526">
        <ele>201.27499389648</ele>
        <time>2011-01-19T12:23:20Z</time>
      </trkpt>
      <trkpt lat="45.11605" lon="4.96587">
        <ele>201.35899353027</ele>
        <time>2011-01-19T12:23:29Z</time>
      </trkpt>
      <trkpt lat="45.11629" lon="4.9665">
        <ele>201.88900756836</ele>
        <time>2011-01-19T12:23:38Z</time>
      </trkpt>
      <trkpt lat="45.1165" lon="4.96704">
        <ele>202.47599792481</ele>
        <time>2011-01-19T12:23:46Z</time>
      </trkpt>
      <trkpt lat="45.11671" lon="4.96747">
        <ele>202.75199890137</ele>
        <time>2011-01-19T12:23:53Z</time>
      </trkpt>
      <trkpt lat="45.11693" lon="4.96781">
        <ele>203.11399841309</ele>
        <time>2011-01-19T12:23:59Z</time>
      </trkpt>
      <trkpt lat="45.11719" lon="4.96822">
        <ele>202.79899597168</ele>
        <time>2011-01-19T12:24:06Z</time>
      </trkpt>
      <trkpt lat="45.11732" lon="4.96856">
        <ele>202.72200012207</ele>
        <time>2011-01-19T12:24:11Z</time>
      </trkpt>
      <trkpt lat="45.11747" lon="4.96878">
        <ele>203.27299499512</ele>
        <time>2011-01-19T12:24:15Z</time>
      </trkpt>
      <trkpt lat="45.11776" lon="4.96914">
        <ele>203.87100219727</ele>
        <time>2011-01-19T12:24:22Z</time>
      </trkpt>
      <trkpt lat="45.11808" lon="4.96965">
        <ele>203.45100402832</ele>
        <time>2011-01-19T12:24:31Z</time>
      </trkpt>
      <trkpt lat="45.11843" lon="4.97014">
        <ele>203.82200622559</ele>
        <time>2011-01-19T12:24:40Z</time>
      </trkpt>
      <trkpt lat="45.11869" lon="4.97045">
        <ele>203.55299377441</ele>
        <time>2011-01-19T12:24:46Z</time>
      </trkpt>
      <trkpt lat="45.11879" lon="4.97073">
        <ele>203.60600280762</ele>
        <time>2011-01-19T12:24:50Z</time>
      </trkpt>
      <trkpt lat="45.1188" lon="4.97082">
        <ele>203.47599792481</ele>
        <time>2011-01-19T12:24:51Z</time>
      </trkpt>
      <trkpt lat="45.11874" lon="4.97127">
        <ele>202.66700744629</ele>
        <time>2011-01-19T12:24:56Z</time>
      </trkpt>
      <trkpt lat="45.11875" lon="4.97165">
        <ele>202.17999267578</ele>
        <time>2011-01-19T12:25:00Z</time>
      </trkpt>
      <trkpt lat="45.11892" lon="4.97261">
        <ele>201.58999633789</ele>
        <time>2011-01-19T12:25:10Z</time>
      </trkpt>
      <trkpt lat="45.11903" lon="4.97326">
        <ele>201.46699523926</ele>
        <time>2011-01-19T12:25:17Z</time>
      </trkpt>
      <trkpt lat="45.11915" lon="4.974">
        <ele>201.47399902344</ele>
        <time>2011-01-19T12:25:26Z</time>
      </trkpt>
      <trkpt lat="45.11924" lon="4.97459">
        <ele>201.23500061035</ele>
        <time>2011-01-19T12:25:34Z</time>
      </trkpt>
      <trkpt lat="45.11935" lon="4.97517">
        <ele>202.34899902344</ele>
        <time>2011-01-19T12:25:42Z</time>
      </trkpt>
      <trkpt lat="45.11944" lon="4.97574">
        <ele>202.56900024414</ele>
        <time>2011-01-19T12:25:50Z</time>
      </trkpt>
      <trkpt lat="45.11945" lon="4.97581">
        <ele>202.62100219727</ele>
        <time>2011-01-19T12:25:51Z</time>
      </trkpt>
      <trkpt lat="45.11946" lon="4.97596">
        <ele>202.59800720215</ele>
        <time>2011-01-19T12:25:53Z</time>
      </trkpt>
      <trkpt lat="45.11951" lon="4.97617">
        <ele>202.83099365234</ele>
        <time>2011-01-19T12:25:56Z</time>
      </trkpt>
      <trkpt lat="45.11964" lon="4.97687">
        <ele>203.07600402832</ele>
        <time>2011-01-19T12:26:05Z</time>
      </trkpt>
      <trkpt lat="45.11975" lon="4.97753">
        <ele>203.37899780273</ele>
        <time>2011-01-19T12:26:13Z</time>
      </trkpt>
      <trkpt lat="45.11988" lon="4.97826">
        <ele>204.27499389648</ele>
        <time>2011-01-19T12:26:22Z</time>
      </trkpt>
      <trkpt lat="45.12" lon="4.97891">
        <ele>204.50799560547</ele>
        <time>2011-01-19T12:26:30Z</time>
      </trkpt>
      <trkpt lat="45.12016" lon="4.97962">
        <ele>205.0059967041</ele>
        <time>2011-01-19T12:26:39Z</time>
      </trkpt>
      <trkpt lat="45.12035" lon="4.98034">
        <ele>205.99099731445</ele>
        <time>2011-01-19T12:26:48Z</time>
      </trkpt>
      <trkpt lat="45.12052" lon="4.98103">
        <ele>205.69700622559</ele>
        <time>2011-01-19T12:26:57Z</time>
      </trkpt>
      <trkpt lat="45.12063" lon="4.98165">
        <ele>206.71699523926</ele>
        <time>2011-01-19T12:27:05Z</time>
      </trkpt>
      <trkpt lat="45.12066" lon="4.98224">
        <ele>209.12899780273</ele>
        <time>2011-01-19T12:27:12Z</time>
      </trkpt>
      <trkpt lat="45.12064" lon="4.98259">
        <ele>207.21899414062</ele>
        <time>2011-01-19T12:27:16Z</time>
      </trkpt>
      <trkpt lat="45.12057" lon="4.98319">
        <ele>207.65600585938</ele>
        <time>2011-01-19T12:27:23Z</time>
      </trkpt>
      <trkpt lat="45.12046" lon="4.98375">
        <ele>208.28399658203</ele>
        <time>2011-01-19T12:27:30Z</time>
      </trkpt>
      <trkpt lat="45.12041" lon="4.98388">
        <ele>208.38499450684</ele>
        <time>2011-01-19T12:27:32Z</time>
      </trkpt>
      <trkpt lat="45.12025" lon="4.98405">
        <ele>208.66700744629</ele>
        <time>2011-01-19T12:27:36Z</time>
      </trkpt>
      <trkpt lat="45.12019" lon="4.98404">
        <ele>208.62399291992</ele>
        <time>2011-01-19T12:27:37Z</time>
      </trkpt>
      <trkpt lat="45.11988" lon="4.98394">
        <ele>207.72999572754</ele>
        <time>2011-01-19T12:27:42Z</time>
      </trkpt>
      <trkpt lat="45.11968" lon="4.98408">
        <ele>207.20899963379</ele>
        <time>2011-01-19T12:27:46Z</time>
      </trkpt>
      <trkpt lat="45.11971" lon="4.98416">
        <ele>207.28799438477</ele>
        <time>2011-01-19T12:27:48Z</time>
      </trkpt>
      <trkpt lat="45.11979" lon="4.98414">
        <ele>207.60400390625</ele>
        <time>2011-01-19T12:27:51Z</time>
      </trkpt>
      <trkpt lat="45.11979" lon="4.9841">
        <ele>207.56300354004</ele>
        <time>2011-01-19T12:27:54Z</time>
      </trkpt>
      <trkpt lat="45.11979" lon="4.9841">
        <ele>207.49800109863</ele>
        <time>2011-01-19T12:27:55Z</time>
      </trkpt>
      <trkpt lat="45.11982" lon="4.98399">
        <ele>206.41700744629</ele>
        <time>2011-01-19T12:37:26Z</time>
      </trkpt>
      <trkpt lat="45.11982" lon="4.98398">
        <ele>206.60699462891</ele>
        <time>2011-01-19T12:37:27Z</time>
      </trkpt>
      <trkpt lat="45.11982" lon="4.98396">
        <ele>206.64900207519</ele>
        <time>2011-01-19T12:37:28Z</time>
      </trkpt>
      <trkpt lat="45.11984" lon="4.98391">
        <ele>206.55000305176</ele>
        <time>2011-01-19T12:37:30Z</time>
      </trkpt>
      <trkpt lat="45.11995" lon="4.98391">
        <ele>206.47999572754</ele>
        <time>2011-01-19T12:37:34Z</time>
      </trkpt>
      <trkpt lat="45.12002" lon="4.98394">
        <ele>206.47300720215</ele>
        <time>2011-01-19T12:37:36Z</time>
      </trkpt>
      <trkpt lat="45.12005" lon="4.98395">
        <ele>206.47799682617</ele>
        <time>2011-01-19T12:37:37Z</time>
      </trkpt>
      <trkpt lat="45.12019" lon="4.98402">
        <ele>206.94200134277</ele>
        <time>2011-01-19T12:37:41Z</time>
      </trkpt>
      <trkpt lat="45.12027" lon="4.9841">
        <ele>207.54299926758</ele>
        <time>2011-01-19T12:37:44Z</time>
      </trkpt>
      <trkpt lat="45.12028" lon="4.98413">
        <ele>207.76300048828</ele>
        <time>2011-01-19T12:37:45Z</time>
      </trkpt>
      <trkpt lat="45.12035" lon="4.98429">
        <ele>208.04200744629</ele>
        <time>2011-01-19T12:37:49Z</time>
      </trkpt>
      <trkpt lat="45.12049" lon="4.98427">
        <ele>208.1190032959</ele>
        <time>2011-01-19T12:37:53Z</time>
      </trkpt>
      <trkpt lat="45.12056" lon="4.98412">
        <ele>208.69400024414</ele>
        <time>2011-01-19T12:37:56Z</time>
      </trkpt>
      <trkpt lat="45.12056" lon="4.98395">
        <ele>208.62300109863</ele>
        <time>2011-01-19T12:37:59Z</time>
      </trkpt>
      <trkpt lat="45.12057" lon="4.98355">
        <ele>207.47799682617</ele>
        <time>2011-01-19T12:38:05Z</time>
      </trkpt>
      <trkpt lat="45.12068" lon="4.98289">
        <ele>206.38400268555</ele>
        <time>2011-01-19T12:38:14Z</time>
      </trkpt>
      <trkpt lat="45.12072" lon="4.98247">
        <ele>206.29200744629</ele>
        <time>2011-01-19T12:38:20Z</time>
      </trkpt>
      <trkpt lat="45.12073" lon="4.98226">
        <ele>206.26699829102</ele>
        <time>2011-01-19T12:38:23Z</time>
      </trkpt>
      <trkpt lat="45.12074" lon="4.98218">
        <ele>206.07800292969</ele>
        <time>2011-01-19T12:38:24Z</time>
      </trkpt>
      <trkpt lat="45.1207" lon="4.98158">
        <ele>205.52499389648</ele>
        <time>2011-01-19T12:38:32Z</time>
      </trkpt>
      <trkpt lat="45.1206" lon="4.98094">
        <ele>205.05599975586</ele>
        <time>2011-01-19T12:38:40Z</time>
      </trkpt>
      <trkpt lat="45.12043" lon="4.9803">
        <ele>204.22200012207</ele>
        <time>2011-01-19T12:38:48Z</time>
      </trkpt>
      <trkpt lat="45.12025" lon="4.97964">
        <ele>203.72900390625</ele>
        <time>2011-01-19T12:38:56Z</time>
      </trkpt>
      <trkpt lat="45.12008" lon="4.97883">
        <ele>203.39199829102</ele>
        <time>2011-01-19T12:39:05Z</time>
      </trkpt>
      <trkpt lat="45.11991" lon="4.97784">
        <ele>202.47300720215</ele>
        <time>2011-01-19T12:39:16Z</time>
      </trkpt>
      <trkpt lat="45.11977" lon="4.97702">
        <ele>201.83599853516</ele>
        <time>2011-01-19T12:39:25Z</time>
      </trkpt>
      <trkpt lat="45.1196" lon="4.97604">
        <ele>201.52000427246</ele>
        <time>2011-01-19T12:39:36Z</time>
      </trkpt>
      <trkpt lat="45.1195" lon="4.97551">
        <ele>201.89799499512</ele>
        <time>2011-01-19T12:39:42Z</time>
      </trkpt>
      <trkpt lat="45.11934" lon="4.97458">
        <ele>200.45300292969</ele>
        <time>2011-01-19T12:39:52Z</time>
      </trkpt>
      <trkpt lat="45.1192" lon="4.97376">
        <ele>199.50199890137</ele>
        <time>2011-01-19T12:40:01Z</time>
      </trkpt>
      <trkpt lat="45.11905" lon="4.97286">
        <ele>198.74499511719</ele>
        <time>2011-01-19T12:40:11Z</time>
      </trkpt>
      <trkpt lat="45.11891" lon="4.97208">
        <ele>199.78999328613</ele>
        <time>2011-01-19T12:40:20Z</time>
      </trkpt>
      <trkpt lat="45.11882" lon="4.97156">
        <ele>199.86500549316</ele>
        <time>2011-01-19T12:40:26Z</time>
      </trkpt>
      <trkpt lat="45.11884" lon="4.97116">
        <ele>200.31399536133</ele>
        <time>2011-01-19T12:40:31Z</time>
      </trkpt>
      <trkpt lat="45.11897" lon="4.97094">
        <ele>201.52600097656</ele>
        <time>2011-01-19T12:40:35Z</time>
      </trkpt>
      <trkpt lat="45.11906" lon="4.97072">
        <ele>201.78799438477</ele>
        <time>2011-01-19T12:40:39Z</time>
      </trkpt>
      <trkpt lat="45.11898" lon="4.97055">
        <ele>201.39799499512</ele>
        <time>2011-01-19T12:40:42Z</time>
      </trkpt>
      <trkpt lat="45.11878" lon="4.97041">
        <ele>200.78100585938</ele>
        <time>2011-01-19T12:40:46Z</time>
      </trkpt>
      <trkpt lat="45.11827" lon="4.96973">
        <ele>200.43699645996</ele>
        <time>2011-01-19T12:40:58Z</time>
      </trkpt>
      <trkpt lat="45.11787" lon="4.96913">
        <ele>200.52600097656</ele>
        <time>2011-01-19T12:41:08Z</time>
      </trkpt>
      <trkpt lat="45.11769" lon="4.96882">
        <ele>200.5059967041</ele>
        <time>2011-01-19T12:41:13Z</time>
      </trkpt>
      <trkpt lat="45.11765" lon="4.96851">
        <ele>200.42700195312</ele>
        <time>2011-01-19T12:41:17Z</time>
      </trkpt>
      <trkpt lat="45.11756" lon="4.96823">
        <ele>200.68899536133</ele>
        <time>2011-01-19T12:41:21Z</time>
      </trkpt>
      <trkpt lat="45.11745" lon="4.96816">
        <ele>200.18699645996</ele>
        <time>2011-01-19T12:41:23Z</time>
      </trkpt>
      <trkpt lat="45.11718" lon="4.96798">
        <ele>199.54100036621</ele>
        <time>2011-01-19T12:41:28Z</time>
      </trkpt>
      <trkpt lat="45.11684" lon="4.96746">
        <ele>199.35000610352</ele>
        <time>2011-01-19T12:41:36Z</time>
      </trkpt>
      <trkpt lat="45.11657" lon="4.96691">
        <ele>198.89599609375</ele>
        <time>2011-01-19T12:41:43Z</time>
      </trkpt>
      <trkpt lat="45.11629" lon="4.96618">
        <ele>198.37600708008</ele>
        <time>2011-01-19T12:41:52Z</time>
      </trkpt>
      <trkpt lat="45.11588" lon="4.96513">
        <ele>199.12100219727</ele>
        <time>2011-01-19T12:42:05Z</time>
      </trkpt>
      <trkpt lat="45.11559" lon="4.96455">
        <ele>199.11999511719</ele>
        <time>2011-01-19T12:42:13Z</time>
      </trkpt>
      <trkpt lat="45.11517" lon="4.96391">
        <ele>198.87199401856</ele>
        <time>2011-01-19T12:42:23Z</time>
      </trkpt>
      <trkpt lat="45.1147" lon="4.96318">
        <ele>199.99899291992</ele>
        <time>2011-01-19T12:42:35Z</time>
      </trkpt>
      <trkpt lat="45.11432" lon="4.96256">
        <ele>200.88900756836</ele>
        <time>2011-01-19T12:42:45Z</time>
      </trkpt>
      <trkpt lat="45.11399" lon="4.96189">
        <ele>200.79200744629</ele>
        <time>2011-01-19T12:42:55Z</time>
      </trkpt>
      <trkpt lat="45.1136" lon="4.9611">
        <ele>199.82499694824</ele>
        <time>2011-01-19T12:43:06Z</time>
      </trkpt>
      <trkpt lat="45.11337" lon="4.96068">
        <ele>199.30099487305</ele>
        <time>2011-01-19T12:43:12Z</time>
      </trkpt>
      <trkpt lat="45.11301" lon="4.96012">
        <ele>198.41000366211</ele>
        <time>2011-01-19T12:43:20Z</time>
      </trkpt>
      <trkpt lat="45.11272" lon="4.95962">
        <ele>197.76100158691</ele>
        <time>2011-01-19T12:43:27Z</time>
      </trkpt>
      <trkpt lat="45.11243" lon="4.95912">
        <ele>197.28799438477</ele>
        <time>2011-01-19T12:43:34Z</time>
      </trkpt>
      <trkpt lat="45.11192" lon="4.95838">
        <ele>196.6130065918</ele>
        <time>2011-01-19T12:43:45Z</time>
      </trkpt>
      <trkpt lat="45.11148" lon="4.95768">
        <ele>196.62100219727</ele>
        <time>2011-01-19T12:43:55Z</time>
      </trkpt>
      <trkpt lat="45.11114" lon="4.95702">
        <ele>197.13499450684</ele>
        <time>2011-01-19T12:44:04Z</time>
      </trkpt>
      <trkpt lat="45.11091" lon="4.95672">
        <ele>197.44999694824</ele>
        <time>2011-01-19T12:44:09Z</time>
      </trkpt>
      <trkpt lat="45.11056" lon="4.95638">
        <ele>197.83599853516</ele>
        <time>2011-01-19T12:44:16Z</time>
      </trkpt>
      <trkpt lat="45.11012" lon="4.95588">
        <ele>197.32200622559</ele>
        <time>2011-01-19T12:44:25Z</time>
      </trkpt>
      <trkpt lat="45.10981" lon="4.95535">
        <ele>196.68899536133</ele>
        <time>2011-01-19T12:44:33Z</time>
      </trkpt>
      <trkpt lat="45.10963" lon="4.95487">
        <ele>195.88999938965</ele>
        <time>2011-01-19T12:44:39Z</time>
      </trkpt>
      <trkpt lat="45.10946" lon="4.95425">
        <ele>196.77499389648</ele>
        <time>2011-01-19T12:44:46Z</time>
      </trkpt>
      <trkpt lat="45.10937" lon="4.95381">
        <ele>196.90199279785</ele>
        <time>2011-01-19T12:44:51Z</time>
      </trkpt>
      <trkpt lat="45.10917" lon="4.95318">
        <ele>195.40100097656</ele>
        <time>2011-01-19T12:44:59Z</time>
      </trkpt>
      <trkpt lat="45.10893" lon="4.95277">
        <ele>195.16700744629</ele>
        <time>2011-01-19T12:45:05Z</time>
      </trkpt>
      <trkpt lat="45.10844" lon="4.95221">
        <ele>195.125</ele>
        <time>2011-01-19T12:45:15Z</time>
      </trkpt>
      <trkpt lat="45.10797" lon="4.95167">
        <ele>195.25</ele>
        <time>2011-01-19T12:45:25Z</time>
      </trkpt>
      <trkpt lat="45.10763" lon="4.95129">
        <ele>194.37199401856</ele>
        <time>2011-01-19T12:45:32Z</time>
      </trkpt>
      <trkpt lat="45.10724" lon="4.95096">
        <ele>193.72599792481</ele>
        <time>2011-01-19T12:45:39Z</time>
      </trkpt>
      <trkpt lat="45.10676" lon="4.9507">
        <ele>193.73500061035</ele>
        <time>2011-01-19T12:45:47Z</time>
      </trkpt>
      <trkpt lat="45.10607" lon="4.95036">
        <ele>192.79299926758</ele>
        <time>2011-01-19T12:45:58Z</time>
      </trkpt>
      <trkpt lat="45.1055" lon="4.95013">
        <ele>192.34700012207</ele>
        <time>2011-01-19T12:46:07Z</time>
      </trkpt>
      <trkpt lat="45.10498" lon="4.9499">
        <ele>191.74299621582</ele>
        <time>2011-01-19T12:46:15Z</time>
      </trkpt>
      <trkpt lat="45.1048" lon="4.94977">
        <ele>191.49299621582</ele>
        <time>2011-01-19T12:46:19Z</time>
      </trkpt>
      <trkpt lat="45.10473" lon="4.94966">
        <ele>191.69599914551</ele>
        <time>2011-01-19T12:46:22Z</time>
      </trkpt>
      <trkpt lat="45.10452" lon="4.94959">
        <ele>191.41999816894</ele>
        <time>2011-01-19T12:46:27Z</time>
      </trkpt>
      <trkpt lat="45.10441" lon="4.94975">
        <ele>190.89500427246</ele>
        <time>2011-01-19T12:46:30Z</time>
      </trkpt>
      <trkpt lat="45.1044" lon="4.94991">
        <ele>190.94000244141</ele>
        <time>2011-01-19T12:46:32Z</time>
      </trkpt>
      <trkpt lat="45.10434" lon="4.95029">
        <ele>189.80200195312</ele>
        <time>2011-01-19T12:46:37Z</time>
      </trkpt>
      <trkpt lat="45.10418" lon="4.9504">
        <ele>189.67199707031</ele>
        <time>2011-01-19T12:46:40Z</time>
      </trkpt>
      <trkpt lat="45.10405" lon="4.95038">
        <ele>189.31399536133</ele>
        <time>2011-01-19T12:46:42Z</time>
      </trkpt>
      <trkpt lat="45.10359" lon="4.95032">
        <ele>186.93899536133</ele>
        <time>2011-01-19T12:46:48Z</time>
      </trkpt>
      <trkpt lat="45.10323" lon="4.95039">
        <ele>184.49699401856</ele>
        <time>2011-01-19T12:46:52Z</time>
      </trkpt>
      <trkpt lat="45.10267" lon="4.95055">
        <ele>182.05200195312</ele>
        <time>2011-01-19T12:46:58Z</time>
      </trkpt>
      <trkpt lat="45.10146" lon="4.95088">
        <ele>178.58299255371</ele>
        <time>2011-01-19T12:47:11Z</time>
      </trkpt>
      <trkpt lat="45.10072" lon="4.95108">
        <ele>177.43299865723</ele>
        <time>2011-01-19T12:47:19Z</time>
      </trkpt>
      <trkpt lat="45.09986" lon="4.95145">
        <ele>176.37600708008</ele>
        <time>2011-01-19T12:47:29Z</time>
      </trkpt>
      <trkpt lat="45.09898" lon="4.95187">
        <ele>175.55499267578</ele>
        <time>2011-01-19T12:47:40Z</time>
      </trkpt>
      <trkpt lat="45.09819" lon="4.95231">
        <ele>174.97200012207</ele>
        <time>2011-01-19T12:47:50Z</time>
      </trkpt>
      <trkpt lat="45.09746" lon="4.95254">
        <ele>174.35899353027</ele>
        <time>2011-01-19T12:47:59Z</time>
      </trkpt>
      <trkpt lat="45.09687" lon="4.95259">
        <ele>174.21499633789</ele>
        <time>2011-01-19T12:48:06Z</time>
      </trkpt>
      <trkpt lat="45.0962" lon="4.95249">
        <ele>173.85800170898</ele>
        <time>2011-01-19T12:48:14Z</time>
      </trkpt>
      <trkpt lat="45.09528" lon="4.95234">
        <ele>173.08200073242</ele>
        <time>2011-01-19T12:48:25Z</time>
      </trkpt>
      <trkpt lat="45.09471" lon="4.95224">
        <ele>174.09899902344</ele>
        <time>2011-01-19T12:48:32Z</time>
      </trkpt>
      <trkpt lat="45.09426" lon="4.95211">
        <ele>173.63800048828</ele>
        <time>2011-01-19T12:48:38Z</time>
      </trkpt>
      <trkpt lat="45.09404" lon="4.95203">
        <ele>172.68200683594</ele>
        <time>2011-01-19T12:48:41Z</time>
      </trkpt>
      <trkpt lat="45.09335" lon="4.95173">
        <ele>172.38999938965</ele>
        <time>2011-01-19T12:48:50Z</time>
      </trkpt>
      <trkpt lat="45.09267" lon="4.95132">
        <ele>172.08299255371</ele>
        <time>2011-01-19T12:48:59Z</time>
      </trkpt>
      <trkpt lat="45.09196" lon="4.95077">
        <ele>171.78300476074</ele>
        <time>2011-01-19T12:49:09Z</time>
      </trkpt>
      <trkpt lat="45.09128" lon="4.95016">
        <ele>171.23300170898</ele>
        <time>2011-01-19T12:49:19Z</time>
      </trkpt>
      <trkpt lat="45.09069" lon="4.94972">
        <ele>170.38000488281</ele>
        <time>2011-01-19T12:49:27Z</time>
      </trkpt>
      <trkpt lat="45.09014" lon="4.94948">
        <ele>169.66799926758</ele>
        <time>2011-01-19T12:49:34Z</time>
      </trkpt>
      <trkpt lat="45.08965" lon="4.94941">
        <ele>168.94500732422</ele>
        <time>2011-01-19T12:49:40Z</time>
      </trkpt>
      <trkpt lat="45.08908" lon="4.94953">
        <ele>168.31399536133</ele>
        <time>2011-01-19T12:49:47Z</time>
      </trkpt>
      <trkpt lat="45.08829" lon="4.94982">
        <ele>167.95700073242</ele>
        <time>2011-01-19T12:49:57Z</time>
      </trkpt>
      <trkpt lat="45.08733" lon="4.95019">
        <ele>166.88000488281</ele>
        <time>2011-01-19T12:50:09Z</time>
      </trkpt>
      <trkpt lat="45.08641" lon="4.95053">
        <ele>166.07499694824</ele>
        <time>2011-01-19T12:50:20Z</time>
      </trkpt>
      <trkpt lat="45.08551" lon="4.9509">
        <ele>164.99699401856</ele>
        <time>2011-01-19T12:50:31Z</time>
      </trkpt>
      <trkpt lat="45.08503" lon="4.95118">
        <ele>164.29200744629</ele>
        <time>2011-01-19T12:50:37Z</time>
      </trkpt>
      <trkpt lat="45.08401" lon="4.95183">
        <ele>163.86599731445</ele>
        <time>2011-01-19T12:50:50Z</time>
      </trkpt>
      <trkpt lat="45.0834" lon="4.95224">
        <ele>163.44900512695</ele>
        <time>2011-01-19T12:50:58Z</time>
      </trkpt>
      <trkpt lat="45.08306" lon="4.95251">
        <ele>163.61199951172</ele>
        <time>2011-01-19T12:51:03Z</time>
      </trkpt>
      <trkpt lat="45.08251" lon="4.95304">
        <ele>163.11799621582</ele>
        <time>2011-01-19T12:51:12Z</time>
      </trkpt>
      <trkpt lat="45.08235" lon="4.95326">
        <ele>163.33599853516</ele>
        <time>2011-01-19T12:51:15Z</time>
      </trkpt>
      <trkpt lat="45.08215" lon="4.95357">
        <ele>163.36799621582</ele>
        <time>2011-01-19T12:51:19Z</time>
      </trkpt>
      <trkpt lat="45.08195" lon="4.95388">
        <ele>163.32099914551</ele>
        <time>2011-01-19T12:51:23Z</time>
      </trkpt>
      <trkpt lat="45.08189" lon="4.95395">
        <ele>163.37300109863</ele>
        <time>2011-01-19T12:51:24Z</time>
      </trkpt>
      <trkpt lat="45.08151" lon="4.9543">
        <ele>162.93899536133</ele>
        <time>2011-01-19T12:51:30Z</time>
      </trkpt>
      <trkpt lat="45.08098" lon="4.95469">
        <ele>163.12800598144</ele>
        <time>2011-01-19T12:51:38Z</time>
      </trkpt>
      <trkpt lat="45.08067" lon="4.95494">
        <ele>163.20700073242</ele>
        <time>2011-01-19T12:51:43Z</time>
      </trkpt>
      <trkpt lat="45.08049" lon="4.95511">
        <ele>163.6609954834</ele>
        <time>2011-01-19T12:51:46Z</time>
      </trkpt>
      <trkpt lat="45.08002" lon="4.95535">
        <ele>163.29200744629</ele>
        <time>2011-01-19T12:51:53Z</time>
      </trkpt>
      <trkpt lat="45.07918" lon="4.95572">
        <ele>162.93299865723</ele>
        <time>2011-01-19T12:52:05Z</time>
      </trkpt>
      <trkpt lat="45.07825" lon="4.95613">
        <ele>162.16799926758</ele>
        <time>2011-01-19T12:52:18Z</time>
      </trkpt>
      <trkpt lat="45.07789" lon="4.95629">
        <ele>161.69099426269</ele>
        <time>2011-01-19T12:52:23Z</time>
      </trkpt>
      <trkpt lat="45.07767" lon="4.95639">
        <ele>161.70599365234</ele>
        <time>2011-01-19T12:52:26Z</time>
      </trkpt>
      <trkpt lat="45.0776" lon="4.95641">
        <ele>161.75100708008</ele>
        <time>2011-01-19T12:52:27Z</time>
      </trkpt>
      <trkpt lat="45.07728" lon="4.95642">
        <ele>161.69900512695</ele>
        <time>2011-01-19T12:52:32Z</time>
      </trkpt>
      <trkpt lat="45.077" lon="4.95627">
        <ele>160.9940032959</ele>
        <time>2011-01-19T12:52:37Z</time>
      </trkpt>
      <trkpt lat="45.07669" lon="4.95606">
        <ele>160.30799865723</ele>
        <time>2011-01-19T12:52:42Z</time>
      </trkpt>
      <trkpt lat="45.07634" lon="4.95596">
        <ele>160.92399597168</ele>
        <time>2011-01-19T12:52:47Z</time>
      </trkpt>
      <trkpt lat="45.07606" lon="4.95605">
        <ele>160.64900207519</ele>
        <time>2011-01-19T12:52:51Z</time>
      </trkpt>
      <trkpt lat="45.07584" lon="4.95626">
        <ele>161.04400634766</ele>
        <time>2011-01-19T12:52:55Z</time>
      </trkpt>
      <trkpt lat="45.07576" lon="4.95641">
        <ele>161.52699279785</ele>
        <time>2011-01-19T12:52:57Z</time>
      </trkpt>
      <trkpt lat="45.07547" lon="4.95698">
        <ele>161.40699768066</ele>
        <time>2011-01-19T12:53:05Z</time>
      </trkpt>
      <trkpt lat="45.0752" lon="4.95755">
        <ele>160.95100402832</ele>
        <time>2011-01-19T12:53:12Z</time>
      </trkpt>
      <trkpt lat="45.07488" lon="4.95817">
        <ele>160.70300292969</ele>
        <time>2011-01-19T12:53:20Z</time>
      </trkpt>
      <trkpt lat="45.07473" lon="4.95847">
        <ele>161.34300231934</ele>
        <time>2011-01-19T12:53:25Z</time>
      </trkpt>
      <trkpt lat="45.0747" lon="4.95851">
        <ele>161.3869934082</ele>
        <time>2011-01-19T12:53:28Z</time>
      </trkpt>
      <trkpt lat="45.07469" lon="4.95853">
        <ele>161.53799438477</ele>
        <time>2011-01-19T12:53:31Z</time>
      </trkpt>
      <trkpt lat="45.07452" lon="4.95857">
        <ele>161.55499267578</ele>
        <time>2011-01-19T12:53:41Z</time>
      </trkpt>
      <trkpt lat="45.07414" lon="4.95861">
        <ele>160.98599243164</ele>
        <time>2011-01-19T12:53:49Z</time>
      </trkpt>
      <trkpt lat="45.07372" lon="4.9586">
        <ele>160.11500549316</ele>
        <time>2011-01-19T12:53:56Z</time>
      </trkpt>
      <trkpt lat="45.07317" lon="4.95852">
        <ele>159.52600097656</ele>
        <time>2011-01-19T12:54:04Z</time>
      </trkpt>
      <trkpt lat="45.07249" lon="4.95837">
        <ele>157.99299621582</ele>
        <time>2011-01-19T12:54:13Z</time>
      </trkpt>
      <trkpt lat="45.07211" lon="4.95841">
        <ele>157.43200683594</ele>
        <time>2011-01-19T12:54:18Z</time>
      </trkpt>
      <trkpt lat="45.07144" lon="4.95865">
        <ele>156.60099792481</ele>
        <time>2011-01-19T12:54:27Z</time>
      </trkpt>
      <trkpt lat="45.07137" lon="4.95869">
        <ele>156.66799926758</ele>
        <time>2011-01-19T12:54:28Z</time>
      </trkpt>
      <trkpt lat="45.07098" lon="4.95903">
        <ele>156.52000427246</ele>
        <time>2011-01-19T12:54:34Z</time>
      </trkpt>
      <trkpt lat="45.07038" lon="4.95955">
        <ele>156.30099487305</ele>
        <time>2011-01-19T12:54:43Z</time>
      </trkpt>
      <trkpt lat="45.06984" lon="4.95992">
        <ele>155.82800292969</ele>
        <time>2011-01-19T12:54:51Z</time>
      </trkpt>
      <trkpt lat="45.06918" lon="4.96037">
        <ele>155.85600280762</ele>
        <time>2011-01-19T12:55:01Z</time>
      </trkpt>
      <trkpt lat="45.06874" lon="4.9608">
        <ele>156.08700561523</ele>
        <time>2011-01-19T12:55:08Z</time>
      </trkpt>
      <trkpt lat="45.06844" lon="4.96126">
        <ele>157.08399963379</ele>
        <time>2011-01-19T12:55:14Z</time>
      </trkpt>
      <trkpt lat="45.06799" lon="4.96199">
        <ele>157.27499389648</ele>
        <time>2011-01-19T12:55:24Z</time>
      </trkpt>
      <trkpt lat="45.06794" lon="4.96205">
        <ele>157.31700134277</ele>
        <time>2011-01-19T12:55:25Z</time>
      </trkpt>
      <trkpt lat="45.0675" lon="4.96237">
        <ele>157.14599609375</ele>
        <time>2011-01-19T12:55:32Z</time>
      </trkpt>
      <trkpt lat="45.06685" lon="4.96264">
        <ele>156.22700500488</ele>
        <time>2011-01-19T12:55:41Z</time>
      </trkpt>
      <trkpt lat="45.06628" lon="4.96298">
        <ele>155.91400146484</ele>
        <time>2011-01-19T12:55:49Z</time>
      </trkpt>
      <trkpt lat="45.06564" lon="4.96336">
        <ele>155.75399780273</ele>
        <time>2011-01-19T12:55:58Z</time>
      </trkpt>
      <trkpt lat="45.06506" lon="4.96357">
        <ele>156.41900634766</ele>
        <time>2011-01-19T12:56:06Z</time>
      </trkpt>
      <trkpt lat="45.06458" lon="4.96361">
        <ele>157.78500366211</ele>
        <time>2011-01-19T12:56:13Z</time>
      </trkpt>
      <trkpt lat="45.06399" lon="4.96362">
        <ele>159.76100158691</ele>
        <time>2011-01-19T12:56:22Z</time>
      </trkpt>
      <trkpt lat="45.06329" lon="4.96365">
        <ele>161.96699523926</ele>
        <time>2011-01-19T12:56:33Z</time>
      </trkpt>
      <trkpt lat="45.06266" lon="4.96374">
        <ele>163.38200378418</ele>
        <time>2011-01-19T12:56:43Z</time>
      </trkpt>
      <trkpt lat="45.06221" lon="4.96395">
        <ele>163.79200744629</ele>
        <time>2011-01-19T12:56:50Z</time>
      </trkpt>
      <trkpt lat="45.06161" lon="4.96419">
        <ele>164.18600463867</ele>
        <time>2011-01-19T12:56:59Z</time>
      </trkpt>
      <trkpt lat="45.06113" lon="4.96433">
        <ele>163.67300415039</ele>
        <time>2011-01-19T12:57:06Z</time>
      </trkpt>
      <trkpt lat="45.06049" lon="4.9644">
        <ele>163.22200012207</ele>
        <time>2011-01-19T12:57:15Z</time>
      </trkpt>
      <trkpt lat="45.05977" lon="4.96439">
        <ele>163.48300170898</ele>
        <time>2011-01-19T12:57:25Z</time>
      </trkpt>
      <trkpt lat="45.05919" lon="4.96424">
        <ele>163.10499572754</ele>
        <time>2011-01-19T12:57:33Z</time>
      </trkpt>
      <trkpt lat="45.0585" lon="4.96405">
        <ele>161.78799438477</ele>
        <time>2011-01-19T12:57:42Z</time>
      </trkpt>
      <trkpt lat="45.05783" lon="4.96387">
        <ele>160.05799865723</ele>
        <time>2011-01-19T12:57:50Z</time>
      </trkpt>
      <trkpt lat="45.05701" lon="4.96366">
        <ele>157.86099243164</ele>
        <time>2011-01-19T12:57:59Z</time>
      </trkpt>
      <trkpt lat="45.05673" lon="4.9636">
        <ele>157.96299743652</ele>
        <time>2011-01-19T12:58:02Z</time>
      </trkpt>
      <trkpt lat="45.05655" lon="4.96357">
        <ele>157.64399719238</ele>
        <time>2011-01-19T12:58:04Z</time>
      </trkpt>
      <trkpt lat="45.05593" lon="4.96353">
        <ele>157.19599914551</ele>
        <time>2011-01-19T12:58:11Z</time>
      </trkpt>
      <trkpt lat="45.0552" lon="4.96355">
        <ele>156.18200683594</ele>
        <time>2011-01-19T12:58:20Z</time>
      </trkpt>
      <trkpt lat="45.05457" lon="4.96361">
        <ele>155.30999755859</ele>
        <time>2011-01-19T12:58:28Z</time>
      </trkpt>
      <trkpt lat="45.05427" lon="4.96345">
        <ele>154.87699890137</ele>
        <time>2011-01-19T12:58:32Z</time>
      </trkpt>
      <trkpt lat="45.05421" lon="4.96324">
        <ele>156.15800476074</ele>
        <time>2011-01-19T12:58:34Z</time>
      </trkpt>
      <trkpt lat="45.05415" lon="4.96251">
        <ele>156.9640045166</ele>
        <time>2011-01-19T12:58:41Z</time>
      </trkpt>
      <trkpt lat="45.05412" lon="4.96204">
        <ele>156.15800476074</ele>
        <time>2011-01-19T12:58:46Z</time>
      </trkpt>
      <trkpt lat="45.0541" lon="4.96176">
        <ele>156.77600097656</ele>
        <time>2011-01-19T12:58:49Z</time>
      </trkpt>
      <trkpt lat="45.05407" lon="4.96122">
        <ele>158.16000366211</ele>
        <time>2011-01-19T12:58:55Z</time>
      </trkpt>
      <trkpt lat="45.05404" lon="4.96077">
        <ele>156.25799560547</ele>
        <time>2011-01-19T12:59:00Z</time>
      </trkpt>
      <trkpt lat="45.05399" lon="4.96014">
        <ele>155.03999328613</ele>
        <time>2011-01-19T12:59:07Z</time>
      </trkpt>
      <trkpt lat="45.05389" lon="4.95893">
        <ele>154.67199707031</ele>
        <time>2011-01-19T12:59:20Z</time>
      </trkpt>
      <trkpt lat="45.05387" lon="4.95866">
        <ele>156.54400634766</ele>
        <time>2011-01-19T12:59:23Z</time>
      </trkpt>
      <trkpt lat="45.05377" lon="4.95747">
        <ele>155.63900756836</ele>
        <time>2011-01-19T12:59:36Z</time>
      </trkpt>
      <trkpt lat="45.05365" lon="4.95636">
        <ele>154.99200439453</ele>
        <time>2011-01-19T12:59:48Z</time>
      </trkpt>
      <trkpt lat="45.05353" lon="4.95523">
        <ele>154.88999938965</ele>
        <time>2011-01-19T13:00:00Z</time>
      </trkpt>
      <trkpt lat="45.05348" lon="4.95434">
        <ele>154.96200561523</ele>
        <time>2011-01-19T13:00:09Z</time>
      </trkpt>
      <trkpt lat="45.05353" lon="4.95377">
        <ele>153.67700195312</ele>
        <time>2011-01-19T13:00:15Z</time>
      </trkpt>
      <trkpt lat="45.0536" lon="4.95312">
        <ele>153.58599853516</ele>
        <time>2011-01-19T13:00:22Z</time>
      </trkpt>
      <trkpt lat="45.05367" lon="4.95245">
        <ele>151.38800048828</ele>
        <time>2011-01-19T13:00:29Z</time>
      </trkpt>
      <trkpt lat="45.05376" lon="4.95176">
        <ele>150.22700500488</ele>
        <time>2011-01-19T13:00:35Z</time>
      </trkpt>
      <trkpt lat="45.05386" lon="4.951">
        <ele>147.41600036621</ele>
        <time>2011-01-19T13:00:41Z</time>
      </trkpt>
      <trkpt lat="45.05388" lon="4.95065">
        <ele>146.71099853516</ele>
        <time>2011-01-19T13:00:44Z</time>
      </trkpt>
      <trkpt lat="45.05382" lon="4.95021">
        <ele>147.36500549316</ele>
        <time>2011-01-19T13:00:48Z</time>
      </trkpt>
      <trkpt lat="45.05365" lon="4.94964">
        <ele>147.04899597168</ele>
        <time>2011-01-19T13:00:54Z</time>
      </trkpt>
      <trkpt lat="45.05347" lon="4.94933">
        <ele>147.3630065918</ele>
        <time>2011-01-19T13:00:58Z</time>
      </trkpt>
      <trkpt lat="45.05305" lon="4.94888">
        <ele>146.74299621582</ele>
        <time>2011-01-19T13:01:05Z</time>
      </trkpt>
      <trkpt lat="45.05294" lon="4.94874">
        <ele>147.00799560547</ele>
        <time>2011-01-19T13:01:07Z</time>
      </trkpt>
      <trkpt lat="45.05278" lon="4.94842">
        <ele>148.08399963379</ele>
        <time>2011-01-19T13:01:11Z</time>
      </trkpt>
      <trkpt lat="45.05268" lon="4.94794">
        <ele>149.30299377441</ele>
        <time>2011-01-19T13:01:17Z</time>
      </trkpt>
      <trkpt lat="45.05266" lon="4.94779">
        <ele>149.82699584961</ele>
        <time>2011-01-19T13:01:19Z</time>
      </trkpt>
      <trkpt lat="45.05254" lon="4.94761">
        <ele>150.29100036621</ele>
        <time>2011-01-19T13:01:23Z</time>
      </trkpt>
      <trkpt lat="45.0525" lon="4.9476">
        <ele>150.48699951172</ele>
        <time>2011-01-19T13:01:24Z</time>
      </trkpt>
      <trkpt lat="45.05216" lon="4.94766">
        <ele>150.80799865723</ele>
        <time>2011-01-19T13:01:31Z</time>
      </trkpt>
      <trkpt lat="45.05209" lon="4.94766">
        <ele>150.75199890137</ele>
        <time>2011-01-19T13:01:32Z</time>
      </trkpt>
      <trkpt lat="45.05177" lon="4.94753">
        <ele>151.42100524902</ele>
        <time>2011-01-19T13:01:37Z</time>
      </trkpt>
      <trkpt lat="45.05132" lon="4.9473">
        <ele>150.63900756836</ele>
        <time>2011-01-19T13:01:44Z</time>
      </trkpt>
      <trkpt lat="45.05082" lon="4.94721">
        <ele>149.37800598144</ele>
        <time>2011-01-19T13:01:51Z</time>
      </trkpt>
      <trkpt lat="45.05028" lon="4.94713">
        <ele>148.31700134277</ele>
        <time>2011-01-19T13:01:58Z</time>
      </trkpt>
      <trkpt lat="45.04992" lon="4.94694">
        <ele>148.06300354004</ele>
        <time>2011-01-19T13:02:03Z</time>
      </trkpt>
      <trkpt lat="45.04958" lon="4.9467">
        <ele>148.00199890137</ele>
        <time>2011-01-19T13:02:08Z</time>
      </trkpt>
      <trkpt lat="45.0489" lon="4.94619">
        <ele>149.73100280762</ele>
        <time>2011-01-19T13:02:18Z</time>
      </trkpt>
      <trkpt lat="45.04844" lon="4.94583">
        <ele>148.12399291992</ele>
        <time>2011-01-19T13:02:25Z</time>
      </trkpt>
      <trkpt lat="45.04804" lon="4.94552">
        <ele>149.16299438477</ele>
        <time>2011-01-19T13:02:31Z</time>
      </trkpt>
      <trkpt lat="45.04749" lon="4.94507">
        <ele>147.78900146484</ele>
        <time>2011-01-19T13:02:39Z</time>
      </trkpt>
      <trkpt lat="45.04692" lon="4.94467">
        <ele>147.75999450684</ele>
        <time>2011-01-19T13:02:47Z</time>
      </trkpt>
      <trkpt lat="45.04615" lon="4.94427">
        <ele>147.35800170898</ele>
        <time>2011-01-19T13:02:57Z</time>
      </trkpt>
      <trkpt lat="45.04546" lon="4.94393">
        <ele>147.38600158691</ele>
        <time>2011-01-19T13:03:06Z</time>
      </trkpt>
      <trkpt lat="45.04492" lon="4.94365">
        <ele>149.86399841309</ele>
        <time>2011-01-19T13:03:13Z</time>
      </trkpt>
      <trkpt lat="45.04426" lon="4.94321">
        <ele>147.95599365234</ele>
        <time>2011-01-19T13:03:22Z</time>
      </trkpt>
      <trkpt lat="45.04374" lon="4.9427">
        <ele>148.19700622559</ele>
        <time>2011-01-19T13:03:30Z</time>
      </trkpt>
      <trkpt lat="45.04295" lon="4.94192">
        <ele>148.45799255371</ele>
        <time>2011-01-19T13:03:42Z</time>
      </trkpt>
      <trkpt lat="45.04229" lon="4.94125">
        <ele>147.76899719238</ele>
        <time>2011-01-19T13:03:52Z</time>
      </trkpt>
      <trkpt lat="45.04141" lon="4.94035">
        <ele>145.72900390625</ele>
        <time>2011-01-19T13:04:05Z</time>
      </trkpt>
      <trkpt lat="45.04073" lon="4.93967">
        <ele>146.5119934082</ele>
        <time>2011-01-19T13:04:15Z</time>
      </trkpt>
      <trkpt lat="45.04021" lon="4.93916">
        <ele>146.48199462891</ele>
        <time>2011-01-19T13:04:23Z</time>
      </trkpt>
      <trkpt lat="45.03961" lon="4.93848">
        <ele>148.52000427246</ele>
        <time>2011-01-19T13:04:33Z</time>
      </trkpt>
      <trkpt lat="45.03911" lon="4.93782">
        <ele>147.21699523926</ele>
        <time>2011-01-19T13:04:42Z</time>
      </trkpt>
      <trkpt lat="45.03866" lon="4.93736">
        <ele>145.69099426269</ele>
        <time>2011-01-19T13:04:49Z</time>
      </trkpt>
      <trkpt lat="45.03816" lon="4.93699">
        <ele>145.28199768066</ele>
        <time>2011-01-19T13:04:56Z</time>
      </trkpt>
      <trkpt lat="45.03746" lon="4.93644">
        <ele>145.0890045166</ele>
        <time>2011-01-19T13:05:06Z</time>
      </trkpt>
      <trkpt lat="45.03657" lon="4.93555">
        <ele>145.79699707031</ele>
        <time>2011-01-19T13:05:20Z</time>
      </trkpt>
      <trkpt lat="45.03601" lon="4.935">
        <ele>144.9640045166</ele>
        <time>2011-01-19T13:05:29Z</time>
      </trkpt>
      <trkpt lat="45.03551" lon="4.93448">
        <ele>144.54800415039</ele>
        <time>2011-01-19T13:05:37Z</time>
      </trkpt>
      <trkpt lat="45.03498" lon="4.93382">
        <ele>143.61399841309</ele>
        <time>2011-01-19T13:05:46Z</time>
      </trkpt>
      <trkpt lat="45.03435" lon="4.93296">
        <ele>143.30000305176</ele>
        <time>2011-01-19T13:05:57Z</time>
      </trkpt>
      <trkpt lat="45.03396" lon="4.93246">
        <ele>142.19599914551</ele>
        <time>2011-01-19T13:06:04Z</time>
      </trkpt>
      <trkpt lat="45.03353" lon="4.93194">
        <ele>142.2619934082</ele>
        <time>2011-01-19T13:06:12Z</time>
      </trkpt>
      <trkpt lat="45.03302" lon="4.93148">
        <ele>141.72099304199</ele>
        <time>2011-01-19T13:06:20Z</time>
      </trkpt>
      <trkpt lat="45.03256" lon="4.93113">
        <ele>142.59399414062</ele>
        <time>2011-01-19T13:06:27Z</time>
      </trkpt>
      <trkpt lat="45.03221" lon="4.93084">
        <ele>141.78199768066</ele>
        <time>2011-01-19T13:06:33Z</time>
      </trkpt>
      <trkpt lat="45.03208" lon="4.93059">
        <ele>141.71699523926</ele>
        <time>2011-01-19T13:06:37Z</time>
      </trkpt>
      <trkpt lat="45.03192" lon="4.93036">
        <ele>141.38000488281</ele>
        <time>2011-01-19T13:06:41Z</time>
      </trkpt>
      <trkpt lat="45.03174" lon="4.93025">
        <ele>141.52699279785</ele>
        <time>2011-01-19T13:06:44Z</time>
      </trkpt>
      <trkpt lat="45.03143" lon="4.9299">
        <ele>141.75399780273</ele>
        <time>2011-01-19T13:06:50Z</time>
      </trkpt>
      <trkpt lat="45.03099" lon="4.92925">
        <ele>142.17100524902</ele>
        <time>2011-01-19T13:06:59Z</time>
      </trkpt>
      <trkpt lat="45.03071" lon="4.92864">
        <ele>142.375</ele>
        <time>2011-01-19T13:07:06Z</time>
      </trkpt>
      <trkpt lat="45.03037" lon="4.92795">
        <ele>142.49000549316</ele>
        <time>2011-01-19T13:07:14Z</time>
      </trkpt>
      <trkpt lat="45.02996" lon="4.92725">
        <ele>141.71299743652</ele>
        <time>2011-01-19T13:07:23Z</time>
      </trkpt>
      <trkpt lat="45.0295" lon="4.92647">
        <ele>143.38200378418</ele>
        <time>2011-01-19T13:07:33Z</time>
      </trkpt>
      <trkpt lat="45.02905" lon="4.92572">
        <ele>142.00700378418</ele>
        <time>2011-01-19T13:07:43Z</time>
      </trkpt>
      <trkpt lat="45.02861" lon="4.92502">
        <ele>140.60299682617</ele>
        <time>2011-01-19T13:07:52Z</time>
      </trkpt>
      <trkpt lat="45.02804" lon="4.92413">
        <ele>141.36099243164</ele>
        <time>2011-01-19T13:08:03Z</time>
      </trkpt>
      <trkpt lat="45.02742" lon="4.92317">
        <ele>140.95799255371</ele>
        <time>2011-01-19T13:08:15Z</time>
      </trkpt>
      <trkpt lat="45.02711" lon="4.92263">
        <ele>138.57099914551</ele>
        <time>2011-01-19T13:08:21Z</time>
      </trkpt>
      <trkpt lat="45.02692" lon="4.92208">
        <ele>138.45899963379</ele>
        <time>2011-01-19T13:08:26Z</time>
      </trkpt>
      <trkpt lat="45.02685" lon="4.92184">
        <ele>139.07099914551</ele>
        <time>2011-01-19T13:08:28Z</time>
      </trkpt>
      <trkpt lat="45.02659" lon="4.92071">
        <ele>133.64700317383</ele>
        <time>2011-01-19T13:08:37Z</time>
      </trkpt>
      <trkpt lat="45.02645" lon="4.91989">
        <ele>134.46699523926</ele>
        <time>2011-01-19T13:08:44Z</time>
      </trkpt>
      <trkpt lat="45.02627" lon="4.91873">
        <ele>135.40800476074</ele>
        <time>2011-01-19T13:08:55Z</time>
      </trkpt>
      <trkpt lat="45.02603" lon="4.91725">
        <ele>134.57600402832</ele>
        <time>2011-01-19T13:09:09Z</time>
      </trkpt>
      <trkpt lat="45.0258" lon="4.91621">
        <ele>135.80000305176</ele>
        <time>2011-01-19T13:09:19Z</time>
      </trkpt>
      <trkpt lat="45.02578" lon="4.91611">
        <ele>136.05700683594</ele>
        <time>2011-01-19T13:09:20Z</time>
      </trkpt>
      <trkpt lat="45.02554" lon="4.91518">
        <ele>132.80200195312</ele>
        <time>2011-01-19T13:09:30Z</time>
      </trkpt>
      <trkpt lat="45.02534" lon="4.91432">
        <ele>133.55999755859</ele>
        <time>2011-01-19T13:09:39Z</time>
      </trkpt>
      <trkpt lat="45.02524" lon="4.91382">
        <ele>134.87100219727</ele>
        <time>2011-01-19T13:09:44Z</time>
      </trkpt>
      <trkpt lat="45.02517" lon="4.91352">
        <ele>133.2380065918</ele>
        <time>2011-01-19T13:09:47Z</time>
      </trkpt>
      <trkpt lat="45.02505" lon="4.91302">
        <ele>134.27299499512</ele>
        <time>2011-01-19T13:09:52Z</time>
      </trkpt>
      <trkpt lat="45.02474" lon="4.91192">
        <ele>133.32600402832</ele>
        <time>2011-01-19T13:10:03Z</time>
      </trkpt>
      <trkpt lat="45.02444" lon="4.91093">
        <ele>133.75900268555</ele>
        <time>2011-01-19T13:10:13Z</time>
      </trkpt>
      <trkpt lat="45.02415" lon="4.90994">
        <ele>132.84199523926</ele>
        <time>2011-01-19T13:10:23Z</time>
      </trkpt>
      <trkpt lat="45.02379" lon="4.90874">
        <ele>132.47900390625</ele>
        <time>2011-01-19T13:10:35Z</time>
      </trkpt>
      <trkpt lat="45.02345" lon="4.90758">
        <ele>132.10800170898</ele>
        <time>2011-01-19T13:10:46Z</time>
      </trkpt>
      <trkpt lat="45.0232" lon="4.90667">
        <ele>132.12800598144</ele>
        <time>2011-01-19T13:10:55Z</time>
      </trkpt>
      <trkpt lat="45.02294" lon="4.90556">
        <ele>134.81799316406</ele>
        <time>2011-01-19T13:11:07Z</time>
      </trkpt>
      <trkpt lat="45.02275" lon="4.90469">
        <ele>135.47799682617</ele>
        <time>2011-01-19T13:11:16Z</time>
      </trkpt>
      <trkpt lat="45.0226" lon="4.90375">
        <ele>136.61000061035</ele>
        <time>2011-01-19T13:11:25Z</time>
      </trkpt>
      <trkpt lat="45.02248" lon="4.90295">
        <ele>136.16600036621</ele>
        <time>2011-01-19T13:11:33Z</time>
      </trkpt>
      <trkpt lat="45.02228" lon="4.90209">
        <ele>136.46499633789</ele>
        <time>2011-01-19T13:11:42Z</time>
      </trkpt>
      <trkpt lat="45.02203" lon="4.90136">
        <ele>136.44400024414</ele>
        <time>2011-01-19T13:11:50Z</time>
      </trkpt>
      <trkpt lat="45.02166" lon="4.90034">
        <ele>136.90400695801</ele>
        <time>2011-01-19T13:12:01Z</time>
      </trkpt>
      <trkpt lat="45.02128" lon="4.89929">
        <ele>136.57000732422</ele>
        <time>2011-01-19T13:12:12Z</time>
      </trkpt>
      <trkpt lat="45.02093" lon="4.89834">
        <ele>136.72399902344</ele>
        <time>2011-01-19T13:12:22Z</time>
      </trkpt>
      <trkpt lat="45.02053" lon="4.89726">
        <ele>136.43699645996</ele>
        <time>2011-01-19T13:12:33Z</time>
      </trkpt>
      <trkpt lat="45.02028" lon="4.89656">
        <ele>136.97399902344</ele>
        <time>2011-01-19T13:12:40Z</time>
      </trkpt>
      <trkpt lat="45.0201" lon="4.89606">
        <ele>135.89700317383</ele>
        <time>2011-01-19T13:12:45Z</time>
      </trkpt>
      <trkpt lat="45.0197" lon="4.89496">
        <ele>135.65100097656</ele>
        <time>2011-01-19T13:12:56Z</time>
      </trkpt>
      <trkpt lat="45.01954" lon="4.89456">
        <ele>134.43200683594</ele>
        <time>2011-01-19T13:13:00Z</time>
      </trkpt>
      <trkpt lat="45.01917" lon="4.89352">
        <ele>133.03300476074</ele>
        <time>2011-01-19T13:13:10Z</time>
      </trkpt>
      <trkpt lat="45.01882" lon="4.89256">
        <ele>130.63800048828</ele>
        <time>2011-01-19T13:13:19Z</time>
      </trkpt>
      <trkpt lat="45.01842" lon="4.89145">
        <ele>130.36799621582</ele>
        <time>2011-01-19T13:13:29Z</time>
      </trkpt>
      <trkpt lat="45.0181" lon="4.8905">
        <ele>131.08099365234</ele>
        <time>2011-01-19T13:13:38Z</time>
      </trkpt>
      <trkpt lat="45.0178" lon="4.8896">
        <ele>131.33500671387</ele>
        <time>2011-01-19T13:13:47Z</time>
      </trkpt>
      <trkpt lat="45.0174" lon="4.88848">
        <ele>130.83500671387</ele>
        <time>2011-01-19T13:13:58Z</time>
      </trkpt>
      <trkpt lat="45.01712" lon="4.88789">
        <ele>130.7140045166</ele>
        <time>2011-01-19T13:14:04Z</time>
      </trkpt>
      <trkpt lat="45.01663" lon="4.88722">
        <ele>130.97900390625</ele>
        <time>2011-01-19T13:14:12Z</time>
      </trkpt>
      <trkpt lat="45.01616" lon="4.88656">
        <ele>129.84199523926</ele>
        <time>2011-01-19T13:14:20Z</time>
      </trkpt>
      <trkpt lat="45.01569" lon="4.88574">
        <ele>131.01800537109</ele>
        <time>2011-01-19T13:14:29Z</time>
      </trkpt>
      <trkpt lat="45.01558" lon="4.88556">
        <ele>129.61700439453</ele>
        <time>2011-01-19T13:14:31Z</time>
      </trkpt>
      <trkpt lat="45.01506" lon="4.88463">
        <ele>131.33000183106</ele>
        <time>2011-01-19T13:14:41Z</time>
      </trkpt>
      <trkpt lat="45.01464" lon="4.88392">
        <ele>130.15800476074</ele>
        <time>2011-01-19T13:14:49Z</time>
      </trkpt>
      <trkpt lat="45.01412" lon="4.88298">
        <ele>129.95599365234</ele>
        <time>2011-01-19T13:14:59Z</time>
      </trkpt>
      <trkpt lat="45.01352" lon="4.88182">
        <ele>129.42199707031</ele>
        <time>2011-01-19T13:15:11Z</time>
      </trkpt>
      <trkpt lat="45.01299" lon="4.88083">
        <ele>129.44799804688</ele>
        <time>2011-01-19T13:15:21Z</time>
      </trkpt>
      <trkpt lat="45.01251" lon="4.87991">
        <ele>130.05999755859</ele>
        <time>2011-01-19T13:15:30Z</time>
      </trkpt>
      <trkpt lat="45.01227" lon="4.87925">
        <ele>129.35000610352</ele>
        <time>2011-01-19T13:15:36Z</time>
      </trkpt>
      <trkpt lat="45.01223" lon="4.87914">
        <ele>129.32499694824</ele>
        <time>2011-01-19T13:15:37Z</time>
      </trkpt>
      <trkpt lat="45.0118" lon="4.87788">
        <ele>130.04899597168</ele>
        <time>2011-01-19T13:15:48Z</time>
      </trkpt>
      <trkpt lat="45.01149" lon="4.87699">
        <ele>130.14199829102</ele>
        <time>2011-01-19T13:15:56Z</time>
      </trkpt>
      <trkpt lat="45.01119" lon="4.87616">
        <ele>131.77099609375</ele>
        <time>2011-01-19T13:16:04Z</time>
      </trkpt>
      <trkpt lat="45.01115" lon="4.87606">
        <ele>132.06700134277</ele>
        <time>2011-01-19T13:16:05Z</time>
      </trkpt>
      <trkpt lat="45.01082" lon="4.87512">
        <ele>132.20300292969</ele>
        <time>2011-01-19T13:16:14Z</time>
      </trkpt>
      <trkpt lat="45.01059" lon="4.87443">
        <ele>129.36599731445</ele>
        <time>2011-01-19T13:16:20Z</time>
      </trkpt>
      <trkpt lat="45.01022" lon="4.87342">
        <ele>129.49299621582</ele>
        <time>2011-01-19T13:16:29Z</time>
      </trkpt>
      <trkpt lat="45.00986" lon="4.87242">
        <ele>128.40800476074</ele>
        <time>2011-01-19T13:16:38Z</time>
      </trkpt>
      <trkpt lat="45.00951" lon="4.87142">
        <ele>127.49099731445</ele>
        <time>2011-01-19T13:16:47Z</time>
      </trkpt>
      <trkpt lat="45.0094" lon="4.87112">
        <ele>127.31099700928</ele>
        <time>2011-01-19T13:16:50Z</time>
      </trkpt>
      <trkpt lat="45.00933" lon="4.87084">
        <ele>126.95300292969</ele>
        <time>2011-01-19T13:16:54Z</time>
      </trkpt>
      <trkpt lat="45.0093" lon="4.87072">
        <ele>126.68800354004</ele>
        <time>2011-01-19T13:16:58Z</time>
      </trkpt>
      <trkpt lat="45.00929" lon="4.87071">
        <ele>126.44400024414</ele>
        <time>2011-01-19T13:17:01Z</time>
      </trkpt>
      <trkpt lat="45.00928" lon="4.87078">
        <ele>126.94300079346</ele>
        <time>2011-01-19T13:19:22Z</time>
      </trkpt>
      <trkpt lat="45.00928" lon="4.87078">
        <ele>126.95500183106</ele>
        <time>2011-01-19T13:19:23Z</time>
      </trkpt>
      <trkpt lat="45.00923" lon="4.8707">
        <ele>126.98899841309</ele>
        <time>2011-01-19T13:19:29Z</time>
      </trkpt>
      <trkpt lat="45.00918" lon="4.87056">
        <ele>126.98899841309</ele>
        <time>2011-01-19T13:19:32Z</time>
      </trkpt>
      <trkpt lat="45.00909" lon="4.87026">
        <ele>126.34300231934</ele>
        <time>2011-01-19T13:19:37Z</time>
      </trkpt>
      <trkpt lat="45.00909" lon="4.86996">
        <ele>125.87899780273</ele>
        <time>2011-01-19T13:19:41Z</time>
      </trkpt>
      <trkpt lat="45.00909" lon="4.86962">
        <ele>126.81700134277</ele>
        <time>2011-01-19T13:19:46Z</time>
      </trkpt>
      <trkpt lat="45.009" lon="4.86952">
        <ele>125.56099700928</ele>
        <time>2011-01-19T13:19:48Z</time>
      </trkpt>
      <trkpt lat="45.00883" lon="4.86938">
        <ele>124.80200195312</ele>
        <time>2011-01-19T13:19:51Z</time>
      </trkpt>
      <trkpt lat="45.00866" lon="4.86909">
        <ele>125.79000091553</ele>
        <time>2011-01-19T13:19:55Z</time>
      </trkpt>
      <trkpt lat="45.0086" lon="4.86895">
        <ele>125.87200164795</ele>
        <time>2011-01-19T13:19:57Z</time>
      </trkpt>
      <trkpt lat="45.00843" lon="4.86861">
        <ele>125.91899871826</ele>
        <time>2011-01-19T13:20:03Z</time>
      </trkpt>
      <trkpt lat="45.00843" lon="4.86854">
        <ele>126.2440032959</ele>
        <time>2011-01-19T13:20:04Z</time>
      </trkpt>
      <trkpt lat="45.00841" lon="4.86809">
        <ele>126.90100097656</ele>
        <time>2011-01-19T13:20:10Z</time>
      </trkpt>
      <trkpt lat="45.00839" lon="4.86744">
        <ele>127.62799835205</ele>
        <time>2011-01-19T13:20:18Z</time>
      </trkpt>
      <trkpt lat="45.00829" lon="4.86667">
        <ele>126.79499816894</ele>
        <time>2011-01-19T13:20:27Z</time>
      </trkpt>
      <trkpt lat="45.00818" lon="4.86594">
        <ele>127.02300262451</ele>
        <time>2011-01-19T13:20:35Z</time>
      </trkpt>
      <trkpt lat="45.00805" lon="4.86528">
        <ele>126.95300292969</ele>
        <time>2011-01-19T13:20:42Z</time>
      </trkpt>
      <trkpt lat="45.00793" lon="4.86469">
        <ele>126.43099975586</ele>
        <time>2011-01-19T13:20:48Z</time>
      </trkpt>
      <trkpt lat="45.00776" lon="4.86385">
        <ele>126.9049987793</ele>
        <time>2011-01-19T13:20:56Z</time>
      </trkpt>
      <trkpt lat="45.00773" lon="4.86375">
        <ele>127.01300048828</ele>
        <time>2011-01-19T13:20:57Z</time>
      </trkpt>
      <trkpt lat="45.00773" lon="4.86311">
        <ele>127.33599853516</ele>
        <time>2011-01-19T13:21:03Z</time>
      </trkpt>
      <trkpt lat="45.00781" lon="4.86196">
        <ele>126.31800079346</ele>
        <time>2011-01-19T13:21:14Z</time>
      </trkpt>
      <trkpt lat="45.00788" lon="4.86113">
        <ele>127.3450012207</ele>
        <time>2011-01-19T13:21:22Z</time>
      </trkpt>
      <trkpt lat="45.0079" lon="4.86093">
        <ele>126.24900054932</ele>
        <time>2011-01-19T13:21:24Z</time>
      </trkpt>
      <trkpt lat="45.00785" lon="4.86066">
        <ele>125.08599853516</ele>
        <time>2011-01-19T13:21:27Z</time>
      </trkpt>
      <trkpt lat="45.00767" lon="4.86054">
        <ele>124.52700042725</ele>
        <time>2011-01-19T13:21:30Z</time>
      </trkpt>
      <trkpt lat="45.00753" lon="4.86052">
        <ele>124.38400268555</ele>
        <time>2011-01-19T13:21:32Z</time>
      </trkpt>
      <trkpt lat="45.00725" lon="4.86036">
        <ele>125.68199920654</ele>
        <time>2011-01-19T13:21:37Z</time>
      </trkpt>
      <trkpt lat="45.00719" lon="4.86012">
        <ele>127.2379989624</ele>
        <time>2011-01-19T13:21:40Z</time>
      </trkpt>
      <trkpt lat="45.00722" lon="4.85966">
        <ele>127.96499633789</ele>
        <time>2011-01-19T13:21:45Z</time>
      </trkpt>
      <trkpt lat="45.00733" lon="4.85952">
        <ele>128.91299438477</ele>
        <time>2011-01-19T13:21:47Z</time>
      </trkpt>
      <trkpt lat="45.00747" lon="4.85944">
        <ele>126.22599792481</ele>
        <time>2011-01-19T13:21:49Z</time>
      </trkpt>
      <trkpt lat="45.00777" lon="4.85935">
        <ele>122.70500183106</ele>
        <time>2011-01-19T13:21:53Z</time>
      </trkpt>
      <trkpt lat="45.00839" lon="4.85918">
        <ele>122.46700286865</ele>
        <time>2011-01-19T13:22:01Z</time>
      </trkpt>
      <trkpt lat="45.00909" lon="4.85898">
        <ele>122.48000335693</ele>
        <time>2011-01-19T13:22:10Z</time>
      </trkpt>
      <trkpt lat="45.00924" lon="4.85894">
        <ele>123.22799682617</ele>
        <time>2011-01-19T13:22:12Z</time>
      </trkpt>
      <trkpt lat="45.00952" lon="4.85886">
        <ele>121.38600158691</ele>
        <time>2011-01-19T13:22:16Z</time>
      </trkpt>
      <trkpt lat="45.01002" lon="4.85871">
        <ele>121.95300292969</ele>
        <time>2011-01-19T13:22:23Z</time>
      </trkpt>
      <trkpt lat="45.01078" lon="4.85843">
        <ele>121.76100158691</ele>
        <time>2011-01-19T13:22:34Z</time>
      </trkpt>
      <trkpt lat="45.01153" lon="4.85814">
        <ele>122.72100067139</ele>
        <time>2011-01-19T13:22:45Z</time>
      </trkpt>
      <trkpt lat="45.01207" lon="4.8579">
        <ele>122.93800354004</ele>
        <time>2011-01-19T13:22:53Z</time>
      </trkpt>
      <trkpt lat="45.01281" lon="4.85757">
        <ele>122.89900207519</ele>
        <time>2011-01-19T13:23:04Z</time>
      </trkpt>
      <trkpt lat="45.01345" lon="4.85727">
        <ele>123.00099945068</ele>
        <time>2011-01-19T13:23:14Z</time>
      </trkpt>
      <trkpt lat="45.01397" lon="4.85705">
        <ele>122.54399871826</ele>
        <time>2011-01-19T13:23:22Z</time>
      </trkpt>
      <trkpt lat="45.0145" lon="4.8568">
        <ele>124.41100311279</ele>
        <time>2011-01-19T13:23:31Z</time>
      </trkpt>
      <trkpt lat="45.01507" lon="4.85654">
        <ele>126.92500305176</ele>
        <time>2011-01-19T13:23:41Z</time>
      </trkpt>
      <trkpt lat="45.01518" lon="4.8565">
        <ele>127.65299987793</ele>
        <time>2011-01-19T13:23:43Z</time>
      </trkpt>
      <trkpt lat="45.01543" lon="4.85651">
        <ele>129.02099609375</ele>
        <time>2011-01-19T13:23:48Z</time>
      </trkpt>
      <trkpt lat="45.01558" lon="4.85638">
        <ele>130.55999755859</ele>
        <time>2011-01-19T13:23:52Z</time>
      </trkpt>
      <trkpt lat="45.01555" lon="4.85623">
        <ele>130.03900146484</ele>
        <time>2011-01-19T13:23:54Z</time>
      </trkpt>
      <trkpt lat="45.01538" lon="4.85573">
        <ele>129.24699401856</ele>
        <time>2011-01-19T13:24:00Z</time>
      </trkpt>
      <trkpt lat="45.01524" lon="4.85532">
        <ele>126.78199768066</ele>
        <time>2011-01-19T13:24:04Z</time>
      </trkpt>
      <trkpt lat="45.01492" lon="4.85449">
        <ele>126.6370010376</ele>
        <time>2011-01-19T13:24:12Z</time>
      </trkpt>
      <trkpt lat="45.01447" lon="4.85334">
        <ele>127.73100280762</ele>
        <time>2011-01-19T13:24:24Z</time>
      </trkpt>
      <trkpt lat="45.01412" lon="4.85249">
        <ele>127.06500244141</ele>
        <time>2011-01-19T13:24:32Z</time>
      </trkpt>
      <trkpt lat="45.0139" lon="4.85191">
        <ele>124.87699890137</ele>
        <time>2011-01-19T13:24:37Z</time>
      </trkpt>
      <trkpt lat="45.01366" lon="4.85128">
        <ele>121.72899627685</ele>
        <time>2011-01-19T13:24:42Z</time>
      </trkpt>
      <trkpt lat="45.01347" lon="4.85076">
        <ele>120.13899993897</ele>
        <time>2011-01-19T13:24:46Z</time>
      </trkpt>
      <trkpt lat="45.01325" lon="4.84999">
        <ele>118.44400024414</ele>
        <time>2011-01-19T13:24:52Z</time>
      </trkpt>
      <trkpt lat="45.01318" lon="4.84976">
        <ele>118.06199645996</ele>
        <time>2011-01-19T13:24:54Z</time>
      </trkpt>
      <trkpt lat="45.01305" lon="4.8491">
        <ele>117.99500274658</ele>
        <time>2011-01-19T13:25:00Z</time>
      </trkpt>
      <trkpt lat="45.01287" lon="4.84859">
        <ele>117.44999694824</ele>
        <time>2011-01-19T13:25:05Z</time>
      </trkpt>
      <trkpt lat="45.01259" lon="4.84789">
        <ele>117.78099822998</ele>
        <time>2011-01-19T13:25:12Z</time>
      </trkpt>
      <trkpt lat="45.01216" lon="4.84736">
        <ele>117.59899902344</ele>
        <time>2011-01-19T13:25:19Z</time>
      </trkpt>
      <trkpt lat="45.01151" lon="4.84659">
        <ele>116.39499664307</ele>
        <time>2011-01-19T13:25:29Z</time>
      </trkpt>
      <trkpt lat="45.01102" lon="4.84594">
        <ele>116.61399841309</ele>
        <time>2011-01-19T13:25:37Z</time>
      </trkpt>
      <trkpt lat="45.01096" lon="4.84585">
        <ele>116.49299621582</ele>
        <time>2011-01-19T13:25:38Z</time>
      </trkpt>
      <trkpt lat="45.01086" lon="4.84542">
        <ele>118.71199798584</ele>
        <time>2011-01-19T13:25:42Z</time>
      </trkpt>
      <trkpt lat="45.01077" lon="4.84511">
        <ele>117.59600067139</ele>
        <time>2011-01-19T13:25:45Z</time>
      </trkpt>
      <trkpt lat="45.01073" lon="4.84488">
        <ele>117.17199707031</ele>
        <time>2011-01-19T13:25:47Z</time>
      </trkpt>
      <trkpt lat="45.01074" lon="4.84403">
        <ele>116.15200042725</ele>
        <time>2011-01-19T13:25:54Z</time>
      </trkpt>
      <trkpt lat="45.0108" lon="4.84287">
        <ele>115.625</ele>
        <time>2011-01-19T13:26:04Z</time>
      </trkpt>
      <trkpt lat="45.01077" lon="4.8422">
        <ele>117.03199768066</ele>
        <time>2011-01-19T13:26:10Z</time>
      </trkpt>
      <trkpt lat="45.0108" lon="4.84178">
        <ele>116.62799835205</ele>
        <time>2011-01-19T13:26:14Z</time>
      </trkpt>
      <trkpt lat="45.01067" lon="4.84154">
        <ele>116.172996521</ele>
        <time>2011-01-19T13:26:17Z</time>
      </trkpt>
      <trkpt lat="45.01048" lon="4.84141">
        <ele>116.25399780273</ele>
        <time>2011-01-19T13:26:20Z</time>
      </trkpt>
      <trkpt lat="45.01041" lon="4.8414">
        <ele>116.31900024414</ele>
        <time>2011-01-19T13:26:21Z</time>
      </trkpt>
      <trkpt lat="45.01015" lon="4.84124">
        <ele>117.83599853516</ele>
        <time>2011-01-19T13:26:26Z</time>
      </trkpt>
      <trkpt lat="45.01011" lon="4.84103">
        <ele>120.22499847412</ele>
        <time>2011-01-19T13:26:29Z</time>
      </trkpt>
      <trkpt lat="45.01012" lon="4.84081">
        <ele>122.35800170898</ele>
        <time>2011-01-19T13:26:32Z</time>
      </trkpt>
      <trkpt lat="45.01019" lon="4.84032">
        <ele>122.78399658203</ele>
        <time>2011-01-19T13:26:38Z</time>
      </trkpt>
      <trkpt lat="45.01026" lon="4.83989">
        <ele>123.30999755859</ele>
        <time>2011-01-19T13:26:43Z</time>
      </trkpt>
      <trkpt lat="45.01041" lon="4.83904">
        <ele>123.88899993897</ele>
        <time>2011-01-19T13:26:52Z</time>
      </trkpt>
      <trkpt lat="45.01042" lon="4.83895">
        <ele>124.13400268555</ele>
        <time>2011-01-19T13:26:53Z</time>
      </trkpt>
      <trkpt lat="45.01059" lon="4.83793">
        <ele>123.49900054932</ele>
        <time>2011-01-19T13:27:03Z</time>
      </trkpt>
      <trkpt lat="45.01068" lon="4.83756">
        <ele>121.11499786377</ele>
        <time>2011-01-19T13:27:06Z</time>
      </trkpt>
      <trkpt lat="45.01091" lon="4.83702">
        <ele>121.6070022583</ele>
        <time>2011-01-19T13:27:11Z</time>
      </trkpt>
      <trkpt lat="45.01125" lon="4.83641">
        <ele>119.36799621582</ele>
        <time>2011-01-19T13:27:18Z</time>
      </trkpt>
      <trkpt lat="45.01148" lon="4.83601">
        <ele>120.01599884033</ele>
        <time>2011-01-19T13:27:23Z</time>
      </trkpt>
      <trkpt lat="45.01178" lon="4.83573">
        <ele>118.09100341797</ele>
        <time>2011-01-19T13:27:28Z</time>
      </trkpt>
      <trkpt lat="45.01208" lon="4.83568">
        <ele>116.74199676514</ele>
        <time>2011-01-19T13:27:32Z</time>
      </trkpt>
      <trkpt lat="45.01231" lon="4.83575">
        <ele>115.90599822998</ele>
        <time>2011-01-19T13:27:35Z</time>
      </trkpt>
      <trkpt lat="45.01302" lon="4.83611">
        <ele>115.57900238037</ele>
        <time>2011-01-19T13:27:45Z</time>
      </trkpt>
      <trkpt lat="45.01381" lon="4.83651">
        <ele>115.32099914551</ele>
        <time>2011-01-19T13:27:56Z</time>
      </trkpt>
      <trkpt lat="45.01437" lon="4.83679">
        <ele>115.8330001831</ele>
        <time>2011-01-19T13:28:04Z</time>
      </trkpt>
      <trkpt lat="45.01489" lon="4.83694">
        <ele>116.15699768066</ele>
        <time>2011-01-19T13:28:11Z</time>
      </trkpt>
      <trkpt lat="45.01532" lon="4.83689">
        <ele>115.87999725342</ele>
        <time>2011-01-19T13:28:17Z</time>
      </trkpt>
      <trkpt lat="45.01565" lon="4.83673">
        <ele>116.38500213623</ele>
        <time>2011-01-19T13:28:22Z</time>
      </trkpt>
      <trkpt lat="45.01628" lon="4.83632">
        <ele>117.16400146484</ele>
        <time>2011-01-19T13:28:32Z</time>
      </trkpt>
      <trkpt lat="45.01686" lon="4.83603">
        <ele>115.65599822998</ele>
        <time>2011-01-19T13:28:41Z</time>
      </trkpt>
      <trkpt lat="45.01737" lon="4.83578">
        <ele>116.80500030518</ele>
        <time>2011-01-19T13:28:49Z</time>
      </trkpt>
      <trkpt lat="45.01794" lon="4.83543">
        <ele>116.78700256348</ele>
        <time>2011-01-19T13:28:59Z</time>
      </trkpt>
      <trkpt lat="45.01833" lon="4.83517">
        <ele>116.51100158691</ele>
        <time>2011-01-19T13:29:06Z</time>
      </trkpt>
      <trkpt lat="45.0186" lon="4.8349">
        <ele>117.43599700928</ele>
        <time>2011-01-19T13:29:12Z</time>
      </trkpt>
      <trkpt lat="45.01865" lon="4.83485">
        <ele>117.91200256348</ele>
        <time>2011-01-19T13:29:13Z</time>
      </trkpt>
      <trkpt lat="45.01901" lon="4.83433">
        <ele>119.12200164795</ele>
        <time>2011-01-19T13:29:22Z</time>
      </trkpt>
      <trkpt lat="45.01914" lon="4.83407">
        <ele>119.77600097656</ele>
        <time>2011-01-19T13:29:27Z</time>
      </trkpt>
      <trkpt lat="45.01933" lon="4.83374">
        <ele>118.34700012207</ele>
        <time>2011-01-19T13:29:34Z</time>
      </trkpt>
      <trkpt lat="45.01942" lon="4.83357">
        <ele>117.53199768066</ele>
        <time>2011-01-19T13:29:39Z</time>
      </trkpt>
      <trkpt lat="45.01938" lon="4.83344">
        <ele>116.78299713135</ele>
        <time>2011-01-19T13:29:44Z</time>
      </trkpt>
      <trkpt lat="45.01922" lon="4.83334">
        <ele>115.77200317383</ele>
        <time>2011-01-19T13:29:48Z</time>
      </trkpt>
      <trkpt lat="45.01877" lon="4.83318">
        <ele>117.18099975586</ele>
        <time>2011-01-19T13:29:56Z</time>
      </trkpt>
      <trkpt lat="45.01817" lon="4.83302">
        <ele>118.75800323486</ele>
        <time>2011-01-19T13:30:06Z</time>
      </trkpt>
      <trkpt lat="45.01764" lon="4.83299">
        <ele>119.8570022583</ele>
        <time>2011-01-19T13:30:14Z</time>
      </trkpt>
      <trkpt lat="45.01712" lon="4.83302">
        <ele>120.11499786377</ele>
        <time>2011-01-19T13:30:21Z</time>
      </trkpt>
      <trkpt lat="45.01651" lon="4.83307">
        <ele>119.172996521</ele>
        <time>2011-01-19T13:30:28Z</time>
      </trkpt>
      <trkpt lat="45.01593" lon="4.83316">
        <ele>117.03500366211</ele>
        <time>2011-01-19T13:30:34Z</time>
      </trkpt>
      <trkpt lat="45.01518" lon="4.83328">
        <ele>114.52700042725</ele>
        <time>2011-01-19T13:30:41Z</time>
      </trkpt>
      <trkpt lat="45.01451" lon="4.83322">
        <ele>115.0419998169</ele>
        <time>2011-01-19T13:30:47Z</time>
      </trkpt>
      <trkpt lat="45.01354" lon="4.8331">
        <ele>115.13400268555</ele>
        <time>2011-01-19T13:30:56Z</time>
      </trkpt>
      <trkpt lat="45.01284" lon="4.83305">
        <ele>118.23400115967</ele>
        <time>2011-01-19T13:31:03Z</time>
      </trkpt>
      <trkpt lat="45.01228" lon="4.83312">
        <ele>119.22100067139</ele>
        <time>2011-01-19T13:31:09Z</time>
      </trkpt>
      <trkpt lat="45.01133" lon="4.83336">
        <ele>120.8690032959</ele>
        <time>2011-01-19T13:31:19Z</time>
      </trkpt>
      <trkpt lat="45.01075" lon="4.8335">
        <ele>122.96700286865</ele>
        <time>2011-01-19T13:31:25Z</time>
      </trkpt>
      <trkpt lat="45.00998" lon="4.83358">
        <ele>125.01100158691</ele>
        <time>2011-01-19T13:31:33Z</time>
      </trkpt>
      <trkpt lat="45.00948" lon="4.83349">
        <ele>126.24199676514</ele>
        <time>2011-01-19T13:31:38Z</time>
      </trkpt>
      <trkpt lat="45.00891" lon="4.83339">
        <ele>129.77200317383</ele>
        <time>2011-01-19T13:31:44Z</time>
      </trkpt>
      <trkpt lat="45.00847" lon="4.83347">
        <ele>130.0119934082</ele>
        <time>2011-01-19T13:31:49Z</time>
      </trkpt>
      <trkpt lat="45.00774" lon="4.83371">
        <ele>127.90699768066</ele>
        <time>2011-01-19T13:31:57Z</time>
      </trkpt>
      <trkpt lat="45.00666" lon="4.83411">
        <ele>126.63800048828</ele>
        <time>2011-01-19T13:32:08Z</time>
      </trkpt>
      <trkpt lat="45.00599" lon="4.8344">
        <ele>127.37799835205</ele>
        <time>2011-01-19T13:32:15Z</time>
      </trkpt>
      <trkpt lat="45.00537" lon="4.83482">
        <ele>127.61399841309</ele>
        <time>2011-01-19T13:32:22Z</time>
      </trkpt>
      <trkpt lat="45.00513" lon="4.83508">
        <ele>125.3809967041</ele>
        <time>2011-01-19T13:32:25Z</time>
      </trkpt>
      <trkpt lat="45.00478" lon="4.8356">
        <ele>124.74700164795</ele>
        <time>2011-01-19T13:32:30Z</time>
      </trkpt>
      <trkpt lat="45.00432" lon="4.83649">
        <ele>122.89399719238</ele>
        <time>2011-01-19T13:32:38Z</time>
      </trkpt>
      <trkpt lat="45.00383" lon="4.83744">
        <ele>119.87999725342</ele>
        <time>2011-01-19T13:32:47Z</time>
      </trkpt>
      <trkpt lat="45.00329" lon="4.83844">
        <ele>121.27400207519</ele>
        <time>2011-01-19T13:32:57Z</time>
      </trkpt>
      <trkpt lat="45.00276" lon="4.83916">
        <ele>121.83000183106</ele>
        <time>2011-01-19T13:33:05Z</time>
      </trkpt>
      <trkpt lat="45.00227" lon="4.8396">
        <ele>122.93299865723</ele>
        <time>2011-01-19T13:33:11Z</time>
      </trkpt>
      <trkpt lat="45.00179" lon="4.83986">
        <ele>123.01499938965</ele>
        <time>2011-01-19T13:33:16Z</time>
      </trkpt>
      <trkpt lat="45.00105" lon="4.84014">
        <ele>123.49299621582</ele>
        <time>2011-01-19T13:33:23Z</time>
      </trkpt>
      <trkpt lat="44.99996" lon="4.84053">
        <ele>122.91799926758</ele>
        <time>2011-01-19T13:33:33Z</time>
      </trkpt>
      <trkpt lat="44.99938" lon="4.84074">
        <ele>124.70999908447</ele>
        <time>2011-01-19T13:33:39Z</time>
      </trkpt>
      <trkpt lat="44.99884" lon="4.841">
        <ele>123.53500366211</ele>
        <time>2011-01-19T13:33:45Z</time>
      </trkpt>
      <trkpt lat="44.99867" lon="4.8411">
        <ele>124.26399993897</ele>
        <time>2011-01-19T13:33:47Z</time>
      </trkpt>
      <trkpt lat="44.99817" lon="4.8415">
        <ele>125.24099731445</ele>
        <time>2011-01-19T13:33:53Z</time>
      </trkpt>
      <trkpt lat="44.99734" lon="4.84222">
        <ele>125.87699890137</ele>
        <time>2011-01-19T13:34:03Z</time>
      </trkpt>
      <trkpt lat="44.99652" lon="4.84293">
        <ele>127.53600311279</ele>
        <time>2011-01-19T13:34:13Z</time>
      </trkpt>
      <trkpt lat="44.9956" lon="4.84372">
        <ele>126.28399658203</ele>
        <time>2011-01-19T13:34:24Z</time>
      </trkpt>
      <trkpt lat="44.99497" lon="4.84425">
        <ele>123.28099822998</ele>
        <time>2011-01-19T13:34:31Z</time>
      </trkpt>
      <trkpt lat="44.99421" lon="4.84489">
        <ele>121.9169998169</ele>
        <time>2011-01-19T13:34:39Z</time>
      </trkpt>
      <trkpt lat="44.99351" lon="4.84549">
        <ele>119.59300231934</ele>
        <time>2011-01-19T13:34:46Z</time>
      </trkpt>
      <trkpt lat="44.99289" lon="4.84603">
        <ele>118.76499938965</ele>
        <time>2011-01-19T13:34:52Z</time>
      </trkpt>
      <trkpt lat="44.99247" lon="4.84638">
        <ele>116.66899871826</ele>
        <time>2011-01-19T13:34:56Z</time>
      </trkpt>
      <trkpt lat="44.99189" lon="4.84676">
        <ele>116.21800231934</ele>
        <time>2011-01-19T13:35:01Z</time>
      </trkpt>
      <trkpt lat="44.99128" lon="4.84697">
        <ele>115.66500091553</ele>
        <time>2011-01-19T13:35:06Z</time>
      </trkpt>
      <trkpt lat="44.99032" lon="4.84724">
        <ele>116.3809967041</ele>
        <time>2011-01-19T13:35:14Z</time>
      </trkpt>
      <trkpt lat="44.98973" lon="4.84732">
        <ele>116.37400054932</ele>
        <time>2011-01-19T13:35:19Z</time>
      </trkpt>
      <trkpt lat="44.98884" lon="4.84737">
        <ele>116.26699829102</ele>
        <time>2011-01-19T13:35:27Z</time>
      </trkpt>
      <trkpt lat="44.98795" lon="4.84737">
        <ele>115.61100006103</ele>
        <time>2011-01-19T13:35:35Z</time>
      </trkpt>
      <trkpt lat="44.98694" lon="4.84741">
        <ele>115.85399627685</ele>
        <time>2011-01-19T13:35:44Z</time>
      </trkpt>
      <trkpt lat="44.98628" lon="4.84756">
        <ele>115.72499847412</ele>
        <time>2011-01-19T13:35:50Z</time>
      </trkpt>
      <trkpt lat="44.98553" lon="4.84785">
        <ele>114.98899841309</ele>
        <time>2011-01-19T13:35:57Z</time>
      </trkpt>
      <trkpt lat="44.98465" lon="4.84826">
        <ele>114.08200073242</ele>
        <time>2011-01-19T13:36:05Z</time>
      </trkpt>
      <trkpt lat="44.98379" lon="4.84883">
        <ele>113.91000366211</ele>
        <time>2011-01-19T13:36:13Z</time>
      </trkpt>
      <trkpt lat="44.98303" lon="4.84928">
        <ele>114.21800231934</ele>
        <time>2011-01-19T13:36:20Z</time>
      </trkpt>
      <trkpt lat="44.98213" lon="4.84957">
        <ele>115.94799804688</ele>
        <time>2011-01-19T13:36:28Z</time>
      </trkpt>
      <trkpt lat="44.98145" lon="4.84979">
        <ele>118.11599731445</ele>
        <time>2011-01-19T13:36:35Z</time>
      </trkpt>
      <trkpt lat="44.98076" lon="4.85002">
        <ele>120.29699707031</ele>
        <time>2011-01-19T13:36:43Z</time>
      </trkpt>
      <trkpt lat="44.9802" lon="4.85021">
        <ele>119.12599945068</ele>
        <time>2011-01-19T13:36:49Z</time>
      </trkpt>
      <trkpt lat="44.97967" lon="4.85039">
        <ele>116.75199890137</ele>
        <time>2011-01-19T13:36:54Z</time>
      </trkpt>
      <trkpt lat="44.97924" lon="4.85053">
        <ele>118.07199859619</ele>
        <time>2011-01-19T13:36:58Z</time>
      </trkpt>
      <trkpt lat="44.97883" lon="4.85066">
        <ele>118.71900177002</ele>
        <time>2011-01-19T13:37:02Z</time>
      </trkpt>
      <trkpt lat="44.97873" lon="4.85069">
        <ele>118.84100341797</ele>
        <time>2011-01-19T13:37:03Z</time>
      </trkpt>
      <trkpt lat="44.97799" lon="4.85094">
        <ele>118.57099914551</ele>
        <time>2011-01-19T13:37:11Z</time>
      </trkpt>
      <trkpt lat="44.97731" lon="4.85116">
        <ele>120.4700012207</ele>
        <time>2011-01-19T13:37:19Z</time>
      </trkpt>
      <trkpt lat="44.97655" lon="4.85142">
        <ele>120.63899993897</ele>
        <time>2011-01-19T13:37:28Z</time>
      </trkpt>
      <trkpt lat="44.97583" lon="4.85165">
        <ele>117.58399963379</ele>
        <time>2011-01-19T13:37:35Z</time>
      </trkpt>
      <trkpt lat="44.97504" lon="4.85183">
        <ele>118.60199737549</ele>
        <time>2011-01-19T13:37:42Z</time>
      </trkpt>
      <trkpt lat="44.9744" lon="4.85185">
        <ele>118.49299621582</ele>
        <time>2011-01-19T13:37:48Z</time>
      </trkpt>
      <trkpt lat="44.97373" lon="4.85179">
        <ele>120.80899810791</ele>
        <time>2011-01-19T13:37:55Z</time>
      </trkpt>
      <trkpt lat="44.97298" lon="4.85178">
        <ele>121.96800231934</ele>
        <time>2011-01-19T13:38:03Z</time>
      </trkpt>
      <trkpt lat="44.97223" lon="4.8518">
        <ele>123.67700195312</ele>
        <time>2011-01-19T13:38:11Z</time>
      </trkpt>
      <trkpt lat="44.97179" lon="4.85166">
        <ele>124.34200286865</ele>
        <time>2011-01-19T13:38:16Z</time>
      </trkpt>
      <trkpt lat="44.97107" lon="4.85129">
        <ele>125.96499633789</ele>
        <time>2011-01-19T13:38:25Z</time>
      </trkpt>
      <trkpt lat="44.97028" lon="4.85087">
        <ele>127.23500061035</ele>
        <time>2011-01-19T13:38:35Z</time>
      </trkpt>
      <trkpt lat="44.96957" lon="4.85055">
        <ele>127.8690032959</ele>
        <time>2011-01-19T13:38:44Z</time>
      </trkpt>
      <trkpt lat="44.96892" lon="4.85039">
        <ele>129.35299682617</ele>
        <time>2011-01-19T13:38:52Z</time>
      </trkpt>
      <trkpt lat="44.96809" lon="4.85014">
        <ele>130.1369934082</ele>
        <time>2011-01-19T13:39:02Z</time>
      </trkpt>
      <trkpt lat="44.96722" lon="4.84989">
        <ele>130.10299682617</ele>
        <time>2011-01-19T13:39:12Z</time>
      </trkpt>
      <trkpt lat="44.9664" lon="4.84964">
        <ele>130.62399291992</ele>
        <time>2011-01-19T13:39:21Z</time>
      </trkpt>
      <trkpt lat="44.96557" lon="4.84937">
        <ele>130.32499694824</ele>
        <time>2011-01-19T13:39:30Z</time>
      </trkpt>
      <trkpt lat="44.96482" lon="4.84915">
        <ele>130.03799438477</ele>
        <time>2011-01-19T13:39:38Z</time>
      </trkpt>
      <trkpt lat="44.96445" lon="4.84904">
        <ele>131.43600463867</ele>
        <time>2011-01-19T13:39:42Z</time>
      </trkpt>
      <trkpt lat="44.9639" lon="4.84888">
        <ele>130.83999633789</ele>
        <time>2011-01-19T13:39:48Z</time>
      </trkpt>
      <trkpt lat="44.96345" lon="4.84875">
        <ele>132.52099609375</ele>
        <time>2011-01-19T13:39:53Z</time>
      </trkpt>
      <trkpt lat="44.96264" lon="4.8485">
        <ele>132.05000305176</ele>
        <time>2011-01-19T13:40:02Z</time>
      </trkpt>
      <trkpt lat="44.96201" lon="4.84831">
        <ele>132.59300231934</ele>
        <time>2011-01-19T13:40:09Z</time>
      </trkpt>
      <trkpt lat="44.96129" lon="4.84808">
        <ele>132.22200012207</ele>
        <time>2011-01-19T13:40:17Z</time>
      </trkpt>
      <trkpt lat="44.9605" lon="4.84785">
        <ele>133.46800231934</ele>
        <time>2011-01-19T13:40:26Z</time>
      </trkpt>
      <trkpt lat="44.95998" lon="4.84764">
        <ele>134.8390045166</ele>
        <time>2011-01-19T13:40:32Z</time>
      </trkpt>
      <trkpt lat="44.9597" lon="4.84755">
        <ele>133.03799438477</ele>
        <time>2011-01-19T13:40:35Z</time>
      </trkpt>
      <trkpt lat="44.95912" lon="4.84742">
        <ele>132.80299377441</ele>
        <time>2011-01-19T13:40:41Z</time>
      </trkpt>
      <trkpt lat="44.95833" lon="4.84717">
        <ele>131.92999267578</ele>
        <time>2011-01-19T13:40:49Z</time>
      </trkpt>
      <trkpt lat="44.95742" lon="4.84688">
        <ele>134.06300354004</ele>
        <time>2011-01-19T13:40:58Z</time>
      </trkpt>
      <trkpt lat="44.95693" lon="4.84671">
        <ele>133.45300292969</ele>
        <time>2011-01-19T13:41:03Z</time>
      </trkpt>
      <trkpt lat="44.95611" lon="4.84642">
        <ele>132.98500061035</ele>
        <time>2011-01-19T13:41:11Z</time>
      </trkpt>
      <trkpt lat="44.95519" lon="4.84606">
        <ele>133.11099243164</ele>
        <time>2011-01-19T13:41:20Z</time>
      </trkpt>
      <trkpt lat="44.95426" lon="4.84567">
        <ele>133.20599365234</ele>
        <time>2011-01-19T13:41:29Z</time>
      </trkpt>
      <trkpt lat="44.95334" lon="4.84528">
        <ele>133.81399536133</ele>
        <time>2011-01-19T13:41:38Z</time>
      </trkpt>
      <trkpt lat="44.95303" lon="4.84515">
        <ele>132.24600219727</ele>
        <time>2011-01-19T13:41:41Z</time>
      </trkpt>
      <trkpt lat="44.95211" lon="4.84477">
        <ele>133.71099853516</ele>
        <time>2011-01-19T13:41:50Z</time>
      </trkpt>
      <trkpt lat="44.95135" lon="4.84446">
        <ele>133.32000732422</ele>
        <time>2011-01-19T13:41:58Z</time>
      </trkpt>
      <trkpt lat="44.95086" lon="4.84426">
        <ele>133.71200561523</ele>
        <time>2011-01-19T13:42:04Z</time>
      </trkpt>
      <trkpt lat="44.95045" lon="4.84409">
        <ele>135.00100708008</ele>
        <time>2011-01-19T13:42:10Z</time>
      </trkpt>
      <trkpt lat="44.95028" lon="4.844">
        <ele>134.88200378418</ele>
        <time>2011-01-19T13:42:14Z</time>
      </trkpt>
      <trkpt lat="44.95022" lon="4.84397">
        <ele>134.8690032959</ele>
        <time>2011-01-19T13:42:18Z</time>
      </trkpt>
      <trkpt lat="44.95021" lon="4.84397">
        <ele>134.8869934082</ele>
        <time>2011-01-19T13:42:20Z</time>
      </trkpt>
      <trkpt lat="44.95018" lon="4.84396">
        <ele>134.74299621582</ele>
        <time>2011-01-19T13:42:37Z</time>
      </trkpt>
      <trkpt lat="44.95015" lon="4.84394">
        <ele>134.72799682617</ele>
        <time>2011-01-19T13:42:38Z</time>
      </trkpt>
      <trkpt lat="44.95002" lon="4.84389">
        <ele>136.1309967041</ele>
        <time>2011-01-19T13:42:43Z</time>
      </trkpt>
      <trkpt lat="44.94999" lon="4.84388">
        <ele>136.19099426269</ele>
        <time>2011-01-19T13:42:44Z</time>
      </trkpt>
      <trkpt lat="44.9496" lon="4.84373">
        <ele>135.61399841309</ele>
        <time>2011-01-19T13:42:52Z</time>
      </trkpt>
      <trkpt lat="44.94912" lon="4.84354">
        <ele>136.66299438477</ele>
        <time>2011-01-19T13:43:00Z</time>
      </trkpt>
      <trkpt lat="44.94886" lon="4.84344">
        <ele>137.17399597168</ele>
        <time>2011-01-19T13:43:04Z</time>
      </trkpt>
      <trkpt lat="44.94852" lon="4.84345">
        <ele>135.8869934082</ele>
        <time>2011-01-19T13:43:09Z</time>
      </trkpt>
      <trkpt lat="44.94823" lon="4.84359">
        <ele>134.79400634766</ele>
        <time>2011-01-19T13:43:13Z</time>
      </trkpt>
      <trkpt lat="44.94815" lon="4.84359">
        <ele>134.68600463867</ele>
        <time>2011-01-19T13:43:14Z</time>
      </trkpt>
      <trkpt lat="44.94757" lon="4.8436">
        <ele>133.69700622559</ele>
        <time>2011-01-19T13:43:21Z</time>
      </trkpt>
      <trkpt lat="44.94712" lon="4.84371">
        <ele>133.19200134277</ele>
        <time>2011-01-19T13:43:26Z</time>
      </trkpt>
      <trkpt lat="44.94652" lon="4.84391">
        <ele>133.78300476074</ele>
        <time>2011-01-19T13:43:33Z</time>
      </trkpt>
      <trkpt lat="44.94635" lon="4.84396">
        <ele>134.22900390625</ele>
        <time>2011-01-19T13:43:35Z</time>
      </trkpt>
      <trkpt lat="44.94603" lon="4.84399">
        <ele>133.97399902344</ele>
        <time>2011-01-19T13:43:39Z</time>
      </trkpt>
      <trkpt lat="44.94591" lon="4.8439">
        <ele>133.27499389648</ele>
        <time>2011-01-19T13:43:42Z</time>
      </trkpt>
      <trkpt lat="44.94584" lon="4.84379">
        <ele>132.9640045166</ele>
        <time>2011-01-19T13:43:44Z</time>
      </trkpt>
      <trkpt lat="44.94574" lon="4.84357">
        <ele>133.23100280762</ele>
        <time>2011-01-19T13:43:47Z</time>
      </trkpt>
      <trkpt lat="44.94559" lon="4.84328">
        <ele>133.41799926758</ele>
        <time>2011-01-19T13:43:51Z</time>
      </trkpt>
      <trkpt lat="44.94531" lon="4.84278">
        <ele>132.44400024414</ele>
        <time>2011-01-19T13:43:58Z</time>
      </trkpt>
      <trkpt lat="44.94504" lon="4.8424">
        <ele>132.1130065918</ele>
        <time>2011-01-19T13:44:04Z</time>
      </trkpt>
      <trkpt lat="44.94478" lon="4.84211">
        <ele>132.29400634766</ele>
        <time>2011-01-19T13:44:09Z</time>
      </trkpt>
      <trkpt lat="44.94468" lon="4.84202">
        <ele>131.91299438477</ele>
        <time>2011-01-19T13:44:11Z</time>
      </trkpt>
      <trkpt lat="44.94431" lon="4.84189">
        <ele>132.37399291992</ele>
        <time>2011-01-19T13:44:17Z</time>
      </trkpt>
      <trkpt lat="44.94413" lon="4.84186">
        <ele>132.81199645996</ele>
        <time>2011-01-19T13:44:20Z</time>
      </trkpt>
      <trkpt lat="44.94394" lon="4.84172">
        <ele>132.71099853516</ele>
        <time>2011-01-19T13:44:24Z</time>
      </trkpt>
      <trkpt lat="44.94371" lon="4.84154">
        <ele>133.44799804688</ele>
        <time>2011-01-19T13:44:29Z</time>
      </trkpt>
      <trkpt lat="44.94371" lon="4.84146">
        <ele>133.54800415039</ele>
        <time>2011-01-19T13:44:30Z</time>
      </trkpt>
      <trkpt lat="44.94369" lon="4.84134">
        <ele>134.41799926758</ele>
        <time>2011-01-19T13:44:32Z</time>
      </trkpt>
      <trkpt lat="44.94352" lon="4.84114">
        <ele>136.20300292969</ele>
        <time>2011-01-19T13:44:37Z</time>
      </trkpt>
      <trkpt lat="44.94328" lon="4.84093">
        <ele>136.32200622559</ele>
        <time>2011-01-19T13:44:42Z</time>
      </trkpt>
      <trkpt lat="44.94289" lon="4.84056">
        <ele>136.85400390625</ele>
        <time>2011-01-19T13:44:50Z</time>
      </trkpt>
      <trkpt lat="44.9426" lon="4.84024">
        <ele>138.31900024414</ele>
        <time>2011-01-19T13:44:56Z</time>
      </trkpt>
      <trkpt lat="44.94231" lon="4.83993">
        <ele>140.23599243164</ele>
        <time>2011-01-19T13:45:02Z</time>
      </trkpt>
      <trkpt lat="44.94199" lon="4.83943">
        <ele>141.64100646973</ele>
        <time>2011-01-19T13:45:10Z</time>
      </trkpt>
      <trkpt lat="44.94187" lon="4.83925">
        <ele>142.24099731445</ele>
        <time>2011-01-19T13:45:13Z</time>
      </trkpt>
      <trkpt lat="44.94155" lon="4.83894">
        <ele>144.26400756836</ele>
        <time>2011-01-19T13:45:20Z</time>
      </trkpt>
      <trkpt lat="44.94141" lon="4.83883">
        <ele>145.20399475098</ele>
        <time>2011-01-19T13:45:23Z</time>
      </trkpt>
      <trkpt lat="44.94111" lon="4.83844">
        <ele>147.16799926758</ele>
        <time>2011-01-19T13:45:31Z</time>
      </trkpt>
      <trkpt lat="44.9409" lon="4.83812">
        <ele>149.91700744629</ele>
        <time>2011-01-19T13:45:38Z</time>
      </trkpt>
      <trkpt lat="44.94078" lon="4.83788">
        <ele>151.27499389648</ele>
        <time>2011-01-19T13:45:44Z</time>
      </trkpt>
      <trkpt lat="44.94075" lon="4.83778">
        <ele>152.00100708008</ele>
        <time>2011-01-19T13:45:48Z</time>
      </trkpt>
      <trkpt lat="44.94075" lon="4.83777">
        <ele>152.35499572754</ele>
        <time>2011-01-19T13:45:49Z</time>
      </trkpt>
      <trkpt lat="44.94059" lon="4.83765">
        <ele>152.00700378418</ele>
        <time>2011-01-19T13:46:09Z</time>
      </trkpt>
      <trkpt lat="44.94047" lon="4.8376">
        <ele>152.19299316406</ele>
        <time>2011-01-19T13:46:12Z</time>
      </trkpt>
      <trkpt lat="44.94024" lon="4.83741">
        <ele>152.16499328613</ele>
        <time>2011-01-19T13:46:17Z</time>
      </trkpt>
      <trkpt lat="44.93993" lon="4.83708">
        <ele>149.80200195312</ele>
        <time>2011-01-19T13:46:22Z</time>
      </trkpt>
      <trkpt lat="44.93953" lon="4.83676">
        <ele>147.47300720215</ele>
        <time>2011-01-19T13:46:27Z</time>
      </trkpt>
      <trkpt lat="44.93901" lon="4.83639">
        <ele>145.96600341797</ele>
        <time>2011-01-19T13:46:33Z</time>
      </trkpt>
      <trkpt lat="44.93853" lon="4.83597">
        <ele>145.30000305176</ele>
        <time>2011-01-19T13:46:39Z</time>
      </trkpt>
      <trkpt lat="44.93822" lon="4.83569">
        <ele>146.10099792481</ele>
        <time>2011-01-19T13:46:43Z</time>
      </trkpt>
      <trkpt lat="44.93769" lon="4.83543">
        <ele>145.37899780273</ele>
        <time>2011-01-19T13:46:49Z</time>
      </trkpt>
      <trkpt lat="44.93714" lon="4.83516">
        <ele>145.35000610352</ele>
        <time>2011-01-19T13:46:55Z</time>
      </trkpt>
      <trkpt lat="44.93668" lon="4.83495">
        <ele>145.87100219727</ele>
        <time>2011-01-19T13:47:00Z</time>
      </trkpt>
      <trkpt lat="44.93617" lon="4.8347">
        <ele>146.19099426269</ele>
        <time>2011-01-19T13:47:06Z</time>
      </trkpt>
      <trkpt lat="44.93571" lon="4.83447">
        <ele>147.23399353027</ele>
        <time>2011-01-19T13:47:12Z</time>
      </trkpt>
      <trkpt lat="44.93545" lon="4.83432">
        <ele>146.52400207519</ele>
        <time>2011-01-19T13:47:16Z</time>
      </trkpt>
      <trkpt lat="44.93508" lon="4.83405">
        <ele>146.55700683594</ele>
        <time>2011-01-19T13:47:22Z</time>
      </trkpt>
      <trkpt lat="44.93467" lon="4.83369">
        <ele>147.29100036621</ele>
        <time>2011-01-19T13:47:29Z</time>
      </trkpt>
      <trkpt lat="44.93423" lon="4.8334">
        <ele>147.21800231934</ele>
        <time>2011-01-19T13:47:36Z</time>
      </trkpt>
      <trkpt lat="44.93364" lon="4.83312">
        <ele>146.85099792481</ele>
        <time>2011-01-19T13:47:44Z</time>
      </trkpt>
      <trkpt lat="44.93304" lon="4.83295">
        <ele>146.34100341797</ele>
        <time>2011-01-19T13:47:52Z</time>
      </trkpt>
      <trkpt lat="44.9325" lon="4.83266">
        <ele>146.60600280762</ele>
        <time>2011-01-19T13:47:59Z</time>
      </trkpt>
      <trkpt lat="44.93207" lon="4.83229">
        <ele>146.62399291992</ele>
        <time>2011-01-19T13:48:05Z</time>
      </trkpt>
      <trkpt lat="44.93137" lon="4.83157">
        <ele>147.58200073242</ele>
        <time>2011-01-19T13:48:15Z</time>
      </trkpt>
      <trkpt lat="44.93066" lon="4.83082">
        <ele>147.9700012207</ele>
        <time>2011-01-19T13:48:25Z</time>
      </trkpt>
      <trkpt lat="44.93009" lon="4.83027">
        <ele>148.83200073242</ele>
        <time>2011-01-19T13:48:33Z</time>
      </trkpt>
      <trkpt lat="44.92958" lon="4.82982">
        <ele>149.35299682617</ele>
        <time>2011-01-19T13:48:40Z</time>
      </trkpt>
      <trkpt lat="44.9294" lon="4.82961">
        <ele>149.42599487305</ele>
        <time>2011-01-19T13:48:43Z</time>
      </trkpt>
      <trkpt lat="44.92911" lon="4.82946">
        <ele>149.24699401856</ele>
        <time>2011-01-19T13:48:47Z</time>
      </trkpt>
      <trkpt lat="44.92891" lon="4.82962">
        <ele>149.59199523926</ele>
        <time>2011-01-19T13:48:50Z</time>
      </trkpt>
      <trkpt lat="44.92886" lon="4.82971">
        <ele>150.07600402832</ele>
        <time>2011-01-19T13:48:51Z</time>
      </trkpt>
      <trkpt lat="44.92846" lon="4.83049">
        <ele>148.96499633789</ele>
        <time>2011-01-19T13:48:59Z</time>
      </trkpt>
      <trkpt lat="44.92809" lon="4.83083">
        <ele>148.44400024414</ele>
        <time>2011-01-19T13:49:04Z</time>
      </trkpt>
      <trkpt lat="44.92758" lon="4.83112">
        <ele>150.27299499512</ele>
        <time>2011-01-19T13:49:11Z</time>
      </trkpt>
      <trkpt lat="44.92695" lon="4.83148">
        <ele>150.83399963379</ele>
        <time>2011-01-19T13:49:20Z</time>
      </trkpt>
      <trkpt lat="44.92625" lon="4.83187">
        <ele>151.04200744629</ele>
        <time>2011-01-19T13:49:29Z</time>
      </trkpt>
      <trkpt lat="44.92609" lon="4.83193">
        <ele>150.72799682617</ele>
        <time>2011-01-19T13:49:31Z</time>
      </trkpt>
      <trkpt lat="44.92569" lon="4.83189">
        <ele>150.61599731445</ele>
        <time>2011-01-19T13:49:36Z</time>
      </trkpt>
      <trkpt lat="44.9253" lon="4.83169">
        <ele>152.44799804688</ele>
        <time>2011-01-19T13:49:42Z</time>
      </trkpt>
      <trkpt lat="44.92496" lon="4.83154">
        <ele>155.07600402832</ele>
        <time>2011-01-19T13:49:48Z</time>
      </trkpt>
      <trkpt lat="44.92469" lon="4.8315">
        <ele>157.76899719238</ele>
        <time>2011-01-19T13:49:53Z</time>
      </trkpt>
      <trkpt lat="44.92454" lon="4.83149">
        <ele>159.00399780273</ele>
        <time>2011-01-19T13:49:56Z</time>
      </trkpt>
      <trkpt lat="44.92423" lon="4.83147">
        <ele>160.46899414062</ele>
        <time>2011-01-19T13:50:02Z</time>
      </trkpt>
      <trkpt lat="44.92383" lon="4.83143">
        <ele>160.90800476074</ele>
        <time>2011-01-19T13:50:09Z</time>
      </trkpt>
      <trkpt lat="44.92337" lon="4.83129">
        <ele>160.37199401856</ele>
        <time>2011-01-19T13:50:16Z</time>
      </trkpt>
      <trkpt lat="44.92285" lon="4.83112">
        <ele>161.13200378418</ele>
        <time>2011-01-19T13:50:24Z</time>
      </trkpt>
      <trkpt lat="44.92203" lon="4.83092">
        <ele>163.70399475098</ele>
        <time>2011-01-19T13:50:36Z</time>
      </trkpt>
      <trkpt lat="44.92127" lon="4.83079">
        <ele>164.55499267578</ele>
        <time>2011-01-19T13:50:47Z</time>
      </trkpt>
      <trkpt lat="44.92072" lon="4.83076">
        <ele>166.94500732422</ele>
        <time>2011-01-19T13:50:55Z</time>
      </trkpt>
      <trkpt lat="44.92035" lon="4.83062">
        <ele>168.44599914551</ele>
        <time>2011-01-19T13:51:01Z</time>
      </trkpt>
      <trkpt lat="44.91978" lon="4.83035">
        <ele>171.18099975586</ele>
        <time>2011-01-19T13:51:11Z</time>
      </trkpt>
      <trkpt lat="44.91932" lon="4.8302">
        <ele>171.50700378418</ele>
        <time>2011-01-19T13:51:19Z</time>
      </trkpt>
      <trkpt lat="44.91867" lon="4.83005">
        <ele>172.35200500488</ele>
        <time>2011-01-19T13:51:29Z</time>
      </trkpt>
      <trkpt lat="44.91803" lon="4.82992">
        <ele>171.14799499512</ele>
        <time>2011-01-19T13:51:38Z</time>
      </trkpt>
      <trkpt lat="44.91762" lon="4.82991">
        <ele>170.98500061035</ele>
        <time>2011-01-19T13:51:43Z</time>
      </trkpt>
      <trkpt lat="44.91694" lon="4.82995">
        <ele>170.7859954834</ele>
        <time>2011-01-19T13:51:51Z</time>
      </trkpt>
      <trkpt lat="44.91633" lon="4.82994">
        <ele>171.69999694824</ele>
        <time>2011-01-19T13:51:59Z</time>
      </trkpt>
      <trkpt lat="44.91581" lon="4.82996">
        <ele>173.87300109863</ele>
        <time>2011-01-19T13:52:07Z</time>
      </trkpt>
      <trkpt lat="44.91528" lon="4.83007">
        <ele>176.33500671387</ele>
        <time>2011-01-19T13:52:16Z</time>
      </trkpt>
      <trkpt lat="44.91473" lon="4.8302">
        <ele>178.76300048828</ele>
        <time>2011-01-19T13:52:26Z</time>
      </trkpt>
      <trkpt lat="44.91463" lon="4.83023">
        <ele>179.24299621582</ele>
        <time>2011-01-19T13:52:28Z</time>
      </trkpt>
      <trkpt lat="44.91427" lon="4.83026">
        <ele>181.01800537109</ele>
        <time>2011-01-19T13:52:34Z</time>
      </trkpt>
      <trkpt lat="44.91395" lon="4.83016">
        <ele>182.88800048828</ele>
        <time>2011-01-19T13:52:40Z</time>
      </trkpt>
      <trkpt lat="44.9139" lon="4.83012">
        <ele>183.23300170898</ele>
        <time>2011-01-19T13:52:41Z</time>
      </trkpt>
      <trkpt lat="44.91356" lon="4.82974">
        <ele>185.28300476074</ele>
        <time>2011-01-19T13:52:49Z</time>
      </trkpt>
      <trkpt lat="44.91323" lon="4.82937">
        <ele>186.42999267578</ele>
        <time>2011-01-19T13:52:57Z</time>
      </trkpt>
      <trkpt lat="44.9128" lon="4.82914">
        <ele>188.09199523926</ele>
        <time>2011-01-19T13:53:05Z</time>
      </trkpt>
      <trkpt lat="44.9123" lon="4.82892">
        <ele>189.00799560547</ele>
        <time>2011-01-19T13:53:14Z</time>
      </trkpt>
      <trkpt lat="44.91192" lon="4.82868">
        <ele>190.17900085449</ele>
        <time>2011-01-19T13:53:21Z</time>
      </trkpt>
      <trkpt lat="44.91145" lon="4.82831">
        <ele>191.57299804688</ele>
        <time>2011-01-19T13:53:30Z</time>
      </trkpt>
      <trkpt lat="44.91105" lon="4.82787">
        <ele>193.26800537109</ele>
        <time>2011-01-19T13:53:39Z</time>
      </trkpt>
      <trkpt lat="44.91063" lon="4.82744">
        <ele>194.88600158691</ele>
        <time>2011-01-19T13:53:49Z</time>
      </trkpt>
      <trkpt lat="44.91042" lon="4.82728">
        <ele>195.84199523926</ele>
        <time>2011-01-19T13:53:54Z</time>
      </trkpt>
      <trkpt lat="44.9103" lon="4.82723">
        <ele>197.10200500488</ele>
        <time>2011-01-19T13:53:57Z</time>
      </trkpt>
      <trkpt lat="44.91021" lon="4.82721">
        <ele>197.46600341797</ele>
        <time>2011-01-19T13:53:59Z</time>
      </trkpt>
      <trkpt lat="44.90987" lon="4.82708">
        <ele>200.11599731445</ele>
        <time>2011-01-19T13:54:07Z</time>
      </trkpt>
      <trkpt lat="44.90958" lon="4.82697">
        <ele>202.64599609375</ele>
        <time>2011-01-19T13:54:14Z</time>
      </trkpt>
      <trkpt lat="44.90923" lon="4.82679">
        <ele>205.20799255371</ele>
        <time>2011-01-19T13:54:23Z</time>
      </trkpt>
      <trkpt lat="44.90889" lon="4.82651">
        <ele>208.34399414062</ele>
        <time>2011-01-19T13:54:33Z</time>
      </trkpt>
      <trkpt lat="44.90866" lon="4.82628">
        <ele>208.58799743652</ele>
        <time>2011-01-19T13:54:39Z</time>
      </trkpt>
      <trkpt lat="44.90826" lon="4.82588">
        <ele>209.59899902344</ele>
        <time>2011-01-19T13:54:48Z</time>
      </trkpt>
      <trkpt lat="44.90788" lon="4.8255">
        <ele>210.10099792481</ele>
        <time>2011-01-19T13:54:55Z</time>
      </trkpt>
      <trkpt lat="44.90742" lon="4.82507">
        <ele>210.15800476074</ele>
        <time>2011-01-19T13:55:03Z</time>
      </trkpt>
      <trkpt lat="44.90683" lon="4.82448">
        <ele>212.07000732422</ele>
        <time>2011-01-19T13:55:13Z</time>
      </trkpt>
      <trkpt lat="44.90629" lon="4.82394">
        <ele>212.28700256348</ele>
        <time>2011-01-19T13:55:22Z</time>
      </trkpt>
      <trkpt lat="44.90591" lon="4.82349">
        <ele>213.19999694824</ele>
        <time>2011-01-19T13:55:29Z</time>
      </trkpt>
      <trkpt lat="44.90557" lon="4.82304">
        <ele>214.72099304199</ele>
        <time>2011-01-19T13:55:36Z</time>
      </trkpt>
      <trkpt lat="44.90514" lon="4.82257">
        <ele>214.57400512695</ele>
        <time>2011-01-19T13:55:44Z</time>
      </trkpt>
      <trkpt lat="44.90508" lon="4.82252">
        <ele>214.31300354004</ele>
        <time>2011-01-19T13:55:45Z</time>
      </trkpt>
      <trkpt lat="44.90451" lon="4.82207">
        <ele>213.86799621582</ele>
        <time>2011-01-19T13:55:54Z</time>
      </trkpt>
      <trkpt lat="44.90388" lon="4.82158">
        <ele>214.04899597168</ele>
        <time>2011-01-19T13:56:04Z</time>
      </trkpt>
      <trkpt lat="44.9031" lon="4.821">
        <ele>215.45100402832</ele>
        <time>2011-01-19T13:56:16Z</time>
      </trkpt>
      <trkpt lat="44.90237" lon="4.8205">
        <ele>216.35600280762</ele>
        <time>2011-01-19T13:56:27Z</time>
      </trkpt>
      <trkpt lat="44.90182" lon="4.82013">
        <ele>218.18800354004</ele>
        <time>2011-01-19T13:56:36Z</time>
      </trkpt>
      <trkpt lat="44.90135" lon="4.81977">
        <ele>217.42700195312</ele>
        <time>2011-01-19T13:56:44Z</time>
      </trkpt>
      <trkpt lat="44.90088" lon="4.81942">
        <ele>217.89700317383</ele>
        <time>2011-01-19T13:56:52Z</time>
      </trkpt>
      <trkpt lat="44.90032" lon="4.81905">
        <ele>219.9640045166</ele>
        <time>2011-01-19T13:57:02Z</time>
      </trkpt>
      <trkpt lat="44.89995" lon="4.81887">
        <ele>221.375</ele>
        <time>2011-01-19T13:57:09Z</time>
      </trkpt>
      <trkpt lat="44.89948" lon="4.81874">
        <ele>223.27299499512</ele>
        <time>2011-01-19T13:57:18Z</time>
      </trkpt>
      <trkpt lat="44.89911" lon="4.81874">
        <ele>224.69700622559</ele>
        <time>2011-01-19T13:57:25Z</time>
      </trkpt>
      <trkpt lat="44.8987" lon="4.81884">
        <ele>226.12100219727</ele>
        <time>2011-01-19T13:57:33Z</time>
      </trkpt>
      <trkpt lat="44.89845" lon="4.81894">
        <ele>228.18099975586</ele>
        <time>2011-01-19T13:57:38Z</time>
      </trkpt>
      <trkpt lat="44.89801" lon="4.8191">
        <ele>230.56399536133</ele>
        <time>2011-01-19T13:57:47Z</time>
      </trkpt>
      <trkpt lat="44.89765" lon="4.81917">
        <ele>233.26400756836</ele>
        <time>2011-01-19T13:57:55Z</time>
      </trkpt>
      <trkpt lat="44.89749" lon="4.81916">
        <ele>235.3809967041</ele>
        <time>2011-01-19T13:58:00Z</time>
      </trkpt>
      <trkpt lat="44.89747" lon="4.81916">
        <ele>235.54400634766</ele>
        <time>2011-01-19T13:58:03Z</time>
      </trkpt>
      <trkpt lat="44.89734" lon="4.81922">
        <ele>236.00100708008</ele>
        <time>2011-01-19T13:58:52Z</time>
      </trkpt>
      <trkpt lat="44.89713" lon="4.81923">
        <ele>236.47799682617</ele>
        <time>2011-01-19T13:58:57Z</time>
      </trkpt>
      <trkpt lat="44.89678" lon="4.81927">
        <ele>238.91900634766</ele>
        <time>2011-01-19T13:59:04Z</time>
      </trkpt>
      <trkpt lat="44.89651" lon="4.81929">
        <ele>240.91900634766</ele>
        <time>2011-01-19T13:59:10Z</time>
      </trkpt>
      <trkpt lat="44.89634" lon="4.8193">
        <ele>242.39700317383</ele>
        <time>2011-01-19T13:59:14Z</time>
      </trkpt>
      <trkpt lat="44.89625" lon="4.81931">
        <ele>243.10099792481</ele>
        <time>2011-01-19T13:59:16Z</time>
      </trkpt>
      <trkpt lat="44.89589" lon="4.81933">
        <ele>245.11700439453</ele>
        <time>2011-01-19T13:59:24Z</time>
      </trkpt>
      <trkpt lat="44.89544" lon="4.81937">
        <ele>246.47999572754</ele>
        <time>2011-01-19T13:59:34Z</time>
      </trkpt>
      <trkpt lat="44.89521" lon="4.81934">
        <ele>248.48500061035</ele>
        <time>2011-01-19T13:59:39Z</time>
      </trkpt>
      <trkpt lat="44.89507" lon="4.81929">
        <ele>248.75</ele>
        <time>2011-01-19T13:59:42Z</time>
      </trkpt>
      <trkpt lat="44.89494" lon="4.81912">
        <ele>249.12199401856</ele>
        <time>2011-01-19T13:59:46Z</time>
      </trkpt>
      <trkpt lat="44.89496" lon="4.81894">
        <ele>249.94599914551</ele>
        <time>2011-01-19T13:59:49Z</time>
      </trkpt>
      <trkpt lat="44.89507" lon="4.81887">
        <ele>251.3869934082</ele>
        <time>2011-01-19T13:59:52Z</time>
      </trkpt>
      <trkpt lat="44.89519" lon="4.81891">
        <ele>253.73500061035</ele>
        <time>2011-01-19T13:59:55Z</time>
      </trkpt>
      <trkpt lat="44.89529" lon="4.819">
        <ele>255.13600158691</ele>
        <time>2011-01-19T13:59:58Z</time>
      </trkpt>
      <trkpt lat="44.89551" lon="4.81908">
        <ele>256.79998779297</ele>
        <time>2011-01-19T14:00:04Z</time>
      </trkpt>
      <trkpt lat="44.89562" lon="4.81906">
        <ele>258.04699707031</ele>
        <time>2011-01-19T14:00:07Z</time>
      </trkpt>
      <trkpt lat="44.89593" lon="4.81889">
        <ele>258.74700927734</ele>
        <time>2011-01-19T14:00:15Z</time>
      </trkpt>
      <trkpt lat="44.89613" lon="4.81875">
        <ele>260.56298828125</ele>
        <time>2011-01-19T14:00:21Z</time>
      </trkpt>
      <trkpt lat="44.89632" lon="4.81864">
        <ele>260.65100097656</ele>
        <time>2011-01-19T14:00:27Z</time>
      </trkpt>
      <trkpt lat="44.89654" lon="4.8185">
        <ele>262.79299926758</ele>
        <time>2011-01-19T14:00:34Z</time>
      </trkpt>
      <trkpt lat="44.89672" lon="4.81841">
        <ele>264.08801269531</ele>
        <time>2011-01-19T14:00:40Z</time>
      </trkpt>
      <trkpt lat="44.89694" lon="4.81825">
        <ele>267.04098510742</ele>
        <time>2011-01-19T14:00:47Z</time>
      </trkpt>
      <trkpt lat="44.89697" lon="4.81823">
        <ele>266.87399291992</ele>
        <time>2011-01-19T14:00:48Z</time>
      </trkpt>
      <trkpt lat="44.89714" lon="4.81806">
        <ele>266.64300537109</ele>
        <time>2011-01-19T14:00:54Z</time>
      </trkpt>
      <trkpt lat="44.89729" lon="4.81787">
        <ele>267.85400390625</ele>
        <time>2011-01-19T14:01:00Z</time>
      </trkpt>
      <trkpt lat="44.89737" lon="4.81776">
        <ele>269.25900268555</ele>
        <time>2011-01-19T14:01:03Z</time>
      </trkpt>
      <trkpt lat="44.89742" lon="4.81762">
        <ele>270.92001342773</ele>
        <time>2011-01-19T14:01:06Z</time>
      </trkpt>
      <trkpt lat="44.89752" lon="4.81728">
        <ele>272.23901367188</ele>
        <time>2011-01-19T14:01:13Z</time>
      </trkpt>
      <trkpt lat="44.89755" lon="4.8172">
        <ele>273.74798583984</ele>
        <time>2011-01-19T14:01:15Z</time>
      </trkpt>
      <trkpt lat="44.89762" lon="4.81697">
        <ele>269.13101196289</ele>
        <time>2011-01-19T14:01:20Z</time>
      </trkpt>
      <trkpt lat="44.89771" lon="4.81671">
        <ele>270.71200561523</ele>
        <time>2011-01-19T14:01:25Z</time>
      </trkpt>
      <trkpt lat="44.89772" lon="4.81654">
        <ele>271.42300415039</ele>
        <time>2011-01-19T14:01:28Z</time>
      </trkpt>
      <trkpt lat="44.89767" lon="4.81619">
        <ele>271.47799682617</ele>
        <time>2011-01-19T14:01:34Z</time>
      </trkpt>
      <trkpt lat="44.89753" lon="4.81588">
        <ele>273.52499389648</ele>
        <time>2011-01-19T14:01:40Z</time>
      </trkpt>
      <trkpt lat="44.8974" lon="4.81553">
        <ele>275.98599243164</ele>
        <time>2011-01-19T14:01:47Z</time>
      </trkpt>
      <trkpt lat="44.89729" lon="4.81504">
        <ele>278.58898925781</ele>
        <time>2011-01-19T14:01:56Z</time>
      </trkpt>
      <trkpt lat="44.89722" lon="4.8149">
        <ele>279.84399414062</ele>
        <time>2011-01-19T14:01:59Z</time>
      </trkpt>
      <trkpt lat="44.89699" lon="4.81449">
        <ele>281.18499755859</ele>
        <time>2011-01-19T14:02:08Z</time>
      </trkpt>
      <trkpt lat="44.89683" lon="4.81402">
        <ele>283.70401000977</ele>
        <time>2011-01-19T14:02:17Z</time>
      </trkpt>
      <trkpt lat="44.89665" lon="4.81352">
        <ele>283.68701171875</ele>
        <time>2011-01-19T14:02:27Z</time>
      </trkpt>
      <trkpt lat="44.89644" lon="4.8131">
        <ele>285.5950012207</ele>
        <time>2011-01-19T14:02:36Z</time>
      </trkpt>
      <trkpt lat="44.89637" lon="4.81273">
        <ele>289.11099243164</ele>
        <time>2011-01-19T14:02:43Z</time>
      </trkpt>
      <trkpt lat="44.89624" lon="4.81225">
        <ele>289.92498779297</ele>
        <time>2011-01-19T14:02:52Z</time>
      </trkpt>
      <trkpt lat="44.89611" lon="4.81191">
        <ele>292.3039855957</ele>
        <time>2011-01-19T14:02:59Z</time>
      </trkpt>
      <trkpt lat="44.89598" lon="4.81164">
        <ele>291.51998901367</ele>
        <time>2011-01-19T14:03:05Z</time>
      </trkpt>
      <trkpt lat="44.89588" lon="4.81139">
        <ele>293.48400878906</ele>
        <time>2011-01-19T14:03:10Z</time>
      </trkpt>
      <trkpt lat="44.89571" lon="4.81095">
        <ele>296.09399414062</ele>
        <time>2011-01-19T14:03:19Z</time>
      </trkpt>
      <trkpt lat="44.89549" lon="4.81053">
        <ele>297.00399780273</ele>
        <time>2011-01-19T14:03:28Z</time>
      </trkpt>
      <trkpt lat="44.89536" lon="4.8103">
        <ele>299.03601074219</ele>
        <time>2011-01-19T14:03:33Z</time>
      </trkpt>
      <trkpt lat="44.89503" lon="4.80987">
        <ele>301.29699707031</ele>
        <time>2011-01-19T14:03:44Z</time>
      </trkpt>
      <trkpt lat="44.89479" lon="4.80948">
        <ele>303.19400024414</ele>
        <time>2011-01-19T14:03:53Z</time>
      </trkpt>
      <trkpt lat="44.89473" lon="4.80933">
        <ele>303.86499023438</ele>
        <time>2011-01-19T14:03:56Z</time>
      </trkpt>
      <trkpt lat="44.89468" lon="4.80916">
        <ele>304.75799560547</ele>
        <time>2011-01-19T14:03:59Z</time>
      </trkpt>
      <trkpt lat="44.89468" lon="4.80888">
        <ele>306.57501220703</ele>
        <time>2011-01-19T14:04:04Z</time>
      </trkpt>
      <trkpt lat="44.89471" lon="4.80849">
        <ele>306.50500488281</ele>
        <time>2011-01-19T14:04:11Z</time>
      </trkpt>
      <trkpt lat="44.89462" lon="4.80825">
        <ele>307.22698974609</ele>
        <time>2011-01-19T14:04:16Z</time>
      </trkpt>
      <trkpt lat="44.89441" lon="4.80794">
        <ele>308.4469909668</ele>
        <time>2011-01-19T14:04:23Z</time>
      </trkpt>
      <trkpt lat="44.89431" lon="4.8076">
        <ele>309.57699584961</ele>
        <time>2011-01-19T14:04:29Z</time>
      </trkpt>
      <trkpt lat="44.8942" lon="4.80718">
        <ele>311.59600830078</ele>
        <time>2011-01-19T14:04:36Z</time>
      </trkpt>
      <trkpt lat="44.894" lon="4.80684">
        <ele>313.61199951172</ele>
        <time>2011-01-19T14:04:43Z</time>
      </trkpt>
      <trkpt lat="44.89363" lon="4.80633">
        <ele>316.76000976562</ele>
        <time>2011-01-19T14:04:54Z</time>
      </trkpt>
      <trkpt lat="44.89354" lon="4.80618">
        <ele>317.88000488281</ele>
        <time>2011-01-19T14:04:57Z</time>
      </trkpt>
      <trkpt lat="44.89348" lon="4.80588">
        <ele>319.69198608398</ele>
        <time>2011-01-19T14:05:02Z</time>
      </trkpt>
      <trkpt lat="44.89352" lon="4.80572">
        <ele>320.94299316406</ele>
        <time>2011-01-19T14:05:05Z</time>
      </trkpt>
      <trkpt lat="44.89361" lon="4.80547">
        <ele>321.74200439453</ele>
        <time>2011-01-19T14:05:10Z</time>
      </trkpt>
      <trkpt lat="44.89361" lon="4.80524">
        <ele>323.35101318359</ele>
        <time>2011-01-19T14:05:14Z</time>
      </trkpt>
      <trkpt lat="44.8936" lon="4.80519">
        <ele>323.22299194336</ele>
        <time>2011-01-19T14:05:15Z</time>
      </trkpt>
      <trkpt lat="44.89339" lon="4.80483">
        <ele>324.30200195312</ele>
        <time>2011-01-19T14:05:23Z</time>
      </trkpt>
      <trkpt lat="44.89319" lon="4.80448">
        <ele>326.37200927734</ele>
        <time>2011-01-19T14:05:31Z</time>
      </trkpt>
      <trkpt lat="44.89318" lon="4.80422">
        <ele>327.68798828125</ele>
        <time>2011-01-19T14:05:36Z</time>
      </trkpt>
      <trkpt lat="44.89326" lon="4.80404">
        <ele>329.14498901367</ele>
        <time>2011-01-19T14:05:40Z</time>
      </trkpt>
      <trkpt lat="44.89335" lon="4.80392">
        <ele>330.44500732422</ele>
        <time>2011-01-19T14:05:43Z</time>
      </trkpt>
      <trkpt lat="44.89344" lon="4.80368">
        <ele>331.39401245117</ele>
        <time>2011-01-19T14:05:48Z</time>
      </trkpt>
      <trkpt lat="44.89346" lon="4.80352">
        <ele>332.79901123047</ele>
        <time>2011-01-19T14:05:51Z</time>
      </trkpt>
      <trkpt lat="44.89348" lon="4.80325">
        <ele>333.63800048828</ele>
        <time>2011-01-19T14:05:56Z</time>
      </trkpt>
      <trkpt lat="44.89334" lon="4.80303">
        <ele>334.90100097656</ele>
        <time>2011-01-19T14:06:01Z</time>
      </trkpt>
      <trkpt lat="44.89326" lon="4.80299">
        <ele>335.52600097656</ele>
        <time>2011-01-19T14:06:03Z</time>
      </trkpt>
      <trkpt lat="44.89314" lon="4.80297">
        <ele>336.41598510742</ele>
        <time>2011-01-19T14:06:06Z</time>
      </trkpt>
      <trkpt lat="44.89301" lon="4.80294">
        <ele>336.84100341797</ele>
        <time>2011-01-19T14:06:09Z</time>
      </trkpt>
      <trkpt lat="44.89284" lon="4.80285">
        <ele>337.31698608398</ele>
        <time>2011-01-19T14:06:13Z</time>
      </trkpt>
      <trkpt lat="44.89271" lon="4.8027">
        <ele>338.74798583984</ele>
        <time>2011-01-19T14:06:17Z</time>
      </trkpt>
      <trkpt lat="44.89248" lon="4.80233">
        <ele>340.88900756836</ele>
        <time>2011-01-19T14:06:26Z</time>
      </trkpt>
      <trkpt lat="44.89227" lon="4.80221">
        <ele>342.30700683594</ele>
        <time>2011-01-19T14:06:32Z</time>
      </trkpt>
      <trkpt lat="44.89199" lon="4.80207">
        <ele>344.14700317383</ele>
        <time>2011-01-19T14:06:39Z</time>
      </trkpt>
      <trkpt lat="44.89182" lon="4.80184">
        <ele>345.85598754883</ele>
        <time>2011-01-19T14:06:45Z</time>
      </trkpt>
      <trkpt lat="44.89181" lon="4.80179">
        <ele>346.0719909668</ele>
        <time>2011-01-19T14:06:46Z</time>
      </trkpt>
      <trkpt lat="44.89179" lon="4.80154">
        <ele>347.27200317383</ele>
        <time>2011-01-19T14:06:51Z</time>
      </trkpt>
      <trkpt lat="44.89185" lon="4.8013">
        <ele>347.86499023438</ele>
        <time>2011-01-19T14:06:56Z</time>
      </trkpt>
      <trkpt lat="44.8919" lon="4.80114">
        <ele>348.28298950195</ele>
        <time>2011-01-19T14:06:59Z</time>
      </trkpt>
      <trkpt lat="44.89196" lon="4.80061">
        <ele>349.31600952148</ele>
        <time>2011-01-19T14:07:08Z</time>
      </trkpt>
      <trkpt lat="44.89199" lon="4.8005">
        <ele>349.93499755859</ele>
        <time>2011-01-19T14:07:10Z</time>
      </trkpt>
      <trkpt lat="44.89213" lon="4.80031">
        <ele>352.44900512695</ele>
        <time>2011-01-19T14:07:15Z</time>
      </trkpt>
      <trkpt lat="44.89225" lon="4.80028">
        <ele>353.58200073242</ele>
        <time>2011-01-19T14:07:18Z</time>
      </trkpt>
      <trkpt lat="44.89244" lon="4.80018">
        <ele>353.41299438477</ele>
        <time>2011-01-19T14:07:23Z</time>
      </trkpt>
      <trkpt lat="44.89251" lon="4.79998">
        <ele>355.6780090332</ele>
        <time>2011-01-19T14:07:27Z</time>
      </trkpt>
      <trkpt lat="44.89254" lon="4.79976">
        <ele>356.22799682617</ele>
        <time>2011-01-19T14:07:31Z</time>
      </trkpt>
      <trkpt lat="44.89265" lon="4.79957">
        <ele>358.66400146484</ele>
        <time>2011-01-19T14:07:35Z</time>
      </trkpt>
      <trkpt lat="44.8927" lon="4.79948">
        <ele>359.28900146484</ele>
        <time>2011-01-19T14:07:37Z</time>
      </trkpt>
      <trkpt lat="44.89272" lon="4.7993">
        <ele>360.51098632812</ele>
        <time>2011-01-19T14:07:40Z</time>
      </trkpt>
      <trkpt lat="44.89267" lon="4.79913">
        <ele>360.29098510742</ele>
        <time>2011-01-19T14:07:43Z</time>
      </trkpt>
      <trkpt lat="44.89255" lon="4.79894">
        <ele>361.08801269531</ele>
        <time>2011-01-19T14:07:47Z</time>
      </trkpt>
      <trkpt lat="44.89237" lon="4.79876">
        <ele>360.88400268555</ele>
        <time>2011-01-19T14:07:52Z</time>
      </trkpt>
      <trkpt lat="44.89227" lon="4.79857">
        <ele>362.24398803711</ele>
        <time>2011-01-19T14:07:56Z</time>
      </trkpt>
      <trkpt lat="44.89223" lon="4.7984">
        <ele>362.37200927734</ele>
        <time>2011-01-19T14:07:59Z</time>
      </trkpt>
      <trkpt lat="44.89223" lon="4.79828">
        <ele>362.97799682617</ele>
        <time>2011-01-19T14:08:01Z</time>
      </trkpt>
      <trkpt lat="44.89223" lon="4.79794">
        <ele>366.01501464844</ele>
        <time>2011-01-19T14:08:07Z</time>
      </trkpt>
      <trkpt lat="44.89227" lon="4.79783">
        <ele>366.15200805664</ele>
        <time>2011-01-19T14:08:09Z</time>
      </trkpt>
      <trkpt lat="44.89233" lon="4.79767">
        <ele>367.28698730469</ele>
        <time>2011-01-19T14:08:12Z</time>
      </trkpt>
      <trkpt lat="44.89239" lon="4.79757">
        <ele>367.79000854492</ele>
        <time>2011-01-19T14:08:14Z</time>
      </trkpt>
      <trkpt lat="44.89248" lon="4.79745">
        <ele>368.68701171875</ele>
        <time>2011-01-19T14:08:17Z</time>
      </trkpt>
      <trkpt lat="44.89254" lon="4.79717">
        <ele>369.42001342773</ele>
        <time>2011-01-19T14:08:22Z</time>
      </trkpt>
      <trkpt lat="44.89251" lon="4.79704">
        <ele>369.46301269531</ele>
        <time>2011-01-19T14:08:24Z</time>
      </trkpt>
      <trkpt lat="44.89235" lon="4.79649">
        <ele>370.12200927734</ele>
        <time>2011-01-19T14:08:34Z</time>
      </trkpt>
      <trkpt lat="44.8922" lon="4.79621">
        <ele>372.17199707031</ele>
        <time>2011-01-19T14:08:40Z</time>
      </trkpt>
      <trkpt lat="44.89198" lon="4.79588">
        <ele>373.47299194336</ele>
        <time>2011-01-19T14:08:48Z</time>
      </trkpt>
      <trkpt lat="44.89184" lon="4.79553">
        <ele>376.19900512695</ele>
        <time>2011-01-19T14:08:55Z</time>
      </trkpt>
      <trkpt lat="44.8918" lon="4.7953">
        <ele>377.16500854492</ele>
        <time>2011-01-19T14:08:59Z</time>
      </trkpt>
      <trkpt lat="44.89163" lon="4.79488">
        <ele>377.96798706055</ele>
        <time>2011-01-19T14:09:07Z</time>
      </trkpt>
      <trkpt lat="44.89139" lon="4.79443">
        <ele>380.74700927734</ele>
        <time>2011-01-19T14:09:16Z</time>
      </trkpt>
      <trkpt lat="44.89119" lon="4.79413">
        <ele>382.79800415039</ele>
        <time>2011-01-19T14:09:23Z</time>
      </trkpt>
      <trkpt lat="44.89114" lon="4.79385">
        <ele>383.98001098633</ele>
        <time>2011-01-19T14:09:28Z</time>
      </trkpt>
      <trkpt lat="44.89119" lon="4.79326">
        <ele>384.61499023438</ele>
        <time>2011-01-19T14:09:38Z</time>
      </trkpt>
      <trkpt lat="44.89116" lon="4.79284">
        <ele>386.27398681641</ele>
        <time>2011-01-19T14:09:45Z</time>
      </trkpt>
      <trkpt lat="44.89106" lon="4.79234">
        <ele>386.86700439453</ele>
        <time>2011-01-19T14:09:54Z</time>
      </trkpt>
      <trkpt lat="44.89106" lon="4.79217">
        <ele>388.36801147461</ele>
        <time>2011-01-19T14:09:57Z</time>
      </trkpt>
      <trkpt lat="44.89111" lon="4.79197">
        <ele>390.17999267578</ele>
        <time>2011-01-19T14:10:01Z</time>
      </trkpt>
      <trkpt lat="44.8912" lon="4.79164">
        <ele>392.82998657227</ele>
        <time>2011-01-19T14:10:08Z</time>
      </trkpt>
      <trkpt lat="44.8912" lon="4.79137">
        <ele>394.06600952148</ele>
        <time>2011-01-19T14:10:13Z</time>
      </trkpt>
      <trkpt lat="44.89113" lon="4.7909">
        <ele>395.35699462891</ele>
        <time>2011-01-19T14:10:21Z</time>
      </trkpt>
      <trkpt lat="44.89101" lon="4.79049">
        <ele>397.20599365234</ele>
        <time>2011-01-19T14:10:28Z</time>
      </trkpt>
      <trkpt lat="44.89089" lon="4.79001">
        <ele>399.12100219727</ele>
        <time>2011-01-19T14:10:37Z</time>
      </trkpt>
      <trkpt lat="44.89082" lon="4.78957">
        <ele>400.75601196289</ele>
        <time>2011-01-19T14:10:45Z</time>
      </trkpt>
      <trkpt lat="44.89078" lon="4.78909">
        <ele>402.67199707031</ele>
        <time>2011-01-19T14:10:53Z</time>
      </trkpt>
      <trkpt lat="44.89074" lon="4.78864">
        <ele>404.41101074219</ele>
        <time>2011-01-19T14:11:01Z</time>
      </trkpt>
      <trkpt lat="44.89062" lon="4.78812">
        <ele>406.00900268555</ele>
        <time>2011-01-19T14:11:11Z</time>
      </trkpt>
      <trkpt lat="44.8906" lon="4.78773">
        <ele>409.19000244141</ele>
        <time>2011-01-19T14:11:18Z</time>
      </trkpt>
      <trkpt lat="44.89061" lon="4.78757">
        <ele>410.59201049805</ele>
        <time>2011-01-19T14:11:21Z</time>
      </trkpt>
      <trkpt lat="44.89063" lon="4.78722">
        <ele>412.06500244141</ele>
        <time>2011-01-19T14:11:28Z</time>
      </trkpt>
      <trkpt lat="44.89066" lon="4.78678">
        <ele>414.06399536133</ele>
        <time>2011-01-19T14:11:36Z</time>
      </trkpt>
      <trkpt lat="44.89068" lon="4.78667">
        <ele>414.39498901367</ele>
        <time>2011-01-19T14:11:38Z</time>
      </trkpt>
      <trkpt lat="44.89074" lon="4.78626">
        <ele>415.60699462891</ele>
        <time>2011-01-19T14:11:45Z</time>
      </trkpt>
      <trkpt lat="44.8907" lon="4.78603">
        <ele>416.4460144043</ele>
        <time>2011-01-19T14:11:49Z</time>
      </trkpt>
      <trkpt lat="44.89055" lon="4.78566">
        <ele>417.93899536133</ele>
        <time>2011-01-19T14:11:56Z</time>
      </trkpt>
      <trkpt lat="44.89046" lon="4.78522">
        <ele>419.40100097656</ele>
        <time>2011-01-19T14:12:03Z</time>
      </trkpt>
      <trkpt lat="44.89044" lon="4.7851">
        <ele>419.84100341797</ele>
        <time>2011-01-19T14:12:05Z</time>
      </trkpt>
      <trkpt lat="44.89032" lon="4.78468">
        <ele>421.79998779297</ele>
        <time>2011-01-19T14:12:13Z</time>
      </trkpt>
      <trkpt lat="44.89024" lon="4.78433">
        <ele>424.34100341797</ele>
        <time>2011-01-19T14:12:20Z</time>
      </trkpt>
      <trkpt lat="44.89013" lon="4.78393">
        <ele>426.26599121094</ele>
        <time>2011-01-19T14:12:28Z</time>
      </trkpt>
      <trkpt lat="44.89012" lon="4.78388">
        <ele>426.33999633789</ele>
        <time>2011-01-19T14:12:29Z</time>
      </trkpt>
      <trkpt lat="44.89011" lon="4.78353">
        <ele>427.09201049805</ele>
        <time>2011-01-19T14:12:35Z</time>
      </trkpt>
      <trkpt lat="44.89014" lon="4.78342">
        <ele>427.41799926758</ele>
        <time>2011-01-19T14:12:37Z</time>
      </trkpt>
      <trkpt lat="44.89028" lon="4.78305">
        <ele>428.53399658203</ele>
        <time>2011-01-19T14:12:44Z</time>
      </trkpt>
      <trkpt lat="44.89035" lon="4.78289">
        <ele>428.91500854492</ele>
        <time>2011-01-19T14:12:47Z</time>
      </trkpt>
      <trkpt lat="44.89049" lon="4.7824">
        <ele>430.39199829102</ele>
        <time>2011-01-19T14:12:56Z</time>
      </trkpt>
      <trkpt lat="44.89066" lon="4.78195">
        <ele>432.39801025391</ele>
        <time>2011-01-19T14:13:05Z</time>
      </trkpt>
      <trkpt lat="44.89084" lon="4.78152">
        <ele>433.98300170898</ele>
        <time>2011-01-19T14:13:14Z</time>
      </trkpt>
      <trkpt lat="44.89088" lon="4.78143">
        <ele>434.48901367188</ele>
        <time>2011-01-19T14:13:16Z</time>
      </trkpt>
      <trkpt lat="44.89089" lon="4.78121">
        <ele>434.92700195312</ele>
        <time>2011-01-19T14:13:20Z</time>
      </trkpt>
      <trkpt lat="44.89078" lon="4.78114">
        <ele>435.54901123047</ele>
        <time>2011-01-19T14:13:23Z</time>
      </trkpt>
      <trkpt lat="44.89066" lon="4.78118">
        <ele>436.19400024414</ele>
        <time>2011-01-19T14:13:26Z</time>
      </trkpt>
      <trkpt lat="44.89058" lon="4.78123">
        <ele>436.45999145508</ele>
        <time>2011-01-19T14:13:28Z</time>
      </trkpt>
      <trkpt lat="44.89038" lon="4.78135">
        <ele>437.98400878906</ele>
        <time>2011-01-19T14:13:33Z</time>
      </trkpt>
      <trkpt lat="44.89024" lon="4.78152">
        <ele>438.77899169922</ele>
        <time>2011-01-19T14:13:37Z</time>
      </trkpt>
      <trkpt lat="44.89013" lon="4.78167">
        <ele>439.19500732422</ele>
        <time>2011-01-19T14:13:40Z</time>
      </trkpt>
      <trkpt lat="44.88979" lon="4.78195">
        <ele>439.29098510742</ele>
        <time>2011-01-19T14:13:48Z</time>
      </trkpt>
      <trkpt lat="44.88949" lon="4.78219">
        <ele>437.90798950195</ele>
        <time>2011-01-19T14:13:55Z</time>
      </trkpt>
      <trkpt lat="44.88921" lon="4.78247">
        <ele>436.99600219727</ele>
        <time>2011-01-19T14:14:02Z</time>
      </trkpt>
      <trkpt lat="44.88916" lon="4.7825">
        <ele>437.73400878906</ele>
        <time>2011-01-19T14:14:03Z</time>
      </trkpt>
      <trkpt lat="44.88909" lon="4.78258">
        <ele>438.7919921875</ele>
        <time>2011-01-19T14:14:05Z</time>
      </trkpt>
      <trkpt lat="44.88896" lon="4.78284">
        <ele>440.92401123047</ele>
        <time>2011-01-19T14:14:10Z</time>
      </trkpt>
      <trkpt lat="44.88886" lon="4.78323">
        <ele>441.23098754883</ele>
        <time>2011-01-19T14:14:17Z</time>
      </trkpt>
      <trkpt lat="44.88867" lon="4.78366">
        <ele>443.26800537109</ele>
        <time>2011-01-19T14:14:25Z</time>
      </trkpt>
      <trkpt lat="44.88857" lon="4.78387">
        <ele>444.96398925781</ele>
        <time>2011-01-19T14:14:28Z</time>
      </trkpt>
      <trkpt lat="44.88843" lon="4.78411">
        <ele>446.96301269531</ele>
        <time>2011-01-19T14:14:32Z</time>
      </trkpt>
      <trkpt lat="44.88835" lon="4.7842">
        <ele>447.0419921875</ele>
        <time>2011-01-19T14:14:34Z</time>
      </trkpt>
      <trkpt lat="44.8881" lon="4.78433">
        <ele>448.59600830078</ele>
        <time>2011-01-19T14:14:40Z</time>
      </trkpt>
      <trkpt lat="44.88788" lon="4.78424">
        <ele>450.27600097656</ele>
        <time>2011-01-19T14:14:45Z</time>
      </trkpt>
      <trkpt lat="44.88758" lon="4.78389">
        <ele>451.15100097656</ele>
        <time>2011-01-19T14:14:53Z</time>
      </trkpt>
      <trkpt lat="44.88721" lon="4.78349">
        <ele>450.69900512695</ele>
        <time>2011-01-19T14:15:02Z</time>
      </trkpt>
      <trkpt lat="44.88703" lon="4.78331">
        <ele>451.1960144043</ele>
        <time>2011-01-19T14:15:06Z</time>
      </trkpt>
      <trkpt lat="44.88688" lon="4.78299">
        <ele>451.64498901367</ele>
        <time>2011-01-19T14:15:11Z</time>
      </trkpt>
      <trkpt lat="44.88684" lon="4.78276">
        <ele>452.51400756836</ele>
        <time>2011-01-19T14:15:14Z</time>
      </trkpt>
      <trkpt lat="44.88681" lon="4.78236">
        <ele>452.91900634766</ele>
        <time>2011-01-19T14:15:19Z</time>
      </trkpt>
      <trkpt lat="44.88677" lon="4.7822">
        <ele>453.06900024414</ele>
        <time>2011-01-19T14:15:21Z</time>
      </trkpt>
      <trkpt lat="44.88677" lon="4.78189">
        <ele>452.85101318359</ele>
        <time>2011-01-19T14:15:25Z</time>
      </trkpt>
      <trkpt lat="44.88689" lon="4.78169">
        <ele>452.92300415039</ele>
        <time>2011-01-19T14:15:28Z</time>
      </trkpt>
      <trkpt lat="44.88707" lon="4.78153">
        <ele>452.97198486328</ele>
        <time>2011-01-19T14:15:31Z</time>
      </trkpt>
      <trkpt lat="44.88737" lon="4.78133">
        <ele>453.24600219727</ele>
        <time>2011-01-19T14:15:36Z</time>
      </trkpt>
      <trkpt lat="44.88757" lon="4.78109">
        <ele>453.94799804688</ele>
        <time>2011-01-19T14:15:40Z</time>
      </trkpt>
      <trkpt lat="44.88761" lon="4.7808">
        <ele>454.10299682617</ele>
        <time>2011-01-19T14:15:43Z</time>
      </trkpt>
      <trkpt lat="44.88756" lon="4.78016">
        <ele>454.21899414062</ele>
        <time>2011-01-19T14:15:50Z</time>
      </trkpt>
      <trkpt lat="44.88743" lon="4.77967">
        <ele>455.53399658203</ele>
        <time>2011-01-19T14:15:56Z</time>
      </trkpt>
      <trkpt lat="44.88744" lon="4.77932">
        <ele>455.81500244141</ele>
        <time>2011-01-19T14:16:00Z</time>
      </trkpt>
      <trkpt lat="44.88759" lon="4.77914">
        <ele>456.29501342773</ele>
        <time>2011-01-19T14:16:03Z</time>
      </trkpt>
      <trkpt lat="44.88791" lon="4.77886">
        <ele>457.69000244141</ele>
        <time>2011-01-19T14:16:09Z</time>
      </trkpt>
      <trkpt lat="44.88814" lon="4.77855">
        <ele>459.91900634766</ele>
        <time>2011-01-19T14:16:15Z</time>
      </trkpt>
      <trkpt lat="44.8882" lon="4.77841">
        <ele>461.19799804688</ele>
        <time>2011-01-19T14:16:17Z</time>
      </trkpt>
      <trkpt lat="44.88836" lon="4.77817">
        <ele>460.3210144043</ele>
        <time>2011-01-19T14:16:21Z</time>
      </trkpt>
      <trkpt lat="44.8884" lon="4.77812">
        <ele>460.26998901367</ele>
        <time>2011-01-19T14:16:22Z</time>
      </trkpt>
      <trkpt lat="44.88882" lon="4.77786">
        <ele>461.26300048828</ele>
        <time>2011-01-19T14:16:30Z</time>
      </trkpt>
      <trkpt lat="44.88908" lon="4.77772">
        <ele>463.75299072266</ele>
        <time>2011-01-19T14:16:35Z</time>
      </trkpt>
      <trkpt lat="44.88948" lon="4.77753">
        <ele>464.70199584961</ele>
        <time>2011-01-19T14:16:43Z</time>
      </trkpt>
      <trkpt lat="44.88984" lon="4.77735">
        <ele>464.29299926758</ele>
        <time>2011-01-19T14:16:51Z</time>
      </trkpt>
      <trkpt lat="44.89008" lon="4.77722">
        <ele>465.45199584961</ele>
        <time>2011-01-19T14:16:57Z</time>
      </trkpt>
      <trkpt lat="44.89026" lon="4.77707">
        <ele>466.67199707031</ele>
        <time>2011-01-19T14:17:02Z</time>
      </trkpt>
      <trkpt lat="44.89051" lon="4.77679">
        <ele>468.37600708008</ele>
        <time>2011-01-19T14:17:09Z</time>
      </trkpt>
      <trkpt lat="44.89069" lon="4.77658">
        <ele>471.2080078125</ele>
        <time>2011-01-19T14:17:14Z</time>
      </trkpt>
      <trkpt lat="44.89099" lon="4.77616">
        <ele>471.96798706055</ele>
        <time>2011-01-19T14:17:23Z</time>
      </trkpt>
      <trkpt lat="44.89111" lon="4.77581">
        <ele>471.75100708008</ele>
        <time>2011-01-19T14:17:29Z</time>
      </trkpt>
      <trkpt lat="44.89117" lon="4.77548">
        <ele>472.5539855957</ele>
        <time>2011-01-19T14:17:34Z</time>
      </trkpt>
      <trkpt lat="44.89125" lon="4.77519">
        <ele>472.65200805664</ele>
        <time>2011-01-19T14:17:39Z</time>
      </trkpt>
      <trkpt lat="44.89142" lon="4.77492">
        <ele>474.46499633789</ele>
        <time>2011-01-19T14:17:45Z</time>
      </trkpt>
      <trkpt lat="44.89166" lon="4.77464">
        <ele>474.17098999023</ele>
        <time>2011-01-19T14:17:53Z</time>
      </trkpt>
      <trkpt lat="44.89195" lon="4.77434">
        <ele>474.36499023438</ele>
        <time>2011-01-19T14:18:02Z</time>
      </trkpt>
      <trkpt lat="44.89198" lon="4.77429">
        <ele>474.58401489258</ele>
        <time>2011-01-19T14:18:03Z</time>
      </trkpt>
      <trkpt lat="44.89209" lon="4.77399">
        <ele>475.38299560547</ele>
        <time>2011-01-19T14:18:08Z</time>
      </trkpt>
      <trkpt lat="44.89208" lon="4.77385">
        <ele>475.45999145508</ele>
        <time>2011-01-19T14:18:10Z</time>
      </trkpt>
      <trkpt lat="44.89202" lon="4.77336">
        <ele>476.22198486328</ele>
        <time>2011-01-19T14:18:17Z</time>
      </trkpt>
      <trkpt lat="44.89205" lon="4.77298">
        <ele>477.00399780273</ele>
        <time>2011-01-19T14:18:22Z</time>
      </trkpt>
      <trkpt lat="44.89214" lon="4.77281">
        <ele>476.92401123047</ele>
        <time>2011-01-19T14:18:25Z</time>
      </trkpt>
      <trkpt lat="44.89222" lon="4.77271">
        <ele>476.7919921875</ele>
        <time>2011-01-19T14:18:27Z</time>
      </trkpt>
      <trkpt lat="44.89257" lon="4.77247">
        <ele>476.64599609375</ele>
        <time>2011-01-19T14:18:35Z</time>
      </trkpt>
      <trkpt lat="44.89298" lon="4.7722">
        <ele>477.20401000977</ele>
        <time>2011-01-19T14:18:44Z</time>
      </trkpt>
      <trkpt lat="44.8933" lon="4.77199">
        <ele>479.31298828125</ele>
        <time>2011-01-19T14:18:51Z</time>
      </trkpt>
      <trkpt lat="44.89367" lon="4.77168">
        <ele>481.75799560547</ele>
        <time>2011-01-19T14:19:00Z</time>
      </trkpt>
      <trkpt lat="44.89404" lon="4.77126">
        <ele>482.62600708008</ele>
        <time>2011-01-19T14:19:09Z</time>
      </trkpt>
      <trkpt lat="44.89421" lon="4.77099">
        <ele>484.60198974609</ele>
        <time>2011-01-19T14:19:14Z</time>
      </trkpt>
      <trkpt lat="44.89437" lon="4.77059">
        <ele>484.98599243164</ele>
        <time>2011-01-19T14:19:20Z</time>
      </trkpt>
      <trkpt lat="44.89454" lon="4.77008">
        <ele>484.99798583984</ele>
        <time>2011-01-19T14:19:27Z</time>
      </trkpt>
      <trkpt lat="44.89452" lon="4.76977">
        <ele>485.88000488281</ele>
        <time>2011-01-19T14:19:31Z</time>
      </trkpt>
      <trkpt lat="44.89438" lon="4.76967">
        <ele>486.99301147461</ele>
        <time>2011-01-19T14:19:34Z</time>
      </trkpt>
      <trkpt lat="44.89424" lon="4.76958">
        <ele>487.31900024414</ele>
        <time>2011-01-19T14:19:37Z</time>
      </trkpt>
      <trkpt lat="44.894" lon="4.76951">
        <ele>488.88900756836</ele>
        <time>2011-01-19T14:19:42Z</time>
      </trkpt>
      <trkpt lat="44.89392" lon="4.76958">
        <ele>490.46600341797</ele>
        <time>2011-01-19T14:19:44Z</time>
      </trkpt>
      <trkpt lat="44.89383" lon="4.76966">
        <ele>486.86999511719</ele>
        <time>2011-01-19T14:19:46Z</time>
      </trkpt>
      <trkpt lat="44.89367" lon="4.76978">
        <ele>485.67300415039</ele>
        <time>2011-01-19T14:19:49Z</time>
      </trkpt>
      <trkpt lat="44.89355" lon="4.76982">
        <ele>486.75201416016</ele>
        <time>2011-01-19T14:19:51Z</time>
      </trkpt>
      <trkpt lat="44.89329" lon="4.76985">
        <ele>484.5</ele>
        <time>2011-01-19T14:19:55Z</time>
      </trkpt>
      <trkpt lat="44.89277" lon="4.76977">
        <ele>483.91400146484</ele>
        <time>2011-01-19T14:20:03Z</time>
      </trkpt>
      <trkpt lat="44.8927" lon="4.76977">
        <ele>484.00799560547</ele>
        <time>2011-01-19T14:20:04Z</time>
      </trkpt>
      <trkpt lat="44.8924" lon="4.7696">
        <ele>485.83499145508</ele>
        <time>2011-01-19T14:20:09Z</time>
      </trkpt>
      <trkpt lat="44.89237" lon="4.76951">
        <ele>485.98001098633</ele>
        <time>2011-01-19T14:20:10Z</time>
      </trkpt>
      <trkpt lat="44.8923" lon="4.76915">
        <ele>486.03100585938</ele>
        <time>2011-01-19T14:20:14Z</time>
      </trkpt>
      <trkpt lat="44.89217" lon="4.76887">
        <ele>485.97601318359</ele>
        <time>2011-01-19T14:20:18Z</time>
      </trkpt>
      <trkpt lat="44.89201" lon="4.76884">
        <ele>486.46899414062</ele>
        <time>2011-01-19T14:20:21Z</time>
      </trkpt>
      <trkpt lat="44.89195" lon="4.76884">
        <ele>486.61499023438</ele>
        <time>2011-01-19T14:20:22Z</time>
      </trkpt>
      <trkpt lat="44.89164" lon="4.76894">
        <ele>486.17001342773</ele>
        <time>2011-01-19T14:20:27Z</time>
      </trkpt>
      <trkpt lat="44.89119" lon="4.76923">
        <ele>485.91400146484</ele>
        <time>2011-01-19T14:20:35Z</time>
      </trkpt>
      <trkpt lat="44.89096" lon="4.76932">
        <ele>485.89898681641</ele>
        <time>2011-01-19T14:20:39Z</time>
      </trkpt>
      <trkpt lat="44.89074" lon="4.76927">
        <ele>487.36700439453</ele>
        <time>2011-01-19T14:20:43Z</time>
      </trkpt>
      <trkpt lat="44.8907" lon="4.76905">
        <ele>488.29901123047</ele>
        <time>2011-01-19T14:20:46Z</time>
      </trkpt>
      <trkpt lat="44.89077" lon="4.76884">
        <ele>488.1130065918</ele>
        <time>2011-01-19T14:20:49Z</time>
      </trkpt>
      <trkpt lat="44.89084" lon="4.76872">
        <ele>488.3219909668</ele>
        <time>2011-01-19T14:20:51Z</time>
      </trkpt>
      <trkpt lat="44.89099" lon="4.76849">
        <ele>488.88800048828</ele>
        <time>2011-01-19T14:20:55Z</time>
      </trkpt>
      <trkpt lat="44.89119" lon="4.76791">
        <ele>489.98001098633</ele>
        <time>2011-01-19T14:21:03Z</time>
      </trkpt>
      <trkpt lat="44.89134" lon="4.76742">
        <ele>492.80999755859</ele>
        <time>2011-01-19T14:21:10Z</time>
      </trkpt>
      <trkpt lat="44.89137" lon="4.76735">
        <ele>493.07598876953</ele>
        <time>2011-01-19T14:21:11Z</time>
      </trkpt>
      <trkpt lat="44.89151" lon="4.76687">
        <ele>494.05599975586</ele>
        <time>2011-01-19T14:21:18Z</time>
      </trkpt>
      <trkpt lat="44.89156" lon="4.76665">
        <ele>493.75900268555</ele>
        <time>2011-01-19T14:21:21Z</time>
      </trkpt>
      <trkpt lat="44.89173" lon="4.76635">
        <ele>494.21499633789</ele>
        <time>2011-01-19T14:21:26Z</time>
      </trkpt>
      <trkpt lat="44.89182" lon="4.76625">
        <ele>494.91799926758</ele>
        <time>2011-01-19T14:21:28Z</time>
      </trkpt>
      <trkpt lat="44.89228" lon="4.76591">
        <ele>495.57501220703</ele>
        <time>2011-01-19T14:21:38Z</time>
      </trkpt>
      <trkpt lat="44.89253" lon="4.7658">
        <ele>497.28601074219</ele>
        <time>2011-01-19T14:21:43Z</time>
      </trkpt>
      <trkpt lat="44.89269" lon="4.76563">
        <ele>497.10198974609</ele>
        <time>2011-01-19T14:21:47Z</time>
      </trkpt>
      <trkpt lat="44.89297" lon="4.76519">
        <ele>498.25698852539</ele>
        <time>2011-01-19T14:21:55Z</time>
      </trkpt>
      <trkpt lat="44.89326" lon="4.76495">
        <ele>499.62100219727</ele>
        <time>2011-01-19T14:22:01Z</time>
      </trkpt>
      <trkpt lat="44.89343" lon="4.76487">
        <ele>500.14599609375</ele>
        <time>2011-01-19T14:22:04Z</time>
      </trkpt>
      <trkpt lat="44.89367" lon="4.76487">
        <ele>501.86401367188</ele>
        <time>2011-01-19T14:22:08Z</time>
      </trkpt>
      <trkpt lat="44.8941" lon="4.76501">
        <ele>504.03298950195</ele>
        <time>2011-01-19T14:22:16Z</time>
      </trkpt>
      <trkpt lat="44.89426" lon="4.76507">
        <ele>504.95599365234</ele>
        <time>2011-01-19T14:22:19Z</time>
      </trkpt>
      <trkpt lat="44.89445" lon="4.76519">
        <ele>505.61199951172</ele>
        <time>2011-01-19T14:22:23Z</time>
      </trkpt>
      <trkpt lat="44.89457" lon="4.76531">
        <ele>505.88299560547</ele>
        <time>2011-01-19T14:22:26Z</time>
      </trkpt>
      <trkpt lat="44.89478" lon="4.76531">
        <ele>505.40798950195</ele>
        <time>2011-01-19T14:22:30Z</time>
      </trkpt>
      <trkpt lat="44.89487" lon="4.76522">
        <ele>505.32000732422</ele>
        <time>2011-01-19T14:22:32Z</time>
      </trkpt>
      <trkpt lat="44.89505" lon="4.76502">
        <ele>505.13000488281</ele>
        <time>2011-01-19T14:22:36Z</time>
      </trkpt>
      <trkpt lat="44.89531" lon="4.76484">
        <ele>508.27801513672</ele>
        <time>2011-01-19T14:22:41Z</time>
      </trkpt>
      <trkpt lat="44.89536" lon="4.76481">
        <ele>508.53698730469</ele>
        <time>2011-01-19T14:22:42Z</time>
      </trkpt>
      <trkpt lat="44.89548" lon="4.76477">
        <ele>509.51000976562</ele>
        <time>2011-01-19T14:22:44Z</time>
      </trkpt>
      <trkpt lat="44.89595" lon="4.76476">
        <ele>509.93701171875</ele>
        <time>2011-01-19T14:22:52Z</time>
      </trkpt>
      <trkpt lat="44.89627" lon="4.76471">
        <ele>510.45999145508</ele>
        <time>2011-01-19T14:22:58Z</time>
      </trkpt>
      <trkpt lat="44.89651" lon="4.76443">
        <ele>511.2799987793</ele>
        <time>2011-01-19T14:23:04Z</time>
      </trkpt>
      <trkpt lat="44.89669" lon="4.76387">
        <ele>512.40698242188</ele>
        <time>2011-01-19T14:23:13Z</time>
      </trkpt>
      <trkpt lat="44.89681" lon="4.76351">
        <ele>513.82397460938</ele>
        <time>2011-01-19T14:23:19Z</time>
      </trkpt>
      <trkpt lat="44.897" lon="4.76313">
        <ele>515.03198242188</ele>
        <time>2011-01-19T14:23:26Z</time>
      </trkpt>
      <trkpt lat="44.89715" lon="4.76269">
        <ele>516.70501708984</ele>
        <time>2011-01-19T14:23:33Z</time>
      </trkpt>
      <trkpt lat="44.89724" lon="4.76236">
        <ele>517.17297363281</ele>
        <time>2011-01-19T14:23:38Z</time>
      </trkpt>
      <trkpt lat="44.89725" lon="4.76208">
        <ele>518.33801269531</ele>
        <time>2011-01-19T14:23:42Z</time>
      </trkpt>
      <trkpt lat="44.89724" lon="4.76195">
        <ele>519.32598876953</ele>
        <time>2011-01-19T14:23:44Z</time>
      </trkpt>
      <trkpt lat="44.89712" lon="4.76142">
        <ele>520.70001220703</ele>
        <time>2011-01-19T14:23:52Z</time>
      </trkpt>
      <trkpt lat="44.89706" lon="4.76098">
        <ele>521.74102783203</ele>
        <time>2011-01-19T14:23:59Z</time>
      </trkpt>
      <trkpt lat="44.89693" lon="4.76063">
        <ele>521.67199707031</ele>
        <time>2011-01-19T14:24:05Z</time>
      </trkpt>
      <trkpt lat="44.89667" lon="4.76021">
        <ele>522.24102783203</ele>
        <time>2011-01-19T14:24:14Z</time>
      </trkpt>
      <trkpt lat="44.8966" lon="4.76005">
        <ele>522.41400146484</ele>
        <time>2011-01-19T14:24:17Z</time>
      </trkpt>
      <trkpt lat="44.89657" lon="4.75967">
        <ele>522.77398681641</ele>
        <time>2011-01-19T14:24:23Z</time>
      </trkpt>
      <trkpt lat="44.89658" lon="4.7596">
        <ele>523.03900146484</ele>
        <time>2011-01-19T14:24:24Z</time>
      </trkpt>
      <trkpt lat="44.89667" lon="4.75907">
        <ele>525.31799316406</ele>
        <time>2011-01-19T14:24:32Z</time>
      </trkpt>
      <trkpt lat="44.89679" lon="4.75848">
        <ele>525.22601318359</ele>
        <time>2011-01-19T14:24:41Z</time>
      </trkpt>
      <trkpt lat="44.89682" lon="4.75802">
        <ele>526.57202148438</ele>
        <time>2011-01-19T14:24:48Z</time>
      </trkpt>
      <trkpt lat="44.8968" lon="4.75782">
        <ele>526.82800292969</ele>
        <time>2011-01-19T14:24:51Z</time>
      </trkpt>
      <trkpt lat="44.89671" lon="4.75738">
        <ele>527.52600097656</ele>
        <time>2011-01-19T14:24:58Z</time>
      </trkpt>
      <trkpt lat="44.89663" lon="4.75705">
        <ele>528.05401611328</ele>
        <time>2011-01-19T14:25:03Z</time>
      </trkpt>
      <trkpt lat="44.89664" lon="4.75668">
        <ele>528.73101806641</ele>
        <time>2011-01-19T14:25:08Z</time>
      </trkpt>
      <trkpt lat="44.89679" lon="4.75646">
        <ele>529.19396972656</ele>
        <time>2011-01-19T14:25:12Z</time>
      </trkpt>
      <trkpt lat="44.89689" lon="4.75639">
        <ele>529.38098144531</ele>
        <time>2011-01-19T14:25:14Z</time>
      </trkpt>
      <trkpt lat="44.89717" lon="4.75615">
        <ele>529.68499755859</ele>
        <time>2011-01-19T14:25:20Z</time>
      </trkpt>
      <trkpt lat="44.89743" lon="4.75594">
        <ele>530.68103027344</ele>
        <time>2011-01-19T14:25:26Z</time>
      </trkpt>
      <trkpt lat="44.89771" lon="4.75572">
        <ele>531.01702880859</ele>
        <time>2011-01-19T14:25:32Z</time>
      </trkpt>
      <trkpt lat="44.89787" lon="4.7556">
        <ele>531.56896972656</ele>
        <time>2011-01-19T14:25:35Z</time>
      </trkpt>
      <trkpt lat="44.89821" lon="4.75532">
        <ele>532.54400634766</ele>
        <time>2011-01-19T14:25:42Z</time>
      </trkpt>
      <trkpt lat="44.8984" lon="4.75506">
        <ele>533.4990234375</ele>
        <time>2011-01-19T14:25:47Z</time>
      </trkpt>
      <trkpt lat="44.89848" lon="4.7549">
        <ele>533.99499511719</ele>
        <time>2011-01-19T14:25:50Z</time>
      </trkpt>
      <trkpt lat="44.89858" lon="4.75461">
        <ele>534.75402832031</ele>
        <time>2011-01-19T14:25:55Z</time>
      </trkpt>
      <trkpt lat="44.8986" lon="4.75442">
        <ele>535.30999755859</ele>
        <time>2011-01-19T14:25:58Z</time>
      </trkpt>
      <trkpt lat="44.89857" lon="4.75415">
        <ele>535.32299804688</ele>
        <time>2011-01-19T14:26:02Z</time>
      </trkpt>
      <trkpt lat="44.89852" lon="4.75395">
        <ele>535.44897460938</ele>
        <time>2011-01-19T14:26:05Z</time>
      </trkpt>
      <trkpt lat="44.89854" lon="4.7536">
        <ele>536.04901123047</ele>
        <time>2011-01-19T14:26:10Z</time>
      </trkpt>
      <trkpt lat="44.89859" lon="4.75348">
        <ele>536.33099365234</ele>
        <time>2011-01-19T14:26:12Z</time>
      </trkpt>
      <trkpt lat="44.89885" lon="4.75313">
        <ele>537.86798095703</ele>
        <time>2011-01-19T14:26:20Z</time>
      </trkpt>
      <trkpt lat="44.89894" lon="4.75301">
        <ele>538.42102050781</ele>
        <time>2011-01-19T14:26:23Z</time>
      </trkpt>
      <trkpt lat="44.89905" lon="4.75284">
        <ele>538.75701904297</ele>
        <time>2011-01-19T14:26:27Z</time>
      </trkpt>
      <trkpt lat="44.89911" lon="4.75275">
        <ele>538.84899902344</ele>
        <time>2011-01-19T14:26:29Z</time>
      </trkpt>
      <trkpt lat="44.89922" lon="4.75254">
        <ele>539.69500732422</ele>
        <time>2011-01-19T14:26:33Z</time>
      </trkpt>
      <trkpt lat="44.89938" lon="4.75211">
        <ele>540.71502685547</ele>
        <time>2011-01-19T14:26:40Z</time>
      </trkpt>
      <trkpt lat="44.89939" lon="4.75204">
        <ele>540.85998535156</ele>
        <time>2011-01-19T14:26:41Z</time>
      </trkpt>
      <trkpt lat="44.8994" lon="4.75155">
        <ele>542.04498291016</ele>
        <time>2011-01-19T14:26:48Z</time>
      </trkpt>
      <trkpt lat="44.89933" lon="4.75105">
        <ele>541.86499023438</ele>
        <time>2011-01-19T14:26:55Z</time>
      </trkpt>
      <trkpt lat="44.89906" lon="4.75047">
        <ele>543.14501953125</ele>
        <time>2011-01-19T14:27:04Z</time>
      </trkpt>
      <trkpt lat="44.89878" lon="4.74998">
        <ele>544.21899414062</ele>
        <time>2011-01-19T14:27:12Z</time>
      </trkpt>
      <trkpt lat="44.89874" lon="4.74985">
        <ele>544.65502929688</ele>
        <time>2011-01-19T14:27:14Z</time>
      </trkpt>
      <trkpt lat="44.89866" lon="4.74929">
        <ele>546.29498291016</ele>
        <time>2011-01-19T14:27:22Z</time>
      </trkpt>
      <trkpt lat="44.89871" lon="4.74888">
        <ele>547.39300537109</ele>
        <time>2011-01-19T14:27:28Z</time>
      </trkpt>
      <trkpt lat="44.89877" lon="4.74847">
        <ele>548.65197753906</ele>
        <time>2011-01-19T14:27:35Z</time>
      </trkpt>
      <trkpt lat="44.89878" lon="4.74812">
        <ele>550.4169921875</ele>
        <time>2011-01-19T14:27:41Z</time>
      </trkpt>
      <trkpt lat="44.89874" lon="4.74756">
        <ele>553.19000244141</ele>
        <time>2011-01-19T14:27:51Z</time>
      </trkpt>
      <trkpt lat="44.89862" lon="4.74708">
        <ele>555.75402832031</ele>
        <time>2011-01-19T14:28:00Z</time>
      </trkpt>
      <trkpt lat="44.89853" lon="4.74662">
        <ele>557.18200683594</ele>
        <time>2011-01-19T14:28:08Z</time>
      </trkpt>
      <trkpt lat="44.89852" lon="4.74625">
        <ele>558.60302734375</ele>
        <time>2011-01-19T14:28:14Z</time>
      </trkpt>
      <trkpt lat="44.89853" lon="4.74588">
        <ele>559.98498535156</ele>
        <time>2011-01-19T14:28:20Z</time>
      </trkpt>
      <trkpt lat="44.89854" lon="4.74576">
        <ele>560.15997314453</ele>
        <time>2011-01-19T14:28:22Z</time>
      </trkpt>
      <trkpt lat="44.89852" lon="4.74523">
        <ele>561.52801513672</ele>
        <time>2011-01-19T14:28:30Z</time>
      </trkpt>
      <trkpt lat="44.89851" lon="4.74469">
        <ele>562.90197753906</ele>
        <time>2011-01-19T14:28:38Z</time>
      </trkpt>
      <trkpt lat="44.89847" lon="4.74436">
        <ele>563.99298095703</ele>
        <time>2011-01-19T14:28:43Z</time>
      </trkpt>
      <trkpt lat="44.8983" lon="4.74372">
        <ele>565.39398193359</ele>
        <time>2011-01-19T14:28:53Z</time>
      </trkpt>
      <trkpt lat="44.8982" lon="4.74328">
        <ele>566.26898193359</ele>
        <time>2011-01-19T14:29:00Z</time>
      </trkpt>
      <trkpt lat="44.89822" lon="4.74288">
        <ele>566.85498046875</ele>
        <time>2011-01-19T14:29:06Z</time>
      </trkpt>
      <trkpt lat="44.89826" lon="4.74275">
        <ele>567.05499267578</ele>
        <time>2011-01-19T14:29:08Z</time>
      </trkpt>
      <trkpt lat="44.89852" lon="4.74225">
        <ele>567.93798828125</ele>
        <time>2011-01-19T14:29:16Z</time>
      </trkpt>
      <trkpt lat="44.89874" lon="4.7419">
        <ele>569.8330078125</ele>
        <time>2011-01-19T14:29:22Z</time>
      </trkpt>
      <trkpt lat="44.89899" lon="4.7416">
        <ele>571.64501953125</ele>
        <time>2011-01-19T14:29:28Z</time>
      </trkpt>
      <trkpt lat="44.89933" lon="4.74119">
        <ele>573.66497802734</ele>
        <time>2011-01-19T14:29:36Z</time>
      </trkpt>
      <trkpt lat="44.89944" lon="4.74103">
        <ele>573.77899169922</ele>
        <time>2011-01-19T14:29:39Z</time>
      </trkpt>
      <trkpt lat="44.89963" lon="4.74073">
        <ele>574.80999755859</ele>
        <time>2011-01-19T14:29:45Z</time>
      </trkpt>
      <trkpt lat="44.8997" lon="4.7404">
        <ele>577.84497070312</ele>
        <time>2011-01-19T14:29:51Z</time>
      </trkpt>
      <trkpt lat="44.8997" lon="4.73997">
        <ele>579.52600097656</ele>
        <time>2011-01-19T14:29:59Z</time>
      </trkpt>
      <trkpt lat="44.8997" lon="4.73966">
        <ele>580.69396972656</ele>
        <time>2011-01-19T14:30:05Z</time>
      </trkpt>
      <trkpt lat="44.89971" lon="4.73935">
        <ele>582.32202148438</ele>
        <time>2011-01-19T14:30:11Z</time>
      </trkpt>
      <trkpt lat="44.89972" lon="4.73892">
        <ele>582.49597167969</ele>
        <time>2011-01-19T14:30:18Z</time>
      </trkpt>
      <trkpt lat="44.8997" lon="4.7384">
        <ele>582.291015625</ele>
        <time>2011-01-19T14:30:25Z</time>
      </trkpt>
      <trkpt lat="44.89968" lon="4.73831">
        <ele>582.30603027344</ele>
        <time>2011-01-19T14:30:26Z</time>
      </trkpt>
      <trkpt lat="44.89949" lon="4.73768">
        <ele>582.25500488281</ele>
        <time>2011-01-19T14:30:34Z</time>
      </trkpt>
      <trkpt lat="44.89939" lon="4.73716">
        <ele>582.29998779297</ele>
        <time>2011-01-19T14:30:40Z</time>
      </trkpt>
      <trkpt lat="44.89938" lon="4.73668">
        <ele>582.00799560547</ele>
        <time>2011-01-19T14:30:45Z</time>
      </trkpt>
      <trkpt lat="44.89949" lon="4.73579">
        <ele>582.05902099609</ele>
        <time>2011-01-19T14:30:54Z</time>
      </trkpt>
      <trkpt lat="44.89956" lon="4.73521">
        <ele>584.33801269531</ele>
        <time>2011-01-19T14:31:00Z</time>
      </trkpt>
      <trkpt lat="44.89969" lon="4.73459">
        <ele>582.86901855469</ele>
        <time>2011-01-19T14:31:07Z</time>
      </trkpt>
      <trkpt lat="44.89986" lon="4.73375">
        <ele>581.09399414062</ele>
        <time>2011-01-19T14:31:16Z</time>
      </trkpt>
      <trkpt lat="44.89999" lon="4.73314">
        <ele>581.95098876953</ele>
        <time>2011-01-19T14:31:22Z</time>
      </trkpt>
      <trkpt lat="44.90016" lon="4.73259">
        <ele>580.66802978516</ele>
        <time>2011-01-19T14:31:28Z</time>
      </trkpt>
      <trkpt lat="44.90028" lon="4.73223">
        <ele>581.44702148438</ele>
        <time>2011-01-19T14:31:32Z</time>
      </trkpt>
      <trkpt lat="44.9004" lon="4.73153">
        <ele>580.31701660156</ele>
        <time>2011-01-19T14:31:39Z</time>
      </trkpt>
      <trkpt lat="44.90051" lon="4.73093">
        <ele>579.90600585938</ele>
        <time>2011-01-19T14:31:45Z</time>
      </trkpt>
      <trkpt lat="44.90065" lon="4.73049">
        <ele>579.70397949219</ele>
        <time>2011-01-19T14:31:50Z</time>
      </trkpt>
      <trkpt lat="44.90086" lon="4.73008">
        <ele>579.79498291016</ele>
        <time>2011-01-19T14:31:56Z</time>
      </trkpt>
      <trkpt lat="44.90104" lon="4.72978">
        <ele>581.91900634766</ele>
        <time>2011-01-19T14:32:02Z</time>
      </trkpt>
      <trkpt lat="44.90118" lon="4.72956">
        <ele>584.35198974609</ele>
        <time>2011-01-19T14:32:08Z</time>
      </trkpt>
      <trkpt lat="44.90124" lon="4.72945">
        <ele>585.73699951172</ele>
        <time>2011-01-19T14:32:11Z</time>
      </trkpt>
      <trkpt lat="44.90142" lon="4.72915">
        <ele>588.79498291016</ele>
        <time>2011-01-19T14:32:20Z</time>
      </trkpt>
      <trkpt lat="44.90157" lon="4.72886">
        <ele>590.34100341797</ele>
        <time>2011-01-19T14:32:28Z</time>
      </trkpt>
      <trkpt lat="44.90167" lon="4.72862">
        <ele>592.15502929688</ele>
        <time>2011-01-19T14:32:34Z</time>
      </trkpt>
      <trkpt lat="44.90176" lon="4.72838">
        <ele>593.19598388672</ele>
        <time>2011-01-19T14:32:40Z</time>
      </trkpt>
      <trkpt lat="44.90182" lon="4.72819">
        <ele>594.45001220703</ele>
        <time>2011-01-19T14:32:45Z</time>
      </trkpt>
      <trkpt lat="44.90198" lon="4.72782">
        <ele>596.46899414062</ele>
        <time>2011-01-19T14:32:53Z</time>
      </trkpt>
      <trkpt lat="44.9022" lon="4.7274">
        <ele>598.50500488281</ele>
        <time>2011-01-19T14:33:03Z</time>
      </trkpt>
      <trkpt lat="44.90239" lon="4.72706">
        <ele>600.5009765625</ele>
        <time>2011-01-19T14:33:12Z</time>
      </trkpt>
      <trkpt lat="44.90254" lon="4.72682">
        <ele>602.4169921875</ele>
        <time>2011-01-19T14:33:20Z</time>
      </trkpt>
      <trkpt lat="44.90269" lon="4.72666">
        <ele>602.85900878906</ele>
        <time>2011-01-19T14:33:26Z</time>
      </trkpt>
      <trkpt lat="44.90283" lon="4.72657">
        <ele>604.67297363281</ele>
        <time>2011-01-19T14:33:31Z</time>
      </trkpt>
      <trkpt lat="44.90295" lon="4.72649">
        <ele>605.68402099609</ele>
        <time>2011-01-19T14:33:37Z</time>
      </trkpt>
      <trkpt lat="44.90308" lon="4.72638">
        <ele>606.48699951172</ele>
        <time>2011-01-19T14:33:43Z</time>
      </trkpt>
      <trkpt lat="44.90326" lon="4.72619">
        <ele>607.14801025391</ele>
        <time>2011-01-19T14:33:50Z</time>
      </trkpt>
      <trkpt lat="44.90343" lon="4.72602">
        <ele>609.55499267578</ele>
        <time>2011-01-19T14:33:57Z</time>
      </trkpt>
      <trkpt lat="44.90358" lon="4.72585">
        <ele>611.94702148438</ele>
        <time>2011-01-19T14:34:03Z</time>
      </trkpt>
      <trkpt lat="44.90371" lon="4.72571">
        <ele>611.48699951172</ele>
        <time>2011-01-19T14:34:09Z</time>
      </trkpt>
      <trkpt lat="44.9038" lon="4.72561">
        <ele>613.98101806641</ele>
        <time>2011-01-19T14:34:13Z</time>
      </trkpt>
      <trkpt lat="44.90398" lon="4.72543">
        <ele>615.55700683594</ele>
        <time>2011-01-19T14:34:20Z</time>
      </trkpt>
      <trkpt lat="44.90417" lon="4.7253">
        <ele>613.94897460938</ele>
        <time>2011-01-19T14:34:27Z</time>
      </trkpt>
      <trkpt lat="44.90435" lon="4.72517">
        <ele>618.15100097656</ele>
        <time>2011-01-19T14:34:33Z</time>
      </trkpt>
      <trkpt lat="44.90456" lon="4.72503">
        <ele>619.79498291016</ele>
        <time>2011-01-19T14:34:40Z</time>
      </trkpt>
      <trkpt lat="44.90459" lon="4.72501">
        <ele>620.09802246094</ele>
        <time>2011-01-19T14:34:41Z</time>
      </trkpt>
      <trkpt lat="44.90475" lon="4.72491">
        <ele>621.69598388672</ele>
        <time>2011-01-19T14:34:46Z</time>
      </trkpt>
      <trkpt lat="44.90492" lon="4.72479">
        <ele>623.10498046875</ele>
        <time>2011-01-19T14:34:52Z</time>
      </trkpt>
      <trkpt lat="44.90512" lon="4.72467">
        <ele>622.38098144531</ele>
        <time>2011-01-19T14:35:00Z</time>
      </trkpt>
      <trkpt lat="44.90525" lon="4.7246">
        <ele>623.71002197266</ele>
        <time>2011-01-19T14:35:05Z</time>
      </trkpt>
      <trkpt lat="44.90541" lon="4.7245">
        <ele>626.20001220703</ele>
        <time>2011-01-19T14:35:11Z</time>
      </trkpt>
      <trkpt lat="44.90547" lon="4.72447">
        <ele>627.44799804688</ele>
        <time>2011-01-19T14:35:13Z</time>
      </trkpt>
      <trkpt lat="44.90564" lon="4.72442">
        <ele>629.30102539062</ele>
        <time>2011-01-19T14:35:20Z</time>
      </trkpt>
      <trkpt lat="44.90577" lon="4.72435">
        <ele>629.98602294922</ele>
        <time>2011-01-19T14:35:26Z</time>
      </trkpt>
      <trkpt lat="44.90583" lon="4.7243">
        <ele>631.72399902344</ele>
        <time>2011-01-19T14:35:29Z</time>
      </trkpt>
      <trkpt lat="44.90581" lon="4.72418">
        <ele>631.52301025391</ele>
        <time>2011-01-19T14:35:34Z</time>
      </trkpt>
      <trkpt lat="44.90574" lon="4.72417">
        <ele>632.32800292969</ele>
        <time>2011-01-19T14:35:37Z</time>
      </trkpt>
      <trkpt lat="44.90553" lon="4.72421">
        <ele>633.83001708984</ele>
        <time>2011-01-19T14:35:45Z</time>
      </trkpt>
      <trkpt lat="44.9053" lon="4.72423">
        <ele>632.93200683594</ele>
        <time>2011-01-19T14:35:52Z</time>
      </trkpt>
      <trkpt lat="44.90503" lon="4.72427">
        <ele>636.96002197266</ele>
        <time>2011-01-19T14:35:59Z</time>
      </trkpt>
      <trkpt lat="44.90474" lon="4.72431">
        <ele>635.94000244141</ele>
        <time>2011-01-19T14:36:06Z</time>
      </trkpt>
      <trkpt lat="44.90445" lon="4.72438">
        <ele>638.97100830078</ele>
        <time>2011-01-19T14:36:13Z</time>
      </trkpt>
      <trkpt lat="44.90437" lon="4.72441">
        <ele>639.66101074219</ele>
        <time>2011-01-19T14:36:15Z</time>
      </trkpt>
      <trkpt lat="44.9041" lon="4.72451">
        <ele>641.07299804688</ele>
        <time>2011-01-19T14:36:23Z</time>
      </trkpt>
      <trkpt lat="44.90387" lon="4.72456">
        <ele>642.86798095703</ele>
        <time>2011-01-19T14:36:30Z</time>
      </trkpt>
      <trkpt lat="44.90371" lon="4.72458">
        <ele>644.24499511719</ele>
        <time>2011-01-19T14:36:35Z</time>
      </trkpt>
      <trkpt lat="44.90355" lon="4.72458">
        <ele>646.27099609375</ele>
        <time>2011-01-19T14:36:40Z</time>
      </trkpt>
      <trkpt lat="44.90336" lon="4.72454">
        <ele>648.32702636719</ele>
        <time>2011-01-19T14:36:46Z</time>
      </trkpt>
      <trkpt lat="44.90324" lon="4.72435">
        <ele>649.45098876953</ele>
        <time>2011-01-19T14:36:52Z</time>
      </trkpt>
      <trkpt lat="44.90324" lon="4.72431">
        <ele>649.64398193359</ele>
        <time>2011-01-19T14:36:53Z</time>
      </trkpt>
      <trkpt lat="44.90321" lon="4.72397">
        <ele>651.37701416016</ele>
        <time>2011-01-19T14:37:02Z</time>
      </trkpt>
      <trkpt lat="44.90321" lon="4.7237">
        <ele>654.78399658203</ele>
        <time>2011-01-19T14:37:09Z</time>
      </trkpt>
      <trkpt lat="44.90325" lon="4.72332">
        <ele>655.86499023438</ele>
        <time>2011-01-19T14:37:17Z</time>
      </trkpt>
      <trkpt lat="44.90333" lon="4.72302">
        <ele>658.02502441406</ele>
        <time>2011-01-19T14:37:24Z</time>
      </trkpt>
      <trkpt lat="44.90345" lon="4.72276">
        <ele>659.67297363281</ele>
        <time>2011-01-19T14:37:31Z</time>
      </trkpt>
      <trkpt lat="44.90355" lon="4.72261">
        <ele>661.05200195312</ele>
        <time>2011-01-19T14:37:36Z</time>
      </trkpt>
      <trkpt lat="44.90371" lon="4.72242">
        <ele>662.32098388672</ele>
        <time>2011-01-19T14:37:43Z</time>
      </trkpt>
      <trkpt lat="44.90391" lon="4.72233">
        <ele>662.97198486328</ele>
        <time>2011-01-19T14:37:50Z</time>
      </trkpt>
      <trkpt lat="44.9041" lon="4.72233">
        <ele>664.84899902344</ele>
        <time>2011-01-19T14:37:57Z</time>
      </trkpt>
      <trkpt lat="44.90431" lon="4.72234">
        <ele>666.28698730469</ele>
        <time>2011-01-19T14:38:04Z</time>
      </trkpt>
      <trkpt lat="44.9045" lon="4.72233">
        <ele>667.73400878906</ele>
        <time>2011-01-19T14:38:10Z</time>
      </trkpt>
      <trkpt lat="44.90469" lon="4.72233">
        <ele>669.81097412109</ele>
        <time>2011-01-19T14:38:17Z</time>
      </trkpt>
      <trkpt lat="44.90486" lon="4.72233">
        <ele>671.27801513672</ele>
        <time>2011-01-19T14:38:24Z</time>
      </trkpt>
      <trkpt lat="44.90503" lon="4.7223">
        <ele>672.82702636719</ele>
        <time>2011-01-19T14:38:29Z</time>
      </trkpt>
      <trkpt lat="44.90506" lon="4.7223">
        <ele>673.08697509766</ele>
        <time>2011-01-19T14:38:30Z</time>
      </trkpt>
      <trkpt lat="44.90523" lon="4.7223">
        <ele>674.84301757812</ele>
        <time>2011-01-19T14:38:36Z</time>
      </trkpt>
      <trkpt lat="44.90546" lon="4.72228">
        <ele>676.22100830078</ele>
        <time>2011-01-19T14:38:43Z</time>
      </trkpt>
      <trkpt lat="44.90553" lon="4.72227">
        <ele>677.09197998047</ele>
        <time>2011-01-19T14:38:45Z</time>
      </trkpt>
      <trkpt lat="44.90585" lon="4.72226">
        <ele>679.76000976562</ele>
        <time>2011-01-19T14:38:54Z</time>
      </trkpt>
      <trkpt lat="44.9061" lon="4.72224">
        <ele>681.03997802734</ele>
        <time>2011-01-19T14:39:01Z</time>
      </trkpt>
      <trkpt lat="44.90621" lon="4.72224">
        <ele>682.48498535156</ele>
        <time>2011-01-19T14:39:04Z</time>
      </trkpt>
      <trkpt lat="44.90646" lon="4.72222">
        <ele>683.10198974609</ele>
        <time>2011-01-19T14:39:11Z</time>
      </trkpt>
      <trkpt lat="44.90667" lon="4.72211">
        <ele>684.44299316406</ele>
        <time>2011-01-19T14:39:17Z</time>
      </trkpt>
      <trkpt lat="44.90679" lon="4.7219">
        <ele>685.45501708984</ele>
        <time>2011-01-19T14:39:22Z</time>
      </trkpt>
      <trkpt lat="44.90679" lon="4.72163">
        <ele>685.79498291016</ele>
        <time>2011-01-19T14:39:27Z</time>
      </trkpt>
      <trkpt lat="44.90668" lon="4.72131">
        <ele>687.60198974609</ele>
        <time>2011-01-19T14:39:34Z</time>
      </trkpt>
      <trkpt lat="44.90657" lon="4.72103">
        <ele>688.84698486328</ele>
        <time>2011-01-19T14:39:41Z</time>
      </trkpt>
      <trkpt lat="44.90651" lon="4.7208">
        <ele>689.78698730469</ele>
        <time>2011-01-19T14:39:47Z</time>
      </trkpt>
      <trkpt lat="44.90644" lon="4.72053">
        <ele>692.89300537109</ele>
        <time>2011-01-19T14:39:54Z</time>
      </trkpt>
      <trkpt lat="44.90643" lon="4.7205">
        <ele>693.06701660156</ele>
        <time>2011-01-19T14:39:55Z</time>
      </trkpt>
      <trkpt lat="44.90635" lon="4.72024">
        <ele>693.73602294922</ele>
        <time>2011-01-19T14:40:02Z</time>
      </trkpt>
      <trkpt lat="44.90625" lon="4.72">
        <ele>695.51800537109</ele>
        <time>2011-01-19T14:40:09Z</time>
      </trkpt>
      <trkpt lat="44.90612" lon="4.7198">
        <ele>697.77099609375</ele>
        <time>2011-01-19T14:40:16Z</time>
      </trkpt>
      <trkpt lat="44.90593" lon="4.71956">
        <ele>698.78198242188</ele>
        <time>2011-01-19T14:40:25Z</time>
      </trkpt>
      <trkpt lat="44.90578" lon="4.71932">
        <ele>700.48199462891</ele>
        <time>2011-01-19T14:40:33Z</time>
      </trkpt>
      <trkpt lat="44.90575" lon="4.71912">
        <ele>701.43701171875</ele>
        <time>2011-01-19T14:40:38Z</time>
      </trkpt>
      <trkpt lat="44.90583" lon="4.7189">
        <ele>702.03497314453</ele>
        <time>2011-01-19T14:40:43Z</time>
      </trkpt>
      <trkpt lat="44.90587" lon="4.71865">
        <ele>703.32702636719</ele>
        <time>2011-01-19T14:40:48Z</time>
      </trkpt>
      <trkpt lat="44.90578" lon="4.71845">
        <ele>704.36499023438</ele>
        <time>2011-01-19T14:40:53Z</time>
      </trkpt>
      <trkpt lat="44.9056" lon="4.71818">
        <ele>705.5830078125</ele>
        <time>2011-01-19T14:41:01Z</time>
      </trkpt>
      <trkpt lat="44.90552" lon="4.71792">
        <ele>706.85998535156</ele>
        <time>2011-01-19T14:41:07Z</time>
      </trkpt>
      <trkpt lat="44.90554" lon="4.71763">
        <ele>708.35601806641</ele>
        <time>2011-01-19T14:41:13Z</time>
      </trkpt>
      <trkpt lat="44.90569" lon="4.71736">
        <ele>709.09802246094</ele>
        <time>2011-01-19T14:41:20Z</time>
      </trkpt>
      <trkpt lat="44.90578" lon="4.71713">
        <ele>710.64202880859</ele>
        <time>2011-01-19T14:41:26Z</time>
      </trkpt>
      <trkpt lat="44.90579" lon="4.71679">
        <ele>711.62200927734</ele>
        <time>2011-01-19T14:41:34Z</time>
      </trkpt>
      <trkpt lat="44.90576" lon="4.71652">
        <ele>713.6240234375</ele>
        <time>2011-01-19T14:41:41Z</time>
      </trkpt>
      <trkpt lat="44.90572" lon="4.71626">
        <ele>715.04602050781</ele>
        <time>2011-01-19T14:41:48Z</time>
      </trkpt>
      <trkpt lat="44.90568" lon="4.71604">
        <ele>716.04400634766</ele>
        <time>2011-01-19T14:41:53Z</time>
      </trkpt>
      <trkpt lat="44.90566" lon="4.71565">
        <ele>719.0830078125</ele>
        <time>2011-01-19T14:42:04Z</time>
      </trkpt>
      <trkpt lat="44.90566" lon="4.71559">
        <ele>719.71301269531</ele>
        <time>2011-01-19T14:42:09Z</time>
      </trkpt>
      <trkpt lat="44.90565" lon="4.71555">
        <ele>718.68902587891</ele>
        <time>2011-01-19T14:45:23Z</time>
      </trkpt>
      <trkpt lat="44.90565" lon="4.71553">
        <ele>718.80999755859</ele>
        <time>2011-01-19T14:45:24Z</time>
      </trkpt>
      <trkpt lat="44.90568" lon="4.71542">
        <ele>719.57202148438</ele>
        <time>2011-01-19T14:45:27Z</time>
      </trkpt>
      <trkpt lat="44.90573" lon="4.71532">
        <ele>719.78399658203</ele>
        <time>2011-01-19T14:45:29Z</time>
      </trkpt>
      <trkpt lat="44.90579" lon="4.71515">
        <ele>718.80499267578</ele>
        <time>2011-01-19T14:45:32Z</time>
      </trkpt>
      <trkpt lat="44.90582" lon="4.71503">
        <ele>717.96600341797</ele>
        <time>2011-01-19T14:45:34Z</time>
      </trkpt>
      <trkpt lat="44.90578" lon="4.71469">
        <ele>715.83697509766</ele>
        <time>2011-01-19T14:45:39Z</time>
      </trkpt>
      <trkpt lat="44.90569" lon="4.71449">
        <ele>715.75</ele>
        <time>2011-01-19T14:45:42Z</time>
      </trkpt>
      <trkpt lat="44.90562" lon="4.71409">
        <ele>714.48999023438</ele>
        <time>2011-01-19T14:45:47Z</time>
      </trkpt>
      <trkpt lat="44.90569" lon="4.71383">
        <ele>714.06097412109</ele>
        <time>2011-01-19T14:45:50Z</time>
      </trkpt>
      <trkpt lat="44.90598" lon="4.71327">
        <ele>712.86700439453</ele>
        <time>2011-01-19T14:45:57Z</time>
      </trkpt>
      <trkpt lat="44.90601" lon="4.71319">
        <ele>712.32800292969</ele>
        <time>2011-01-19T14:45:58Z</time>
      </trkpt>
      <trkpt lat="44.90611" lon="4.71284">
        <ele>711.96502685547</ele>
        <time>2011-01-19T14:46:02Z</time>
      </trkpt>
      <trkpt lat="44.90617" lon="4.71246">
        <ele>712.57598876953</ele>
        <time>2011-01-19T14:46:06Z</time>
      </trkpt>
      <trkpt lat="44.90612" lon="4.71201">
        <ele>712.89697265625</ele>
        <time>2011-01-19T14:46:10Z</time>
      </trkpt>
      <trkpt lat="44.90592" lon="4.71173">
        <ele>712.49798583984</ele>
        <time>2011-01-19T14:46:13Z</time>
      </trkpt>
      <trkpt lat="44.90581" lon="4.71156">
        <ele>712.58599853516</ele>
        <time>2011-01-19T14:46:15Z</time>
      </trkpt>
      <trkpt lat="44.90566" lon="4.71092">
        <ele>712.84698486328</ele>
        <time>2011-01-19T14:46:21Z</time>
      </trkpt>
      <trkpt lat="44.90565" lon="4.71082">
        <ele>712.71801757812</ele>
        <time>2011-01-19T14:46:22Z</time>
      </trkpt>
      <trkpt lat="44.90575" lon="4.7105">
        <ele>712.62097167969</ele>
        <time>2011-01-19T14:46:25Z</time>
      </trkpt>
      <trkpt lat="44.90588" lon="4.71036">
        <ele>712.11199951172</ele>
        <time>2011-01-19T14:46:27Z</time>
      </trkpt>
      <trkpt lat="44.90603" lon="4.71025">
        <ele>711.61199951172</ele>
        <time>2011-01-19T14:46:29Z</time>
      </trkpt>
      <trkpt lat="44.90623" lon="4.70991">
        <ele>710.39501953125</ele>
        <time>2011-01-19T14:46:33Z</time>
      </trkpt>
      <trkpt lat="44.90627" lon="4.70959">
        <ele>709.90899658203</ele>
        <time>2011-01-19T14:46:36Z</time>
      </trkpt>
      <trkpt lat="44.90628" lon="4.7094">
        <ele>709.59100341797</ele>
        <time>2011-01-19T14:46:38Z</time>
      </trkpt>
      <trkpt lat="44.90623" lon="4.70896">
        <ele>709.28198242188</ele>
        <time>2011-01-19T14:46:42Z</time>
      </trkpt>
      <trkpt lat="44.9062" lon="4.70875">
        <ele>709.45599365234</ele>
        <time>2011-01-19T14:46:44Z</time>
      </trkpt>
      <trkpt lat="44.90619" lon="4.70814">
        <ele>709.57598876953</ele>
        <time>2011-01-19T14:46:49Z</time>
      </trkpt>
      <trkpt lat="44.90618" lon="4.70801">
        <ele>709.61199951172</ele>
        <time>2011-01-19T14:46:50Z</time>
      </trkpt>
      <trkpt lat="44.90599" lon="4.70764">
        <ele>709.51397705078</ele>
        <time>2011-01-19T14:46:54Z</time>
      </trkpt>
      <trkpt lat="44.90576" lon="4.7072">
        <ele>709.93298339844</ele>
        <time>2011-01-19T14:46:59Z</time>
      </trkpt>
      <trkpt lat="44.90566" lon="4.7069">
        <ele>710.24499511719</ele>
        <time>2011-01-19T14:47:02Z</time>
      </trkpt>
      <trkpt lat="44.90561" lon="4.70648">
        <ele>709.61297607422</ele>
        <time>2011-01-19T14:47:07Z</time>
      </trkpt>
      <trkpt lat="44.90557" lon="4.7061">
        <ele>709.5</ele>
        <time>2011-01-19T14:47:11Z</time>
      </trkpt>
      <trkpt lat="44.90552" lon="4.7057">
        <ele>709.21002197266</ele>
        <time>2011-01-19T14:47:15Z</time>
      </trkpt>
      <trkpt lat="44.90545" lon="4.7051">
        <ele>709.04602050781</ele>
        <time>2011-01-19T14:47:21Z</time>
      </trkpt>
      <trkpt lat="44.90542" lon="4.70488">
        <ele>708.94500732422</ele>
        <time>2011-01-19T14:47:23Z</time>
      </trkpt>
      <trkpt lat="44.90523" lon="4.7044">
        <ele>708.56402587891</ele>
        <time>2011-01-19T14:47:28Z</time>
      </trkpt>
      <trkpt lat="44.905" lon="4.70427">
        <ele>708.13800048828</ele>
        <time>2011-01-19T14:47:31Z</time>
      </trkpt>
      <trkpt lat="44.90478" lon="4.70436">
        <ele>707.99700927734</ele>
        <time>2011-01-19T14:47:34Z</time>
      </trkpt>
      <trkpt lat="44.90435" lon="4.70445">
        <ele>707.31799316406</ele>
        <time>2011-01-19T14:47:38Z</time>
      </trkpt>
      <trkpt lat="44.90413" lon="4.70426">
        <ele>707.19702148438</ele>
        <time>2011-01-19T14:47:41Z</time>
      </trkpt>
      <trkpt lat="44.90398" lon="4.70415">
        <ele>707.125</ele>
        <time>2011-01-19T14:47:43Z</time>
      </trkpt>
      <trkpt lat="44.9035" lon="4.70394">
        <ele>706.05902099609</ele>
        <time>2011-01-19T14:47:49Z</time>
      </trkpt>
      <trkpt lat="44.90328" lon="4.70353">
        <ele>704.03399658203</ele>
        <time>2011-01-19T14:47:53Z</time>
      </trkpt>
      <trkpt lat="44.90326" lon="4.70341">
        <ele>703.81500244141</ele>
        <time>2011-01-19T14:47:54Z</time>
      </trkpt>
      <trkpt lat="44.90324" lon="4.70321">
        <ele>702.9580078125</ele>
        <time>2011-01-19T14:47:56Z</time>
      </trkpt>
      <trkpt lat="44.90323" lon="4.70298">
        <ele>702.1669921875</ele>
        <time>2011-01-19T14:47:58Z</time>
      </trkpt>
      <trkpt lat="44.9033" lon="4.70245">
        <ele>700.38201904297</ele>
        <time>2011-01-19T14:48:03Z</time>
      </trkpt>
      <trkpt lat="44.90331" lon="4.70183">
        <ele>698.43798828125</ele>
        <time>2011-01-19T14:48:08Z</time>
      </trkpt>
      <trkpt lat="44.9033" lon="4.70169">
        <ele>698.59399414062</ele>
        <time>2011-01-19T14:48:09Z</time>
      </trkpt>
      <trkpt lat="44.9032" lon="4.70131">
        <ele>698.375</ele>
        <time>2011-01-19T14:48:12Z</time>
      </trkpt>
      <trkpt lat="44.90284" lon="4.7009">
        <ele>697.66802978516</ele>
        <time>2011-01-19T14:48:17Z</time>
      </trkpt>
      <trkpt lat="44.90254" lon="4.70077">
        <ele>697.52600097656</ele>
        <time>2011-01-19T14:48:20Z</time>
      </trkpt>
      <trkpt lat="44.90181" lon="4.70045">
        <ele>696.05401611328</ele>
        <time>2011-01-19T14:48:27Z</time>
      </trkpt>
      <trkpt lat="44.90129" lon="4.70021">
        <ele>695.95001220703</ele>
        <time>2011-01-19T14:48:32Z</time>
      </trkpt>
      <trkpt lat="44.90086" lon="4.70021">
        <ele>693.99700927734</ele>
        <time>2011-01-19T14:48:36Z</time>
      </trkpt>
      <trkpt lat="44.90055" lon="4.70021">
        <ele>693.76702880859</ele>
        <time>2011-01-19T14:48:39Z</time>
      </trkpt>
      <trkpt lat="44.90038" lon="4.69989">
        <ele>693.67199707031</ele>
        <time>2011-01-19T14:48:42Z</time>
      </trkpt>
      <trkpt lat="44.9004" lon="4.69953">
        <ele>690.05902099609</ele>
        <time>2011-01-19T14:48:45Z</time>
      </trkpt>
      <trkpt lat="44.90028" lon="4.69921">
        <ele>689.87701416016</ele>
        <time>2011-01-19T14:48:48Z</time>
      </trkpt>
      <trkpt lat="44.90015" lon="4.69906">
        <ele>689.48699951172</ele>
        <time>2011-01-19T14:48:50Z</time>
      </trkpt>
      <trkpt lat="44.9" lon="4.69891">
        <ele>689.04400634766</ele>
        <time>2011-01-19T14:48:52Z</time>
      </trkpt>
      <trkpt lat="44.89959" lon="4.69864">
        <ele>688.70599365234</ele>
        <time>2011-01-19T14:48:57Z</time>
      </trkpt>
      <trkpt lat="44.89946" lon="4.69822">
        <ele>689.44799804688</ele>
        <time>2011-01-19T14:49:01Z</time>
      </trkpt>
      <trkpt lat="44.89956" lon="4.69798">
        <ele>687.71002197266</ele>
        <time>2011-01-19T14:49:04Z</time>
      </trkpt>
      <trkpt lat="44.89978" lon="4.69775">
        <ele>688.35699462891</ele>
        <time>2011-01-19T14:49:07Z</time>
      </trkpt>
      <trkpt lat="44.89992" lon="4.6976">
        <ele>688.47399902344</ele>
        <time>2011-01-19T14:49:09Z</time>
      </trkpt>
      <trkpt lat="44.9001" lon="4.69734">
        <ele>688.03002929688</ele>
        <time>2011-01-19T14:49:12Z</time>
      </trkpt>
      <trkpt lat="44.90041" lon="4.6972">
        <ele>687.79602050781</ele>
        <time>2011-01-19T14:49:16Z</time>
      </trkpt>
      <trkpt lat="44.90073" lon="4.69723">
        <ele>686.68902587891</ele>
        <time>2011-01-19T14:49:20Z</time>
      </trkpt>
      <trkpt lat="44.90079" lon="4.69723">
        <ele>686.416015625</ele>
        <time>2011-01-19T14:49:21Z</time>
      </trkpt>
      <trkpt lat="44.9012" lon="4.69706">
        <ele>685.74102783203</ele>
        <time>2011-01-19T14:49:27Z</time>
      </trkpt>
      <trkpt lat="44.90157" lon="4.69687">
        <ele>685.94396972656</ele>
        <time>2011-01-19T14:49:33Z</time>
      </trkpt>
      <trkpt lat="44.90195" lon="4.69681">
        <ele>684.6240234375</ele>
        <time>2011-01-19T14:49:38Z</time>
      </trkpt>
      <trkpt lat="44.90237" lon="4.69672">
        <ele>683.57000732422</ele>
        <time>2011-01-19T14:49:44Z</time>
      </trkpt>
      <trkpt lat="44.90282" lon="4.69661">
        <ele>682.91900634766</ele>
        <time>2011-01-19T14:49:51Z</time>
      </trkpt>
      <trkpt lat="44.90326" lon="4.69647">
        <ele>682.10797119141</ele>
        <time>2011-01-19T14:49:58Z</time>
      </trkpt>
      <trkpt lat="44.90339" lon="4.69643">
        <ele>681.78601074219</ele>
        <time>2011-01-19T14:50:00Z</time>
      </trkpt>
      <trkpt lat="44.90356" lon="4.69617">
        <ele>682.78997802734</ele>
        <time>2011-01-19T14:50:04Z</time>
      </trkpt>
      <trkpt lat="44.9035" lon="4.69568">
        <ele>681.43902587891</ele>
        <time>2011-01-19T14:50:09Z</time>
      </trkpt>
      <trkpt lat="44.90343" lon="4.6954">
        <ele>681.1669921875</ele>
        <time>2011-01-19T14:50:12Z</time>
      </trkpt>
      <trkpt lat="44.90349" lon="4.69503">
        <ele>681.50897216797</ele>
        <time>2011-01-19T14:50:16Z</time>
      </trkpt>
      <trkpt lat="44.90369" lon="4.69474">
        <ele>681.75799560547</ele>
        <time>2011-01-19T14:50:20Z</time>
      </trkpt>
      <trkpt lat="44.90413" lon="4.6943">
        <ele>681.78198242188</ele>
        <time>2011-01-19T14:50:27Z</time>
      </trkpt>
      <trkpt lat="44.90442" lon="4.69424">
        <ele>681.25799560547</ele>
        <time>2011-01-19T14:50:31Z</time>
      </trkpt>
      <trkpt lat="44.90487" lon="4.69443">
        <ele>679.99200439453</ele>
        <time>2011-01-19T14:50:37Z</time>
      </trkpt>
      <trkpt lat="44.90524" lon="4.69462">
        <ele>681.19799804688</ele>
        <time>2011-01-19T14:50:43Z</time>
      </trkpt>
      <trkpt lat="44.90544" lon="4.69468">
        <ele>680.90502929688</ele>
        <time>2011-01-19T14:50:46Z</time>
      </trkpt>
      <trkpt lat="44.90575" lon="4.6946">
        <ele>681.25402832031</ele>
        <time>2011-01-19T14:50:51Z</time>
      </trkpt>
      <trkpt lat="44.90587" lon="4.69439">
        <ele>681.15399169922</ele>
        <time>2011-01-19T14:50:54Z</time>
      </trkpt>
      <trkpt lat="44.9059" lon="4.69403">
        <ele>681.22198486328</ele>
        <time>2011-01-19T14:50:58Z</time>
      </trkpt>
      <trkpt lat="44.90584" lon="4.69375">
        <ele>681.54998779297</ele>
        <time>2011-01-19T14:51:01Z</time>
      </trkpt>
      <trkpt lat="44.90554" lon="4.6929">
        <ele>683.25500488281</ele>
        <time>2011-01-19T14:51:11Z</time>
      </trkpt>
      <trkpt lat="44.90543" lon="4.69256">
        <ele>683.58599853516</ele>
        <time>2011-01-19T14:51:15Z</time>
      </trkpt>
      <trkpt lat="44.90538" lon="4.69202">
        <ele>684.28601074219</ele>
        <time>2011-01-19T14:51:21Z</time>
      </trkpt>
      <trkpt lat="44.9054" lon="4.69193">
        <ele>684.15802001953</ele>
        <time>2011-01-19T14:51:22Z</time>
      </trkpt>
      <trkpt lat="44.90557" lon="4.69137">
        <ele>683.49401855469</ele>
        <time>2011-01-19T14:51:29Z</time>
      </trkpt>
      <trkpt lat="44.9056" lon="4.6913">
        <ele>683.625</ele>
        <time>2011-01-19T14:51:30Z</time>
      </trkpt>
      <trkpt lat="44.90577" lon="4.69086">
        <ele>683.33697509766</ele>
        <time>2011-01-19T14:51:36Z</time>
      </trkpt>
      <trkpt lat="44.906" lon="4.6903">
        <ele>683.21002197266</ele>
        <time>2011-01-19T14:51:43Z</time>
      </trkpt>
      <trkpt lat="44.90604" lon="4.68987">
        <ele>684.76000976562</ele>
        <time>2011-01-19T14:51:48Z</time>
      </trkpt>
      <trkpt lat="44.90603" lon="4.68977">
        <ele>685.13201904297</ele>
        <time>2011-01-19T14:51:49Z</time>
      </trkpt>
      <trkpt lat="44.90599" lon="4.68958">
        <ele>685.55700683594</ele>
        <time>2011-01-19T14:51:51Z</time>
      </trkpt>
      <trkpt lat="44.90578" lon="4.68893">
        <ele>687.30999755859</ele>
        <time>2011-01-19T14:51:58Z</time>
      </trkpt>
      <trkpt lat="44.90564" lon="4.68834">
        <ele>686.77099609375</ele>
        <time>2011-01-19T14:52:04Z</time>
      </trkpt>
      <trkpt lat="44.90553" lon="4.68744">
        <ele>687.541015625</ele>
        <time>2011-01-19T14:52:13Z</time>
      </trkpt>
      <trkpt lat="44.90535" lon="4.68645">
        <ele>688.33502197266</ele>
        <time>2011-01-19T14:52:23Z</time>
      </trkpt>
      <trkpt lat="44.90523" lon="4.68586">
        <ele>688.9169921875</ele>
        <time>2011-01-19T14:52:29Z</time>
      </trkpt>
      <trkpt lat="44.90528" lon="4.68525">
        <ele>688.49102783203</ele>
        <time>2011-01-19T14:52:35Z</time>
      </trkpt>
      <trkpt lat="44.90546" lon="4.68483">
        <ele>690.11999511719</ele>
        <time>2011-01-19T14:52:40Z</time>
      </trkpt>
      <trkpt lat="44.90565" lon="4.68468">
        <ele>690.81201171875</ele>
        <time>2011-01-19T14:52:43Z</time>
      </trkpt>
      <trkpt lat="44.90578" lon="4.68462">
        <ele>691.00701904297</ele>
        <time>2011-01-19T14:52:45Z</time>
      </trkpt>
      <trkpt lat="44.90609" lon="4.68434">
        <ele>689.06597900391</ele>
        <time>2011-01-19T14:52:50Z</time>
      </trkpt>
      <trkpt lat="44.90617" lon="4.68416">
        <ele>688.125</ele>
        <time>2011-01-19T14:52:52Z</time>
      </trkpt>
      <trkpt lat="44.90621" lon="4.68384">
        <ele>688.27502441406</ele>
        <time>2011-01-19T14:52:55Z</time>
      </trkpt>
      <trkpt lat="44.9062" lon="4.68373">
        <ele>688.19897460938</ele>
        <time>2011-01-19T14:52:56Z</time>
      </trkpt>
      <trkpt lat="44.90611" lon="4.68275">
        <ele>686.68200683594</ele>
        <time>2011-01-19T14:53:04Z</time>
      </trkpt>
      <trkpt lat="44.90606" lon="4.68191">
        <ele>684.84497070312</ele>
        <time>2011-01-19T14:53:11Z</time>
      </trkpt>
      <trkpt lat="44.90611" lon="4.68156">
        <ele>684.45001220703</ele>
        <time>2011-01-19T14:53:14Z</time>
      </trkpt>
      <trkpt lat="44.9063" lon="4.68117">
        <ele>683.85797119141</ele>
        <time>2011-01-19T14:53:18Z</time>
      </trkpt>
      <trkpt lat="44.90644" lon="4.68105">
        <ele>684.07897949219</ele>
        <time>2011-01-19T14:53:20Z</time>
      </trkpt>
      <trkpt lat="44.90696" lon="4.68068">
        <ele>685.51501464844</ele>
        <time>2011-01-19T14:53:28Z</time>
      </trkpt>
      <trkpt lat="44.90741" lon="4.68048">
        <ele>686.81896972656</ele>
        <time>2011-01-19T14:53:35Z</time>
      </trkpt>
      <trkpt lat="44.90781" lon="4.68024">
        <ele>688.11602783203</ele>
        <time>2011-01-19T14:53:42Z</time>
      </trkpt>
      <trkpt lat="44.90807" lon="4.68003">
        <ele>688.75201416016</ele>
        <time>2011-01-19T14:53:47Z</time>
      </trkpt>
      <trkpt lat="44.90828" lon="4.67976">
        <ele>688.89501953125</ele>
        <time>2011-01-19T14:53:53Z</time>
      </trkpt>
      <trkpt lat="44.90833" lon="4.67971">
        <ele>689.01000976562</ele>
        <time>2011-01-19T14:53:56Z</time>
      </trkpt>
      <trkpt lat="44.90848" lon="4.67971">
        <ele>688.76202392578</ele>
        <time>2011-01-19T14:54:02Z</time>
      </trkpt>
      <trkpt lat="44.90852" lon="4.6797">
        <ele>688.69396972656</ele>
        <time>2011-01-19T14:54:03Z</time>
      </trkpt>
      <trkpt lat="44.9087" lon="4.67965">
        <ele>688.40698242188</ele>
        <time>2011-01-19T14:54:07Z</time>
      </trkpt>
      <trkpt lat="44.90904" lon="4.67953">
        <ele>688.05102539062</ele>
        <time>2011-01-19T14:54:14Z</time>
      </trkpt>
      <trkpt lat="44.90915" lon="4.67949">
        <ele>688.02099609375</ele>
        <time>2011-01-19T14:54:16Z</time>
      </trkpt>
      <trkpt lat="44.90945" lon="4.67949">
        <ele>687.791015625</ele>
        <time>2011-01-19T14:54:21Z</time>
      </trkpt>
      <trkpt lat="44.90961" lon="4.67963">
        <ele>688.33898925781</ele>
        <time>2011-01-19T14:54:24Z</time>
      </trkpt>
      <trkpt lat="44.90972" lon="4.67984">
        <ele>688.57800292969</ele>
        <time>2011-01-19T14:54:27Z</time>
      </trkpt>
      <trkpt lat="44.90984" lon="4.68012">
        <ele>689.22302246094</ele>
        <time>2011-01-19T14:54:31Z</time>
      </trkpt>
      <trkpt lat="44.91011" lon="4.68035">
        <ele>689.91198730469</ele>
        <time>2011-01-19T14:54:36Z</time>
      </trkpt>
      <trkpt lat="44.91024" lon="4.68037">
        <ele>689.50402832031</ele>
        <time>2011-01-19T14:54:38Z</time>
      </trkpt>
      <trkpt lat="44.9107" lon="4.68035">
        <ele>689.23400878906</ele>
        <time>2011-01-19T14:54:45Z</time>
      </trkpt>
      <trkpt lat="44.91116" lon="4.68027">
        <ele>688.27301025391</ele>
        <time>2011-01-19T14:54:52Z</time>
      </trkpt>
      <trkpt lat="44.91123" lon="4.68026">
        <ele>688.42102050781</ele>
        <time>2011-01-19T14:54:53Z</time>
      </trkpt>
      <trkpt lat="44.91156" lon="4.68037">
        <ele>688.07397460938</ele>
        <time>2011-01-19T14:54:58Z</time>
      </trkpt>
      <trkpt lat="44.91228" lon="4.68083">
        <ele>688.55200195312</ele>
        <time>2011-01-19T14:55:10Z</time>
      </trkpt>
      <trkpt lat="44.91282" lon="4.68116">
        <ele>688.94799804688</ele>
        <time>2011-01-19T14:55:19Z</time>
      </trkpt>
      <trkpt lat="44.91307" lon="4.6813">
        <ele>687.35797119141</ele>
        <time>2011-01-19T14:55:23Z</time>
      </trkpt>
      <trkpt lat="44.91344" lon="4.68143">
        <ele>687.34100341797</ele>
        <time>2011-01-19T14:55:29Z</time>
      </trkpt>
      <trkpt lat="44.91388" lon="4.6815">
        <ele>687.26599121094</ele>
        <time>2011-01-19T14:55:36Z</time>
      </trkpt>
      <trkpt lat="44.91427" lon="4.68151">
        <ele>687.15002441406</ele>
        <time>2011-01-19T14:55:42Z</time>
      </trkpt>
      <trkpt lat="44.91459" lon="4.68136">
        <ele>687.57202148438</ele>
        <time>2011-01-19T14:55:47Z</time>
      </trkpt>
      <trkpt lat="44.91488" lon="4.68107">
        <ele>686.63897705078</ele>
        <time>2011-01-19T14:55:52Z</time>
      </trkpt>
      <trkpt lat="44.91499" lon="4.68095">
        <ele>686.74102783203</ele>
        <time>2011-01-19T14:55:54Z</time>
      </trkpt>
      <trkpt lat="44.91528" lon="4.68081">
        <ele>686.59899902344</ele>
        <time>2011-01-19T14:55:58Z</time>
      </trkpt>
      <trkpt lat="44.91552" lon="4.68084">
        <ele>687.46600341797</ele>
        <time>2011-01-19T14:56:01Z</time>
      </trkpt>
      <trkpt lat="44.91579" lon="4.68101">
        <ele>687.49102783203</ele>
        <time>2011-01-19T14:56:05Z</time>
      </trkpt>
      <trkpt lat="44.91604" lon="4.68139">
        <ele>687.56201171875</ele>
        <time>2011-01-19T14:56:10Z</time>
      </trkpt>
      <trkpt lat="44.91619" lon="4.68182">
        <ele>687.18902587891</ele>
        <time>2011-01-19T14:56:15Z</time>
      </trkpt>
      <trkpt lat="44.91622" lon="4.6823">
        <ele>687.74499511719</ele>
        <time>2011-01-19T14:56:20Z</time>
      </trkpt>
      <trkpt lat="44.91621" lon="4.68241">
        <ele>687.54498291016</ele>
        <time>2011-01-19T14:56:21Z</time>
      </trkpt>
      <trkpt lat="44.91613" lon="4.6828">
        <ele>686.56896972656</ele>
        <time>2011-01-19T14:56:25Z</time>
      </trkpt>
      <trkpt lat="44.91595" lon="4.68345">
        <ele>687.59600830078</ele>
        <time>2011-01-19T14:56:32Z</time>
      </trkpt>
      <trkpt lat="44.9159" lon="4.68364">
        <ele>687.37902832031</ele>
        <time>2011-01-19T14:56:34Z</time>
      </trkpt>
      <trkpt lat="44.91573" lon="4.68398">
        <ele>686.46197509766</ele>
        <time>2011-01-19T14:56:38Z</time>
      </trkpt>
      <trkpt lat="44.91552" lon="4.68404">
        <ele>686.55102539062</ele>
        <time>2011-01-19T14:56:41Z</time>
      </trkpt>
      <trkpt lat="44.91545" lon="4.68403">
        <ele>686.39398193359</ele>
        <time>2011-01-19T14:56:42Z</time>
      </trkpt>
      <trkpt lat="44.91496" lon="4.68395">
        <ele>686.97302246094</ele>
        <time>2011-01-19T14:56:49Z</time>
      </trkpt>
      <trkpt lat="44.91489" lon="4.68395">
        <ele>687.13702392578</ele>
        <time>2011-01-19T14:56:50Z</time>
      </trkpt>
      <trkpt lat="44.91418" lon="4.68405">
        <ele>686.40698242188</ele>
        <time>2011-01-19T14:56:59Z</time>
      </trkpt>
      <trkpt lat="44.91379" lon="4.68422">
        <ele>687.13098144531</ele>
        <time>2011-01-19T14:57:04Z</time>
      </trkpt>
      <trkpt lat="44.91311" lon="4.68466">
        <ele>687.31896972656</ele>
        <time>2011-01-19T14:57:13Z</time>
      </trkpt>
      <trkpt lat="44.91267" lon="4.68497">
        <ele>687.03698730469</ele>
        <time>2011-01-19T14:57:19Z</time>
      </trkpt>
      <trkpt lat="44.91241" lon="4.6854">
        <ele>686.73699951172</ele>
        <time>2011-01-19T14:57:24Z</time>
      </trkpt>
      <trkpt lat="44.91233" lon="4.68584">
        <ele>687.34002685547</ele>
        <time>2011-01-19T14:57:28Z</time>
      </trkpt>
      <trkpt lat="44.91232" lon="4.68606">
        <ele>687.55297851562</ele>
        <time>2011-01-19T14:57:30Z</time>
      </trkpt>
      <trkpt lat="44.91219" lon="4.68645">
        <ele>687.54400634766</ele>
        <time>2011-01-19T14:57:34Z</time>
      </trkpt>
      <trkpt lat="44.91208" lon="4.68661">
        <ele>687.50500488281</ele>
        <time>2011-01-19T14:57:36Z</time>
      </trkpt>
      <trkpt lat="44.91171" lon="4.68712">
        <ele>687.70697021484</ele>
        <time>2011-01-19T14:57:43Z</time>
      </trkpt>
      <trkpt lat="44.91148" lon="4.68769">
        <ele>687.35400390625</ele>
        <time>2011-01-19T14:57:49Z</time>
      </trkpt>
      <trkpt lat="44.91136" lon="4.68822">
        <ele>686.54699707031</ele>
        <time>2011-01-19T14:57:54Z</time>
      </trkpt>
      <trkpt lat="44.91139" lon="4.68866">
        <ele>687.19598388672</ele>
        <time>2011-01-19T14:57:58Z</time>
      </trkpt>
      <trkpt lat="44.91154" lon="4.68892">
        <ele>687.76098632812</ele>
        <time>2011-01-19T14:58:01Z</time>
      </trkpt>
      <trkpt lat="44.91159" lon="4.68898">
        <ele>687.6669921875</ele>
        <time>2011-01-19T14:58:02Z</time>
      </trkpt>
      <trkpt lat="44.91211" lon="4.68947">
        <ele>687.51202392578</ele>
        <time>2011-01-19T14:58:10Z</time>
      </trkpt>
      <trkpt lat="44.91225" lon="4.68958">
        <ele>687.56701660156</ele>
        <time>2011-01-19T14:58:12Z</time>
      </trkpt>
      <trkpt lat="44.91239" lon="4.6897">
        <ele>687.72802734375</ele>
        <time>2011-01-19T14:58:14Z</time>
      </trkpt>
      <trkpt lat="44.91261" lon="4.69">
        <ele>687.98901367188</ele>
        <time>2011-01-19T14:58:18Z</time>
      </trkpt>
      <trkpt lat="44.91265" lon="4.69009">
        <ele>688.38702392578</ele>
        <time>2011-01-19T14:58:19Z</time>
      </trkpt>
      <trkpt lat="44.91279" lon="4.69068">
        <ele>688.22900390625</ele>
        <time>2011-01-19T14:58:25Z</time>
      </trkpt>
      <trkpt lat="44.91282" lon="4.69088">
        <ele>687.97601318359</ele>
        <time>2011-01-19T14:58:27Z</time>
      </trkpt>
      <trkpt lat="44.91297" lon="4.6913">
        <ele>689.67999267578</ele>
        <time>2011-01-19T14:58:32Z</time>
      </trkpt>
      <trkpt lat="44.91302" lon="4.69136">
        <ele>689.99401855469</ele>
        <time>2011-01-19T14:58:33Z</time>
      </trkpt>
      <trkpt lat="44.9134" lon="4.69171">
        <ele>689.13098144531</ele>
        <time>2011-01-19T14:58:40Z</time>
      </trkpt>
      <trkpt lat="44.91346" lon="4.69174">
        <ele>689.07397460938</ele>
        <time>2011-01-19T14:58:41Z</time>
      </trkpt>
      <trkpt lat="44.91372" lon="4.69179">
        <ele>688.65600585938</ele>
        <time>2011-01-19T14:58:45Z</time>
      </trkpt>
      <trkpt lat="44.9141" lon="4.69169">
        <ele>688.375</ele>
        <time>2011-01-19T14:58:51Z</time>
      </trkpt>
      <trkpt lat="44.9146" lon="4.69146">
        <ele>686.83599853516</ele>
        <time>2011-01-19T14:58:59Z</time>
      </trkpt>
      <trkpt lat="44.91467" lon="4.69144">
        <ele>686.99200439453</ele>
        <time>2011-01-19T14:59:00Z</time>
      </trkpt>
      <trkpt lat="44.91502" lon="4.69144">
        <ele>687.48297119141</ele>
        <time>2011-01-19T14:59:05Z</time>
      </trkpt>
      <trkpt lat="44.91526" lon="4.69164">
        <ele>686.90100097656</ele>
        <time>2011-01-19T14:59:09Z</time>
      </trkpt>
      <trkpt lat="44.91549" lon="4.69203">
        <ele>686.95397949219</ele>
        <time>2011-01-19T14:59:14Z</time>
      </trkpt>
      <trkpt lat="44.91552" lon="4.69212">
        <ele>687.21398925781</ele>
        <time>2011-01-19T14:59:15Z</time>
      </trkpt>
      <trkpt lat="44.91562" lon="4.69268">
        <ele>687.76300048828</ele>
        <time>2011-01-19T14:59:21Z</time>
      </trkpt>
      <trkpt lat="44.91562" lon="4.69337">
        <ele>687.31597900391</ele>
        <time>2011-01-19T14:59:28Z</time>
      </trkpt>
      <trkpt lat="44.91562" lon="4.69396">
        <ele>686.84497070312</ele>
        <time>2011-01-19T14:59:34Z</time>
      </trkpt>
      <trkpt lat="44.9157" lon="4.69466">
        <ele>687.86102294922</ele>
        <time>2011-01-19T14:59:41Z</time>
      </trkpt>
      <trkpt lat="44.91583" lon="4.69513">
        <ele>688.36499023438</ele>
        <time>2011-01-19T14:59:46Z</time>
      </trkpt>
      <trkpt lat="44.91609" lon="4.69563">
        <ele>688.46099853516</ele>
        <time>2011-01-19T14:59:52Z</time>
      </trkpt>
      <trkpt lat="44.91618" lon="4.69581">
        <ele>688.43103027344</ele>
        <time>2011-01-19T14:59:54Z</time>
      </trkpt>
      <trkpt lat="44.91627" lon="4.69622">
        <ele>687.51898193359</ele>
        <time>2011-01-19T14:59:58Z</time>
      </trkpt>
      <trkpt lat="44.91624" lon="4.69643">
        <ele>687.43701171875</ele>
        <time>2011-01-19T15:00:00Z</time>
      </trkpt>
      <trkpt lat="44.91618" lon="4.69683">
        <ele>687.19897460938</ele>
        <time>2011-01-19T15:00:04Z</time>
      </trkpt>
      <trkpt lat="44.91621" lon="4.69735">
        <ele>686.97698974609</ele>
        <time>2011-01-19T15:00:09Z</time>
      </trkpt>
      <trkpt lat="44.91631" lon="4.69765">
        <ele>686.85900878906</ele>
        <time>2011-01-19T15:00:12Z</time>
      </trkpt>
      <trkpt lat="44.91662" lon="4.69815">
        <ele>686.05798339844</ele>
        <time>2011-01-19T15:00:18Z</time>
      </trkpt>
      <trkpt lat="44.9169" lon="4.69834">
        <ele>686.14202880859</ele>
        <time>2011-01-19T15:00:22Z</time>
      </trkpt>
      <trkpt lat="44.91744" lon="4.6985">
        <ele>684.65197753906</ele>
        <time>2011-01-19T15:00:29Z</time>
      </trkpt>
      <trkpt lat="44.91783" lon="4.6986">
        <ele>684.19598388672</ele>
        <time>2011-01-19T15:00:34Z</time>
      </trkpt>
      <trkpt lat="44.91816" lon="4.69861">
        <ele>683.16802978516</ele>
        <time>2011-01-19T15:00:38Z</time>
      </trkpt>
      <trkpt lat="44.91845" lon="4.69882">
        <ele>681.52099609375</ele>
        <time>2011-01-19T15:00:42Z</time>
      </trkpt>
      <trkpt lat="44.91849" lon="4.69892">
        <ele>681.41101074219</ele>
        <time>2011-01-19T15:00:43Z</time>
      </trkpt>
      <trkpt lat="44.91856" lon="4.69912">
        <ele>681.34301757812</ele>
        <time>2011-01-19T15:00:45Z</time>
      </trkpt>
      <trkpt lat="44.91879" lon="4.69944">
        <ele>681.29302978516</ele>
        <time>2011-01-19T15:00:49Z</time>
      </trkpt>
      <trkpt lat="44.91905" lon="4.69971">
        <ele>680.7509765625</ele>
        <time>2011-01-19T15:00:53Z</time>
      </trkpt>
      <trkpt lat="44.91924" lon="4.70006">
        <ele>680.56597900391</ele>
        <time>2011-01-19T15:00:57Z</time>
      </trkpt>
      <trkpt lat="44.91964" lon="4.70093">
        <ele>679.91101074219</ele>
        <time>2011-01-19T15:01:06Z</time>
      </trkpt>
      <trkpt lat="44.91991" lon="4.70156">
        <ele>678.03198242188</ele>
        <time>2011-01-19T15:01:12Z</time>
      </trkpt>
      <trkpt lat="44.92009" lon="4.70208">
        <ele>677.7490234375</ele>
        <time>2011-01-19T15:01:17Z</time>
      </trkpt>
      <trkpt lat="44.92022" lon="4.70266">
        <ele>676.77502441406</ele>
        <time>2011-01-19T15:01:22Z</time>
      </trkpt>
      <trkpt lat="44.92029" lon="4.70349">
        <ele>676.61199951172</ele>
        <time>2011-01-19T15:01:29Z</time>
      </trkpt>
      <trkpt lat="44.92038" lon="4.70382">
        <ele>676.07000732422</ele>
        <time>2011-01-19T15:01:32Z</time>
      </trkpt>
      <trkpt lat="44.92052" lon="4.70412">
        <ele>675.89202880859</ele>
        <time>2011-01-19T15:01:35Z</time>
      </trkpt>
      <trkpt lat="44.9208" lon="4.70431">
        <ele>676.08898925781</ele>
        <time>2011-01-19T15:01:39Z</time>
      </trkpt>
      <trkpt lat="44.92095" lon="4.70427">
        <ele>676.95001220703</ele>
        <time>2011-01-19T15:01:41Z</time>
      </trkpt>
      <trkpt lat="44.9211" lon="4.70422">
        <ele>677.84100341797</ele>
        <time>2011-01-19T15:01:43Z</time>
      </trkpt>
      <trkpt lat="44.92117" lon="4.7042">
        <ele>677.89099121094</ele>
        <time>2011-01-19T15:01:44Z</time>
      </trkpt>
      <trkpt lat="44.92141" lon="4.70402">
        <ele>675.47802734375</ele>
        <time>2011-01-19T15:01:48Z</time>
      </trkpt>
      <trkpt lat="44.92168" lon="4.70354">
        <ele>675.21002197266</ele>
        <time>2011-01-19T15:01:54Z</time>
      </trkpt>
      <trkpt lat="44.92179" lon="4.70337">
        <ele>672.94702148438</ele>
        <time>2011-01-19T15:01:56Z</time>
      </trkpt>
      <trkpt lat="44.92191" lon="4.70319">
        <ele>671.92199707031</ele>
        <time>2011-01-19T15:01:58Z</time>
      </trkpt>
      <trkpt lat="44.9221" lon="4.70294">
        <ele>670.48999023438</ele>
        <time>2011-01-19T15:02:01Z</time>
      </trkpt>
      <trkpt lat="44.92224" lon="4.70278">
        <ele>669.625</ele>
        <time>2011-01-19T15:02:03Z</time>
      </trkpt>
      <trkpt lat="44.92253" lon="4.70268">
        <ele>667.94396972656</ele>
        <time>2011-01-19T15:02:06Z</time>
      </trkpt>
      <trkpt lat="44.92263" lon="4.7027">
        <ele>667.65502929688</ele>
        <time>2011-01-19T15:02:07Z</time>
      </trkpt>
      <trkpt lat="44.92282" lon="4.70289">
        <ele>666.52001953125</ele>
        <time>2011-01-19T15:02:09Z</time>
      </trkpt>
      <trkpt lat="44.92295" lon="4.70316">
        <ele>665.09497070312</ele>
        <time>2011-01-19T15:02:11Z</time>
      </trkpt>
      <trkpt lat="44.92312" lon="4.70386">
        <ele>662.89202880859</ele>
        <time>2011-01-19T15:02:16Z</time>
      </trkpt>
      <trkpt lat="44.92323" lon="4.7046">
        <ele>658.86102294922</ele>
        <time>2011-01-19T15:02:21Z</time>
      </trkpt>
      <trkpt lat="44.92347" lon="4.70508">
        <ele>656.63897705078</ele>
        <time>2011-01-19T15:02:25Z</time>
      </trkpt>
      <trkpt lat="44.92376" lon="4.70526">
        <ele>655.09399414062</ele>
        <time>2011-01-19T15:02:28Z</time>
      </trkpt>
      <trkpt lat="44.92386" lon="4.70529">
        <ele>654.20202636719</ele>
        <time>2011-01-19T15:02:29Z</time>
      </trkpt>
      <trkpt lat="44.92449" lon="4.70531">
        <ele>648.41302490234</ele>
        <time>2011-01-19T15:02:35Z</time>
      </trkpt>
      <trkpt lat="44.92522" lon="4.70519">
        <ele>644.78100585938</ele>
        <time>2011-01-19T15:02:42Z</time>
      </trkpt>
      <trkpt lat="44.92554" lon="4.70511">
        <ele>642.80499267578</ele>
        <time>2011-01-19T15:02:45Z</time>
      </trkpt>
      <trkpt lat="44.92596" lon="4.70491">
        <ele>640.291015625</ele>
        <time>2011-01-19T15:02:49Z</time>
      </trkpt>
      <trkpt lat="44.92638" lon="4.70468">
        <ele>635.47900390625</ele>
        <time>2011-01-19T15:02:53Z</time>
      </trkpt>
      <trkpt lat="44.92687" lon="4.70437">
        <ele>630.68402099609</ele>
        <time>2011-01-19T15:02:58Z</time>
      </trkpt>
      <trkpt lat="44.9273" lon="4.70406">
        <ele>628.60400390625</ele>
        <time>2011-01-19T15:03:02Z</time>
      </trkpt>
      <trkpt lat="44.9278" lon="4.70386">
        <ele>626.14202880859</ele>
        <time>2011-01-19T15:03:06Z</time>
      </trkpt>
      <trkpt lat="44.92855" lon="4.7037">
        <ele>621.90600585938</ele>
        <time>2011-01-19T15:03:12Z</time>
      </trkpt>
      <trkpt lat="44.92916" lon="4.70367">
        <ele>618.26098632812</ele>
        <time>2011-01-19T15:03:17Z</time>
      </trkpt>
      <trkpt lat="44.92928" lon="4.70368">
        <ele>618.02899169922</ele>
        <time>2011-01-19T15:03:18Z</time>
      </trkpt>
      <trkpt lat="44.92939" lon="4.70371">
        <ele>617.44299316406</ele>
        <time>2011-01-19T15:03:19Z</time>
      </trkpt>
      <trkpt lat="44.9299" lon="4.704">
        <ele>610.96502685547</ele>
        <time>2011-01-19T15:03:24Z</time>
      </trkpt>
      <trkpt lat="44.93015" lon="4.70432">
        <ele>609.40997314453</ele>
        <time>2011-01-19T15:03:27Z</time>
      </trkpt>
      <trkpt lat="44.93019" lon="4.70469">
        <ele>607.47100830078</ele>
        <time>2011-01-19T15:03:29Z</time>
      </trkpt>
      <trkpt lat="44.93019" lon="4.70486">
        <ele>606.26397705078</ele>
        <time>2011-01-19T15:03:30Z</time>
      </trkpt>
      <trkpt lat="44.9302" lon="4.70518">
        <ele>605.48699951172</ele>
        <time>2011-01-19T15:03:32Z</time>
      </trkpt>
      <trkpt lat="44.93025" lon="4.70567">
        <ele>603.39001464844</ele>
        <time>2011-01-19T15:03:35Z</time>
      </trkpt>
      <trkpt lat="44.93053" lon="4.70624">
        <ele>599.84399414062</ele>
        <time>2011-01-19T15:03:39Z</time>
      </trkpt>
      <trkpt lat="44.93069" lon="4.70651">
        <ele>598.21502685547</ele>
        <time>2011-01-19T15:03:41Z</time>
      </trkpt>
      <trkpt lat="44.93108" lon="4.70689">
        <ele>594.65399169922</ele>
        <time>2011-01-19T15:03:45Z</time>
      </trkpt>
      <trkpt lat="44.93142" lon="4.70707">
        <ele>593.52099609375</ele>
        <time>2011-01-19T15:03:48Z</time>
      </trkpt>
      <trkpt lat="44.93163" lon="4.70723">
        <ele>592.58599853516</ele>
        <time>2011-01-19T15:03:50Z</time>
      </trkpt>
      <trkpt lat="44.93181" lon="4.70745">
        <ele>591.45202636719</ele>
        <time>2011-01-19T15:03:52Z</time>
      </trkpt>
      <trkpt lat="44.93212" lon="4.70792">
        <ele>588.46899414062</ele>
        <time>2011-01-19T15:03:56Z</time>
      </trkpt>
      <trkpt lat="44.93225" lon="4.70819">
        <ele>587.30999755859</ele>
        <time>2011-01-19T15:03:58Z</time>
      </trkpt>
      <trkpt lat="44.93229" lon="4.70851">
        <ele>586.47100830078</ele>
        <time>2011-01-19T15:04:00Z</time>
      </trkpt>
      <trkpt lat="44.93231" lon="4.70917">
        <ele>579.64099121094</ele>
        <time>2011-01-19T15:04:04Z</time>
      </trkpt>
      <trkpt lat="44.93229" lon="4.70966">
        <ele>576.71697998047</ele>
        <time>2011-01-19T15:04:07Z</time>
      </trkpt>
      <trkpt lat="44.93235" lon="4.71016">
        <ele>574.36798095703</ele>
        <time>2011-01-19T15:04:10Z</time>
      </trkpt>
      <trkpt lat="44.93261" lon="4.71047">
        <ele>572.66802978516</ele>
        <time>2011-01-19T15:04:13Z</time>
      </trkpt>
      <trkpt lat="44.93295" lon="4.71091">
        <ele>570.7919921875</ele>
        <time>2011-01-19T15:04:17Z</time>
      </trkpt>
      <trkpt lat="44.93309" lon="4.71136">
        <ele>569.50799560547</ele>
        <time>2011-01-19T15:04:20Z</time>
      </trkpt>
      <trkpt lat="44.93328" lon="4.7118">
        <ele>567.61901855469</ele>
        <time>2011-01-19T15:04:23Z</time>
      </trkpt>
      <trkpt lat="44.93367" lon="4.71223">
        <ele>564.44598388672</ele>
        <time>2011-01-19T15:04:27Z</time>
      </trkpt>
      <trkpt lat="44.93418" lon="4.71271">
        <ele>561.90399169922</ele>
        <time>2011-01-19T15:04:32Z</time>
      </trkpt>
      <trkpt lat="44.93433" lon="4.71312">
        <ele>559.37701416016</ele>
        <time>2011-01-19T15:04:35Z</time>
      </trkpt>
      <trkpt lat="44.93431" lon="4.71328">
        <ele>557.65502929688</ele>
        <time>2011-01-19T15:04:36Z</time>
      </trkpt>
      <trkpt lat="44.93428" lon="4.71391">
        <ele>553.71502685547</ele>
        <time>2011-01-19T15:04:40Z</time>
      </trkpt>
      <trkpt lat="44.93433" lon="4.71405">
        <ele>553.69396972656</ele>
        <time>2011-01-19T15:04:41Z</time>
      </trkpt>
      <trkpt lat="44.93444" lon="4.71433">
        <ele>553.91802978516</ele>
        <time>2011-01-19T15:04:43Z</time>
      </trkpt>
      <trkpt lat="44.93452" lon="4.71493">
        <ele>552.54602050781</ele>
        <time>2011-01-19T15:04:47Z</time>
      </trkpt>
      <trkpt lat="44.93445" lon="4.71537">
        <ele>550.8330078125</ele>
        <time>2011-01-19T15:04:50Z</time>
      </trkpt>
      <trkpt lat="44.93419" lon="4.71598">
        <ele>549.15197753906</ele>
        <time>2011-01-19T15:04:55Z</time>
      </trkpt>
      <trkpt lat="44.93412" lon="4.7161">
        <ele>549.14898681641</ele>
        <time>2011-01-19T15:04:56Z</time>
      </trkpt>
      <trkpt lat="44.93395" lon="4.71666">
        <ele>548.17602539062</ele>
        <time>2011-01-19T15:05:00Z</time>
      </trkpt>
      <trkpt lat="44.93396" lon="4.71681">
        <ele>547.96899414062</ele>
        <time>2011-01-19T15:05:01Z</time>
      </trkpt>
      <trkpt lat="44.934" lon="4.71743">
        <ele>546.23999023438</ele>
        <time>2011-01-19T15:05:05Z</time>
      </trkpt>
      <trkpt lat="44.93396" lon="4.71798">
        <ele>545.48999023438</ele>
        <time>2011-01-19T15:05:09Z</time>
      </trkpt>
      <trkpt lat="44.93406" lon="4.71849">
        <ele>545.13500976562</ele>
        <time>2011-01-19T15:05:13Z</time>
      </trkpt>
      <trkpt lat="44.93419" lon="4.71868">
        <ele>544.65399169922</ele>
        <time>2011-01-19T15:05:15Z</time>
      </trkpt>
      <trkpt lat="44.93471" lon="4.71917">
        <ele>543.27600097656</ele>
        <time>2011-01-19T15:05:22Z</time>
      </trkpt>
      <trkpt lat="44.93515" lon="4.71965">
        <ele>541.57098388672</ele>
        <time>2011-01-19T15:05:28Z</time>
      </trkpt>
      <trkpt lat="44.93532" lon="4.72008">
        <ele>541.5009765625</ele>
        <time>2011-01-19T15:05:32Z</time>
      </trkpt>
      <trkpt lat="44.93533" lon="4.7202">
        <ele>541.38598632812</ele>
        <time>2011-01-19T15:05:33Z</time>
      </trkpt>
      <trkpt lat="44.93548" lon="4.72071">
        <ele>542.25897216797</ele>
        <time>2011-01-19T15:05:38Z</time>
      </trkpt>
      <trkpt lat="44.93567" lon="4.72087">
        <ele>543.26599121094</ele>
        <time>2011-01-19T15:05:41Z</time>
      </trkpt>
      <trkpt lat="44.93573" lon="4.72089">
        <ele>544.19799804688</ele>
        <time>2011-01-19T15:05:42Z</time>
      </trkpt>
      <trkpt lat="44.93624" lon="4.72102">
        <ele>544.16998291016</ele>
        <time>2011-01-19T15:05:50Z</time>
      </trkpt>
      <trkpt lat="44.93655" lon="4.72117">
        <ele>546.02899169922</ele>
        <time>2011-01-19T15:05:56Z</time>
      </trkpt>
      <trkpt lat="44.93665" lon="4.72122">
        <ele>545.4169921875</ele>
        <time>2011-01-19T15:05:58Z</time>
      </trkpt>
      <trkpt lat="44.93675" lon="4.72128">
        <ele>546.16198730469</ele>
        <time>2011-01-19T15:06:00Z</time>
      </trkpt>
      <trkpt lat="44.93698" lon="4.72152">
        <ele>545.82397460938</ele>
        <time>2011-01-19T15:06:05Z</time>
      </trkpt>
      <trkpt lat="44.93718" lon="4.72184">
        <ele>546.51898193359</ele>
        <time>2011-01-19T15:06:10Z</time>
      </trkpt>
      <trkpt lat="44.93737" lon="4.72201">
        <ele>546.99798583984</ele>
        <time>2011-01-19T15:06:14Z</time>
      </trkpt>
      <trkpt lat="44.93747" lon="4.72206">
        <ele>547.875</ele>
        <time>2011-01-19T15:06:16Z</time>
      </trkpt>
      <trkpt lat="44.93781" lon="4.72209">
        <ele>548.43402099609</ele>
        <time>2011-01-19T15:06:22Z</time>
      </trkpt>
      <trkpt lat="44.93835" lon="4.7222">
        <ele>550.74200439453</ele>
        <time>2011-01-19T15:06:31Z</time>
      </trkpt>
      <trkpt lat="44.93847" lon="4.72224">
        <ele>550.37097167969</ele>
        <time>2011-01-19T15:06:33Z</time>
      </trkpt>
      <trkpt lat="44.93874" lon="4.7225">
        <ele>549.99798583984</ele>
        <time>2011-01-19T15:06:39Z</time>
      </trkpt>
      <trkpt lat="44.93887" lon="4.72287">
        <ele>551.5419921875</ele>
        <time>2011-01-19T15:06:44Z</time>
      </trkpt>
      <trkpt lat="44.9389" lon="4.72302">
        <ele>551.95098876953</ele>
        <time>2011-01-19T15:06:46Z</time>
      </trkpt>
      <trkpt lat="44.93893" lon="4.72374">
        <ele>552.73699951172</ele>
        <time>2011-01-19T15:06:55Z</time>
      </trkpt>
      <trkpt lat="44.93894" lon="4.72462">
        <ele>553.82098388672</ele>
        <time>2011-01-19T15:07:06Z</time>
      </trkpt>
      <trkpt lat="44.939" lon="4.72505">
        <ele>554.40802001953</ele>
        <time>2011-01-19T15:07:12Z</time>
      </trkpt>
      <trkpt lat="44.93901" lon="4.72512">
        <ele>554.47998046875</ele>
        <time>2011-01-19T15:07:13Z</time>
      </trkpt>
      <trkpt lat="44.93921" lon="4.72563">
        <ele>554.666015625</ele>
        <time>2011-01-19T15:07:20Z</time>
      </trkpt>
      <trkpt lat="44.93946" lon="4.72628">
        <ele>553.59100341797</ele>
        <time>2011-01-19T15:07:28Z</time>
      </trkpt>
      <trkpt lat="44.93959" lon="4.72651">
        <ele>554.13299560547</ele>
        <time>2011-01-19T15:07:31Z</time>
      </trkpt>
      <trkpt lat="44.93993" lon="4.72689">
        <ele>555.85797119141</ele>
        <time>2011-01-19T15:07:37Z</time>
      </trkpt>
      <trkpt lat="44.94021" lon="4.72703">
        <ele>553.15802001953</ele>
        <time>2011-01-19T15:07:41Z</time>
      </trkpt>
      <trkpt lat="44.94035" lon="4.72707">
        <ele>552.14001464844</ele>
        <time>2011-01-19T15:07:43Z</time>
      </trkpt>
      <trkpt lat="44.94072" lon="4.72711">
        <ele>551.69396972656</ele>
        <time>2011-01-19T15:07:48Z</time>
      </trkpt>
      <trkpt lat="44.94093" lon="4.72711">
        <ele>552.22802734375</ele>
        <time>2011-01-19T15:07:51Z</time>
      </trkpt>
      <trkpt lat="44.94118" lon="4.72699">
        <ele>551.15600585938</ele>
        <time>2011-01-19T15:07:55Z</time>
      </trkpt>
      <trkpt lat="44.94162" lon="4.72667">
        <ele>548.77600097656</ele>
        <time>2011-01-19T15:08:02Z</time>
      </trkpt>
      <trkpt lat="44.94199" lon="4.72635">
        <ele>549.17401123047</ele>
        <time>2011-01-19T15:08:08Z</time>
      </trkpt>
      <trkpt lat="44.94251" lon="4.72578">
        <ele>548.73101806641</ele>
        <time>2011-01-19T15:08:17Z</time>
      </trkpt>
      <trkpt lat="44.94284" lon="4.72539">
        <ele>547.60101318359</ele>
        <time>2011-01-19T15:08:23Z</time>
      </trkpt>
      <trkpt lat="44.94299" lon="4.72515">
        <ele>546.37200927734</ele>
        <time>2011-01-19T15:08:26Z</time>
      </trkpt>
      <trkpt lat="44.94326" lon="4.72496">
        <ele>545.98699951172</ele>
        <time>2011-01-19T15:08:30Z</time>
      </trkpt>
      <trkpt lat="44.94348" lon="4.72505">
        <ele>546.44897460938</ele>
        <time>2011-01-19T15:08:33Z</time>
      </trkpt>
      <trkpt lat="44.94362" lon="4.72527">
        <ele>546.80401611328</ele>
        <time>2011-01-19T15:08:36Z</time>
      </trkpt>
      <trkpt lat="44.94366" lon="4.72555">
        <ele>546.90399169922</ele>
        <time>2011-01-19T15:08:39Z</time>
      </trkpt>
      <trkpt lat="44.94361" lon="4.72592">
        <ele>547.60699462891</ele>
        <time>2011-01-19T15:08:43Z</time>
      </trkpt>
      <trkpt lat="44.94359" lon="4.72602">
        <ele>548.03497314453</ele>
        <time>2011-01-19T15:08:44Z</time>
      </trkpt>
      <trkpt lat="44.94356" lon="4.72619">
        <ele>548.90600585938</ele>
        <time>2011-01-19T15:08:46Z</time>
      </trkpt>
      <trkpt lat="44.94349" lon="4.7268">
        <ele>551.4169921875</ele>
        <time>2011-01-19T15:08:53Z</time>
      </trkpt>
      <trkpt lat="44.94347" lon="4.72697">
        <ele>551.44799804688</ele>
        <time>2011-01-19T15:08:55Z</time>
      </trkpt>
      <trkpt lat="44.94345" lon="4.72739">
        <ele>553.94500732422</ele>
        <time>2011-01-19T15:09:00Z</time>
      </trkpt>
      <trkpt lat="44.94347" lon="4.72754">
        <ele>554.99401855469</ele>
        <time>2011-01-19T15:09:02Z</time>
      </trkpt>
      <trkpt lat="44.94349" lon="4.72762">
        <ele>554.38500976562</ele>
        <time>2011-01-19T15:09:03Z</time>
      </trkpt>
      <trkpt lat="44.9435" lon="4.72786">
        <ele>553.41497802734</ele>
        <time>2011-01-19T15:09:06Z</time>
      </trkpt>
      <trkpt lat="44.94349" lon="4.72814">
        <ele>552.77398681641</ele>
        <time>2011-01-19T15:09:09Z</time>
      </trkpt>
      <trkpt lat="44.94344" lon="4.72845">
        <ele>551.39801025391</ele>
        <time>2011-01-19T15:09:12Z</time>
      </trkpt>
      <trkpt lat="44.94342" lon="4.72854">
        <ele>551.09899902344</ele>
        <time>2011-01-19T15:09:13Z</time>
      </trkpt>
      <trkpt lat="44.94341" lon="4.72898">
        <ele>550.04302978516</ele>
        <time>2011-01-19T15:09:17Z</time>
      </trkpt>
      <trkpt lat="44.94352" lon="4.72928">
        <ele>550.84698486328</ele>
        <time>2011-01-19T15:09:20Z</time>
      </trkpt>
      <trkpt lat="44.94384" lon="4.72973">
        <ele>548.88800048828</ele>
        <time>2011-01-19T15:09:26Z</time>
      </trkpt>
      <trkpt lat="44.94394" lon="4.72987">
        <ele>550.16101074219</ele>
        <time>2011-01-19T15:09:28Z</time>
      </trkpt>
      <trkpt lat="44.94409" lon="4.73006">
        <ele>548.34698486328</ele>
        <time>2011-01-19T15:09:31Z</time>
      </trkpt>
      <trkpt lat="44.94434" lon="4.73046">
        <ele>549.56500244141</ele>
        <time>2011-01-19T15:09:37Z</time>
      </trkpt>
      <trkpt lat="44.9444" lon="4.73059">
        <ele>548.42602539062</ele>
        <time>2011-01-19T15:09:39Z</time>
      </trkpt>
      <trkpt lat="44.94448" lon="4.73069">
        <ele>548.77301025391</ele>
        <time>2011-01-19T15:09:43Z</time>
      </trkpt>
      <trkpt lat="44.94448" lon="4.73069">
        <ele>548.51000976562</ele>
        <time>2011-01-19T15:09:44Z</time>
      </trkpt>
      <trkpt lat="44.94452" lon="4.73071">
        <ele>548.38299560547</ele>
        <time>2011-01-19T15:09:48Z</time>
      </trkpt>
      <trkpt lat="44.94463" lon="4.73067">
        <ele>550.63299560547</ele>
        <time>2011-01-19T15:09:54Z</time>
      </trkpt>
      <trkpt lat="44.94467" lon="4.73069">
        <ele>551.99597167969</ele>
        <time>2011-01-19T15:09:56Z</time>
      </trkpt>
      <trkpt lat="44.94483" lon="4.73071">
        <ele>550.09997558594</ele>
        <time>2011-01-19T15:10:02Z</time>
      </trkpt>
      <trkpt lat="44.94486" lon="4.73071">
        <ele>551.20697021484</ele>
        <time>2011-01-19T15:10:03Z</time>
      </trkpt>
      <trkpt lat="44.94497" lon="4.73084">
        <ele>550.33599853516</ele>
        <time>2011-01-19T15:10:07Z</time>
      </trkpt>
      <trkpt lat="44.94511" lon="4.73095">
        <ele>548.29498291016</ele>
        <time>2011-01-19T15:10:11Z</time>
      </trkpt>
      <trkpt lat="44.94522" lon="4.7311">
        <ele>549.74102783203</ele>
        <time>2011-01-19T15:10:14Z</time>
      </trkpt>
      <trkpt lat="44.94527" lon="4.73124">
        <ele>550.10900878906</ele>
        <time>2011-01-19T15:10:16Z</time>
      </trkpt>
      <trkpt lat="44.94542" lon="4.73164">
        <ele>547.15802001953</ele>
        <time>2011-01-19T15:10:21Z</time>
      </trkpt>
      <trkpt lat="44.94558" lon="4.73209">
        <ele>545.34698486328</ele>
        <time>2011-01-19T15:10:26Z</time>
      </trkpt>
      <trkpt lat="44.94561" lon="4.73219">
        <ele>545.07202148438</ele>
        <time>2011-01-19T15:10:27Z</time>
      </trkpt>
      <trkpt lat="44.94583" lon="4.7328">
        <ele>544.57299804688</ele>
        <time>2011-01-19T15:10:34Z</time>
      </trkpt>
      <trkpt lat="44.94598" lon="4.73327">
        <ele>543.20599365234</ele>
        <time>2011-01-19T15:10:40Z</time>
      </trkpt>
      <trkpt lat="44.94601" lon="4.73344">
        <ele>542.67999267578</ele>
        <time>2011-01-19T15:10:42Z</time>
      </trkpt>
      <trkpt lat="44.94603" lon="4.73406">
        <ele>542.06701660156</ele>
        <time>2011-01-19T15:10:49Z</time>
      </trkpt>
      <trkpt lat="44.94605" lon="4.73474">
        <ele>542.64801025391</ele>
        <time>2011-01-19T15:10:56Z</time>
      </trkpt>
      <trkpt lat="44.94618" lon="4.73529">
        <ele>543.40997314453</ele>
        <time>2011-01-19T15:11:02Z</time>
      </trkpt>
      <trkpt lat="44.94643" lon="4.7357">
        <ele>543.42297363281</ele>
        <time>2011-01-19T15:11:07Z</time>
      </trkpt>
      <trkpt lat="44.94682" lon="4.73635">
        <ele>538.16302490234</ele>
        <time>2011-01-19T15:11:15Z</time>
      </trkpt>
      <trkpt lat="44.94703" lon="4.73669">
        <ele>538.81799316406</ele>
        <time>2011-01-19T15:11:19Z</time>
      </trkpt>
      <trkpt lat="44.94716" lon="4.73682">
        <ele>539.66302490234</ele>
        <time>2011-01-19T15:11:21Z</time>
      </trkpt>
      <trkpt lat="44.94739" lon="4.73693">
        <ele>537.74597167969</ele>
        <time>2011-01-19T15:11:24Z</time>
      </trkpt>
      <trkpt lat="44.94747" lon="4.73694">
        <ele>537.68499755859</ele>
        <time>2011-01-19T15:11:25Z</time>
      </trkpt>
      <trkpt lat="44.94808" lon="4.73689">
        <ele>536.98400878906</ele>
        <time>2011-01-19T15:11:32Z</time>
      </trkpt>
      <trkpt lat="44.94816" lon="4.73688">
        <ele>536.76000976562</ele>
        <time>2011-01-19T15:11:33Z</time>
      </trkpt>
      <trkpt lat="44.94848" lon="4.737">
        <ele>535.66400146484</ele>
        <time>2011-01-19T15:11:37Z</time>
      </trkpt>
      <trkpt lat="44.94854" lon="4.73708">
        <ele>535.31298828125</ele>
        <time>2011-01-19T15:11:38Z</time>
      </trkpt>
      <trkpt lat="44.94893" lon="4.73764">
        <ele>533.91802978516</ele>
        <time>2011-01-19T15:11:45Z</time>
      </trkpt>
      <trkpt lat="44.94903" lon="4.73793">
        <ele>532.34002685547</ele>
        <time>2011-01-19T15:11:48Z</time>
      </trkpt>
      <trkpt lat="44.94905" lon="4.73814">
        <ele>533.01397705078</ele>
        <time>2011-01-19T15:11:50Z</time>
      </trkpt>
      <trkpt lat="44.94907" lon="4.73834">
        <ele>533.74798583984</ele>
        <time>2011-01-19T15:11:52Z</time>
      </trkpt>
      <trkpt lat="44.94916" lon="4.73884">
        <ele>534.19396972656</ele>
        <time>2011-01-19T15:11:57Z</time>
      </trkpt>
      <trkpt lat="44.94941" lon="4.73926">
        <ele>533.34899902344</ele>
        <time>2011-01-19T15:12:02Z</time>
      </trkpt>
      <trkpt lat="44.94991" lon="4.73973">
        <ele>531.60498046875</ele>
        <time>2011-01-19T15:12:09Z</time>
      </trkpt>
      <trkpt lat="44.95015" lon="4.7399">
        <ele>530.98101806641</ele>
        <time>2011-01-19T15:12:12Z</time>
      </trkpt>
      <trkpt lat="44.95049" lon="4.74004">
        <ele>530.72698974609</ele>
        <time>2011-01-19T15:12:16Z</time>
      </trkpt>
      <trkpt lat="44.95078" lon="4.74034">
        <ele>529.01501464844</ele>
        <time>2011-01-19T15:12:20Z</time>
      </trkpt>
      <trkpt lat="44.95108" lon="4.74084">
        <ele>527.69396972656</ele>
        <time>2011-01-19T15:12:25Z</time>
      </trkpt>
      <trkpt lat="44.95136" lon="4.7414">
        <ele>526.23199462891</ele>
        <time>2011-01-19T15:12:30Z</time>
      </trkpt>
      <trkpt lat="44.95167" lon="4.74194">
        <ele>524.9580078125</ele>
        <time>2011-01-19T15:12:35Z</time>
      </trkpt>
      <trkpt lat="44.95196" lon="4.74231">
        <ele>523.73297119141</ele>
        <time>2011-01-19T15:12:39Z</time>
      </trkpt>
      <trkpt lat="44.9521" lon="4.74268">
        <ele>522.59997558594</ele>
        <time>2011-01-19T15:12:42Z</time>
      </trkpt>
      <trkpt lat="44.95208" lon="4.74281">
        <ele>522.33898925781</ele>
        <time>2011-01-19T15:12:43Z</time>
      </trkpt>
      <trkpt lat="44.95198" lon="4.74304">
        <ele>522.31298828125</ele>
        <time>2011-01-19T15:12:45Z</time>
      </trkpt>
      <trkpt lat="44.95187" lon="4.74325">
        <ele>521.44097900391</ele>
        <time>2011-01-19T15:12:47Z</time>
      </trkpt>
      <trkpt lat="44.95173" lon="4.74387">
        <ele>520.18597412109</ele>
        <time>2011-01-19T15:12:52Z</time>
      </trkpt>
      <trkpt lat="44.95163" lon="4.74424">
        <ele>519.79998779297</ele>
        <time>2011-01-19T15:12:55Z</time>
      </trkpt>
      <trkpt lat="44.9516" lon="4.74473">
        <ele>519.10797119141</ele>
        <time>2011-01-19T15:12:59Z</time>
      </trkpt>
      <trkpt lat="44.9517" lon="4.74494">
        <ele>518.15399169922</ele>
        <time>2011-01-19T15:13:01Z</time>
      </trkpt>
      <trkpt lat="44.95202" lon="4.74554">
        <ele>517.63201904297</ele>
        <time>2011-01-19T15:13:07Z</time>
      </trkpt>
      <trkpt lat="44.9523" lon="4.74581">
        <ele>516.00799560547</ele>
        <time>2011-01-19T15:13:11Z</time>
      </trkpt>
      <trkpt lat="44.95248" lon="4.7458">
        <ele>516.49102783203</ele>
        <time>2011-01-19T15:13:13Z</time>
      </trkpt>
      <trkpt lat="44.95282" lon="4.74575">
        <ele>514.45697021484</ele>
        <time>2011-01-19T15:13:17Z</time>
      </trkpt>
      <trkpt lat="44.95352" lon="4.74564">
        <ele>512.60601806641</ele>
        <time>2011-01-19T15:13:25Z</time>
      </trkpt>
      <trkpt lat="44.95395" lon="4.74561">
        <ele>511.05700683594</ele>
        <time>2011-01-19T15:13:30Z</time>
      </trkpt>
      <trkpt lat="44.95412" lon="4.74562">
        <ele>510.89099121094</ele>
        <time>2011-01-19T15:13:32Z</time>
      </trkpt>
      <trkpt lat="44.95472" lon="4.74574">
        <ele>508.7619934082</ele>
        <time>2011-01-19T15:13:39Z</time>
      </trkpt>
      <trkpt lat="44.95489" lon="4.74578">
        <ele>508.16000366211</ele>
        <time>2011-01-19T15:13:41Z</time>
      </trkpt>
      <trkpt lat="44.95531" lon="4.7457">
        <ele>507.70498657227</ele>
        <time>2011-01-19T15:13:46Z</time>
      </trkpt>
      <trkpt lat="44.95564" lon="4.74552">
        <ele>506.45999145508</ele>
        <time>2011-01-19T15:13:50Z</time>
      </trkpt>
      <trkpt lat="44.95599" lon="4.74546">
        <ele>504.83801269531</ele>
        <time>2011-01-19T15:13:54Z</time>
      </trkpt>
      <trkpt lat="44.95607" lon="4.74549">
        <ele>504.75799560547</ele>
        <time>2011-01-19T15:13:55Z</time>
      </trkpt>
      <trkpt lat="44.95648" lon="4.74568">
        <ele>503.77801513672</ele>
        <time>2011-01-19T15:14:00Z</time>
      </trkpt>
      <trkpt lat="44.95681" lon="4.74568">
        <ele>502.31100463867</ele>
        <time>2011-01-19T15:14:04Z</time>
      </trkpt>
      <trkpt lat="44.95739" lon="4.74546">
        <ele>501.04400634766</ele>
        <time>2011-01-19T15:14:11Z</time>
      </trkpt>
      <trkpt lat="44.95757" lon="4.74545">
        <ele>500.2919921875</ele>
        <time>2011-01-19T15:14:13Z</time>
      </trkpt>
      <trkpt lat="44.95807" lon="4.74559">
        <ele>499.45498657227</ele>
        <time>2011-01-19T15:14:19Z</time>
      </trkpt>
      <trkpt lat="44.95862" lon="4.74575">
        <ele>499.17999267578</ele>
        <time>2011-01-19T15:14:26Z</time>
      </trkpt>
      <trkpt lat="44.95869" lon="4.74578">
        <ele>499.21899414062</ele>
        <time>2011-01-19T15:14:27Z</time>
      </trkpt>
      <trkpt lat="44.95895" lon="4.74604">
        <ele>498.62399291992</ele>
        <time>2011-01-19T15:14:31Z</time>
      </trkpt>
      <trkpt lat="44.95905" lon="4.74636">
        <ele>498.42700195312</ele>
        <time>2011-01-19T15:14:34Z</time>
      </trkpt>
      <trkpt lat="44.9593" lon="4.74694">
        <ele>497.49798583984</ele>
        <time>2011-01-19T15:14:40Z</time>
      </trkpt>
      <trkpt lat="44.95958" lon="4.74725">
        <ele>495.87200927734</ele>
        <time>2011-01-19T15:14:44Z</time>
      </trkpt>
      <trkpt lat="44.95992" lon="4.7474">
        <ele>494.98300170898</ele>
        <time>2011-01-19T15:14:48Z</time>
      </trkpt>
      <trkpt lat="44.96019" lon="4.74747">
        <ele>493.68301391602</ele>
        <time>2011-01-19T15:14:51Z</time>
      </trkpt>
      <trkpt lat="44.96078" lon="4.74765">
        <ele>492.01699829102</ele>
        <time>2011-01-19T15:14:58Z</time>
      </trkpt>
      <trkpt lat="44.96095" lon="4.74772">
        <ele>491.83200073242</ele>
        <time>2011-01-19T15:15:00Z</time>
      </trkpt>
      <trkpt lat="44.96129" lon="4.74804">
        <ele>488.03601074219</ele>
        <time>2011-01-19T15:15:05Z</time>
      </trkpt>
      <trkpt lat="44.96172" lon="4.74841">
        <ele>487.42001342773</ele>
        <time>2011-01-19T15:15:11Z</time>
      </trkpt>
      <trkpt lat="44.9618" lon="4.74844">
        <ele>486.82400512695</ele>
        <time>2011-01-19T15:15:12Z</time>
      </trkpt>
      <trkpt lat="44.96231" lon="4.74855">
        <ele>483.75399780273</ele>
        <time>2011-01-19T15:15:18Z</time>
      </trkpt>
      <trkpt lat="44.96267" lon="4.74852">
        <ele>482.38800048828</ele>
        <time>2011-01-19T15:15:22Z</time>
      </trkpt>
      <trkpt lat="44.96302" lon="4.74831">
        <ele>481.97601318359</ele>
        <time>2011-01-19T15:15:26Z</time>
      </trkpt>
      <trkpt lat="44.9631" lon="4.74824">
        <ele>481.125</ele>
        <time>2011-01-19T15:15:27Z</time>
      </trkpt>
      <trkpt lat="44.96356" lon="4.74802">
        <ele>476.63198852539</ele>
        <time>2011-01-19T15:15:32Z</time>
      </trkpt>
      <trkpt lat="44.96395" lon="4.74789">
        <ele>474.06100463867</ele>
        <time>2011-01-19T15:15:36Z</time>
      </trkpt>
      <trkpt lat="44.96415" lon="4.7476">
        <ele>472.90899658203</ele>
        <time>2011-01-19T15:15:39Z</time>
      </trkpt>
      <trkpt lat="44.96416" lon="4.74733">
        <ele>471.91000366211</ele>
        <time>2011-01-19T15:15:41Z</time>
      </trkpt>
      <trkpt lat="44.9642" lon="4.74692">
        <ele>471.14700317383</ele>
        <time>2011-01-19T15:15:44Z</time>
      </trkpt>
      <trkpt lat="44.96437" lon="4.74642">
        <ele>469.04901123047</ele>
        <time>2011-01-19T15:15:48Z</time>
      </trkpt>
      <trkpt lat="44.96443" lon="4.74587">
        <ele>465.76599121094</ele>
        <time>2011-01-19T15:15:52Z</time>
      </trkpt>
      <trkpt lat="44.96457" lon="4.74565">
        <ele>464.35699462891</ele>
        <time>2011-01-19T15:15:54Z</time>
      </trkpt>
      <trkpt lat="44.96476" lon="4.74566">
        <ele>463.3869934082</ele>
        <time>2011-01-19T15:15:56Z</time>
      </trkpt>
      <trkpt lat="44.9649" lon="4.74585">
        <ele>462.37899780273</ele>
        <time>2011-01-19T15:15:58Z</time>
      </trkpt>
      <trkpt lat="44.96511" lon="4.74615">
        <ele>460.39700317383</ele>
        <time>2011-01-19T15:16:01Z</time>
      </trkpt>
      <trkpt lat="44.96539" lon="4.7463">
        <ele>460.10900878906</ele>
        <time>2011-01-19T15:16:04Z</time>
      </trkpt>
      <trkpt lat="44.96575" lon="4.74646">
        <ele>457.20199584961</ele>
        <time>2011-01-19T15:16:08Z</time>
      </trkpt>
      <trkpt lat="44.96585" lon="4.74672">
        <ele>455.48001098633</ele>
        <time>2011-01-19T15:16:10Z</time>
      </trkpt>
      <trkpt lat="44.9659" lon="4.74684">
        <ele>455.35101318359</ele>
        <time>2011-01-19T15:16:11Z</time>
      </trkpt>
      <trkpt lat="44.96614" lon="4.74712">
        <ele>453.86499023438</ele>
        <time>2011-01-19T15:16:14Z</time>
      </trkpt>
      <trkpt lat="44.96624" lon="4.74717">
        <ele>453.58499145508</ele>
        <time>2011-01-19T15:16:15Z</time>
      </trkpt>
      <trkpt lat="44.96661" lon="4.74746">
        <ele>455.35400390625</ele>
        <time>2011-01-19T15:16:19Z</time>
      </trkpt>
      <trkpt lat="44.96687" lon="4.74764">
        <ele>452.64401245117</ele>
        <time>2011-01-19T15:16:22Z</time>
      </trkpt>
      <trkpt lat="44.96696" lon="4.74765">
        <ele>451.65301513672</ele>
        <time>2011-01-19T15:16:23Z</time>
      </trkpt>
      <trkpt lat="44.96735" lon="4.74767">
        <ele>449.6549987793</ele>
        <time>2011-01-19T15:16:27Z</time>
      </trkpt>
      <trkpt lat="44.96783" lon="4.74771">
        <ele>448.43600463867</ele>
        <time>2011-01-19T15:16:32Z</time>
      </trkpt>
      <trkpt lat="44.96833" lon="4.74776">
        <ele>445.53900146484</ele>
        <time>2011-01-19T15:16:37Z</time>
      </trkpt>
      <trkpt lat="44.96872" lon="4.74772">
        <ele>444.66198730469</ele>
        <time>2011-01-19T15:16:41Z</time>
      </trkpt>
      <trkpt lat="44.96909" lon="4.74783">
        <ele>443.01300048828</ele>
        <time>2011-01-19T15:16:45Z</time>
      </trkpt>
      <trkpt lat="44.96945" lon="4.74804">
        <ele>441.3030090332</ele>
        <time>2011-01-19T15:16:49Z</time>
      </trkpt>
      <trkpt lat="44.96984" lon="4.74806">
        <ele>438.5539855957</ele>
        <time>2011-01-19T15:16:53Z</time>
      </trkpt>
      <trkpt lat="44.97011" lon="4.74789">
        <ele>437.61099243164</ele>
        <time>2011-01-19T15:16:56Z</time>
      </trkpt>
      <trkpt lat="44.97026" lon="4.74752">
        <ele>437.13000488281</ele>
        <time>2011-01-19T15:16:59Z</time>
      </trkpt>
      <trkpt lat="44.97028" lon="4.74714">
        <ele>436.18701171875</ele>
        <time>2011-01-19T15:17:02Z</time>
      </trkpt>
      <trkpt lat="44.97036" lon="4.74681">
        <ele>433.20700073242</ele>
        <time>2011-01-19T15:17:05Z</time>
      </trkpt>
      <trkpt lat="44.97044" lon="4.74677">
        <ele>433.30599975586</ele>
        <time>2011-01-19T15:17:06Z</time>
      </trkpt>
      <trkpt lat="44.97058" lon="4.74688">
        <ele>434.10900878906</ele>
        <time>2011-01-19T15:17:08Z</time>
      </trkpt>
      <trkpt lat="44.97071" lon="4.74722">
        <ele>433.83898925781</ele>
        <time>2011-01-19T15:17:11Z</time>
      </trkpt>
      <trkpt lat="44.97083" lon="4.74774">
        <ele>433.27899169922</ele>
        <time>2011-01-19T15:17:15Z</time>
      </trkpt>
      <trkpt lat="44.97094" lon="4.74858">
        <ele>432.6130065918</ele>
        <time>2011-01-19T15:17:21Z</time>
      </trkpt>
      <trkpt lat="44.97113" lon="4.74884">
        <ele>431.24099731445</ele>
        <time>2011-01-19T15:17:24Z</time>
      </trkpt>
      <trkpt lat="44.97133" lon="4.74887">
        <ele>430.59298706055</ele>
        <time>2011-01-19T15:17:26Z</time>
      </trkpt>
      <trkpt lat="44.97191" lon="4.74879">
        <ele>428.69799804688</ele>
        <time>2011-01-19T15:17:32Z</time>
      </trkpt>
      <trkpt lat="44.97221" lon="4.74876">
        <ele>427.41400146484</ele>
        <time>2011-01-19T15:17:35Z</time>
      </trkpt>
      <trkpt lat="44.97264" lon="4.74877">
        <ele>424.90399169922</ele>
        <time>2011-01-19T15:17:39Z</time>
      </trkpt>
      <trkpt lat="44.97318" lon="4.74864">
        <ele>423.19500732422</ele>
        <time>2011-01-19T15:17:44Z</time>
      </trkpt>
      <trkpt lat="44.9736" lon="4.74873">
        <ele>421.36599731445</ele>
        <time>2011-01-19T15:17:48Z</time>
      </trkpt>
      <trkpt lat="44.97369" lon="4.74879">
        <ele>420.80599975586</ele>
        <time>2011-01-19T15:17:49Z</time>
      </trkpt>
      <trkpt lat="44.97423" lon="4.74918">
        <ele>418.09600830078</ele>
        <time>2011-01-19T15:17:55Z</time>
      </trkpt>
      <trkpt lat="44.9744" lon="4.74929">
        <ele>416.52301025391</ele>
        <time>2011-01-19T15:17:57Z</time>
      </trkpt>
      <trkpt lat="44.97477" lon="4.74937">
        <ele>416.29000854492</ele>
        <time>2011-01-19T15:18:01Z</time>
      </trkpt>
      <trkpt lat="44.97486" lon="4.74934">
        <ele>415.99700927734</ele>
        <time>2011-01-19T15:18:02Z</time>
      </trkpt>
      <trkpt lat="44.97555" lon="4.74914">
        <ele>415.37399291992</ele>
        <time>2011-01-19T15:18:10Z</time>
      </trkpt>
      <trkpt lat="44.97564" lon="4.74913">
        <ele>414.27099609375</ele>
        <time>2011-01-19T15:18:11Z</time>
      </trkpt>
      <trkpt lat="44.97594" lon="4.74895">
        <ele>412.36700439453</ele>
        <time>2011-01-19T15:18:15Z</time>
      </trkpt>
      <trkpt lat="44.976" lon="4.74888">
        <ele>412.24499511719</ele>
        <time>2011-01-19T15:18:16Z</time>
      </trkpt>
      <trkpt lat="44.97636" lon="4.74845">
        <ele>407.91900634766</ele>
        <time>2011-01-19T15:18:22Z</time>
      </trkpt>
      <trkpt lat="44.9765" lon="4.74815">
        <ele>406.61199951172</ele>
        <time>2011-01-19T15:18:25Z</time>
      </trkpt>
      <trkpt lat="44.9767" lon="4.7479">
        <ele>405.69400024414</ele>
        <time>2011-01-19T15:18:28Z</time>
      </trkpt>
      <trkpt lat="44.97688" lon="4.74795">
        <ele>405.21701049805</ele>
        <time>2011-01-19T15:18:30Z</time>
      </trkpt>
      <trkpt lat="44.97722" lon="4.74792">
        <ele>404.07699584961</ele>
        <time>2011-01-19T15:18:34Z</time>
      </trkpt>
      <trkpt lat="44.97731" lon="4.74789">
        <ele>403.4880065918</ele>
        <time>2011-01-19T15:18:35Z</time>
      </trkpt>
      <trkpt lat="44.97774" lon="4.74774">
        <ele>401.96200561523</ele>
        <time>2011-01-19T15:18:40Z</time>
      </trkpt>
      <trkpt lat="44.97815" lon="4.74781">
        <ele>401.95300292969</ele>
        <time>2011-01-19T15:18:45Z</time>
      </trkpt>
      <trkpt lat="44.97853" lon="4.74772">
        <ele>399.54400634766</ele>
        <time>2011-01-19T15:18:50Z</time>
      </trkpt>
      <trkpt lat="44.97861" lon="4.74769">
        <ele>399.3210144043</ele>
        <time>2011-01-19T15:18:51Z</time>
      </trkpt>
      <trkpt lat="44.97907" lon="4.74747">
        <ele>397.97601318359</ele>
        <time>2011-01-19T15:18:57Z</time>
      </trkpt>
      <trkpt lat="44.97929" lon="4.74735">
        <ele>397.86801147461</ele>
        <time>2011-01-19T15:19:00Z</time>
      </trkpt>
      <trkpt lat="44.97953" lon="4.74706">
        <ele>395.46798706055</ele>
        <time>2011-01-19T15:19:04Z</time>
      </trkpt>
      <trkpt lat="44.97978" lon="4.74676">
        <ele>393.25299072266</ele>
        <time>2011-01-19T15:19:08Z</time>
      </trkpt>
      <trkpt lat="44.98003" lon="4.74659">
        <ele>392.58999633789</ele>
        <time>2011-01-19T15:19:11Z</time>
      </trkpt>
      <trkpt lat="44.98052" lon="4.74604">
        <ele>389.58099365234</ele>
        <time>2011-01-19T15:19:18Z</time>
      </trkpt>
      <trkpt lat="44.9809" lon="4.74576">
        <ele>387.6960144043</ele>
        <time>2011-01-19T15:19:23Z</time>
      </trkpt>
      <trkpt lat="44.98122" lon="4.74562">
        <ele>385.58801269531</ele>
        <time>2011-01-19T15:19:27Z</time>
      </trkpt>
      <trkpt lat="44.9813" lon="4.74559">
        <ele>385.45999145508</ele>
        <time>2011-01-19T15:19:28Z</time>
      </trkpt>
      <trkpt lat="44.98156" lon="4.74532">
        <ele>384.35299682617</ele>
        <time>2011-01-19T15:19:32Z</time>
      </trkpt>
      <trkpt lat="44.98181" lon="4.74502">
        <ele>382.89199829102</ele>
        <time>2011-01-19T15:19:36Z</time>
      </trkpt>
      <trkpt lat="44.98189" lon="4.74504">
        <ele>382.59799194336</ele>
        <time>2011-01-19T15:19:37Z</time>
      </trkpt>
      <trkpt lat="44.98204" lon="4.74513">
        <ele>381.91299438477</ele>
        <time>2011-01-19T15:19:39Z</time>
      </trkpt>
      <trkpt lat="44.98245" lon="4.74527">
        <ele>382.26699829102</ele>
        <time>2011-01-19T15:19:44Z</time>
      </trkpt>
      <trkpt lat="44.98262" lon="4.74531">
        <ele>381.26599121094</ele>
        <time>2011-01-19T15:19:46Z</time>
      </trkpt>
      <trkpt lat="44.98301" lon="4.7455">
        <ele>380.68798828125</ele>
        <time>2011-01-19T15:19:51Z</time>
      </trkpt>
      <trkpt lat="44.98315" lon="4.7456">
        <ele>380.14300537109</ele>
        <time>2011-01-19T15:19:53Z</time>
      </trkpt>
      <trkpt lat="44.98346" lon="4.74561">
        <ele>379.82800292969</ele>
        <time>2011-01-19T15:19:57Z</time>
      </trkpt>
      <trkpt lat="44.98361" lon="4.7455">
        <ele>379.13198852539</ele>
        <time>2011-01-19T15:19:59Z</time>
      </trkpt>
      <trkpt lat="44.98389" lon="4.74537">
        <ele>377.95300292969</ele>
        <time>2011-01-19T15:20:03Z</time>
      </trkpt>
      <trkpt lat="44.98401" lon="4.74552">
        <ele>377.41198730469</ele>
        <time>2011-01-19T15:20:05Z</time>
      </trkpt>
      <trkpt lat="44.98407" lon="4.74582">
        <ele>377.94299316406</ele>
        <time>2011-01-19T15:20:08Z</time>
      </trkpt>
      <trkpt lat="44.98426" lon="4.74627">
        <ele>377.23599243164</ele>
        <time>2011-01-19T15:20:13Z</time>
      </trkpt>
      <trkpt lat="44.98466" lon="4.74668">
        <ele>376.00299072266</ele>
        <time>2011-01-19T15:20:19Z</time>
      </trkpt>
      <trkpt lat="44.98512" lon="4.74719">
        <ele>374.76599121094</ele>
        <time>2011-01-19T15:20:26Z</time>
      </trkpt>
      <trkpt lat="44.98531" lon="4.74743">
        <ele>374.38299560547</ele>
        <time>2011-01-19T15:20:29Z</time>
      </trkpt>
      <trkpt lat="44.98548" lon="4.74783">
        <ele>373.93899536133</ele>
        <time>2011-01-19T15:20:33Z</time>
      </trkpt>
      <trkpt lat="44.98549" lon="4.74817">
        <ele>372.71099853516</ele>
        <time>2011-01-19T15:20:36Z</time>
      </trkpt>
      <trkpt lat="44.98548" lon="4.74829">
        <ele>372.45599365234</ele>
        <time>2011-01-19T15:20:37Z</time>
      </trkpt>
      <trkpt lat="44.98532" lon="4.74856">
        <ele>371.79000854492</ele>
        <time>2011-01-19T15:20:40Z</time>
      </trkpt>
      <trkpt lat="44.98524" lon="4.74861">
        <ele>371.91299438477</ele>
        <time>2011-01-19T15:20:41Z</time>
      </trkpt>
      <trkpt lat="44.98502" lon="4.74891">
        <ele>371.61099243164</ele>
        <time>2011-01-19T15:20:45Z</time>
      </trkpt>
      <trkpt lat="44.98505" lon="4.74909">
        <ele>371.96600341797</ele>
        <time>2011-01-19T15:20:47Z</time>
      </trkpt>
      <trkpt lat="44.98519" lon="4.74947">
        <ele>374.21099853516</ele>
        <time>2011-01-19T15:20:52Z</time>
      </trkpt>
      <trkpt lat="44.98531" lon="4.74989">
        <ele>369.78100585938</ele>
        <time>2011-01-19T15:20:58Z</time>
      </trkpt>
      <trkpt lat="44.98536" lon="4.75043">
        <ele>371.39099121094</ele>
        <time>2011-01-19T15:21:05Z</time>
      </trkpt>
      <trkpt lat="44.98542" lon="4.75094">
        <ele>372.92599487305</ele>
        <time>2011-01-19T15:21:11Z</time>
      </trkpt>
      <trkpt lat="44.98544" lon="4.75148">
        <ele>372.88299560547</ele>
        <time>2011-01-19T15:21:17Z</time>
      </trkpt>
      <trkpt lat="44.98544" lon="4.75172">
        <ele>373.49600219727</ele>
        <time>2011-01-19T15:21:20Z</time>
      </trkpt>
      <trkpt lat="44.98553" lon="4.7522">
        <ele>372.81399536133</ele>
        <time>2011-01-19T15:21:26Z</time>
      </trkpt>
      <trkpt lat="44.98547" lon="4.75252">
        <ele>372.63000488281</ele>
        <time>2011-01-19T15:21:30Z</time>
      </trkpt>
      <trkpt lat="44.98535" lon="4.75272">
        <ele>372.25500488281</ele>
        <time>2011-01-19T15:21:33Z</time>
      </trkpt>
      <trkpt lat="44.98526" lon="4.75284">
        <ele>372.52801513672</ele>
        <time>2011-01-19T15:21:35Z</time>
      </trkpt>
      <trkpt lat="44.98492" lon="4.75323">
        <ele>374.26599121094</ele>
        <time>2011-01-19T15:21:42Z</time>
      </trkpt>
      <trkpt lat="44.98476" lon="4.75339">
        <ele>374.93499755859</ele>
        <time>2011-01-19T15:21:45Z</time>
      </trkpt>
      <trkpt lat="44.9845" lon="4.75338">
        <ele>376.29098510742</ele>
        <time>2011-01-19T15:21:49Z</time>
      </trkpt>
      <trkpt lat="44.98439" lon="4.75329">
        <ele>376.95199584961</ele>
        <time>2011-01-19T15:21:51Z</time>
      </trkpt>
      <trkpt lat="44.98427" lon="4.75318">
        <ele>377.4469909668</ele>
        <time>2011-01-19T15:21:53Z</time>
      </trkpt>
      <trkpt lat="44.98401" lon="4.75276">
        <ele>377.50799560547</ele>
        <time>2011-01-19T15:21:59Z</time>
      </trkpt>
      <trkpt lat="44.98392" lon="4.75262">
        <ele>378.08898925781</ele>
        <time>2011-01-19T15:22:01Z</time>
      </trkpt>
      <trkpt lat="44.9837" lon="4.75249">
        <ele>379.65798950195</ele>
        <time>2011-01-19T15:22:05Z</time>
      </trkpt>
      <trkpt lat="44.98355" lon="4.75266">
        <ele>381.36801147461</ele>
        <time>2011-01-19T15:22:08Z</time>
      </trkpt>
      <trkpt lat="44.98355" lon="4.75283">
        <ele>380.44900512695</ele>
        <time>2011-01-19T15:22:10Z</time>
      </trkpt>
      <trkpt lat="44.98365" lon="4.75308">
        <ele>380.46099853516</ele>
        <time>2011-01-19T15:22:13Z</time>
      </trkpt>
      <trkpt lat="44.98375" lon="4.75331">
        <ele>379.79699707031</ele>
        <time>2011-01-19T15:22:16Z</time>
      </trkpt>
      <trkpt lat="44.98382" lon="4.75356">
        <ele>379.65200805664</ele>
        <time>2011-01-19T15:22:19Z</time>
      </trkpt>
      <trkpt lat="44.98385" lon="4.75381">
        <ele>378.96099853516</ele>
        <time>2011-01-19T15:22:22Z</time>
      </trkpt>
      <trkpt lat="44.98387" lon="4.75399">
        <ele>379.33700561523</ele>
        <time>2011-01-19T15:22:24Z</time>
      </trkpt>
      <trkpt lat="44.98383" lon="4.75434">
        <ele>378.49200439453</ele>
        <time>2011-01-19T15:22:28Z</time>
      </trkpt>
      <trkpt lat="44.98378" lon="4.75468">
        <ele>380.37298583984</ele>
        <time>2011-01-19T15:22:32Z</time>
      </trkpt>
      <trkpt lat="44.98367" lon="4.75499">
        <ele>376.98999023438</ele>
        <time>2011-01-19T15:22:36Z</time>
      </trkpt>
      <trkpt lat="44.98359" lon="4.75541">
        <ele>376.99700927734</ele>
        <time>2011-01-19T15:22:41Z</time>
      </trkpt>
      <trkpt lat="44.98358" lon="4.75558">
        <ele>377.20901489258</ele>
        <time>2011-01-19T15:22:43Z</time>
      </trkpt>
      <trkpt lat="44.98355" lon="4.75576">
        <ele>377.76400756836</ele>
        <time>2011-01-19T15:22:45Z</time>
      </trkpt>
      <trkpt lat="44.98349" lon="4.75599">
        <ele>377.76400756836</ele>
        <time>2011-01-19T15:22:48Z</time>
      </trkpt>
      <trkpt lat="44.98334" lon="4.75626">
        <ele>379.21701049805</ele>
        <time>2011-01-19T15:22:52Z</time>
      </trkpt>
      <trkpt lat="44.98323" lon="4.75659">
        <ele>381.01400756836</ele>
        <time>2011-01-19T15:22:56Z</time>
      </trkpt>
      <trkpt lat="44.9834" lon="4.75687">
        <ele>382.0299987793</ele>
        <time>2011-01-19T15:23:00Z</time>
      </trkpt>
      <trkpt lat="44.9835" lon="4.75701">
        <ele>381.20300292969</ele>
        <time>2011-01-19T15:23:02Z</time>
      </trkpt>
      <trkpt lat="44.9836" lon="4.75723">
        <ele>379.95001220703</ele>
        <time>2011-01-19T15:23:05Z</time>
      </trkpt>
      <trkpt lat="44.98368" lon="4.75738">
        <ele>379.90200805664</ele>
        <time>2011-01-19T15:23:07Z</time>
      </trkpt>
      <trkpt lat="44.98382" lon="4.75757">
        <ele>381.24700927734</ele>
        <time>2011-01-19T15:23:10Z</time>
      </trkpt>
      <trkpt lat="44.98418" lon="4.75784">
        <ele>381.94299316406</ele>
        <time>2011-01-19T15:23:16Z</time>
      </trkpt>
      <trkpt lat="44.98449" lon="4.75807">
        <ele>381.99398803711</ele>
        <time>2011-01-19T15:23:21Z</time>
      </trkpt>
      <trkpt lat="44.98461" lon="4.75815">
        <ele>382.14498901367</ele>
        <time>2011-01-19T15:23:23Z</time>
      </trkpt>
      <trkpt lat="44.98511" lon="4.75855">
        <ele>382.30599975586</ele>
        <time>2011-01-19T15:23:32Z</time>
      </trkpt>
      <trkpt lat="44.9855" lon="4.75879">
        <ele>382.89700317383</ele>
        <time>2011-01-19T15:23:39Z</time>
      </trkpt>
      <trkpt lat="44.98567" lon="4.75891">
        <ele>382.92599487305</ele>
        <time>2011-01-19T15:23:42Z</time>
      </trkpt>
      <trkpt lat="44.98584" lon="4.75914">
        <ele>382.63800048828</ele>
        <time>2011-01-19T15:23:46Z</time>
      </trkpt>
      <trkpt lat="44.98587" lon="4.7594">
        <ele>383.90600585938</ele>
        <time>2011-01-19T15:23:49Z</time>
      </trkpt>
      <trkpt lat="44.98581" lon="4.75975">
        <ele>384.37200927734</ele>
        <time>2011-01-19T15:23:53Z</time>
      </trkpt>
      <trkpt lat="44.98586" lon="4.76001">
        <ele>384.32800292969</ele>
        <time>2011-01-19T15:23:56Z</time>
      </trkpt>
      <trkpt lat="44.98604" lon="4.76011">
        <ele>384.57000732422</ele>
        <time>2011-01-19T15:23:59Z</time>
      </trkpt>
      <trkpt lat="44.98622" lon="4.75996">
        <ele>385.07000732422</ele>
        <time>2011-01-19T15:24:02Z</time>
      </trkpt>
      <trkpt lat="44.98632" lon="4.75982">
        <ele>385.94100952148</ele>
        <time>2011-01-19T15:24:04Z</time>
      </trkpt>
      <trkpt lat="44.98648" lon="4.75965">
        <ele>386.10000610352</ele>
        <time>2011-01-19T15:24:07Z</time>
      </trkpt>
      <trkpt lat="44.98661" lon="4.75957">
        <ele>386.17098999023</ele>
        <time>2011-01-19T15:24:09Z</time>
      </trkpt>
      <trkpt lat="44.98682" lon="4.75934">
        <ele>387.81201171875</ele>
        <time>2011-01-19T15:24:13Z</time>
      </trkpt>
      <trkpt lat="44.98696" lon="4.75911">
        <ele>387.87899780273</ele>
        <time>2011-01-19T15:24:16Z</time>
      </trkpt>
      <trkpt lat="44.98719" lon="4.75893">
        <ele>387.86801147461</ele>
        <time>2011-01-19T15:24:20Z</time>
      </trkpt>
      <trkpt lat="44.98731" lon="4.75892">
        <ele>388.51901245117</ele>
        <time>2011-01-19T15:24:22Z</time>
      </trkpt>
      <trkpt lat="44.98785" lon="4.75895">
        <ele>390.93701171875</ele>
        <time>2011-01-19T15:24:31Z</time>
      </trkpt>
      <trkpt lat="44.98802" lon="4.75899">
        <ele>389.2200012207</ele>
        <time>2011-01-19T15:24:34Z</time>
      </trkpt>
      <trkpt lat="44.98825" lon="4.75919">
        <ele>388.74099731445</ele>
        <time>2011-01-19T15:24:39Z</time>
      </trkpt>
      <trkpt lat="44.98832" lon="4.75932">
        <ele>388.78900146484</ele>
        <time>2011-01-19T15:24:41Z</time>
      </trkpt>
      <trkpt lat="44.9884" lon="4.75952">
        <ele>389.24200439453</ele>
        <time>2011-01-19T15:24:44Z</time>
      </trkpt>
      <trkpt lat="44.98846" lon="4.75964">
        <ele>389.81799316406</ele>
        <time>2011-01-19T15:24:46Z</time>
      </trkpt>
      <trkpt lat="44.98864" lon="4.75979">
        <ele>390.77099609375</ele>
        <time>2011-01-19T15:24:50Z</time>
      </trkpt>
      <trkpt lat="44.98883" lon="4.75971">
        <ele>390.97500610352</ele>
        <time>2011-01-19T15:24:54Z</time>
      </trkpt>
      <trkpt lat="44.98888" lon="4.75967">
        <ele>391.2200012207</ele>
        <time>2011-01-19T15:24:55Z</time>
      </trkpt>
      <trkpt lat="44.98897" lon="4.75957">
        <ele>391.33200073242</ele>
        <time>2011-01-19T15:24:57Z</time>
      </trkpt>
      <trkpt lat="44.98925" lon="4.7595">
        <ele>392.22399902344</ele>
        <time>2011-01-19T15:25:02Z</time>
      </trkpt>
      <trkpt lat="44.98952" lon="4.75965">
        <ele>392.49099731445</ele>
        <time>2011-01-19T15:25:07Z</time>
      </trkpt>
      <trkpt lat="44.98983" lon="4.75999">
        <ele>391.98999023438</ele>
        <time>2011-01-19T15:25:14Z</time>
      </trkpt>
      <trkpt lat="44.9901" lon="4.76013">
        <ele>391.50299072266</ele>
        <time>2011-01-19T15:25:19Z</time>
      </trkpt>
      <trkpt lat="44.99035" lon="4.76004">
        <ele>391.96899414062</ele>
        <time>2011-01-19T15:25:24Z</time>
      </trkpt>
      <trkpt lat="44.99063" lon="4.75985">
        <ele>393.57299804688</ele>
        <time>2011-01-19T15:25:30Z</time>
      </trkpt>
      <trkpt lat="44.99099" lon="4.75982">
        <ele>393.28399658203</ele>
        <time>2011-01-19T15:25:37Z</time>
      </trkpt>
      <trkpt lat="44.99142" lon="4.75983">
        <ele>394.18899536133</ele>
        <time>2011-01-19T15:25:45Z</time>
      </trkpt>
      <trkpt lat="44.99194" lon="4.75975">
        <ele>395.75299072266</ele>
        <time>2011-01-19T15:25:54Z</time>
      </trkpt>
      <trkpt lat="44.99239" lon="4.75974">
        <ele>395.85000610352</ele>
        <time>2011-01-19T15:26:02Z</time>
      </trkpt>
      <trkpt lat="44.99265" lon="4.75979">
        <ele>397.51998901367</ele>
        <time>2011-01-19T15:26:07Z</time>
      </trkpt>
      <trkpt lat="44.99301" lon="4.75985">
        <ele>398.01098632812</ele>
        <time>2011-01-19T15:26:14Z</time>
      </trkpt>
      <trkpt lat="44.99335" lon="4.75991">
        <ele>397.1549987793</ele>
        <time>2011-01-19T15:26:20Z</time>
      </trkpt>
      <trkpt lat="44.9934" lon="4.75992">
        <ele>396.76400756836</ele>
        <time>2011-01-19T15:26:21Z</time>
      </trkpt>
      <trkpt lat="44.99368" lon="4.75988">
        <ele>397.96499633789</ele>
        <time>2011-01-19T15:26:26Z</time>
      </trkpt>
      <trkpt lat="44.99393" lon="4.75974">
        <ele>398.4289855957</ele>
        <time>2011-01-19T15:26:31Z</time>
      </trkpt>
      <trkpt lat="44.99432" lon="4.75968">
        <ele>399.04699707031</ele>
        <time>2011-01-19T15:26:38Z</time>
      </trkpt>
      <trkpt lat="44.99477" lon="4.75967">
        <ele>399.63299560547</ele>
        <time>2011-01-19T15:26:46Z</time>
      </trkpt>
      <trkpt lat="44.99518" lon="4.75966">
        <ele>400.98599243164</ele>
        <time>2011-01-19T15:26:54Z</time>
      </trkpt>
      <trkpt lat="44.99562" lon="4.75966">
        <ele>401.08599853516</ele>
        <time>2011-01-19T15:27:02Z</time>
      </trkpt>
      <trkpt lat="44.99609" lon="4.75965">
        <ele>402.16598510742</ele>
        <time>2011-01-19T15:27:11Z</time>
      </trkpt>
      <trkpt lat="44.99645" lon="4.75972">
        <ele>403.38598632812</ele>
        <time>2011-01-19T15:27:18Z</time>
      </trkpt>
      <trkpt lat="44.99686" lon="4.75991">
        <ele>404.56600952148</ele>
        <time>2011-01-19T15:27:26Z</time>
      </trkpt>
      <trkpt lat="44.99707" lon="4.76019">
        <ele>403.75698852539</ele>
        <time>2011-01-19T15:27:31Z</time>
      </trkpt>
      <trkpt lat="44.99713" lon="4.76053">
        <ele>401.81900024414</ele>
        <time>2011-01-19T15:27:35Z</time>
      </trkpt>
      <trkpt lat="44.99709" lon="4.76078">
        <ele>401.26901245117</ele>
        <time>2011-01-19T15:27:38Z</time>
      </trkpt>
      <trkpt lat="44.99702" lon="4.76094">
        <ele>400.74700927734</ele>
        <time>2011-01-19T15:27:40Z</time>
      </trkpt>
      <trkpt lat="44.99701" lon="4.7613">
        <ele>400.31600952148</ele>
        <time>2011-01-19T15:27:44Z</time>
      </trkpt>
      <trkpt lat="44.99716" lon="4.76139">
        <ele>399.93701171875</ele>
        <time>2011-01-19T15:27:46Z</time>
      </trkpt>
      <trkpt lat="44.99739" lon="4.76143">
        <ele>398.02398681641</ele>
        <time>2011-01-19T15:27:49Z</time>
      </trkpt>
      <trkpt lat="44.99758" lon="4.76158">
        <ele>397.19500732422</ele>
        <time>2011-01-19T15:27:52Z</time>
      </trkpt>
      <trkpt lat="44.99763" lon="4.76167">
        <ele>396.63101196289</ele>
        <time>2011-01-19T15:27:53Z</time>
      </trkpt>
      <trkpt lat="44.99784" lon="4.76197">
        <ele>395.04098510742</ele>
        <time>2011-01-19T15:27:57Z</time>
      </trkpt>
      <trkpt lat="44.99807" lon="4.76201">
        <ele>394.4880065918</ele>
        <time>2011-01-19T15:28:00Z</time>
      </trkpt>
      <trkpt lat="44.9983" lon="4.76187">
        <ele>393.93600463867</ele>
        <time>2011-01-19T15:28:03Z</time>
      </trkpt>
      <trkpt lat="44.99843" lon="4.76175">
        <ele>393.08499145508</ele>
        <time>2011-01-19T15:28:05Z</time>
      </trkpt>
      <trkpt lat="44.99865" lon="4.76163">
        <ele>392.05999755859</ele>
        <time>2011-01-19T15:28:08Z</time>
      </trkpt>
      <trkpt lat="44.99872" lon="4.76161">
        <ele>391.78201293945</ele>
        <time>2011-01-19T15:28:09Z</time>
      </trkpt>
      <trkpt lat="44.99888" lon="4.7616">
        <ele>391.22299194336</ele>
        <time>2011-01-19T15:28:11Z</time>
      </trkpt>
      <trkpt lat="44.99918" lon="4.76182">
        <ele>389.33099365234</ele>
        <time>2011-01-19T15:28:15Z</time>
      </trkpt>
      <trkpt lat="44.99921" lon="4.76208">
        <ele>388.11499023438</ele>
        <time>2011-01-19T15:28:17Z</time>
      </trkpt>
      <trkpt lat="44.99922" lon="4.76244">
        <ele>387.41299438477</ele>
        <time>2011-01-19T15:28:20Z</time>
      </trkpt>
      <trkpt lat="44.99937" lon="4.76258">
        <ele>387.14199829102</ele>
        <time>2011-01-19T15:28:22Z</time>
      </trkpt>
      <trkpt lat="44.99969" lon="4.76281">
        <ele>385.2919921875</ele>
        <time>2011-01-19T15:28:26Z</time>
      </trkpt>
      <trkpt lat="44.99997" lon="4.76331">
        <ele>383.01699829102</ele>
        <time>2011-01-19T15:28:31Z</time>
      </trkpt>
      <trkpt lat="45.00002" lon="4.76357">
        <ele>382.96099853516</ele>
        <time>2011-01-19T15:28:33Z</time>
      </trkpt>
      <trkpt lat="45.0001" lon="4.76418">
        <ele>382.08200073242</ele>
        <time>2011-01-19T15:28:38Z</time>
      </trkpt>
      <trkpt lat="45.00004" lon="4.76478">
        <ele>378.49899291992</ele>
        <time>2011-01-19T15:28:43Z</time>
      </trkpt>
      <trkpt lat="44.9999" lon="4.7654">
        <ele>376.26800537109</ele>
        <time>2011-01-19T15:28:48Z</time>
      </trkpt>
      <trkpt lat="44.99976" lon="4.76588">
        <ele>375.06900024414</ele>
        <time>2011-01-19T15:28:52Z</time>
      </trkpt>
      <trkpt lat="44.99969" lon="4.76639">
        <ele>374.23999023438</ele>
        <time>2011-01-19T15:28:56Z</time>
      </trkpt>
      <trkpt lat="44.99947" lon="4.76679">
        <ele>372.84399414062</ele>
        <time>2011-01-19T15:29:00Z</time>
      </trkpt>
      <trkpt lat="44.9994" lon="4.76702">
        <ele>372.27700805664</ele>
        <time>2011-01-19T15:29:02Z</time>
      </trkpt>
      <trkpt lat="44.99948" lon="4.76725">
        <ele>371.8039855957</ele>
        <time>2011-01-19T15:29:04Z</time>
      </trkpt>
      <trkpt lat="44.99955" lon="4.76732">
        <ele>371.60900878906</ele>
        <time>2011-01-19T15:29:05Z</time>
      </trkpt>
      <trkpt lat="44.99976" lon="4.76773">
        <ele>369.32998657227</ele>
        <time>2011-01-19T15:29:09Z</time>
      </trkpt>
      <trkpt lat="44.99977" lon="4.76786">
        <ele>369.05801391602</ele>
        <time>2011-01-19T15:29:10Z</time>
      </trkpt>
      <trkpt lat="44.99994" lon="4.76843">
        <ele>367.24499511719</ele>
        <time>2011-01-19T15:29:15Z</time>
      </trkpt>
      <trkpt lat="45" lon="4.76851">
        <ele>366.94000244141</ele>
        <time>2011-01-19T15:29:16Z</time>
      </trkpt>
      <trkpt lat="45.00013" lon="4.76866">
        <ele>367.08700561523</ele>
        <time>2011-01-19T15:29:18Z</time>
      </trkpt>
      <trkpt lat="45.00034" lon="4.76874">
        <ele>367.82901000977</ele>
        <time>2011-01-19T15:29:21Z</time>
      </trkpt>
      <trkpt lat="45.00046" lon="4.76863">
        <ele>368.20901489258</ele>
        <time>2011-01-19T15:29:23Z</time>
      </trkpt>
      <trkpt lat="45.00053" lon="4.76849">
        <ele>369.02801513672</ele>
        <time>2011-01-19T15:29:25Z</time>
      </trkpt>
      <trkpt lat="45.00059" lon="4.76835">
        <ele>369.67401123047</ele>
        <time>2011-01-19T15:29:27Z</time>
      </trkpt>
      <trkpt lat="45.00083" lon="4.76791">
        <ele>372.14498901367</ele>
        <time>2011-01-19T15:29:35Z</time>
      </trkpt>
      <trkpt lat="45.00095" lon="4.76765">
        <ele>372.91101074219</ele>
        <time>2011-01-19T15:29:40Z</time>
      </trkpt>
      <trkpt lat="45.001" lon="4.76745">
        <ele>373.63299560547</ele>
        <time>2011-01-19T15:29:44Z</time>
      </trkpt>
      <trkpt lat="45.00103" lon="4.7673">
        <ele>374.12899780273</ele>
        <time>2011-01-19T15:29:47Z</time>
      </trkpt>
      <trkpt lat="45.00099" lon="4.76699">
        <ele>375.00601196289</ele>
        <time>2011-01-19T15:29:53Z</time>
      </trkpt>
      <trkpt lat="45.00095" lon="4.76683">
        <ele>375.34698486328</ele>
        <time>2011-01-19T15:29:56Z</time>
      </trkpt>
      <trkpt lat="45.00095" lon="4.76631">
        <ele>376.39801025391</ele>
        <time>2011-01-19T15:30:05Z</time>
      </trkpt>
      <trkpt lat="45.00102" lon="4.76611">
        <ele>377.28298950195</ele>
        <time>2011-01-19T15:30:09Z</time>
      </trkpt>
      <trkpt lat="45.00115" lon="4.76601">
        <ele>378.2080078125</ele>
        <time>2011-01-19T15:30:13Z</time>
      </trkpt>
      <trkpt lat="45.00129" lon="4.76604">
        <ele>379.97900390625</ele>
        <time>2011-01-19T15:30:17Z</time>
      </trkpt>
      <trkpt lat="45.00131" lon="4.76606">
        <ele>380.05801391602</ele>
        <time>2011-01-19T15:30:18Z</time>
      </trkpt>
      <trkpt lat="45.00138" lon="4.76613">
        <ele>380.10699462891</ele>
        <time>2011-01-19T15:30:21Z</time>
      </trkpt>
      <trkpt lat="45.00153" lon="4.76632">
        <ele>382.14898681641</ele>
        <time>2011-01-19T15:30:27Z</time>
      </trkpt>
      <trkpt lat="45.00171" lon="4.76647">
        <ele>383.35800170898</ele>
        <time>2011-01-19T15:30:33Z</time>
      </trkpt>
      <trkpt lat="45.00185" lon="4.76643">
        <ele>383.82501220703</ele>
        <time>2011-01-19T15:30:37Z</time>
      </trkpt>
      <trkpt lat="45.00191" lon="4.76626">
        <ele>385.11099243164</ele>
        <time>2011-01-19T15:30:41Z</time>
      </trkpt>
      <trkpt lat="45.00188" lon="4.76596">
        <ele>386.34100341797</ele>
        <time>2011-01-19T15:30:47Z</time>
      </trkpt>
      <trkpt lat="45.00178" lon="4.76565">
        <ele>389.06201171875</ele>
        <time>2011-01-19T15:30:54Z</time>
      </trkpt>
      <trkpt lat="45.00176" lon="4.76561">
        <ele>389.28698730469</ele>
        <time>2011-01-19T15:30:55Z</time>
      </trkpt>
      <trkpt lat="45.00172" lon="4.76533">
        <ele>390.10598754883</ele>
        <time>2011-01-19T15:31:01Z</time>
      </trkpt>
      <trkpt lat="45.00183" lon="4.76518">
        <ele>391.83499145508</ele>
        <time>2011-01-19T15:31:06Z</time>
      </trkpt>
      <trkpt lat="45.00197" lon="4.76508">
        <ele>392.48498535156</ele>
        <time>2011-01-19T15:31:11Z</time>
      </trkpt>
      <trkpt lat="45.00204" lon="4.76491">
        <ele>392.92199707031</ele>
        <time>2011-01-19T15:31:15Z</time>
      </trkpt>
      <trkpt lat="45.00199" lon="4.76473">
        <ele>393.81900024414</ele>
        <time>2011-01-19T15:31:19Z</time>
      </trkpt>
      <trkpt lat="45.00183" lon="4.76441">
        <ele>395.15798950195</ele>
        <time>2011-01-19T15:31:27Z</time>
      </trkpt>
      <trkpt lat="45.00176" lon="4.7641">
        <ele>396.64099121094</ele>
        <time>2011-01-19T15:31:34Z</time>
      </trkpt>
      <trkpt lat="45.0018" lon="4.76374">
        <ele>398.14300537109</ele>
        <time>2011-01-19T15:31:42Z</time>
      </trkpt>
      <trkpt lat="45.00186" lon="4.76331">
        <ele>399.96798706055</ele>
        <time>2011-01-19T15:31:51Z</time>
      </trkpt>
      <trkpt lat="45.00198" lon="4.76313">
        <ele>401.7200012207</ele>
        <time>2011-01-19T15:31:56Z</time>
      </trkpt>
      <trkpt lat="45.00204" lon="4.76308">
        <ele>402.59799194336</ele>
        <time>2011-01-19T15:31:58Z</time>
      </trkpt>
      <trkpt lat="45.00229" lon="4.76299">
        <ele>403.5299987793</ele>
        <time>2011-01-19T15:32:05Z</time>
      </trkpt>
      <trkpt lat="45.00252" lon="4.76286">
        <ele>405.28399658203</ele>
        <time>2011-01-19T15:32:12Z</time>
      </trkpt>
      <trkpt lat="45.00276" lon="4.76274">
        <ele>407.56698608398</ele>
        <time>2011-01-19T15:32:19Z</time>
      </trkpt>
      <trkpt lat="45.00306" lon="4.7627">
        <ele>409.52600097656</ele>
        <time>2011-01-19T15:32:28Z</time>
      </trkpt>
      <trkpt lat="45.0034" lon="4.76267">
        <ele>410.59399414062</ele>
        <time>2011-01-19T15:32:38Z</time>
      </trkpt>
      <trkpt lat="45.00371" lon="4.76269">
        <ele>413.41400146484</ele>
        <time>2011-01-19T15:32:47Z</time>
      </trkpt>
      <trkpt lat="45.00401" lon="4.76279">
        <ele>413.68399047852</ele>
        <time>2011-01-19T15:32:56Z</time>
      </trkpt>
      <trkpt lat="45.00425" lon="4.76297">
        <ele>415.71200561523</ele>
        <time>2011-01-19T15:33:04Z</time>
      </trkpt>
      <trkpt lat="45.0044" lon="4.76321">
        <ele>415.71301269531</ele>
        <time>2011-01-19T15:33:11Z</time>
      </trkpt>
      <trkpt lat="45.00449" lon="4.76346">
        <ele>416.62298583984</ele>
        <time>2011-01-19T15:33:17Z</time>
      </trkpt>
      <trkpt lat="45.00461" lon="4.76382">
        <ele>418.84600830078</ele>
        <time>2011-01-19T15:33:25Z</time>
      </trkpt>
      <trkpt lat="45.00473" lon="4.7642">
        <ele>418.25299072266</ele>
        <time>2011-01-19T15:33:34Z</time>
      </trkpt>
      <trkpt lat="45.00486" lon="4.7645">
        <ele>419.48098754883</ele>
        <time>2011-01-19T15:33:42Z</time>
      </trkpt>
      <trkpt lat="45.00503" lon="4.76473">
        <ele>421.00698852539</ele>
        <time>2011-01-19T15:33:49Z</time>
      </trkpt>
      <trkpt lat="45.0053" lon="4.76506">
        <ele>421.66799926758</ele>
        <time>2011-01-19T15:33:59Z</time>
      </trkpt>
      <trkpt lat="45.00557" lon="4.76541">
        <ele>423.22399902344</ele>
        <time>2011-01-19T15:34:09Z</time>
      </trkpt>
      <trkpt lat="45.00587" lon="4.76577">
        <ele>425.63400268555</ele>
        <time>2011-01-19T15:34:19Z</time>
      </trkpt>
      <trkpt lat="45.00613" lon="4.76607">
        <ele>427.14300537109</ele>
        <time>2011-01-19T15:34:28Z</time>
      </trkpt>
      <trkpt lat="45.00639" lon="4.76645">
        <ele>427.66299438477</ele>
        <time>2011-01-19T15:34:38Z</time>
      </trkpt>
      <trkpt lat="45.00658" lon="4.76674">
        <ele>428.22799682617</ele>
        <time>2011-01-19T15:34:46Z</time>
      </trkpt>
      <trkpt lat="45.00674" lon="4.76704">
        <ele>429.01098632812</ele>
        <time>2011-01-19T15:34:53Z</time>
      </trkpt>
      <trkpt lat="45.00691" lon="4.76753">
        <ele>430.56600952148</ele>
        <time>2011-01-19T15:35:03Z</time>
      </trkpt>
      <trkpt lat="45.00709" lon="4.76789">
        <ele>432.49798583984</ele>
        <time>2011-01-19T15:35:11Z</time>
      </trkpt>
      <trkpt lat="45.00737" lon="4.76828">
        <ele>433.86199951172</ele>
        <time>2011-01-19T15:35:21Z</time>
      </trkpt>
      <trkpt lat="45.00759" lon="4.76866">
        <ele>435.12100219727</ele>
        <time>2011-01-19T15:35:30Z</time>
      </trkpt>
      <trkpt lat="45.00768" lon="4.76907">
        <ele>436.54598999023</ele>
        <time>2011-01-19T15:35:38Z</time>
      </trkpt>
      <trkpt lat="45.00767" lon="4.76947">
        <ele>437.39199829102</ele>
        <time>2011-01-19T15:35:45Z</time>
      </trkpt>
      <trkpt lat="45.00752" lon="4.77003">
        <ele>439.58200073242</ele>
        <time>2011-01-19T15:35:56Z</time>
      </trkpt>
      <trkpt lat="45.00734" lon="4.77073">
        <ele>441.3030090332</ele>
        <time>2011-01-19T15:36:10Z</time>
      </trkpt>
      <trkpt lat="45.0072" lon="4.77122">
        <ele>442.77398681641</ele>
        <time>2011-01-19T15:36:19Z</time>
      </trkpt>
      <trkpt lat="45.00719" lon="4.77127">
        <ele>442.94500732422</ele>
        <time>2011-01-19T15:36:20Z</time>
      </trkpt>
      <trkpt lat="45.00712" lon="4.77158">
        <ele>443.87799072266</ele>
        <time>2011-01-19T15:36:26Z</time>
      </trkpt>
      <trkpt lat="45.00705" lon="4.77183">
        <ele>444.35598754883</ele>
        <time>2011-01-19T15:36:31Z</time>
      </trkpt>
      <trkpt lat="45.00698" lon="4.77228">
        <ele>446.13800048828</ele>
        <time>2011-01-19T15:36:40Z</time>
      </trkpt>
      <trkpt lat="45.00702" lon="4.77272">
        <ele>447.81298828125</ele>
        <time>2011-01-19T15:36:48Z</time>
      </trkpt>
      <trkpt lat="45.00712" lon="4.77325">
        <ele>448.48599243164</ele>
        <time>2011-01-19T15:36:57Z</time>
      </trkpt>
      <trkpt lat="45.00724" lon="4.77372">
        <ele>448.25201416016</ele>
        <time>2011-01-19T15:37:05Z</time>
      </trkpt>
      <trkpt lat="45.00748" lon="4.77435">
        <ele>449.70599365234</ele>
        <time>2011-01-19T15:37:16Z</time>
      </trkpt>
      <trkpt lat="45.00771" lon="4.77475">
        <ele>450.69198608398</ele>
        <time>2011-01-19T15:37:24Z</time>
      </trkpt>
      <trkpt lat="45.00793" lon="4.77506">
        <ele>451.55700683594</ele>
        <time>2011-01-19T15:37:32Z</time>
      </trkpt>
      <trkpt lat="45.00808" lon="4.77529">
        <ele>452.94000244141</ele>
        <time>2011-01-19T15:37:39Z</time>
      </trkpt>
      <trkpt lat="45.00822" lon="4.77547">
        <ele>453.74499511719</ele>
        <time>2011-01-19T15:37:44Z</time>
      </trkpt>
      <trkpt lat="45.00842" lon="4.7757">
        <ele>454.85800170898</ele>
        <time>2011-01-19T15:37:51Z</time>
      </trkpt>
      <trkpt lat="45.00867" lon="4.77602">
        <ele>456.81799316406</ele>
        <time>2011-01-19T15:38:00Z</time>
      </trkpt>
      <trkpt lat="45.00899" lon="4.77643">
        <ele>459.43701171875</ele>
        <time>2011-01-19T15:38:11Z</time>
      </trkpt>
      <trkpt lat="45.00928" lon="4.77687">
        <ele>460.99600219727</ele>
        <time>2011-01-19T15:38:22Z</time>
      </trkpt>
      <trkpt lat="45.00934" lon="4.77718">
        <ele>462.01800537109</ele>
        <time>2011-01-19T15:38:28Z</time>
      </trkpt>
      <trkpt lat="45.00936" lon="4.77761">
        <ele>463.93200683594</ele>
        <time>2011-01-19T15:38:36Z</time>
      </trkpt>
      <trkpt lat="45.00938" lon="4.77816">
        <ele>465.28698730469</ele>
        <time>2011-01-19T15:38:46Z</time>
      </trkpt>
      <trkpt lat="45.00939" lon="4.77868">
        <ele>466.48699951172</ele>
        <time>2011-01-19T15:38:55Z</time>
      </trkpt>
      <trkpt lat="45.00941" lon="4.77919">
        <ele>467.93499755859</ele>
        <time>2011-01-19T15:39:04Z</time>
      </trkpt>
      <trkpt lat="45.00943" lon="4.77967">
        <ele>468.94900512695</ele>
        <time>2011-01-19T15:39:13Z</time>
      </trkpt>
      <trkpt lat="45.00943" lon="4.77994">
        <ele>471.75399780273</ele>
        <time>2011-01-19T15:39:18Z</time>
      </trkpt>
      <trkpt lat="45.00943" lon="4.77999">
        <ele>471.60000610352</ele>
        <time>2011-01-19T15:39:19Z</time>
      </trkpt>
      <trkpt lat="45.00945" lon="4.78034">
        <ele>471.65600585938</ele>
        <time>2011-01-19T15:39:25Z</time>
      </trkpt>
      <trkpt lat="45.00945" lon="4.78046">
        <ele>471.36499023438</ele>
        <time>2011-01-19T15:39:27Z</time>
      </trkpt>
      <trkpt lat="45.00944" lon="4.7811">
        <ele>474.91900634766</ele>
        <time>2011-01-19T15:39:38Z</time>
      </trkpt>
      <trkpt lat="45.00949" lon="4.78138">
        <ele>474.49301147461</ele>
        <time>2011-01-19T15:39:43Z</time>
      </trkpt>
      <trkpt lat="45.00956" lon="4.78145">
        <ele>474.93200683594</ele>
        <time>2011-01-19T15:39:45Z</time>
      </trkpt>
      <trkpt lat="45.00988" lon="4.78151">
        <ele>477.08099365234</ele>
        <time>2011-01-19T15:39:53Z</time>
      </trkpt>
      <trkpt lat="45.00997" lon="4.78151">
        <ele>476.33200073242</ele>
        <time>2011-01-19T15:39:55Z</time>
      </trkpt>
      <trkpt lat="45.01015" lon="4.78156">
        <ele>476.51501464844</ele>
        <time>2011-01-19T15:39:59Z</time>
      </trkpt>
      <trkpt lat="45.01031" lon="4.78165">
        <ele>474.84799194336</ele>
        <time>2011-01-19T15:40:03Z</time>
      </trkpt>
      <trkpt lat="45.01041" lon="4.78165">
        <ele>475.52301025391</ele>
        <time>2011-01-19T15:40:06Z</time>
      </trkpt>
      <trkpt lat="45.01054" lon="4.78168">
        <ele>473.79000854492</ele>
        <time>2011-01-19T15:40:12Z</time>
      </trkpt>
      <trkpt lat="45.01055" lon="4.78171">
        <ele>474.7080078125</ele>
        <time>2011-01-19T15:40:15Z</time>
      </trkpt>
      <trkpt lat="45.01054" lon="4.7818">
        <ele>475.64199829102</ele>
        <time>2011-01-19T15:43:05Z</time>
      </trkpt>
      <trkpt lat="45.01061" lon="4.7819">
        <ele>475.50500488281</ele>
        <time>2011-01-19T15:43:08Z</time>
      </trkpt>
      <trkpt lat="45.01069" lon="4.78198">
        <ele>476.60501098633</ele>
        <time>2011-01-19T15:43:10Z</time>
      </trkpt>
      <trkpt lat="45.01105" lon="4.78233">
        <ele>474.71600341797</ele>
        <time>2011-01-19T15:43:18Z</time>
      </trkpt>
      <trkpt lat="45.01145" lon="4.7827">
        <ele>473.47198486328</ele>
        <time>2011-01-19T15:43:27Z</time>
      </trkpt>
      <trkpt lat="45.01189" lon="4.7831">
        <ele>473.06799316406</ele>
        <time>2011-01-19T15:43:36Z</time>
      </trkpt>
      <trkpt lat="45.01241" lon="4.7836">
        <ele>471.14801025391</ele>
        <time>2011-01-19T15:43:46Z</time>
      </trkpt>
      <trkpt lat="45.01273" lon="4.78391">
        <ele>469.88101196289</ele>
        <time>2011-01-19T15:43:52Z</time>
      </trkpt>
      <trkpt lat="45.01307" lon="4.78407">
        <ele>467.62200927734</ele>
        <time>2011-01-19T15:43:58Z</time>
      </trkpt>
      <trkpt lat="45.01313" lon="4.78407">
        <ele>467.49398803711</ele>
        <time>2011-01-19T15:43:59Z</time>
      </trkpt>
      <trkpt lat="45.01331" lon="4.78405">
        <ele>467.3869934082</ele>
        <time>2011-01-19T15:44:02Z</time>
      </trkpt>
      <trkpt lat="45.01375" lon="4.78381">
        <ele>466.93499755859</ele>
        <time>2011-01-19T15:44:09Z</time>
      </trkpt>
      <trkpt lat="45.01426" lon="4.78347">
        <ele>468.5119934082</ele>
        <time>2011-01-19T15:44:17Z</time>
      </trkpt>
      <trkpt lat="45.01473" lon="4.7831">
        <ele>465.60900878906</ele>
        <time>2011-01-19T15:44:24Z</time>
      </trkpt>
      <trkpt lat="45.01537" lon="4.78267">
        <ele>464.57598876953</ele>
        <time>2011-01-19T15:44:33Z</time>
      </trkpt>
      <trkpt lat="45.01609" lon="4.78224">
        <ele>464.85400390625</ele>
        <time>2011-01-19T15:44:43Z</time>
      </trkpt>
      <trkpt lat="45.01617" lon="4.7822">
        <ele>465.04299926758</ele>
        <time>2011-01-19T15:44:44Z</time>
      </trkpt>
      <trkpt lat="45.01638" lon="4.78206">
        <ele>464.22299194336</ele>
        <time>2011-01-19T15:44:47Z</time>
      </trkpt>
      <trkpt lat="45.01665" lon="4.78169">
        <ele>462.26501464844</ele>
        <time>2011-01-19T15:44:52Z</time>
      </trkpt>
      <trkpt lat="45.01672" lon="4.78138">
        <ele>462.98599243164</ele>
        <time>2011-01-19T15:44:55Z</time>
      </trkpt>
      <trkpt lat="45.01674" lon="4.78116">
        <ele>463.83099365234</ele>
        <time>2011-01-19T15:44:57Z</time>
      </trkpt>
      <trkpt lat="45.01677" lon="4.78036">
        <ele>459.43301391602</ele>
        <time>2011-01-19T15:45:04Z</time>
      </trkpt>
      <trkpt lat="45.01683" lon="4.77983">
        <ele>458.31399536133</ele>
        <time>2011-01-19T15:45:09Z</time>
      </trkpt>
      <trkpt lat="45.01689" lon="4.77965">
        <ele>456.94400024414</ele>
        <time>2011-01-19T15:45:11Z</time>
      </trkpt>
      <trkpt lat="45.01704" lon="4.77946">
        <ele>458.19198608398</ele>
        <time>2011-01-19T15:45:14Z</time>
      </trkpt>
      <trkpt lat="45.01713" lon="4.77921">
        <ele>457.11099243164</ele>
        <time>2011-01-19T15:45:17Z</time>
      </trkpt>
      <trkpt lat="45.01723" lon="4.77879">
        <ele>455.52200317383</ele>
        <time>2011-01-19T15:45:21Z</time>
      </trkpt>
      <trkpt lat="45.0174" lon="4.77853">
        <ele>457.65600585938</ele>
        <time>2011-01-19T15:45:24Z</time>
      </trkpt>
      <trkpt lat="45.01747" lon="4.77851">
        <ele>457.81298828125</ele>
        <time>2011-01-19T15:45:25Z</time>
      </trkpt>
      <trkpt lat="45.01755" lon="4.77851">
        <ele>456.10699462891</ele>
        <time>2011-01-19T15:45:26Z</time>
      </trkpt>
      <trkpt lat="45.01779" lon="4.77852">
        <ele>453.21499633789</ele>
        <time>2011-01-19T15:45:29Z</time>
      </trkpt>
      <trkpt lat="45.01833" lon="4.77853">
        <ele>451.51901245117</ele>
        <time>2011-01-19T15:45:36Z</time>
      </trkpt>
      <trkpt lat="45.01883" lon="4.77859">
        <ele>452.41198730469</ele>
        <time>2011-01-19T15:45:43Z</time>
      </trkpt>
      <trkpt lat="45.01923" lon="4.77878">
        <ele>452.1130065918</ele>
        <time>2011-01-19T15:45:49Z</time>
      </trkpt>
      <trkpt lat="45.0197" lon="4.77893">
        <ele>448.9880065918</ele>
        <time>2011-01-19T15:45:55Z</time>
      </trkpt>
      <trkpt lat="45.02033" lon="4.77906">
        <ele>442.63101196289</ele>
        <time>2011-01-19T15:46:02Z</time>
      </trkpt>
      <trkpt lat="45.02052" lon="4.7791">
        <ele>440.92001342773</ele>
        <time>2011-01-19T15:46:04Z</time>
      </trkpt>
      <trkpt lat="45.02079" lon="4.77894">
        <ele>438.24700927734</ele>
        <time>2011-01-19T15:46:07Z</time>
      </trkpt>
      <trkpt lat="45.02085" lon="4.77867">
        <ele>436.6549987793</ele>
        <time>2011-01-19T15:46:09Z</time>
      </trkpt>
      <trkpt lat="45.02089" lon="4.77795">
        <ele>433.55499267578</ele>
        <time>2011-01-19T15:46:14Z</time>
      </trkpt>
      <trkpt lat="45.02098" lon="4.77749">
        <ele>430.96600341797</ele>
        <time>2011-01-19T15:46:17Z</time>
      </trkpt>
      <trkpt lat="45.02128" lon="4.77728">
        <ele>429.31900024414</ele>
        <time>2011-01-19T15:46:20Z</time>
      </trkpt>
      <trkpt lat="45.02156" lon="4.77712">
        <ele>429.28399658203</ele>
        <time>2011-01-19T15:46:23Z</time>
      </trkpt>
      <trkpt lat="45.02196" lon="4.77707">
        <ele>430.18301391602</ele>
        <time>2011-01-19T15:46:28Z</time>
      </trkpt>
      <trkpt lat="45.02208" lon="4.7771">
        <ele>431.46398925781</ele>
        <time>2011-01-19T15:46:30Z</time>
      </trkpt>
      <trkpt lat="45.02237" lon="4.77726">
        <ele>432.94400024414</ele>
        <time>2011-01-19T15:46:36Z</time>
      </trkpt>
      <trkpt lat="45.0226" lon="4.77752">
        <ele>435.87799072266</ele>
        <time>2011-01-19T15:46:43Z</time>
      </trkpt>
      <trkpt lat="45.02263" lon="4.77756">
        <ele>436.07598876953</ele>
        <time>2011-01-19T15:46:44Z</time>
      </trkpt>
      <trkpt lat="45.02286" lon="4.77784">
        <ele>437.62899780273</ele>
        <time>2011-01-19T15:46:51Z</time>
      </trkpt>
      <trkpt lat="45.02289" lon="4.77788">
        <ele>437.62899780273</ele>
        <time>2011-01-19T15:46:52Z</time>
      </trkpt>
      <trkpt lat="45.02313" lon="4.77815">
        <ele>439.93600463867</ele>
        <time>2011-01-19T15:46:59Z</time>
      </trkpt>
      <trkpt lat="45.02337" lon="4.77835">
        <ele>441.0719909668</ele>
        <time>2011-01-19T15:47:06Z</time>
      </trkpt>
      <trkpt lat="45.02368" lon="4.77855">
        <ele>442.94000244141</ele>
        <time>2011-01-19T15:47:14Z</time>
      </trkpt>
      <trkpt lat="45.02396" lon="4.77874">
        <ele>443.52499389648</ele>
        <time>2011-01-19T15:47:21Z</time>
      </trkpt>
      <trkpt lat="45.0243" lon="4.77895">
        <ele>443.54400634766</ele>
        <time>2011-01-19T15:47:29Z</time>
      </trkpt>
      <trkpt lat="45.02465" lon="4.77917">
        <ele>443.56500244141</ele>
        <time>2011-01-19T15:47:38Z</time>
      </trkpt>
      <trkpt lat="45.02481" lon="4.77924">
        <ele>445.96099853516</ele>
        <time>2011-01-19T15:47:42Z</time>
      </trkpt>
      <trkpt lat="45.02494" lon="4.77929">
        <ele>446.89099121094</ele>
        <time>2011-01-19T15:47:45Z</time>
      </trkpt>
      <trkpt lat="45.0253" lon="4.77936">
        <ele>446.93701171875</ele>
        <time>2011-01-19T15:47:54Z</time>
      </trkpt>
      <trkpt lat="45.02557" lon="4.77939">
        <ele>451.42498779297</ele>
        <time>2011-01-19T15:48:01Z</time>
      </trkpt>
      <trkpt lat="45.02583" lon="4.77937">
        <ele>452.66598510742</ele>
        <time>2011-01-19T15:48:07Z</time>
      </trkpt>
      <trkpt lat="45.02603" lon="4.77922">
        <ele>453.79299926758</ele>
        <time>2011-01-19T15:48:13Z</time>
      </trkpt>
      <trkpt lat="45.02607" lon="4.77908">
        <ele>454.06600952148</ele>
        <time>2011-01-19T15:48:16Z</time>
      </trkpt>
      <trkpt lat="45.0261" lon="4.77874">
        <ele>454.18399047852</ele>
        <time>2011-01-19T15:48:22Z</time>
      </trkpt>
      <trkpt lat="45.02612" lon="4.77847">
        <ele>456.46200561523</ele>
        <time>2011-01-19T15:48:27Z</time>
      </trkpt>
      <trkpt lat="45.02618" lon="4.77829">
        <ele>457.49301147461</ele>
        <time>2011-01-19T15:48:31Z</time>
      </trkpt>
      <trkpt lat="45.02641" lon="4.77796">
        <ele>456.08700561523</ele>
        <time>2011-01-19T15:48:38Z</time>
      </trkpt>
      <trkpt lat="45.02657" lon="4.77776">
        <ele>455.5719909668</ele>
        <time>2011-01-19T15:48:42Z</time>
      </trkpt>
      <trkpt lat="45.02674" lon="4.77735">
        <ele>456.09600830078</ele>
        <time>2011-01-19T15:48:48Z</time>
      </trkpt>
      <trkpt lat="45.02685" lon="4.77699">
        <ele>458.53698730469</ele>
        <time>2011-01-19T15:48:54Z</time>
      </trkpt>
      <trkpt lat="45.02697" lon="4.77672">
        <ele>460.74301147461</ele>
        <time>2011-01-19T15:49:00Z</time>
      </trkpt>
      <trkpt lat="45.02705" lon="4.77649">
        <ele>463.57998657227</ele>
        <time>2011-01-19T15:49:06Z</time>
      </trkpt>
      <trkpt lat="45.02707" lon="4.77645">
        <ele>463.84298706055</ele>
        <time>2011-01-19T15:49:07Z</time>
      </trkpt>
      <trkpt lat="45.02716" lon="4.77615">
        <ele>466.19000244141</ele>
        <time>2011-01-19T15:49:14Z</time>
      </trkpt>
      <trkpt lat="45.02732" lon="4.77582">
        <ele>467.66500854492</ele>
        <time>2011-01-19T15:49:22Z</time>
      </trkpt>
      <trkpt lat="45.02742" lon="4.77568">
        <ele>469.28698730469</ele>
        <time>2011-01-19T15:49:25Z</time>
      </trkpt>
      <trkpt lat="45.02761" lon="4.77552">
        <ele>467.96200561523</ele>
        <time>2011-01-19T15:49:29Z</time>
      </trkpt>
      <trkpt lat="45.02788" lon="4.77539">
        <ele>464.07998657227</ele>
        <time>2011-01-19T15:49:34Z</time>
      </trkpt>
      <trkpt lat="45.02813" lon="4.77517">
        <ele>465.20401000977</ele>
        <time>2011-01-19T15:49:39Z</time>
      </trkpt>
      <trkpt lat="45.02834" lon="4.77488">
        <ele>465.38000488281</ele>
        <time>2011-01-19T15:49:45Z</time>
      </trkpt>
      <trkpt lat="45.0286" lon="4.77463">
        <ele>466.27801513672</ele>
        <time>2011-01-19T15:49:52Z</time>
      </trkpt>
      <trkpt lat="45.02884" lon="4.77447">
        <ele>465.91101074219</ele>
        <time>2011-01-19T15:49:58Z</time>
      </trkpt>
      <trkpt lat="45.02901" lon="4.7744">
        <ele>466.45199584961</ele>
        <time>2011-01-19T15:50:02Z</time>
      </trkpt>
      <trkpt lat="45.02936" lon="4.77436">
        <ele>465.0710144043</ele>
        <time>2011-01-19T15:50:09Z</time>
      </trkpt>
      <trkpt lat="45.02962" lon="4.77437">
        <ele>464.23498535156</ele>
        <time>2011-01-19T15:50:13Z</time>
      </trkpt>
      <trkpt lat="45.02997" lon="4.77453">
        <ele>462.41799926758</ele>
        <time>2011-01-19T15:50:18Z</time>
      </trkpt>
      <trkpt lat="45.03019" lon="4.77457">
        <ele>460.89300537109</ele>
        <time>2011-01-19T15:50:21Z</time>
      </trkpt>
      <trkpt lat="45.03061" lon="4.77455">
        <ele>461.75500488281</ele>
        <time>2011-01-19T15:50:27Z</time>
      </trkpt>
      <trkpt lat="45.03101" lon="4.77463">
        <ele>459.67300415039</ele>
        <time>2011-01-19T15:50:33Z</time>
      </trkpt>
      <trkpt lat="45.0314" lon="4.77467">
        <ele>459.22601318359</ele>
        <time>2011-01-19T15:50:39Z</time>
      </trkpt>
      <trkpt lat="45.03189" lon="4.77463">
        <ele>460.27099609375</ele>
        <time>2011-01-19T15:50:47Z</time>
      </trkpt>
      <trkpt lat="45.03234" lon="4.77471">
        <ele>458.2619934082</ele>
        <time>2011-01-19T15:50:54Z</time>
      </trkpt>
      <trkpt lat="45.03272" lon="4.77472">
        <ele>455.66101074219</ele>
        <time>2011-01-19T15:50:59Z</time>
      </trkpt>
      <trkpt lat="45.0328" lon="4.77474">
        <ele>455.27099609375</ele>
        <time>2011-01-19T15:51:00Z</time>
      </trkpt>
      <trkpt lat="45.03313" lon="4.77491">
        <ele>452.04501342773</ele>
        <time>2011-01-19T15:51:04Z</time>
      </trkpt>
      <trkpt lat="45.0334" lon="4.77506">
        <ele>448.30099487305</ele>
        <time>2011-01-19T15:51:07Z</time>
      </trkpt>
      <trkpt lat="45.03373" lon="4.77534">
        <ele>446.13198852539</ele>
        <time>2011-01-19T15:51:11Z</time>
      </trkpt>
      <trkpt lat="45.03408" lon="4.77546">
        <ele>444.4049987793</ele>
        <time>2011-01-19T15:51:15Z</time>
      </trkpt>
      <trkpt lat="45.0345" lon="4.77547">
        <ele>442.97900390625</ele>
        <time>2011-01-19T15:51:22Z</time>
      </trkpt>
      <trkpt lat="45.03473" lon="4.77555">
        <ele>443.75698852539</ele>
        <time>2011-01-19T15:51:28Z</time>
      </trkpt>
      <trkpt lat="45.03483" lon="4.77564">
        <ele>444.99700927734</ele>
        <time>2011-01-19T15:51:33Z</time>
      </trkpt>
      <trkpt lat="45.03486" lon="4.77578">
        <ele>446.18301391602</ele>
        <time>2011-01-19T15:51:38Z</time>
      </trkpt>
      <trkpt lat="45.03486" lon="4.77595">
        <ele>448.21200561523</ele>
        <time>2011-01-19T15:51:44Z</time>
      </trkpt>
      <trkpt lat="45.03491" lon="4.77611">
        <ele>451.17098999023</ele>
        <time>2011-01-19T15:51:50Z</time>
      </trkpt>
      <trkpt lat="45.03502" lon="4.7762">
        <ele>452.6789855957</ele>
        <time>2011-01-19T15:51:55Z</time>
      </trkpt>
      <trkpt lat="45.03511" lon="4.77624">
        <ele>453.46600341797</ele>
        <time>2011-01-19T15:51:58Z</time>
      </trkpt>
      <trkpt lat="45.03533" lon="4.77633">
        <ele>455.64999389648</ele>
        <time>2011-01-19T15:52:04Z</time>
      </trkpt>
      <trkpt lat="45.03549" lon="4.77641">
        <ele>456.14099121094</ele>
        <time>2011-01-19T15:52:10Z</time>
      </trkpt>
      <trkpt lat="45.03564" lon="4.77652">
        <ele>457.11801147461</ele>
        <time>2011-01-19T15:52:17Z</time>
      </trkpt>
      <trkpt lat="45.03577" lon="4.7767">
        <ele>459.57699584961</ele>
        <time>2011-01-19T15:52:24Z</time>
      </trkpt>
      <trkpt lat="45.03587" lon="4.77689">
        <ele>461.16400146484</ele>
        <time>2011-01-19T15:52:32Z</time>
      </trkpt>
      <trkpt lat="45.03597" lon="4.77701">
        <ele>462.41000366211</ele>
        <time>2011-01-19T15:52:38Z</time>
      </trkpt>
      <trkpt lat="45.03609" lon="4.77708">
        <ele>463.77700805664</ele>
        <time>2011-01-19T15:52:44Z</time>
      </trkpt>
      <trkpt lat="45.03618" lon="4.77711">
        <ele>465.28900146484</ele>
        <time>2011-01-19T15:52:47Z</time>
      </trkpt>
      <trkpt lat="45.03634" lon="4.77723">
        <ele>465.2619934082</ele>
        <time>2011-01-19T15:52:53Z</time>
      </trkpt>
      <trkpt lat="45.03649" lon="4.77739">
        <ele>466.87399291992</ele>
        <time>2011-01-19T15:53:00Z</time>
      </trkpt>
      <trkpt lat="45.03653" lon="4.77744">
        <ele>467.66198730469</ele>
        <time>2011-01-19T15:53:02Z</time>
      </trkpt>
      <trkpt lat="45.03661" lon="4.77762">
        <ele>468.53500366211</ele>
        <time>2011-01-19T15:53:09Z</time>
      </trkpt>
      <trkpt lat="45.03669" lon="4.77784">
        <ele>470.06201171875</ele>
        <time>2011-01-19T15:53:16Z</time>
      </trkpt>
      <trkpt lat="45.03675" lon="4.77799">
        <ele>471.02200317383</ele>
        <time>2011-01-19T15:53:22Z</time>
      </trkpt>
      <trkpt lat="45.03685" lon="4.77814">
        <ele>472.3210144043</ele>
        <time>2011-01-19T15:53:29Z</time>
      </trkpt>
      <trkpt lat="45.03695" lon="4.77823">
        <ele>473.66400146484</ele>
        <time>2011-01-19T15:53:34Z</time>
      </trkpt>
      <trkpt lat="45.03713" lon="4.77833">
        <ele>474.76300048828</ele>
        <time>2011-01-19T15:53:41Z</time>
      </trkpt>
      <trkpt lat="45.03739" lon="4.77848">
        <ele>477.08999633789</ele>
        <time>2011-01-19T15:53:51Z</time>
      </trkpt>
      <trkpt lat="45.03758" lon="4.77858">
        <ele>477.88500976562</ele>
        <time>2011-01-19T15:53:59Z</time>
      </trkpt>
      <trkpt lat="45.03776" lon="4.77859">
        <ele>477.28900146484</ele>
        <time>2011-01-19T15:54:04Z</time>
      </trkpt>
      <trkpt lat="45.03801" lon="4.77861">
        <ele>475.05801391602</ele>
        <time>2011-01-19T15:54:08Z</time>
      </trkpt>
      <trkpt lat="45.03845" lon="4.77864">
        <ele>471.48699951172</ele>
        <time>2011-01-19T15:54:14Z</time>
      </trkpt>
      <trkpt lat="45.03898" lon="4.77869">
        <ele>467.1130065918</ele>
        <time>2011-01-19T15:54:21Z</time>
      </trkpt>
      <trkpt lat="45.03921" lon="4.77871">
        <ele>464.52600097656</ele>
        <time>2011-01-19T15:54:25Z</time>
      </trkpt>
      <trkpt lat="45.03933" lon="4.77873">
        <ele>463.91000366211</ele>
        <time>2011-01-19T15:54:27Z</time>
      </trkpt>
      <trkpt lat="45.03963" lon="4.77889">
        <ele>462.15399169922</ele>
        <time>2011-01-19T15:54:32Z</time>
      </trkpt>
      <trkpt lat="45.03985" lon="4.77902">
        <ele>457.51998901367</ele>
        <time>2011-01-19T15:54:35Z</time>
      </trkpt>
      <trkpt lat="45.03993" lon="4.77906">
        <ele>456.98498535156</ele>
        <time>2011-01-19T15:54:36Z</time>
      </trkpt>
      <trkpt lat="45.04001" lon="4.7791">
        <ele>455.90301513672</ele>
        <time>2011-01-19T15:54:37Z</time>
      </trkpt>
      <trkpt lat="45.04031" lon="4.77913">
        <ele>450.95199584961</ele>
        <time>2011-01-19T15:54:41Z</time>
      </trkpt>
      <trkpt lat="45.04042" lon="4.77902">
        <ele>449.1669921875</ele>
        <time>2011-01-19T15:54:44Z</time>
      </trkpt>
      <trkpt lat="45.04042" lon="4.77899">
        <ele>449.08200073242</ele>
        <time>2011-01-19T15:54:45Z</time>
      </trkpt>
      <trkpt lat="45.04049" lon="4.77899">
        <ele>446.52801513672</ele>
        <time>2011-01-19T15:54:50Z</time>
      </trkpt>
      <trkpt lat="45.04045" lon="4.77923">
        <ele>444.60598754883</ele>
        <time>2011-01-19T15:54:54Z</time>
      </trkpt>
      <trkpt lat="45.04023" lon="4.77939">
        <ele>444.98599243164</ele>
        <time>2011-01-19T15:54:58Z</time>
      </trkpt>
      <trkpt lat="45.03991" lon="4.77946">
        <ele>444.17401123047</ele>
        <time>2011-01-19T15:55:03Z</time>
      </trkpt>
      <trkpt lat="45.03964" lon="4.77952">
        <ele>442.94799804688</ele>
        <time>2011-01-19T15:55:07Z</time>
      </trkpt>
      <trkpt lat="45.03959" lon="4.77968">
        <ele>442.31698608398</ele>
        <time>2011-01-19T15:55:11Z</time>
      </trkpt>
      <trkpt lat="45.03961" lon="4.77972">
        <ele>442.45498657227</ele>
        <time>2011-01-19T15:55:12Z</time>
      </trkpt>
      <trkpt lat="45.03971" lon="4.77982">
        <ele>442.84600830078</ele>
        <time>2011-01-19T15:55:15Z</time>
      </trkpt>
      <trkpt lat="45.03986" lon="4.78001">
        <ele>442.48300170898</ele>
        <time>2011-01-19T15:55:19Z</time>
      </trkpt>
      <trkpt lat="45.03991" lon="4.78006">
        <ele>442.21301269531</ele>
        <time>2011-01-19T15:55:20Z</time>
      </trkpt>
      <trkpt lat="45.04005" lon="4.7802">
        <ele>441.96200561523</ele>
        <time>2011-01-19T15:55:23Z</time>
      </trkpt>
      <trkpt lat="45.04038" lon="4.78055">
        <ele>443.3210144043</ele>
        <time>2011-01-19T15:55:30Z</time>
      </trkpt>
      <trkpt lat="45.04041" lon="4.7806">
        <ele>443.39300537109</ele>
        <time>2011-01-19T15:55:31Z</time>
      </trkpt>
      <trkpt lat="45.0405" lon="4.78073">
        <ele>444.38500976562</ele>
        <time>2011-01-19T15:55:34Z</time>
      </trkpt>
      <trkpt lat="45.0406" lon="4.78093">
        <ele>447.55999755859</ele>
        <time>2011-01-19T15:55:39Z</time>
      </trkpt>
      <trkpt lat="45.04063" lon="4.78126">
        <ele>449.1969909668</ele>
        <time>2011-01-19T15:55:46Z</time>
      </trkpt>
      <trkpt lat="45.04063" lon="4.78132">
        <ele>449.18399047852</ele>
        <time>2011-01-19T15:55:47Z</time>
      </trkpt>
      <trkpt lat="45.04069" lon="4.78152">
        <ele>449.76098632812</ele>
        <time>2011-01-19T15:55:50Z</time>
      </trkpt>
      <trkpt lat="45.04079" lon="4.7817">
        <ele>450.77499389648</ele>
        <time>2011-01-19T15:55:54Z</time>
      </trkpt>
      <trkpt lat="45.04098" lon="4.78192">
        <ele>448.33898925781</ele>
        <time>2011-01-19T15:55:59Z</time>
      </trkpt>
      <trkpt lat="45.04084" lon="4.78215">
        <ele>446.51901245117</ele>
        <time>2011-01-19T15:56:02Z</time>
      </trkpt>
      <trkpt lat="45.04061" lon="4.78227">
        <ele>444.95098876953</ele>
        <time>2011-01-19T15:56:05Z</time>
      </trkpt>
      <trkpt lat="45.04043" lon="4.78245">
        <ele>442.93301391602</ele>
        <time>2011-01-19T15:56:08Z</time>
      </trkpt>
      <trkpt lat="45.04043" lon="4.78267">
        <ele>441.73199462891</ele>
        <time>2011-01-19T15:56:10Z</time>
      </trkpt>
      <trkpt lat="45.04053" lon="4.78286">
        <ele>441.30999755859</ele>
        <time>2011-01-19T15:56:12Z</time>
      </trkpt>
      <trkpt lat="45.04068" lon="4.78303">
        <ele>441.9289855957</ele>
        <time>2011-01-19T15:56:15Z</time>
      </trkpt>
      <trkpt lat="45.04089" lon="4.78311">
        <ele>442.53201293945</ele>
        <time>2011-01-19T15:56:19Z</time>
      </trkpt>
      <trkpt lat="45.04111" lon="4.7833">
        <ele>444.4289855957</ele>
        <time>2011-01-19T15:56:25Z</time>
      </trkpt>
      <trkpt lat="45.04118" lon="4.78359">
        <ele>446.50698852539</ele>
        <time>2011-01-19T15:56:31Z</time>
      </trkpt>
      <trkpt lat="45.0412" lon="4.78369">
        <ele>447.06698608398</ele>
        <time>2011-01-19T15:56:33Z</time>
      </trkpt>
      <trkpt lat="45.04132" lon="4.78385">
        <ele>447.67498779297</ele>
        <time>2011-01-19T15:56:37Z</time>
      </trkpt>
      <trkpt lat="45.04151" lon="4.78401">
        <ele>449.61099243164</ele>
        <time>2011-01-19T15:56:42Z</time>
      </trkpt>
      <trkpt lat="45.04165" lon="4.78421">
        <ele>451.51000976562</ele>
        <time>2011-01-19T15:56:48Z</time>
      </trkpt>
      <trkpt lat="45.04181" lon="4.78433">
        <ele>453.12899780273</ele>
        <time>2011-01-19T15:56:54Z</time>
      </trkpt>
      <trkpt lat="45.04192" lon="4.78444">
        <ele>453.93301391602</ele>
        <time>2011-01-19T15:56:59Z</time>
      </trkpt>
      <trkpt lat="45.04202" lon="4.78462">
        <ele>455.19299316406</ele>
        <time>2011-01-19T15:57:05Z</time>
      </trkpt>
      <trkpt lat="45.04212" lon="4.78467">
        <ele>456.84600830078</ele>
        <time>2011-01-19T15:57:09Z</time>
      </trkpt>
      <trkpt lat="45.04225" lon="4.78471">
        <ele>458.04699707031</ele>
        <time>2011-01-19T15:57:14Z</time>
      </trkpt>
      <trkpt lat="45.04234" lon="4.78486">
        <ele>459.09600830078</ele>
        <time>2011-01-19T15:57:19Z</time>
      </trkpt>
      <trkpt lat="45.04241" lon="4.78514">
        <ele>460.64599609375</ele>
        <time>2011-01-19T15:57:26Z</time>
      </trkpt>
      <trkpt lat="45.04246" lon="4.78543">
        <ele>461.68399047852</ele>
        <time>2011-01-19T15:57:32Z</time>
      </trkpt>
      <trkpt lat="45.04245" lon="4.78554">
        <ele>461.85998535156</ele>
        <time>2011-01-19T15:57:34Z</time>
      </trkpt>
      <trkpt lat="45.04253" lon="4.78585">
        <ele>459.83599853516</ele>
        <time>2011-01-19T15:57:38Z</time>
      </trkpt>
      <trkpt lat="45.04258" lon="4.78593">
        <ele>459.1960144043</ele>
        <time>2011-01-19T15:57:39Z</time>
      </trkpt>
      <trkpt lat="45.04285" lon="4.78623">
        <ele>457.06600952148</ele>
        <time>2011-01-19T15:57:43Z</time>
      </trkpt>
      <trkpt lat="45.0432" lon="4.78639">
        <ele>453.92700195312</ele>
        <time>2011-01-19T15:57:47Z</time>
      </trkpt>
      <trkpt lat="45.04329" lon="4.78639">
        <ele>453.62399291992</ele>
        <time>2011-01-19T15:57:48Z</time>
      </trkpt>
      <trkpt lat="45.04394" lon="4.78637">
        <ele>448.77700805664</ele>
        <time>2011-01-19T15:57:56Z</time>
      </trkpt>
      <trkpt lat="45.04425" lon="4.78656">
        <ele>445.49700927734</ele>
        <time>2011-01-19T15:58:00Z</time>
      </trkpt>
      <trkpt lat="45.04437" lon="4.78673">
        <ele>444.78698730469</ele>
        <time>2011-01-19T15:58:02Z</time>
      </trkpt>
      <trkpt lat="45.04454" lon="4.78705">
        <ele>444.19000244141</ele>
        <time>2011-01-19T15:58:06Z</time>
      </trkpt>
      <trkpt lat="45.04456" lon="4.78733">
        <ele>443.93301391602</ele>
        <time>2011-01-19T15:58:10Z</time>
      </trkpt>
      <trkpt lat="45.04458" lon="4.78747">
        <ele>445.07699584961</ele>
        <time>2011-01-19T15:58:13Z</time>
      </trkpt>
      <trkpt lat="45.0447" lon="4.78748">
        <ele>444.74600219727</ele>
        <time>2011-01-19T15:58:16Z</time>
      </trkpt>
      <trkpt lat="45.04477" lon="4.78748">
        <ele>443.78298950195</ele>
        <time>2011-01-19T15:58:18Z</time>
      </trkpt>
      <trkpt lat="45.04512" lon="4.78735">
        <ele>443.67401123047</ele>
        <time>2011-01-19T15:58:25Z</time>
      </trkpt>
      <trkpt lat="45.04545" lon="4.78713">
        <ele>441.83499145508</ele>
        <time>2011-01-19T15:58:31Z</time>
      </trkpt>
      <trkpt lat="45.04575" lon="4.78693">
        <ele>437.25799560547</ele>
        <time>2011-01-19T15:58:35Z</time>
      </trkpt>
      <trkpt lat="45.04622" lon="4.78672">
        <ele>432.9460144043</ele>
        <time>2011-01-19T15:58:40Z</time>
      </trkpt>
      <trkpt lat="45.04672" lon="4.78671">
        <ele>429.08499145508</ele>
        <time>2011-01-19T15:58:45Z</time>
      </trkpt>
      <trkpt lat="45.0471" lon="4.78664">
        <ele>425.46899414062</ele>
        <time>2011-01-19T15:58:49Z</time>
      </trkpt>
      <trkpt lat="45.04747" lon="4.78676">
        <ele>421.91000366211</ele>
        <time>2011-01-19T15:58:53Z</time>
      </trkpt>
      <trkpt lat="45.04774" lon="4.78676">
        <ele>418.54800415039</ele>
        <time>2011-01-19T15:58:56Z</time>
      </trkpt>
      <trkpt lat="45.04782" lon="4.78674">
        <ele>418.65399169922</ele>
        <time>2011-01-19T15:58:57Z</time>
      </trkpt>
      <trkpt lat="45.04796" lon="4.78672">
        <ele>419.25201416016</ele>
        <time>2011-01-19T15:58:59Z</time>
      </trkpt>
      <trkpt lat="45.04821" lon="4.78677">
        <ele>420.17098999023</ele>
        <time>2011-01-19T15:59:03Z</time>
      </trkpt>
      <trkpt lat="45.04842" lon="4.7869">
        <ele>420.35800170898</ele>
        <time>2011-01-19T15:59:07Z</time>
      </trkpt>
      <trkpt lat="45.04874" lon="4.78719">
        <ele>416.57598876953</ele>
        <time>2011-01-19T15:59:12Z</time>
      </trkpt>
      <trkpt lat="45.04881" lon="4.78726">
        <ele>415.26400756836</ele>
        <time>2011-01-19T15:59:13Z</time>
      </trkpt>
      <trkpt lat="45.04917" lon="4.78728">
        <ele>412.18899536133</ele>
        <time>2011-01-19T15:59:17Z</time>
      </trkpt>
      <trkpt lat="45.04968" lon="4.78727">
        <ele>410.88900756836</ele>
        <time>2011-01-19T15:59:23Z</time>
      </trkpt>
      <trkpt lat="45.04983" lon="4.78741">
        <ele>409.14700317383</ele>
        <time>2011-01-19T15:59:25Z</time>
      </trkpt>
      <trkpt lat="45.04996" lon="4.78758">
        <ele>408.43399047852</ele>
        <time>2011-01-19T15:59:27Z</time>
      </trkpt>
      <trkpt lat="45.05029" lon="4.78775">
        <ele>406.97198486328</ele>
        <time>2011-01-19T15:59:31Z</time>
      </trkpt>
      <trkpt lat="45.05048" lon="4.78775">
        <ele>405.08200073242</ele>
        <time>2011-01-19T15:59:33Z</time>
      </trkpt>
      <trkpt lat="45.051" lon="4.7877">
        <ele>399.07501220703</ele>
        <time>2011-01-19T15:59:38Z</time>
      </trkpt>
      <trkpt lat="45.05131" lon="4.78755">
        <ele>394.94799804688</ele>
        <time>2011-01-19T15:59:41Z</time>
      </trkpt>
      <trkpt lat="45.0514" lon="4.78744">
        <ele>393.73999023438</ele>
        <time>2011-01-19T15:59:42Z</time>
      </trkpt>
      <trkpt lat="45.05194" lon="4.78702">
        <ele>387.1549987793</ele>
        <time>2011-01-19T15:59:47Z</time>
      </trkpt>
      <trkpt lat="45.05224" lon="4.78703">
        <ele>384.30899047852</ele>
        <time>2011-01-19T15:59:50Z</time>
      </trkpt>
      <trkpt lat="45.05242" lon="4.7872">
        <ele>381.85101318359</ele>
        <time>2011-01-19T15:59:52Z</time>
      </trkpt>
      <trkpt lat="45.05265" lon="4.78756">
        <ele>378.57000732422</ele>
        <time>2011-01-19T15:59:55Z</time>
      </trkpt>
      <trkpt lat="45.05297" lon="4.78776">
        <ele>375.43200683594</ele>
        <time>2011-01-19T15:59:58Z</time>
      </trkpt>
      <trkpt lat="45.05335" lon="4.78782">
        <ele>372.22100830078</ele>
        <time>2011-01-19T16:00:01Z</time>
      </trkpt>
      <trkpt lat="45.05379" lon="4.7881">
        <ele>366.33099365234</ele>
        <time>2011-01-19T16:00:05Z</time>
      </trkpt>
      <trkpt lat="45.05417" lon="4.78844">
        <ele>360.76300048828</ele>
        <time>2011-01-19T16:00:09Z</time>
      </trkpt>
      <trkpt lat="45.05429" lon="4.78856">
        <ele>358.64599609375</ele>
        <time>2011-01-19T16:00:12Z</time>
      </trkpt>
      <trkpt lat="45.05439" lon="4.78885">
        <ele>355.88400268555</ele>
        <time>2011-01-19T16:00:16Z</time>
      </trkpt>
      <trkpt lat="45.0545" lon="4.78919">
        <ele>352.64898681641</ele>
        <time>2011-01-19T16:00:20Z</time>
      </trkpt>
      <trkpt lat="45.05473" lon="4.78926">
        <ele>351.42199707031</ele>
        <time>2011-01-19T16:00:23Z</time>
      </trkpt>
      <trkpt lat="45.05489" lon="4.78935">
        <ele>349.88500976562</ele>
        <time>2011-01-19T16:00:25Z</time>
      </trkpt>
      <trkpt lat="45.0553" lon="4.78968">
        <ele>348.82998657227</ele>
        <time>2011-01-19T16:00:31Z</time>
      </trkpt>
      <trkpt lat="45.05537" lon="4.78974">
        <ele>348.57501220703</ele>
        <time>2011-01-19T16:00:32Z</time>
      </trkpt>
      <trkpt lat="45.0556" lon="4.78989">
        <ele>345.21798706055</ele>
        <time>2011-01-19T16:00:35Z</time>
      </trkpt>
      <trkpt lat="45.05598" lon="4.79023">
        <ele>345.17498779297</ele>
        <time>2011-01-19T16:00:41Z</time>
      </trkpt>
      <trkpt lat="45.0561" lon="4.79032">
        <ele>344.83401489258</ele>
        <time>2011-01-19T16:00:43Z</time>
      </trkpt>
      <trkpt lat="45.05623" lon="4.79067">
        <ele>344.29299926758</ele>
        <time>2011-01-19T16:00:47Z</time>
      </trkpt>
      <trkpt lat="45.05637" lon="4.79087">
        <ele>343.74600219727</ele>
        <time>2011-01-19T16:00:50Z</time>
      </trkpt>
      <trkpt lat="45.05643" lon="4.79091">
        <ele>343.57000732422</ele>
        <time>2011-01-19T16:00:51Z</time>
      </trkpt>
      <trkpt lat="45.05685" lon="4.79113">
        <ele>344.29501342773</ele>
        <time>2011-01-19T16:00:58Z</time>
      </trkpt>
      <trkpt lat="45.05696" lon="4.79117">
        <ele>344.42700195312</ele>
        <time>2011-01-19T16:01:00Z</time>
      </trkpt>
      <trkpt lat="45.05718" lon="4.79124">
        <ele>343.79000854492</ele>
        <time>2011-01-19T16:01:04Z</time>
      </trkpt>
      <trkpt lat="45.0574" lon="4.79124">
        <ele>341.36898803711</ele>
        <time>2011-01-19T16:01:07Z</time>
      </trkpt>
      <trkpt lat="45.05781" lon="4.79107">
        <ele>337.96600341797</ele>
        <time>2011-01-19T16:01:12Z</time>
      </trkpt>
      <trkpt lat="45.05807" lon="4.79077">
        <ele>334.69000244141</ele>
        <time>2011-01-19T16:01:16Z</time>
      </trkpt>
      <trkpt lat="45.05805" lon="4.79047">
        <ele>333.03201293945</ele>
        <time>2011-01-19T16:01:19Z</time>
      </trkpt>
      <trkpt lat="45.05791" lon="4.7901">
        <ele>330.57501220703</ele>
        <time>2011-01-19T16:01:22Z</time>
      </trkpt>
      <trkpt lat="45.05762" lon="4.78972">
        <ele>327.87899780273</ele>
        <time>2011-01-19T16:01:26Z</time>
      </trkpt>
      <trkpt lat="45.05752" lon="4.78967">
        <ele>327.01599121094</ele>
        <time>2011-01-19T16:01:27Z</time>
      </trkpt>
      <trkpt lat="45.05717" lon="4.78935">
        <ele>323.44299316406</ele>
        <time>2011-01-19T16:01:31Z</time>
      </trkpt>
      <trkpt lat="45.05711" lon="4.78921">
        <ele>321.94299316406</ele>
        <time>2011-01-19T16:01:32Z</time>
      </trkpt>
      <trkpt lat="45.05676" lon="4.78884">
        <ele>317.84100341797</ele>
        <time>2011-01-19T16:01:36Z</time>
      </trkpt>
      <trkpt lat="45.05653" lon="4.78876">
        <ele>314.79299926758</ele>
        <time>2011-01-19T16:01:39Z</time>
      </trkpt>
      <trkpt lat="45.05646" lon="4.78867">
        <ele>312.55200195312</ele>
        <time>2011-01-19T16:01:41Z</time>
      </trkpt>
      <trkpt lat="45.05652" lon="4.78856">
        <ele>310.92300415039</ele>
        <time>2011-01-19T16:01:43Z</time>
      </trkpt>
      <trkpt lat="45.05666" lon="4.78856">
        <ele>308.7919921875</ele>
        <time>2011-01-19T16:01:45Z</time>
      </trkpt>
      <trkpt lat="45.05714" lon="4.78854">
        <ele>302.98098754883</ele>
        <time>2011-01-19T16:01:50Z</time>
      </trkpt>
      <trkpt lat="45.05732" lon="4.7887">
        <ele>300.58099365234</ele>
        <time>2011-01-19T16:01:52Z</time>
      </trkpt>
      <trkpt lat="45.05761" lon="4.78911">
        <ele>298.26699829102</ele>
        <time>2011-01-19T16:01:56Z</time>
      </trkpt>
      <trkpt lat="45.05787" lon="4.78914">
        <ele>298.83200073242</ele>
        <time>2011-01-19T16:01:59Z</time>
      </trkpt>
      <trkpt lat="45.05802" lon="4.78902">
        <ele>298.56100463867</ele>
        <time>2011-01-19T16:02:01Z</time>
      </trkpt>
      <trkpt lat="45.05822" lon="4.78888">
        <ele>299.54699707031</ele>
        <time>2011-01-19T16:02:04Z</time>
      </trkpt>
      <trkpt lat="45.0583" lon="4.78891">
        <ele>299.83801269531</ele>
        <time>2011-01-19T16:02:05Z</time>
      </trkpt>
      <trkpt lat="45.05837" lon="4.78895">
        <ele>300.27600097656</ele>
        <time>2011-01-19T16:02:06Z</time>
      </trkpt>
      <trkpt lat="45.05869" lon="4.78909">
        <ele>300.64099121094</ele>
        <time>2011-01-19T16:02:11Z</time>
      </trkpt>
      <trkpt lat="45.05889" lon="4.7891">
        <ele>299.7799987793</ele>
        <time>2011-01-19T16:02:14Z</time>
      </trkpt>
      <trkpt lat="45.05902" lon="4.78909">
        <ele>299.91299438477</ele>
        <time>2011-01-19T16:02:16Z</time>
      </trkpt>
      <trkpt lat="45.05941" lon="4.78906">
        <ele>298.8630065918</ele>
        <time>2011-01-19T16:02:21Z</time>
      </trkpt>
      <trkpt lat="45.0595" lon="4.78905">
        <ele>298.85101318359</ele>
        <time>2011-01-19T16:02:22Z</time>
      </trkpt>
      <trkpt lat="45.05984" lon="4.78897">
        <ele>298.84201049805</ele>
        <time>2011-01-19T16:02:25Z</time>
      </trkpt>
      <trkpt lat="45.06035" lon="4.78899">
        <ele>287.86199951172</ele>
        <time>2011-01-19T16:02:29Z</time>
      </trkpt>
      <trkpt lat="45.06067" lon="4.7892">
        <ele>279.57299804688</ele>
        <time>2011-01-19T16:02:32Z</time>
      </trkpt>
      <trkpt lat="45.06096" lon="4.78947">
        <ele>273.07699584961</ele>
        <time>2011-01-19T16:02:35Z</time>
      </trkpt>
      <trkpt lat="45.06137" lon="4.78956">
        <ele>267.06799316406</ele>
        <time>2011-01-19T16:02:39Z</time>
      </trkpt>
      <trkpt lat="45.06166" lon="4.78975">
        <ele>264.79598999023</ele>
        <time>2011-01-19T16:02:42Z</time>
      </trkpt>
      <trkpt lat="45.06181" lon="4.78995">
        <ele>263.08700561523</ele>
        <time>2011-01-19T16:02:44Z</time>
      </trkpt>
      <trkpt lat="45.062" lon="4.79007">
        <ele>259.20700073242</ele>
        <time>2011-01-19T16:02:47Z</time>
      </trkpt>
      <trkpt lat="45.0621" lon="4.78994">
        <ele>256.95901489258</ele>
        <time>2011-01-19T16:02:49Z</time>
      </trkpt>
      <trkpt lat="45.06216" lon="4.78981">
        <ele>255.37699890137</ele>
        <time>2011-01-19T16:02:52Z</time>
      </trkpt>
      <trkpt lat="45.06223" lon="4.78991">
        <ele>253.71699523926</ele>
        <time>2011-01-19T16:02:54Z</time>
      </trkpt>
      <trkpt lat="45.06222" lon="4.78999">
        <ele>253.08399963379</ele>
        <time>2011-01-19T16:02:55Z</time>
      </trkpt>
      <trkpt lat="45.06215" lon="4.79028">
        <ele>251.13400268555</ele>
        <time>2011-01-19T16:02:58Z</time>
      </trkpt>
      <trkpt lat="45.06221" lon="4.79088">
        <ele>245.1190032959</ele>
        <time>2011-01-19T16:03:02Z</time>
      </trkpt>
      <trkpt lat="45.0624" lon="4.7914">
        <ele>237.06199645996</ele>
        <time>2011-01-19T16:03:05Z</time>
      </trkpt>
      <trkpt lat="45.06273" lon="4.79197">
        <ele>231.69799804688</ele>
        <time>2011-01-19T16:03:09Z</time>
      </trkpt>
      <trkpt lat="45.06284" lon="4.79226">
        <ele>228.8390045166</ele>
        <time>2011-01-19T16:03:12Z</time>
      </trkpt>
      <trkpt lat="45.06276" lon="4.79235">
        <ele>226.21899414062</ele>
        <time>2011-01-19T16:03:14Z</time>
      </trkpt>
      <trkpt lat="45.06268" lon="4.79234">
        <ele>226.21899414062</ele>
        <time>2011-01-19T16:03:15Z</time>
      </trkpt>
      <trkpt lat="45.06244" lon="4.79219">
        <ele>223.13400268555</ele>
        <time>2011-01-19T16:03:18Z</time>
      </trkpt>
      <trkpt lat="45.06235" lon="4.7921">
        <ele>223.07400512695</ele>
        <time>2011-01-19T16:03:19Z</time>
      </trkpt>
      <trkpt lat="45.06182" lon="4.79159">
        <ele>211.0059967041</ele>
        <time>2011-01-19T16:03:24Z</time>
      </trkpt>
      <trkpt lat="45.06164" lon="4.79143">
        <ele>208.00700378418</ele>
        <time>2011-01-19T16:03:26Z</time>
      </trkpt>
      <trkpt lat="45.06157" lon="4.79142">
        <ele>205.34300231934</ele>
        <time>2011-01-19T16:03:29Z</time>
      </trkpt>
      <trkpt lat="45.06158" lon="4.7915">
        <ele>205.06300354004</ele>
        <time>2011-01-19T16:03:30Z</time>
      </trkpt>
      <trkpt lat="45.06162" lon="4.79158">
        <ele>204.25100708008</ele>
        <time>2011-01-19T16:03:31Z</time>
      </trkpt>
      <trkpt lat="45.06183" lon="4.79224">
        <ele>196.30400085449</ele>
        <time>2011-01-19T16:03:36Z</time>
      </trkpt>
      <trkpt lat="45.06211" lon="4.79284">
        <ele>190.36500549316</ele>
        <time>2011-01-19T16:03:40Z</time>
      </trkpt>
      <trkpt lat="45.06225" lon="4.79319">
        <ele>185.34899902344</ele>
        <time>2011-01-19T16:03:42Z</time>
      </trkpt>
      <trkpt lat="45.06249" lon="4.79373">
        <ele>179.11599731445</ele>
        <time>2011-01-19T16:03:45Z</time>
      </trkpt>
      <trkpt lat="45.06279" lon="4.79421">
        <ele>174.76300048828</ele>
        <time>2011-01-19T16:03:48Z</time>
      </trkpt>
      <trkpt lat="45.06309" lon="4.79483">
        <ele>167.26300048828</ele>
        <time>2011-01-19T16:03:52Z</time>
      </trkpt>
      <trkpt lat="45.06326" lon="4.79514">
        <ele>161.11399841309</ele>
        <time>2011-01-19T16:03:55Z</time>
      </trkpt>
      <trkpt lat="45.0633" lon="4.79517">
        <ele>159.48500061035</ele>
        <time>2011-01-19T16:03:56Z</time>
      </trkpt>
      <trkpt lat="45.06352" lon="4.79526">
        <ele>156.76899719238</ele>
        <time>2011-01-19T16:04:01Z</time>
      </trkpt>
      <trkpt lat="45.06363" lon="4.79531">
        <ele>155.98699951172</ele>
        <time>2011-01-19T16:04:03Z</time>
      </trkpt>
      <trkpt lat="45.06376" lon="4.79534">
        <ele>154.12600708008</ele>
        <time>2011-01-19T16:04:07Z</time>
      </trkpt>
      <trkpt lat="45.06377" lon="4.79534">
        <ele>153.80000305176</ele>
        <time>2011-01-19T16:04:08Z</time>
      </trkpt>
      <trkpt lat="45.0639" lon="4.7954">
        <ele>153.07600402832</ele>
        <time>2011-01-19T16:04:13Z</time>
      </trkpt>
      <trkpt lat="45.06414" lon="4.7956">
        <ele>150.94799804688</ele>
        <time>2011-01-19T16:04:17Z</time>
      </trkpt>
      <trkpt lat="45.06421" lon="4.79568">
        <ele>149.68499755859</ele>
        <time>2011-01-19T16:04:18Z</time>
      </trkpt>
      <trkpt lat="45.06433" lon="4.79591">
        <ele>145.81199645996</ele>
        <time>2011-01-19T16:04:20Z</time>
      </trkpt>
      <trkpt lat="45.06476" lon="4.79623">
        <ele>138.12199401856</ele>
        <time>2011-01-19T16:04:24Z</time>
      </trkpt>
      <trkpt lat="45.06487" lon="4.79629">
        <ele>136.38999938965</ele>
        <time>2011-01-19T16:04:25Z</time>
      </trkpt>
      <trkpt lat="45.06503" lon="4.79641">
        <ele>133.41000366211</ele>
        <time>2011-01-19T16:04:27Z</time>
      </trkpt>
      <trkpt lat="45.0653" lon="4.79635">
        <ele>128.47500610352</ele>
        <time>2011-01-19T16:04:30Z</time>
      </trkpt>
      <trkpt lat="45.06537" lon="4.79628">
        <ele>127.93099975586</ele>
        <time>2011-01-19T16:04:31Z</time>
      </trkpt>
      <trkpt lat="45.06563" lon="4.79626">
        <ele>124.94999694824</ele>
        <time>2011-01-19T16:04:34Z</time>
      </trkpt>
      <trkpt lat="45.0658" lon="4.7963">
        <ele>124.06199645996</ele>
        <time>2011-01-19T16:04:36Z</time>
      </trkpt>
      <trkpt lat="45.06612" lon="4.79624">
        <ele>122.88899993897</ele>
        <time>2011-01-19T16:04:40Z</time>
      </trkpt>
      <trkpt lat="45.06627" lon="4.79624">
        <ele>122.37599945068</ele>
        <time>2011-01-19T16:04:43Z</time>
      </trkpt>
      <trkpt lat="45.06629" lon="4.79625">
        <ele>122.14600372315</ele>
        <time>2011-01-19T16:04:46Z</time>
      </trkpt>
      <trkpt lat="45.06631" lon="4.79631">
        <ele>122.00900268555</ele>
        <time>2011-01-19T16:05:02Z</time>
      </trkpt>
      <trkpt lat="45.06639" lon="4.79656">
        <ele>121.41200256348</ele>
        <time>2011-01-19T16:05:09Z</time>
      </trkpt>
      <trkpt lat="45.06652" lon="4.79686">
        <ele>121.3809967041</ele>
        <time>2011-01-19T16:05:14Z</time>
      </trkpt>
      <trkpt lat="45.06675" lon="4.79741">
        <ele>119.82099914551</ele>
        <time>2011-01-19T16:05:22Z</time>
      </trkpt>
      <trkpt lat="45.06691" lon="4.79792">
        <ele>119.17199707031</ele>
        <time>2011-01-19T16:05:28Z</time>
      </trkpt>
      <trkpt lat="45.06695" lon="4.7985">
        <ele>118.69100189209</ele>
        <time>2011-01-19T16:05:34Z</time>
      </trkpt>
      <trkpt lat="45.06694" lon="4.79946">
        <ele>118.6429977417</ele>
        <time>2011-01-19T16:05:44Z</time>
      </trkpt>
      <trkpt lat="45.06693" lon="4.80014">
        <ele>117.95899963379</ele>
        <time>2011-01-19T16:05:51Z</time>
      </trkpt>
      <trkpt lat="45.06691" lon="4.80079">
        <ele>118.21700286865</ele>
        <time>2011-01-19T16:05:58Z</time>
      </trkpt>
      <trkpt lat="45.0669" lon="4.80139">
        <ele>117.94999694824</ele>
        <time>2011-01-19T16:06:04Z</time>
      </trkpt>
      <trkpt lat="45.06688" lon="4.80202">
        <ele>117.4700012207</ele>
        <time>2011-01-19T16:06:10Z</time>
      </trkpt>
      <trkpt lat="45.06685" lon="4.80261">
        <ele>117.12400054932</ele>
        <time>2011-01-19T16:06:16Z</time>
      </trkpt>
      <trkpt lat="45.06685" lon="4.80378">
        <ele>118.43000030518</ele>
        <time>2011-01-19T16:06:28Z</time>
      </trkpt>
      <trkpt lat="45.06685" lon="4.80464">
        <ele>117.89900207519</ele>
        <time>2011-01-19T16:06:37Z</time>
      </trkpt>
      <trkpt lat="45.06686" lon="4.80558">
        <ele>118.55699920654</ele>
        <time>2011-01-19T16:06:47Z</time>
      </trkpt>
      <trkpt lat="45.06686" lon="4.80651">
        <ele>119.14199829102</ele>
        <time>2011-01-19T16:06:57Z</time>
      </trkpt>
      <trkpt lat="45.06688" lon="4.80712">
        <ele>119.23899841309</ele>
        <time>2011-01-19T16:07:04Z</time>
      </trkpt>
      <trkpt lat="45.06696" lon="4.80791">
        <ele>120.797996521</ele>
        <time>2011-01-19T16:07:13Z</time>
      </trkpt>
      <trkpt lat="45.06698" lon="4.80818">
        <ele>120.99299621582</ele>
        <time>2011-01-19T16:07:16Z</time>
      </trkpt>
      <trkpt lat="45.06695" lon="4.80843">
        <ele>120.50900268555</ele>
        <time>2011-01-19T16:07:19Z</time>
      </trkpt>
      <trkpt lat="45.06699" lon="4.80875">
        <ele>121.79699707031</ele>
        <time>2011-01-19T16:07:23Z</time>
      </trkpt>
      <trkpt lat="45.0671" lon="4.80905">
        <ele>122.72799682617</ele>
        <time>2011-01-19T16:07:27Z</time>
      </trkpt>
      <trkpt lat="45.06718" lon="4.80973">
        <ele>122.80200195312</ele>
        <time>2011-01-19T16:07:35Z</time>
      </trkpt>
      <trkpt lat="45.0673" lon="4.81061">
        <ele>123.7200012207</ele>
        <time>2011-01-19T16:07:45Z</time>
      </trkpt>
      <trkpt lat="45.06743" lon="4.81116">
        <ele>124.52100372315</ele>
        <time>2011-01-19T16:07:52Z</time>
      </trkpt>
      <trkpt lat="45.06761" lon="4.81165">
        <ele>123.83799743652</ele>
        <time>2011-01-19T16:07:59Z</time>
      </trkpt>
      <trkpt lat="45.06766" lon="4.81177">
        <ele>123.36199951172</ele>
        <time>2011-01-19T16:08:01Z</time>
      </trkpt>
      <trkpt lat="45.06776" lon="4.81204">
        <ele>123.2559967041</ele>
        <time>2011-01-19T16:08:05Z</time>
      </trkpt>
      <trkpt lat="45.0678" lon="4.81218">
        <ele>123.57800292969</ele>
        <time>2011-01-19T16:08:07Z</time>
      </trkpt>
      <trkpt lat="45.06805" lon="4.81283">
        <ele>124.01000213623</ele>
        <time>2011-01-19T16:08:16Z</time>
      </trkpt>
      <trkpt lat="45.06812" lon="4.81298">
        <ele>122.72299957275</ele>
        <time>2011-01-19T16:08:18Z</time>
      </trkpt>
      <trkpt lat="45.0684" lon="4.81362">
        <ele>121.64099884033</ele>
        <time>2011-01-19T16:08:26Z</time>
      </trkpt>
      <trkpt lat="45.06864" lon="4.81432">
        <ele>121.65000152588</ele>
        <time>2011-01-19T16:08:34Z</time>
      </trkpt>
      <trkpt lat="45.06884" lon="4.81502">
        <ele>121.03199768066</ele>
        <time>2011-01-19T16:08:41Z</time>
      </trkpt>
      <trkpt lat="45.06904" lon="4.81569">
        <ele>120.62400054932</ele>
        <time>2011-01-19T16:08:47Z</time>
      </trkpt>
      <trkpt lat="45.06928" lon="4.81654">
        <ele>119.3450012207</ele>
        <time>2011-01-19T16:08:55Z</time>
      </trkpt>
      <trkpt lat="45.0696" lon="4.81759">
        <ele>119.28299713135</ele>
        <time>2011-01-19T16:09:05Z</time>
      </trkpt>
      <trkpt lat="45.06991" lon="4.81863">
        <ele>119.89800262451</ele>
        <time>2011-01-19T16:09:15Z</time>
      </trkpt>
      <trkpt lat="45.07018" lon="4.81923">
        <ele>118.92900085449</ele>
        <time>2011-01-19T16:09:21Z</time>
      </trkpt>
      <trkpt lat="45.07052" lon="4.81984">
        <ele>118.94499969482</ele>
        <time>2011-01-19T16:09:28Z</time>
      </trkpt>
      <trkpt lat="45.07086" lon="4.82022">
        <ele>117.85900115967</ele>
        <time>2011-01-19T16:09:34Z</time>
      </trkpt>
      <trkpt lat="45.07096" lon="4.82036">
        <ele>117.18599700928</ele>
        <time>2011-01-19T16:09:36Z</time>
      </trkpt>
      <trkpt lat="45.07144" lon="4.82087">
        <ele>116.67099761963</ele>
        <time>2011-01-19T16:09:44Z</time>
      </trkpt>
      <trkpt lat="45.07173" lon="4.82122">
        <ele>116.14700317383</ele>
        <time>2011-01-19T16:09:50Z</time>
      </trkpt>
      <trkpt lat="45.07203" lon="4.82147">
        <ele>116.49900054932</ele>
        <time>2011-01-19T16:09:56Z</time>
      </trkpt>
      <trkpt lat="45.07213" lon="4.82162">
        <ele>115.65799713135</ele>
        <time>2011-01-19T16:09:58Z</time>
      </trkpt>
      <trkpt lat="45.07225" lon="4.82174">
        <ele>116.15100097656</ele>
        <time>2011-01-19T16:10:01Z</time>
      </trkpt>
      <trkpt lat="45.07231" lon="4.82195">
        <ele>115.90399932861</ele>
        <time>2011-01-19T16:10:05Z</time>
      </trkpt>
      <trkpt lat="45.07233" lon="4.82224">
        <ele>116.29399871826</ele>
        <time>2011-01-19T16:10:10Z</time>
      </trkpt>
      <trkpt lat="45.0723" lon="4.82237">
        <ele>116.42900085449</ele>
        <time>2011-01-19T16:10:12Z</time>
      </trkpt>
      <trkpt lat="45.07214" lon="4.82286">
        <ele>115.8809967041</ele>
        <time>2011-01-19T16:10:18Z</time>
      </trkpt>
      <trkpt lat="45.0719" lon="4.82366">
        <ele>114.42400360107</ele>
        <time>2011-01-19T16:10:26Z</time>
      </trkpt>
      <trkpt lat="45.07162" lon="4.82447">
        <ele>114.12200164795</ele>
        <time>2011-01-19T16:10:34Z</time>
      </trkpt>
      <trkpt lat="45.0713" lon="4.82542">
        <ele>113.33699798584</ele>
        <time>2011-01-19T16:10:43Z</time>
      </trkpt>
      <trkpt lat="45.07098" lon="4.82647">
        <ele>113.92900085449</ele>
        <time>2011-01-19T16:10:53Z</time>
      </trkpt>
      <trkpt lat="45.07084" lon="4.827">
        <ele>113.90299987793</ele>
        <time>2011-01-19T16:10:59Z</time>
      </trkpt>
      <trkpt lat="45.07062" lon="4.82752">
        <ele>113.65200042725</ele>
        <time>2011-01-19T16:11:06Z</time>
      </trkpt>
      <trkpt lat="45.07037" lon="4.82789">
        <ele>114.05899810791</ele>
        <time>2011-01-19T16:11:12Z</time>
      </trkpt>
      <trkpt lat="45.07015" lon="4.82824">
        <ele>113.94899749756</ele>
        <time>2011-01-19T16:11:17Z</time>
      </trkpt>
      <trkpt lat="45.06984" lon="4.82857">
        <ele>113.92400360107</ele>
        <time>2011-01-19T16:11:23Z</time>
      </trkpt>
      <trkpt lat="45.06969" lon="4.82873">
        <ele>114.01699829102</ele>
        <time>2011-01-19T16:11:26Z</time>
      </trkpt>
      <trkpt lat="45.06952" lon="4.82892">
        <ele>114.33899688721</ele>
        <time>2011-01-19T16:11:29Z</time>
      </trkpt>
      <trkpt lat="45.06914" lon="4.82944">
        <ele>114.56400299072</ele>
        <time>2011-01-19T16:11:36Z</time>
      </trkpt>
      <trkpt lat="45.06898" lon="4.82973">
        <ele>114.66600036621</ele>
        <time>2011-01-19T16:11:40Z</time>
      </trkpt>
      <trkpt lat="45.06892" lon="4.82988">
        <ele>114.54599761963</ele>
        <time>2011-01-19T16:11:44Z</time>
      </trkpt>
      <trkpt lat="45.06889" lon="4.82993">
        <ele>114.50700378418</ele>
        <time>2011-01-19T16:11:45Z</time>
      </trkpt>
      <trkpt lat="45.06882" lon="4.83029">
        <ele>114.94200134277</ele>
        <time>2011-01-19T16:11:50Z</time>
      </trkpt>
      <trkpt lat="45.06873" lon="4.8308">
        <ele>115.62999725342</ele>
        <time>2011-01-19T16:11:57Z</time>
      </trkpt>
      <trkpt lat="45.06874" lon="4.83128">
        <ele>116.51300048828</ele>
        <time>2011-01-19T16:12:02Z</time>
      </trkpt>
      <trkpt lat="45.06879" lon="4.83173">
        <ele>116.74299621582</ele>
        <time>2011-01-19T16:12:07Z</time>
      </trkpt>
      <trkpt lat="45.0688" lon="4.83218">
        <ele>115.70700073242</ele>
        <time>2011-01-19T16:12:12Z</time>
      </trkpt>
      <trkpt lat="45.06874" lon="4.83256">
        <ele>116.04100036621</ele>
        <time>2011-01-19T16:12:17Z</time>
      </trkpt>
      <trkpt lat="45.06859" lon="4.83307">
        <ele>115.84899902344</ele>
        <time>2011-01-19T16:12:22Z</time>
      </trkpt>
      <trkpt lat="45.06839" lon="4.83349">
        <ele>116.02200317383</ele>
        <time>2011-01-19T16:12:27Z</time>
      </trkpt>
      <trkpt lat="45.0683" lon="4.83363">
        <ele>115.90399932861</ele>
        <time>2011-01-19T16:12:31Z</time>
      </trkpt>
      <trkpt lat="45.06829" lon="4.83368">
        <ele>115.922996521</ele>
        <time>2011-01-19T16:12:35Z</time>
      </trkpt>
      <trkpt lat="45.06829" lon="4.83376">
        <ele>115.79399871826</ele>
        <time>2011-01-19T16:12:40Z</time>
      </trkpt>
      <trkpt lat="45.0682" lon="4.83394">
        <ele>116.49600219727</ele>
        <time>2011-01-19T16:12:45Z</time>
      </trkpt>
      <trkpt lat="45.06815" lon="4.83404">
        <ele>116.40299987793</ele>
        <time>2011-01-19T16:12:47Z</time>
      </trkpt>
      <trkpt lat="45.06789" lon="4.83452">
        <ele>118.20300292969</ele>
        <time>2011-01-19T16:12:56Z</time>
      </trkpt>
      <trkpt lat="45.06787" lon="4.83456">
        <ele>118.38400268555</ele>
        <time>2011-01-19T16:12:57Z</time>
      </trkpt>
      <trkpt lat="45.06789" lon="4.8347">
        <ele>119.65100097656</ele>
        <time>2011-01-19T16:13:02Z</time>
      </trkpt>
      <trkpt lat="45.06793" lon="4.83472">
        <ele>119.31700134277</ele>
        <time>2011-01-19T16:13:04Z</time>
      </trkpt>
      <trkpt lat="45.0681" lon="4.83483">
        <ele>119.13200378418</ele>
        <time>2011-01-19T16:13:10Z</time>
      </trkpt>
      <trkpt lat="45.06838" lon="4.83501">
        <ele>120.577003479</ele>
        <time>2011-01-19T16:13:19Z</time>
      </trkpt>
      <trkpt lat="45.06858" lon="4.83513">
        <ele>120.9700012207</ele>
        <time>2011-01-19T16:13:25Z</time>
      </trkpt>
      <trkpt lat="45.06866" lon="4.83519">
        <ele>122.30500030518</ele>
        <time>2011-01-19T16:13:28Z</time>
      </trkpt>
      <trkpt lat="45.06875" lon="4.83525">
        <ele>120.26399993897</ele>
        <time>2011-01-19T16:13:31Z</time>
      </trkpt>
      <trkpt lat="45.06896" lon="4.83539">
        <ele>120.5</ele>
        <time>2011-01-19T16:13:37Z</time>
      </trkpt>
      <trkpt lat="45.06908" lon="4.83546">
        <ele>120.31800079346</ele>
        <time>2011-01-19T16:13:40Z</time>
      </trkpt>
      <trkpt lat="45.06932" lon="4.83561">
        <ele>119.61699676514</ele>
        <time>2011-01-19T16:13:46Z</time>
      </trkpt>
      <trkpt lat="45.06956" lon="4.83578">
        <ele>119.40200042725</ele>
        <time>2011-01-19T16:13:53Z</time>
      </trkpt>
      <trkpt lat="45.06957" lon="4.83579">
        <ele>118.93699645996</ele>
        <time>2011-01-19T16:13:55Z</time>
      </trkpt>
      <trkpt lat="45.06965" lon="4.83584">
        <ele>118.8570022583</ele>
        <time>2011-01-19T16:14:01Z</time>
      </trkpt>
      <trkpt lat="45.06977" lon="4.83594">
        <ele>118.92199707031</ele>
        <time>2011-01-19T16:14:06Z</time>
      </trkpt>
      <trkpt lat="45.0699" lon="4.83604">
        <ele>117.53900146484</ele>
        <time>2011-01-19T16:14:11Z</time>
      </trkpt>
      <trkpt lat="45.07" lon="4.83612">
        <ele>117.49199676514</ele>
        <time>2011-01-19T16:14:14Z</time>
      </trkpt>
      <trkpt lat="45.07014" lon="4.83622">
        <ele>117.12200164795</ele>
        <time>2011-01-19T16:14:18Z</time>
      </trkpt>
      <trkpt lat="45.07032" lon="4.83638">
        <ele>117.12400054932</ele>
        <time>2011-01-19T16:14:23Z</time>
      </trkpt>
      <trkpt lat="45.07043" lon="4.83642">
        <ele>116.85399627685</ele>
        <time>2011-01-19T16:14:28Z</time>
      </trkpt>
      <trkpt lat="45.07045" lon="4.8364">
        <ele>115.80300140381</ele>
        <time>2011-01-19T16:14:32Z</time>
      </trkpt>
      <trkpt lat="45.07055" lon="4.83635">
        <ele>115.95600128174</ele>
        <time>2011-01-19T16:15:03Z</time>
      </trkpt>
      <trkpt lat="45.07067" lon="4.83636">
        <ele>116.02500152588</ele>
        <time>2011-01-19T16:15:08Z</time>
      </trkpt>
      <trkpt lat="45.07079" lon="4.83643">
        <ele>116.67800140381</ele>
        <time>2011-01-19T16:15:12Z</time>
      </trkpt>
      <trkpt lat="45.0709" lon="4.83661">
        <ele>116.44000244141</ele>
        <time>2011-01-19T16:15:17Z</time>
      </trkpt>
      <trkpt lat="45.07105" lon="4.8367">
        <ele>116.63999938965</ele>
        <time>2011-01-19T16:15:21Z</time>
      </trkpt>
      <trkpt lat="45.07113" lon="4.83672">
        <ele>116.92900085449</ele>
        <time>2011-01-19T16:15:23Z</time>
      </trkpt>
      <trkpt lat="45.07119" lon="4.83689">
        <ele>116.49099731445</ele>
        <time>2011-01-19T16:15:27Z</time>
      </trkpt>
      <trkpt lat="45.07128" lon="4.83702">
        <ele>116.2919998169</ele>
        <time>2011-01-19T16:15:30Z</time>
      </trkpt>
      <trkpt lat="45.07137" lon="4.83705">
        <ele>116.10199737549</ele>
        <time>2011-01-19T16:15:32Z</time>
      </trkpt>
      <trkpt lat="45.0715" lon="4.83718">
        <ele>115.7080001831</ele>
        <time>2011-01-19T16:15:36Z</time>
      </trkpt>
      <trkpt lat="45.0715" lon="4.83725">
        <ele>115.86799621582</ele>
        <time>2011-01-19T16:15:37Z</time>
      </trkpt>
      <trkpt lat="45.07148" lon="4.83739">
        <ele>115.93399810791</ele>
        <time>2011-01-19T16:15:39Z</time>
      </trkpt>
      <trkpt lat="45.07148" lon="4.83764">
        <ele>115.90699768066</ele>
        <time>2011-01-19T16:15:43Z</time>
      </trkpt>
      <trkpt lat="45.07169" lon="4.83763">
        <ele>116.08799743652</ele>
        <time>2011-01-19T16:15:46Z</time>
      </trkpt>
      <trkpt lat="45.07206" lon="4.83774">
        <ele>116.58100128174</ele>
        <time>2011-01-19T16:15:52Z</time>
      </trkpt>
      <trkpt lat="45.07241" lon="4.83781">
        <ele>116.66100311279</ele>
        <time>2011-01-19T16:15:58Z</time>
      </trkpt>
      <trkpt lat="45.07252" lon="4.83783">
        <ele>116.84400177002</ele>
        <time>2011-01-19T16:16:00Z</time>
      </trkpt>
      <trkpt lat="45.07271" lon="4.83787">
        <ele>116.85399627685</ele>
        <time>2011-01-19T16:16:05Z</time>
      </trkpt>
      <trkpt lat="45.07283" lon="4.83789">
        <ele>116.80000305176</ele>
        <time>2011-01-19T16:16:07Z</time>
      </trkpt>
      <trkpt lat="45.07313" lon="4.83794">
        <ele>118.32199859619</ele>
        <time>2011-01-19T16:16:13Z</time>
      </trkpt>
      <trkpt lat="45.07331" lon="4.83798">
        <ele>119.27400207519</ele>
        <time>2011-01-19T16:16:17Z</time>
      </trkpt>
      <trkpt lat="45.0734" lon="4.83799">
        <ele>120.06400299072</ele>
        <time>2011-01-19T16:16:19Z</time>
      </trkpt>
      <trkpt lat="45.07349" lon="4.83813">
        <ele>121.28600311279</ele>
        <time>2011-01-19T16:16:23Z</time>
      </trkpt>
      <trkpt lat="45.07349" lon="4.83819">
        <ele>121.40200042725</ele>
        <time>2011-01-19T16:16:24Z</time>
      </trkpt>
      <trkpt lat="45.07351" lon="4.83864">
        <ele>119.90100097656</ele>
        <time>2011-01-19T16:16:30Z</time>
      </trkpt>
      <trkpt lat="45.07353" lon="4.83902">
        <ele>118.44899749756</ele>
        <time>2011-01-19T16:16:34Z</time>
      </trkpt>
      <trkpt lat="45.07351" lon="4.83949">
        <ele>117.24500274658</ele>
        <time>2011-01-19T16:16:39Z</time>
      </trkpt>
      <trkpt lat="45.07346" lon="4.84014">
        <ele>116.48000335693</ele>
        <time>2011-01-19T16:16:46Z</time>
      </trkpt>
      <trkpt lat="45.0734" lon="4.8408">
        <ele>116.28399658203</ele>
        <time>2011-01-19T16:16:53Z</time>
      </trkpt>
      <trkpt lat="45.07333" lon="4.84146">
        <ele>116.01000213623</ele>
        <time>2011-01-19T16:17:00Z</time>
      </trkpt>
      <trkpt lat="45.0733" lon="4.84185">
        <ele>116.1129989624</ele>
        <time>2011-01-19T16:17:04Z</time>
      </trkpt>
      <trkpt lat="45.07326" lon="4.84213">
        <ele>116</ele>
        <time>2011-01-19T16:17:07Z</time>
      </trkpt>
      <trkpt lat="45.07323" lon="4.84269">
        <ele>116.08699798584</ele>
        <time>2011-01-19T16:17:13Z</time>
      </trkpt>
      <trkpt lat="45.0732" lon="4.84317">
        <ele>116.54100036621</ele>
        <time>2011-01-19T16:17:19Z</time>
      </trkpt>
      <trkpt lat="45.07311" lon="4.84343">
        <ele>117.24199676514</ele>
        <time>2011-01-19T16:17:24Z</time>
      </trkpt>
      <trkpt lat="45.0731" lon="4.84391">
        <ele>117.65799713135</ele>
        <time>2011-01-19T16:17:30Z</time>
      </trkpt>
      <trkpt lat="45.07304" lon="4.84443">
        <ele>117.75299835205</ele>
        <time>2011-01-19T16:17:36Z</time>
      </trkpt>
      <trkpt lat="45.07299" lon="4.84501">
        <ele>118.72499847412</ele>
        <time>2011-01-19T16:17:43Z</time>
      </trkpt>
      <trkpt lat="45.07294" lon="4.84553">
        <ele>120.14499664307</ele>
        <time>2011-01-19T16:17:50Z</time>
      </trkpt>
      <trkpt lat="45.07291" lon="4.84611">
        <ele>123.05400085449</ele>
        <time>2011-01-19T16:17:58Z</time>
      </trkpt>
      <trkpt lat="45.07289" lon="4.84649">
        <ele>123.99900054932</ele>
        <time>2011-01-19T16:18:04Z</time>
      </trkpt>
      <trkpt lat="45.07296" lon="4.84668">
        <ele>124.90899658203</ele>
        <time>2011-01-19T16:18:08Z</time>
      </trkpt>
      <trkpt lat="45.07309" lon="4.84672">
        <ele>126.23999786377</ele>
        <time>2011-01-19T16:18:11Z</time>
      </trkpt>
      <trkpt lat="45.07351" lon="4.84675">
        <ele>127.4580001831</ele>
        <time>2011-01-19T16:18:21Z</time>
      </trkpt>
      <trkpt lat="45.07388" lon="4.84684">
        <ele>129.5119934082</ele>
        <time>2011-01-19T16:18:30Z</time>
      </trkpt>
      <trkpt lat="45.07405" lon="4.84685">
        <ele>129.8630065918</ele>
        <time>2011-01-19T16:18:34Z</time>
      </trkpt>
      <trkpt lat="45.07439" lon="4.8467">
        <ele>132.1190032959</ele>
        <time>2011-01-19T16:18:43Z</time>
      </trkpt>
      <trkpt lat="45.07456" lon="4.8467">
        <ele>132.54499816894</ele>
        <time>2011-01-19T16:18:48Z</time>
      </trkpt>
      <trkpt lat="45.07465" lon="4.84685">
        <ele>133.17500305176</ele>
        <time>2011-01-19T16:18:52Z</time>
      </trkpt>
      <trkpt lat="45.07473" lon="4.84719">
        <ele>134.53799438477</ele>
        <time>2011-01-19T16:18:59Z</time>
      </trkpt>
      <trkpt lat="45.07479" lon="4.84754">
        <ele>135.97900390625</ele>
        <time>2011-01-19T16:19:06Z</time>
      </trkpt>
      <trkpt lat="45.07482" lon="4.84797">
        <ele>138.41000366211</ele>
        <time>2011-01-19T16:19:15Z</time>
      </trkpt>
      <trkpt lat="45.07491" lon="4.84842">
        <ele>140.34100341797</ele>
        <time>2011-01-19T16:19:25Z</time>
      </trkpt>
      <trkpt lat="45.07502" lon="4.84873">
        <ele>142.04299926758</ele>
        <time>2011-01-19T16:19:33Z</time>
      </trkpt>
      <trkpt lat="45.07521" lon="4.84909">
        <ele>143.94900512695</ele>
        <time>2011-01-19T16:19:42Z</time>
      </trkpt>
      <trkpt lat="45.07526" lon="4.84943">
        <ele>145.7799987793</ele>
        <time>2011-01-19T16:19:49Z</time>
      </trkpt>
      <trkpt lat="45.07537" lon="4.84976">
        <ele>148.11199951172</ele>
        <time>2011-01-19T16:19:56Z</time>
      </trkpt>
      <trkpt lat="45.07559" lon="4.85016">
        <ele>149.88800048828</ele>
        <time>2011-01-19T16:20:06Z</time>
      </trkpt>
      <trkpt lat="45.07579" lon="4.85062">
        <ele>152.85099792481</ele>
        <time>2011-01-19T16:20:17Z</time>
      </trkpt>
      <trkpt lat="45.07586" lon="4.8509">
        <ele>154.20100402832</ele>
        <time>2011-01-19T16:20:23Z</time>
      </trkpt>
      <trkpt lat="45.07597" lon="4.85122">
        <ele>155.51300048828</ele>
        <time>2011-01-19T16:20:30Z</time>
      </trkpt>
      <trkpt lat="45.07611" lon="4.85142">
        <ele>156.8390045166</ele>
        <time>2011-01-19T16:20:36Z</time>
      </trkpt>
      <trkpt lat="45.07627" lon="4.85168">
        <ele>158.31700134277</ele>
        <time>2011-01-19T16:20:44Z</time>
      </trkpt>
      <trkpt lat="45.07626" lon="4.85184">
        <ele>159.05700683594</ele>
        <time>2011-01-19T16:20:48Z</time>
      </trkpt>
      <trkpt lat="45.07613" lon="4.85218">
        <ele>161.81700134277</ele>
        <time>2011-01-19T16:20:56Z</time>
      </trkpt>
      <trkpt lat="45.07607" lon="4.85255">
        <ele>162.92700195312</ele>
        <time>2011-01-19T16:21:03Z</time>
      </trkpt>
      <trkpt lat="45.07616" lon="4.85285">
        <ele>164.04899597168</ele>
        <time>2011-01-19T16:21:09Z</time>
      </trkpt>
      <trkpt lat="45.07631" lon="4.85297">
        <ele>164.91900634766</ele>
        <time>2011-01-19T16:21:14Z</time>
      </trkpt>
      <trkpt lat="45.0766" lon="4.85304">
        <ele>167.02299499512</ele>
        <time>2011-01-19T16:21:22Z</time>
      </trkpt>
      <trkpt lat="45.07683" lon="4.85302">
        <ele>169.05000305176</ele>
        <time>2011-01-19T16:21:29Z</time>
      </trkpt>
      <trkpt lat="45.07706" lon="4.85299">
        <ele>170.82400512695</ele>
        <time>2011-01-19T16:21:37Z</time>
      </trkpt>
      <trkpt lat="45.0773" lon="4.85303">
        <ele>172.54600524902</ele>
        <time>2011-01-19T16:21:45Z</time>
      </trkpt>
      <trkpt lat="45.0775" lon="4.85296">
        <ele>174.44500732422</ele>
        <time>2011-01-19T16:21:52Z</time>
      </trkpt>
      <trkpt lat="45.07771" lon="4.85286">
        <ele>176.35000610352</ele>
        <time>2011-01-19T16:22:00Z</time>
      </trkpt>
      <trkpt lat="45.07789" lon="4.85281">
        <ele>177.29800415039</ele>
        <time>2011-01-19T16:22:06Z</time>
      </trkpt>
      <trkpt lat="45.07812" lon="4.85276">
        <ele>178.83099365234</ele>
        <time>2011-01-19T16:22:13Z</time>
      </trkpt>
      <trkpt lat="45.07836" lon="4.85269">
        <ele>180.23500061035</ele>
        <time>2011-01-19T16:22:20Z</time>
      </trkpt>
      <trkpt lat="45.07857" lon="4.85261">
        <ele>182.10099792481</ele>
        <time>2011-01-19T16:22:26Z</time>
      </trkpt>
      <trkpt lat="45.07883" lon="4.85258">
        <ele>183.32200622559</ele>
        <time>2011-01-19T16:22:33Z</time>
      </trkpt>
      <trkpt lat="45.07907" lon="4.8526">
        <ele>183.6130065918</ele>
        <time>2011-01-19T16:22:40Z</time>
      </trkpt>
      <trkpt lat="45.07936" lon="4.85263">
        <ele>184.94599914551</ele>
        <time>2011-01-19T16:22:49Z</time>
      </trkpt>
      <trkpt lat="45.07961" lon="4.85266">
        <ele>186.05799865723</ele>
        <time>2011-01-19T16:22:57Z</time>
      </trkpt>
      <trkpt lat="45.07984" lon="4.85268">
        <ele>188.20500183106</ele>
        <time>2011-01-19T16:23:05Z</time>
      </trkpt>
      <trkpt lat="45.08007" lon="4.8527">
        <ele>189.74899291992</ele>
        <time>2011-01-19T16:23:13Z</time>
      </trkpt>
      <trkpt lat="45.08027" lon="4.85273">
        <ele>192.53700256348</ele>
        <time>2011-01-19T16:23:20Z</time>
      </trkpt>
      <trkpt lat="45.08046" lon="4.85277">
        <ele>192.94400024414</ele>
        <time>2011-01-19T16:23:27Z</time>
      </trkpt>
      <trkpt lat="45.08058" lon="4.85289">
        <ele>192.76699829102</ele>
        <time>2011-01-19T16:23:32Z</time>
      </trkpt>
      <trkpt lat="45.08062" lon="4.85308">
        <ele>193.37800598144</ele>
        <time>2011-01-19T16:23:36Z</time>
      </trkpt>
      <trkpt lat="45.08063" lon="4.85359">
        <ele>193.51300048828</ele>
        <time>2011-01-19T16:23:44Z</time>
      </trkpt>
      <trkpt lat="45.08065" lon="4.8541">
        <ele>194.11799621582</ele>
        <time>2011-01-19T16:23:51Z</time>
      </trkpt>
      <trkpt lat="45.08067" lon="4.85469">
        <ele>193.76800537109</ele>
        <time>2011-01-19T16:23:59Z</time>
      </trkpt>
      <trkpt lat="45.08064" lon="4.85533">
        <ele>193.54699707031</ele>
        <time>2011-01-19T16:24:07Z</time>
      </trkpt>
      <trkpt lat="45.08061" lon="4.85595">
        <ele>193.1609954834</ele>
        <time>2011-01-19T16:24:14Z</time>
      </trkpt>
      <trkpt lat="45.08062" lon="4.85614">
        <ele>193.72500610352</ele>
        <time>2011-01-19T16:24:16Z</time>
      </trkpt>
      <trkpt lat="45.08065" lon="4.85632">
        <ele>194.67999267578</ele>
        <time>2011-01-19T16:24:18Z</time>
      </trkpt>
      <trkpt lat="45.08081" lon="4.8565">
        <ele>193.12300109863</ele>
        <time>2011-01-19T16:24:21Z</time>
      </trkpt>
      <trkpt lat="45.08088" lon="4.85653">
        <ele>193.37699890137</ele>
        <time>2011-01-19T16:24:22Z</time>
      </trkpt>
      <trkpt lat="45.08136" lon="4.85673">
        <ele>194.36099243164</ele>
        <time>2011-01-19T16:24:30Z</time>
      </trkpt>
      <trkpt lat="45.08182" lon="4.85695">
        <ele>192.47399902344</ele>
        <time>2011-01-19T16:24:39Z</time>
      </trkpt>
      <trkpt lat="45.08225" lon="4.85714">
        <ele>191.51899719238</ele>
        <time>2011-01-19T16:24:47Z</time>
      </trkpt>
      <trkpt lat="45.08246" lon="4.85724">
        <ele>190.66499328613</ele>
        <time>2011-01-19T16:24:51Z</time>
      </trkpt>
      <trkpt lat="45.08285" lon="4.85737">
        <ele>188.82299804688</ele>
        <time>2011-01-19T16:24:58Z</time>
      </trkpt>
      <trkpt lat="45.08337" lon="4.85757">
        <ele>186.96000671387</ele>
        <time>2011-01-19T16:25:07Z</time>
      </trkpt>
      <trkpt lat="45.08372" lon="4.85779">
        <ele>187.29899597168</ele>
        <time>2011-01-19T16:25:14Z</time>
      </trkpt>
      <trkpt lat="45.08411" lon="4.85802">
        <ele>187.17799377441</ele>
        <time>2011-01-19T16:25:22Z</time>
      </trkpt>
      <trkpt lat="45.08454" lon="4.85822">
        <ele>186.98699951172</ele>
        <time>2011-01-19T16:25:31Z</time>
      </trkpt>
      <trkpt lat="45.08502" lon="4.85847">
        <ele>187.95399475098</ele>
        <time>2011-01-19T16:25:41Z</time>
      </trkpt>
      <trkpt lat="45.08531" lon="4.85862">
        <ele>188.61500549316</ele>
        <time>2011-01-19T16:25:47Z</time>
      </trkpt>
      <trkpt lat="45.0854" lon="4.85866">
        <ele>189.56700134277</ele>
        <time>2011-01-19T16:25:49Z</time>
      </trkpt>
      <trkpt lat="45.08567" lon="4.85878">
        <ele>189.69299316406</ele>
        <time>2011-01-19T16:25:56Z</time>
      </trkpt>
      <trkpt lat="45.08582" lon="4.85883">
        <ele>189.31799316406</ele>
        <time>2011-01-19T16:26:00Z</time>
      </trkpt>
      <trkpt lat="45.08608" lon="4.85893">
        <ele>191.00399780273</ele>
        <time>2011-01-19T16:26:07Z</time>
      </trkpt>
      <trkpt lat="45.08633" lon="4.85904">
        <ele>192.25</ele>
        <time>2011-01-19T16:26:14Z</time>
      </trkpt>
      <trkpt lat="45.08656" lon="4.85914">
        <ele>193.99000549316</ele>
        <time>2011-01-19T16:26:21Z</time>
      </trkpt>
      <trkpt lat="45.08681" lon="4.85927">
        <ele>194.79200744629</ele>
        <time>2011-01-19T16:26:29Z</time>
      </trkpt>
      <trkpt lat="45.08708" lon="4.85941">
        <ele>196.27000427246</ele>
        <time>2011-01-19T16:26:37Z</time>
      </trkpt>
      <trkpt lat="45.08735" lon="4.85956">
        <ele>198.24800109863</ele>
        <time>2011-01-19T16:26:45Z</time>
      </trkpt>
      <trkpt lat="45.08767" lon="4.85975">
        <ele>200.30700683594</ele>
        <time>2011-01-19T16:26:53Z</time>
      </trkpt>
      <trkpt lat="45.08794" lon="4.85991">
        <ele>201.64199829102</ele>
        <time>2011-01-19T16:27:00Z</time>
      </trkpt>
      <trkpt lat="45.08829" lon="4.86009">
        <ele>203.23399353027</ele>
        <time>2011-01-19T16:27:09Z</time>
      </trkpt>
      <trkpt lat="45.08859" lon="4.86016">
        <ele>204.12199401856</ele>
        <time>2011-01-19T16:27:16Z</time>
      </trkpt>
      <trkpt lat="45.08907" lon="4.86024">
        <ele>205.05400085449</ele>
        <time>2011-01-19T16:27:27Z</time>
      </trkpt>
      <trkpt lat="45.08943" lon="4.86029">
        <ele>205.15199279785</ele>
        <time>2011-01-19T16:27:35Z</time>
      </trkpt>
      <trkpt lat="45.08982" lon="4.86035">
        <ele>206.04100036621</ele>
        <time>2011-01-19T16:27:44Z</time>
      </trkpt>
      <trkpt lat="45.09022" lon="4.86042">
        <ele>207.2859954834</ele>
        <time>2011-01-19T16:27:53Z</time>
      </trkpt>
      <trkpt lat="45.09067" lon="4.86051">
        <ele>207.96800231934</ele>
        <time>2011-01-19T16:28:03Z</time>
      </trkpt>
      <trkpt lat="45.09105" lon="4.86059">
        <ele>207.98699951172</ele>
        <time>2011-01-19T16:28:11Z</time>
      </trkpt>
      <trkpt lat="45.09119" lon="4.86062">
        <ele>208.08399963379</ele>
        <time>2011-01-19T16:28:14Z</time>
      </trkpt>
      <trkpt lat="45.0918" lon="4.86067">
        <ele>209.12300109863</ele>
        <time>2011-01-19T16:28:26Z</time>
      </trkpt>
      <trkpt lat="45.09231" lon="4.8607">
        <ele>209.73399353027</ele>
        <time>2011-01-19T16:28:36Z</time>
      </trkpt>
      <trkpt lat="45.09244" lon="4.86088">
        <ele>209.98500061035</ele>
        <time>2011-01-19T16:28:40Z</time>
      </trkpt>
      <trkpt lat="45.09253" lon="4.86157">
        <ele>210.66499328613</ele>
        <time>2011-01-19T16:28:50Z</time>
      </trkpt>
      <trkpt lat="45.09259" lon="4.86223">
        <ele>210.63900756836</ele>
        <time>2011-01-19T16:28:59Z</time>
      </trkpt>
      <trkpt lat="45.0926" lon="4.86229">
        <ele>210.78700256348</ele>
        <time>2011-01-19T16:29:00Z</time>
      </trkpt>
      <trkpt lat="45.09269" lon="4.86251">
        <ele>211.48599243164</ele>
        <time>2011-01-19T16:29:04Z</time>
      </trkpt>
      <trkpt lat="45.09275" lon="4.86259">
        <ele>211.60200500488</ele>
        <time>2011-01-19T16:29:06Z</time>
      </trkpt>
      <trkpt lat="45.09306" lon="4.86282">
        <ele>212.42700195312</ele>
        <time>2011-01-19T16:29:14Z</time>
      </trkpt>
      <trkpt lat="45.09344" lon="4.86305">
        <ele>213.78700256348</ele>
        <time>2011-01-19T16:29:23Z</time>
      </trkpt>
      <trkpt lat="45.09383" lon="4.86327">
        <ele>214.85699462891</ele>
        <time>2011-01-19T16:29:32Z</time>
      </trkpt>
      <trkpt lat="45.09419" lon="4.86358">
        <ele>215.41299438477</ele>
        <time>2011-01-19T16:29:41Z</time>
      </trkpt>
      <trkpt lat="45.09444" lon="4.86397">
        <ele>216.54800415039</ele>
        <time>2011-01-19T16:29:49Z</time>
      </trkpt>
      <trkpt lat="45.09447" lon="4.86401">
        <ele>216.8450012207</ele>
        <time>2011-01-19T16:29:50Z</time>
      </trkpt>
      <trkpt lat="45.09474" lon="4.86445">
        <ele>217.92999267578</ele>
        <time>2011-01-19T16:29:59Z</time>
      </trkpt>
      <trkpt lat="45.09477" lon="4.8645">
        <ele>218.12300109863</ele>
        <time>2011-01-19T16:30:00Z</time>
      </trkpt>
      <trkpt lat="45.09483" lon="4.86458">
        <ele>218.36099243164</ele>
        <time>2011-01-19T16:30:02Z</time>
      </trkpt>
      <trkpt lat="45.09497" lon="4.8648">
        <ele>219.14599609375</ele>
        <time>2011-01-19T16:30:07Z</time>
      </trkpt>
      <trkpt lat="45.09523" lon="4.86515">
        <ele>221.00799560547</ele>
        <time>2011-01-19T16:30:16Z</time>
      </trkpt>
      <trkpt lat="45.09537" lon="4.86536">
        <ele>221.74200439453</ele>
        <time>2011-01-19T16:30:21Z</time>
      </trkpt>
      <trkpt lat="45.0956" lon="4.86562">
        <ele>222.87600708008</ele>
        <time>2011-01-19T16:30:28Z</time>
      </trkpt>
      <trkpt lat="45.09583" lon="4.86582">
        <ele>224.74499511719</ele>
        <time>2011-01-19T16:30:35Z</time>
      </trkpt>
      <trkpt lat="45.09599" lon="4.86599">
        <ele>225.71600341797</ele>
        <time>2011-01-19T16:30:40Z</time>
      </trkpt>
      <trkpt lat="45.0961" lon="4.86618">
        <ele>225.99200439453</ele>
        <time>2011-01-19T16:30:45Z</time>
      </trkpt>
      <trkpt lat="45.09625" lon="4.86636">
        <ele>226.74899291992</ele>
        <time>2011-01-19T16:30:51Z</time>
      </trkpt>
      <trkpt lat="45.09638" lon="4.86649">
        <ele>228.40100097656</ele>
        <time>2011-01-19T16:30:56Z</time>
      </trkpt>
      <trkpt lat="45.09659" lon="4.86668">
        <ele>230.10400390625</ele>
        <time>2011-01-19T16:31:03Z</time>
      </trkpt>
      <trkpt lat="45.09682" lon="4.86685">
        <ele>231.45899963379</ele>
        <time>2011-01-19T16:31:11Z</time>
      </trkpt>
      <trkpt lat="45.09697" lon="4.86693">
        <ele>231.69299316406</ele>
        <time>2011-01-19T16:31:16Z</time>
      </trkpt>
      <trkpt lat="45.09718" lon="4.86705">
        <ele>233.22300720215</ele>
        <time>2011-01-19T16:31:23Z</time>
      </trkpt>
      <trkpt lat="45.09736" lon="4.86721">
        <ele>234.36999511719</ele>
        <time>2011-01-19T16:31:30Z</time>
      </trkpt>
      <trkpt lat="45.09757" lon="4.86742">
        <ele>236.11199951172</ele>
        <time>2011-01-19T16:31:37Z</time>
      </trkpt>
      <trkpt lat="45.0977" lon="4.86767">
        <ele>236.18200683594</ele>
        <time>2011-01-19T16:31:43Z</time>
      </trkpt>
      <trkpt lat="45.09773" lon="4.86771">
        <ele>236.02900695801</ele>
        <time>2011-01-19T16:31:44Z</time>
      </trkpt>
      <trkpt lat="45.098" lon="4.86797">
        <ele>235.17199707031</ele>
        <time>2011-01-19T16:31:50Z</time>
      </trkpt>
      <trkpt lat="45.09805" lon="4.868">
        <ele>235.09800720215</ele>
        <time>2011-01-19T16:31:51Z</time>
      </trkpt>
      <trkpt lat="45.09835" lon="4.86805">
        <ele>235.36000061035</ele>
        <time>2011-01-19T16:31:56Z</time>
      </trkpt>
      <trkpt lat="45.09841" lon="4.86804">
        <ele>235.62800598144</ele>
        <time>2011-01-19T16:31:57Z</time>
      </trkpt>
      <trkpt lat="45.09877" lon="4.86794">
        <ele>236.42399597168</ele>
        <time>2011-01-19T16:32:04Z</time>
      </trkpt>
      <trkpt lat="45.099" lon="4.86792">
        <ele>237.35699462891</ele>
        <time>2011-01-19T16:32:10Z</time>
      </trkpt>
      <trkpt lat="45.09908" lon="4.86793">
        <ele>237.42500305176</ele>
        <time>2011-01-19T16:32:12Z</time>
      </trkpt>
      <trkpt lat="45.09938" lon="4.86806">
        <ele>238.1549987793</ele>
        <time>2011-01-19T16:32:19Z</time>
      </trkpt>
      <trkpt lat="45.0997" lon="4.86827">
        <ele>240.22399902344</ele>
        <time>2011-01-19T16:32:27Z</time>
      </trkpt>
      <trkpt lat="45.09982" lon="4.86833">
        <ele>238.49299621582</ele>
        <time>2011-01-19T16:32:30Z</time>
      </trkpt>
      <trkpt lat="45.10009" lon="4.86847">
        <ele>239.77099609375</ele>
        <time>2011-01-19T16:32:37Z</time>
      </trkpt>
      <trkpt lat="45.10026" lon="4.86858">
        <ele>240.53100585938</ele>
        <time>2011-01-19T16:32:42Z</time>
      </trkpt>
      <trkpt lat="45.10051" lon="4.86878">
        <ele>240.02900695801</ele>
        <time>2011-01-19T16:32:49Z</time>
      </trkpt>
      <trkpt lat="45.10079" lon="4.86903">
        <ele>240.52900695801</ele>
        <time>2011-01-19T16:32:56Z</time>
      </trkpt>
      <trkpt lat="45.10109" lon="4.8693">
        <ele>238.23699951172</ele>
        <time>2011-01-19T16:33:02Z</time>
      </trkpt>
      <trkpt lat="45.10128" lon="4.86946">
        <ele>236.76400756836</ele>
        <time>2011-01-19T16:33:05Z</time>
      </trkpt>
      <trkpt lat="45.10179" lon="4.86988">
        <ele>232.28700256348</ele>
        <time>2011-01-19T16:33:12Z</time>
      </trkpt>
      <trkpt lat="45.10234" lon="4.87036">
        <ele>227.91499328613</ele>
        <time>2011-01-19T16:33:19Z</time>
      </trkpt>
      <trkpt lat="45.10261" lon="4.87059">
        <ele>226.40400695801</ele>
        <time>2011-01-19T16:33:22Z</time>
      </trkpt>
      <trkpt lat="45.1027" lon="4.87067">
        <ele>225.46600341797</ele>
        <time>2011-01-19T16:33:23Z</time>
      </trkpt>
      <trkpt lat="45.10294" lon="4.87114">
        <ele>220.82499694824</ele>
        <time>2011-01-19T16:33:27Z</time>
      </trkpt>
      <trkpt lat="45.10297" lon="4.87142">
        <ele>220.05400085449</ele>
        <time>2011-01-19T16:33:29Z</time>
      </trkpt>
      <trkpt lat="45.10292" lon="4.87177">
        <ele>220.77099609375</ele>
        <time>2011-01-19T16:33:32Z</time>
      </trkpt>
      <trkpt lat="45.10289" lon="4.87187">
        <ele>221.26800537109</ele>
        <time>2011-01-19T16:33:33Z</time>
      </trkpt>
      <trkpt lat="45.10272" lon="4.87236">
        <ele>224.2380065918</ele>
        <time>2011-01-19T16:33:39Z</time>
      </trkpt>
      <trkpt lat="45.10263" lon="4.87262">
        <ele>226.18099975586</ele>
        <time>2011-01-19T16:33:43Z</time>
      </trkpt>
      <trkpt lat="45.10257" lon="4.87279">
        <ele>226.85000610352</ele>
        <time>2011-01-19T16:33:46Z</time>
      </trkpt>
      <trkpt lat="45.10251" lon="4.8732">
        <ele>228.02900695801</ele>
        <time>2011-01-19T16:33:53Z</time>
      </trkpt>
      <trkpt lat="45.10249" lon="4.87345">
        <ele>227.48699951172</ele>
        <time>2011-01-19T16:33:57Z</time>
      </trkpt>
      <trkpt lat="45.10249" lon="4.8737">
        <ele>226.54499816894</ele>
        <time>2011-01-19T16:34:00Z</time>
      </trkpt>
      <trkpt lat="45.10257" lon="4.87415">
        <ele>224.35299682617</ele>
        <time>2011-01-19T16:34:04Z</time>
      </trkpt>
      <trkpt lat="45.10267" lon="4.87438">
        <ele>222.00799560547</ele>
        <time>2011-01-19T16:34:06Z</time>
      </trkpt>
      <trkpt lat="45.10309" lon="4.87515">
        <ele>216.08599853516</ele>
        <time>2011-01-19T16:34:12Z</time>
      </trkpt>
      <trkpt lat="45.10341" lon="4.87591">
        <ele>210.35600280762</ele>
        <time>2011-01-19T16:34:17Z</time>
      </trkpt>
      <trkpt lat="45.10376" lon="4.87685">
        <ele>202.18800354004</ele>
        <time>2011-01-19T16:34:23Z</time>
      </trkpt>
      <trkpt lat="45.10387" lon="4.87716">
        <ele>199.7619934082</ele>
        <time>2011-01-19T16:34:25Z</time>
      </trkpt>
      <trkpt lat="45.1042" lon="4.87807">
        <ele>196.60200500488</ele>
        <time>2011-01-19T16:34:31Z</time>
      </trkpt>
      <trkpt lat="45.10434" lon="4.87868">
        <ele>194.12399291992</ele>
        <time>2011-01-19T16:34:35Z</time>
      </trkpt>
      <trkpt lat="45.10446" lon="4.87957">
        <ele>190.32699584961</ele>
        <time>2011-01-19T16:34:41Z</time>
      </trkpt>
      <trkpt lat="45.10448" lon="4.87984">
        <ele>189.15199279785</ele>
        <time>2011-01-19T16:34:43Z</time>
      </trkpt>
      <trkpt lat="45.10442" lon="4.88043">
        <ele>188.44400024414</ele>
        <time>2011-01-19T16:34:48Z</time>
      </trkpt>
      <trkpt lat="45.1042" lon="4.88101">
        <ele>188.02000427246</ele>
        <time>2011-01-19T16:34:54Z</time>
      </trkpt>
      <trkpt lat="45.10389" lon="4.88177">
        <ele>186.94500732422</ele>
        <time>2011-01-19T16:35:02Z</time>
      </trkpt>
      <trkpt lat="45.10362" lon="4.88225">
        <ele>185.69299316406</ele>
        <time>2011-01-19T16:35:07Z</time>
      </trkpt>
      <trkpt lat="45.10325" lon="4.88272">
        <ele>181.51100158691</ele>
        <time>2011-01-19T16:35:12Z</time>
      </trkpt>
      <trkpt lat="45.10283" lon="4.88322">
        <ele>178.51400756836</ele>
        <time>2011-01-19T16:35:17Z</time>
      </trkpt>
      <trkpt lat="45.10266" lon="4.88344">
        <ele>177.76100158691</ele>
        <time>2011-01-19T16:35:20Z</time>
      </trkpt>
      <trkpt lat="45.10262" lon="4.88355">
        <ele>177.95500183106</ele>
        <time>2011-01-19T16:35:23Z</time>
      </trkpt>
      <trkpt lat="45.10262" lon="4.8836">
        <ele>177.8869934082</ele>
        <time>2011-01-19T16:35:24Z</time>
      </trkpt>
      <trkpt lat="45.10276" lon="4.88383">
        <ele>177.82299804688</ele>
        <time>2011-01-19T16:35:29Z</time>
      </trkpt>
      <trkpt lat="45.10299" lon="4.88409">
        <ele>178.14599609375</ele>
        <time>2011-01-19T16:35:34Z</time>
      </trkpt>
      <trkpt lat="45.10328" lon="4.88442">
        <ele>179.27699279785</ele>
        <time>2011-01-19T16:35:40Z</time>
      </trkpt>
      <trkpt lat="45.10368" lon="4.88492">
        <ele>178.49099731445</ele>
        <time>2011-01-19T16:35:49Z</time>
      </trkpt>
      <trkpt lat="45.10389" lon="4.88532">
        <ele>178.29400634766</ele>
        <time>2011-01-19T16:35:55Z</time>
      </trkpt>
      <trkpt lat="45.10413" lon="4.88588">
        <ele>179.70799255371</ele>
        <time>2011-01-19T16:36:03Z</time>
      </trkpt>
      <trkpt lat="45.10419" lon="4.88603">
        <ele>180.54800415039</ele>
        <time>2011-01-19T16:36:05Z</time>
      </trkpt>
      <trkpt lat="45.10447" lon="4.88672">
        <ele>181.14399719238</ele>
        <time>2011-01-19T16:36:15Z</time>
      </trkpt>
      <trkpt lat="45.10452" lon="4.88686">
        <ele>182.50999450684</ele>
        <time>2011-01-19T16:36:17Z</time>
      </trkpt>
      <trkpt lat="45.10478" lon="4.8875">
        <ele>180.94999694824</ele>
        <time>2011-01-19T16:36:26Z</time>
      </trkpt>
      <trkpt lat="45.10509" lon="4.88826">
        <ele>181.01300048828</ele>
        <time>2011-01-19T16:36:36Z</time>
      </trkpt>
      <trkpt lat="45.1054" lon="4.88894">
        <ele>181.84399414062</ele>
        <time>2011-01-19T16:36:45Z</time>
      </trkpt>
      <trkpt lat="45.10573" lon="4.88954">
        <ele>181.07800292969</ele>
        <time>2011-01-19T16:36:54Z</time>
      </trkpt>
      <trkpt lat="45.10604" lon="4.89">
        <ele>181.99699401856</ele>
        <time>2011-01-19T16:37:02Z</time>
      </trkpt>
      <trkpt lat="45.10637" lon="4.89037">
        <ele>182.5</ele>
        <time>2011-01-19T16:37:09Z</time>
      </trkpt>
      <trkpt lat="45.10677" lon="4.89079">
        <ele>183.79800415039</ele>
        <time>2011-01-19T16:37:17Z</time>
      </trkpt>
      <trkpt lat="45.10712" lon="4.89113">
        <ele>183.06500244141</ele>
        <time>2011-01-19T16:37:24Z</time>
      </trkpt>
      <trkpt lat="45.10752" lon="4.89153">
        <ele>183.86700439453</ele>
        <time>2011-01-19T16:37:32Z</time>
      </trkpt>
      <trkpt lat="45.10797" lon="4.89201">
        <ele>184.67799377441</ele>
        <time>2011-01-19T16:37:41Z</time>
      </trkpt>
      <trkpt lat="45.1083" lon="4.89247">
        <ele>186.07000732422</ele>
        <time>2011-01-19T16:37:49Z</time>
      </trkpt>
      <trkpt lat="45.10868" lon="4.893">
        <ele>186.52600097656</ele>
        <time>2011-01-19T16:37:58Z</time>
      </trkpt>
      <trkpt lat="45.10906" lon="4.89351">
        <ele>186.8809967041</ele>
        <time>2011-01-19T16:38:07Z</time>
      </trkpt>
      <trkpt lat="45.10925" lon="4.89375">
        <ele>188.08000183106</ele>
        <time>2011-01-19T16:38:12Z</time>
      </trkpt>
      <trkpt lat="45.10939" lon="4.89388">
        <ele>188.93299865723</ele>
        <time>2011-01-19T16:38:15Z</time>
      </trkpt>
      <trkpt lat="45.10952" lon="4.89396">
        <ele>188.95100402832</ele>
        <time>2011-01-19T16:38:18Z</time>
      </trkpt>
      <trkpt lat="45.10971" lon="4.89419">
        <ele>189.04499816894</ele>
        <time>2011-01-19T16:38:23Z</time>
      </trkpt>
      <trkpt lat="45.10985" lon="4.8944">
        <ele>189.44299316406</ele>
        <time>2011-01-19T16:38:27Z</time>
      </trkpt>
      <trkpt lat="45.11011" lon="4.89469">
        <ele>190.28500366211</ele>
        <time>2011-01-19T16:38:33Z</time>
      </trkpt>
      <trkpt lat="45.11024" lon="4.89492">
        <ele>190.96299743652</ele>
        <time>2011-01-19T16:38:37Z</time>
      </trkpt>
      <trkpt lat="45.11034" lon="4.89519">
        <ele>191.33399963379</ele>
        <time>2011-01-19T16:38:41Z</time>
      </trkpt>
      <trkpt lat="45.11036" lon="4.8955">
        <ele>191.28900146484</ele>
        <time>2011-01-19T16:38:45Z</time>
      </trkpt>
      <trkpt lat="45.11032" lon="4.89573">
        <ele>192.72399902344</ele>
        <time>2011-01-19T16:38:48Z</time>
      </trkpt>
      <trkpt lat="45.11031" lon="4.8958">
        <ele>192.50300598144</ele>
        <time>2011-01-19T16:38:49Z</time>
      </trkpt>
      <trkpt lat="45.1102" lon="4.89614">
        <ele>191.13299560547</ele>
        <time>2011-01-19T16:38:54Z</time>
      </trkpt>
      <trkpt lat="45.11016" lon="4.89628">
        <ele>191.31900024414</ele>
        <time>2011-01-19T16:38:56Z</time>
      </trkpt>
      <trkpt lat="45.11015" lon="4.89643">
        <ele>191.96200561523</ele>
        <time>2011-01-19T16:38:58Z</time>
      </trkpt>
      <trkpt lat="45.11024" lon="4.89668">
        <ele>191.85600280762</ele>
        <time>2011-01-19T16:39:02Z</time>
      </trkpt>
      <trkpt lat="45.11053" lon="4.89719">
        <ele>194.10800170898</ele>
        <time>2011-01-19T16:39:10Z</time>
      </trkpt>
      <trkpt lat="45.11057" lon="4.89724">
        <ele>194.09899902344</ele>
        <time>2011-01-19T16:39:11Z</time>
      </trkpt>
      <trkpt lat="45.11079" lon="4.8976">
        <ele>193.07000732422</ele>
        <time>2011-01-19T16:39:17Z</time>
      </trkpt>
      <trkpt lat="45.11099" lon="4.89777">
        <ele>193.61799621582</ele>
        <time>2011-01-19T16:39:21Z</time>
      </trkpt>
      <trkpt lat="45.11143" lon="4.89797">
        <ele>192.54800415039</ele>
        <time>2011-01-19T16:39:28Z</time>
      </trkpt>
      <trkpt lat="45.11184" lon="4.89825">
        <ele>192.74000549316</ele>
        <time>2011-01-19T16:39:35Z</time>
      </trkpt>
      <trkpt lat="45.11206" lon="4.89856">
        <ele>193.75700378418</ele>
        <time>2011-01-19T16:39:40Z</time>
      </trkpt>
      <trkpt lat="45.11212" lon="4.89872">
        <ele>193.94599914551</ele>
        <time>2011-01-19T16:39:42Z</time>
      </trkpt>
      <trkpt lat="45.11228" lon="4.89934">
        <ele>193.84300231934</ele>
        <time>2011-01-19T16:39:50Z</time>
      </trkpt>
      <trkpt lat="45.11242" lon="4.89979">
        <ele>194.10200500488</ele>
        <time>2011-01-19T16:39:56Z</time>
      </trkpt>
      <trkpt lat="45.11272" lon="4.90019">
        <ele>194.83399963379</ele>
        <time>2011-01-19T16:40:03Z</time>
      </trkpt>
      <trkpt lat="45.1131" lon="4.90062">
        <ele>196.50399780273</ele>
        <time>2011-01-19T16:40:11Z</time>
      </trkpt>
      <trkpt lat="45.11319" lon="4.90072">
        <ele>196.41700744629</ele>
        <time>2011-01-19T16:40:13Z</time>
      </trkpt>
      <trkpt lat="45.11365" lon="4.90117">
        <ele>196.4049987793</ele>
        <time>2011-01-19T16:40:22Z</time>
      </trkpt>
      <trkpt lat="45.11382" lon="4.90153">
        <ele>195.41700744629</ele>
        <time>2011-01-19T16:40:27Z</time>
      </trkpt>
      <trkpt lat="45.11384" lon="4.90161">
        <ele>195.36599731445</ele>
        <time>2011-01-19T16:40:28Z</time>
      </trkpt>
      <trkpt lat="45.11392" lon="4.90204">
        <ele>195.80400085449</ele>
        <time>2011-01-19T16:40:33Z</time>
      </trkpt>
      <trkpt lat="45.11404" lon="4.90234">
        <ele>196.67199707031</ele>
        <time>2011-01-19T16:40:37Z</time>
      </trkpt>
      <trkpt lat="45.1143" lon="4.90267">
        <ele>197.94200134277</ele>
        <time>2011-01-19T16:40:43Z</time>
      </trkpt>
      <trkpt lat="45.11451" lon="4.90282">
        <ele>199.47700500488</ele>
        <time>2011-01-19T16:40:47Z</time>
      </trkpt>
      <trkpt lat="45.11472" lon="4.90294">
        <ele>197.96299743652</ele>
        <time>2011-01-19T16:40:51Z</time>
      </trkpt>
      <trkpt lat="45.1151" lon="4.90313">
        <ele>198.91299438477</ele>
        <time>2011-01-19T16:40:58Z</time>
      </trkpt>
      <trkpt lat="45.11549" lon="4.90335">
        <ele>199.30799865723</ele>
        <time>2011-01-19T16:41:05Z</time>
      </trkpt>
      <trkpt lat="45.11589" lon="4.90359">
        <ele>200.57499694824</ele>
        <time>2011-01-19T16:41:13Z</time>
      </trkpt>
      <trkpt lat="45.11624" lon="4.9038">
        <ele>201.36500549316</ele>
        <time>2011-01-19T16:41:21Z</time>
      </trkpt>
      <trkpt lat="45.11655" lon="4.90401">
        <ele>202.81199645996</ele>
        <time>2011-01-19T16:41:29Z</time>
      </trkpt>
      <trkpt lat="45.11678" lon="4.90425">
        <ele>204.09300231934</ele>
        <time>2011-01-19T16:41:36Z</time>
      </trkpt>
      <trkpt lat="45.11684" lon="4.90435">
        <ele>204.71099853516</ele>
        <time>2011-01-19T16:41:38Z</time>
      </trkpt>
      <trkpt lat="45.11692" lon="4.90452">
        <ele>205.27299499512</ele>
        <time>2011-01-19T16:41:41Z</time>
      </trkpt>
      <trkpt lat="45.11697" lon="4.90496">
        <ele>205.75900268555</ele>
        <time>2011-01-19T16:41:47Z</time>
      </trkpt>
      <trkpt lat="45.11692" lon="4.90561">
        <ele>206.66400146484</ele>
        <time>2011-01-19T16:41:55Z</time>
      </trkpt>
      <trkpt lat="45.11684" lon="4.90623">
        <ele>207.89300537109</ele>
        <time>2011-01-19T16:42:03Z</time>
      </trkpt>
      <trkpt lat="45.11676" lon="4.90663">
        <ele>208.18200683594</ele>
        <time>2011-01-19T16:42:08Z</time>
      </trkpt>
      <trkpt lat="45.11677" lon="4.90686">
        <ele>208.51699829102</ele>
        <time>2011-01-19T16:42:11Z</time>
      </trkpt>
      <trkpt lat="45.11681" lon="4.90692">
        <ele>208.57499694824</ele>
        <time>2011-01-19T16:42:12Z</time>
      </trkpt>
      <trkpt lat="45.11692" lon="4.90728">
        <ele>207.47599792481</ele>
        <time>2011-01-19T16:42:17Z</time>
      </trkpt>
      <trkpt lat="45.11689" lon="4.90736">
        <ele>207.18699645996</ele>
        <time>2011-01-19T16:42:18Z</time>
      </trkpt>
      <trkpt lat="45.11683" lon="4.90751">
        <ele>207.19599914551</ele>
        <time>2011-01-19T16:42:20Z</time>
      </trkpt>
      <trkpt lat="45.11676" lon="4.90794">
        <ele>207.93800354004</ele>
        <time>2011-01-19T16:42:25Z</time>
      </trkpt>
      <trkpt lat="45.11679" lon="4.90846">
        <ele>208.94099426269</ele>
        <time>2011-01-19T16:42:32Z</time>
      </trkpt>
      <trkpt lat="45.11679" lon="4.90918">
        <ele>211.79400634766</ele>
        <time>2011-01-19T16:42:42Z</time>
      </trkpt>
      <trkpt lat="45.11675" lon="4.90971">
        <ele>212.63400268555</ele>
        <time>2011-01-19T16:42:49Z</time>
      </trkpt>
      <trkpt lat="45.11665" lon="4.91024">
        <ele>213.44299316406</ele>
        <time>2011-01-19T16:42:56Z</time>
      </trkpt>
      <trkpt lat="45.11647" lon="4.91091">
        <ele>212.37300109863</ele>
        <time>2011-01-19T16:43:04Z</time>
      </trkpt>
      <trkpt lat="45.11627" lon="4.91159">
        <ele>211.95100402832</ele>
        <time>2011-01-19T16:43:12Z</time>
      </trkpt>
      <trkpt lat="45.11603" lon="4.91208">
        <ele>212.42999267578</ele>
        <time>2011-01-19T16:43:18Z</time>
      </trkpt>
      <trkpt lat="45.11578" lon="4.91259">
        <ele>213.42399597168</ele>
        <time>2011-01-19T16:43:25Z</time>
      </trkpt>
      <trkpt lat="45.1156" lon="4.91315">
        <ele>214.45599365234</ele>
        <time>2011-01-19T16:43:32Z</time>
      </trkpt>
      <trkpt lat="45.11553" lon="4.91367">
        <ele>213.68600463867</ele>
        <time>2011-01-19T16:43:38Z</time>
      </trkpt>
      <trkpt lat="45.11544" lon="4.91428">
        <ele>211.12699890137</ele>
        <time>2011-01-19T16:43:44Z</time>
      </trkpt>
      <trkpt lat="45.11541" lon="4.9145">
        <ele>210.39900207519</ele>
        <time>2011-01-19T16:43:46Z</time>
      </trkpt>
      <trkpt lat="45.11535" lon="4.91497">
        <ele>208.68800354004</ele>
        <time>2011-01-19T16:43:50Z</time>
      </trkpt>
      <trkpt lat="45.11526" lon="4.91543">
        <ele>206.75799560547</ele>
        <time>2011-01-19T16:43:54Z</time>
      </trkpt>
      <trkpt lat="45.11509" lon="4.91588">
        <ele>205.21299743652</ele>
        <time>2011-01-19T16:43:58Z</time>
      </trkpt>
      <trkpt lat="45.11474" lon="4.9165">
        <ele>204.22200012207</ele>
        <time>2011-01-19T16:44:04Z</time>
      </trkpt>
      <trkpt lat="45.11427" lon="4.91741">
        <ele>203.38299560547</ele>
        <time>2011-01-19T16:44:13Z</time>
      </trkpt>
      <trkpt lat="45.1139" lon="4.91808">
        <ele>202.52900695801</ele>
        <time>2011-01-19T16:44:20Z</time>
      </trkpt>
      <trkpt lat="45.11343" lon="4.91877">
        <ele>200.87100219727</ele>
        <time>2011-01-19T16:44:28Z</time>
      </trkpt>
      <trkpt lat="45.11302" lon="4.91929">
        <ele>199.72300720215</ele>
        <time>2011-01-19T16:44:35Z</time>
      </trkpt>
      <trkpt lat="45.11284" lon="4.91951">
        <ele>199.60699462891</ele>
        <time>2011-01-19T16:44:38Z</time>
      </trkpt>
      <trkpt lat="45.11228" lon="4.92018">
        <ele>197.73300170898</ele>
        <time>2011-01-19T16:44:47Z</time>
      </trkpt>
      <trkpt lat="45.11207" lon="4.92071">
        <ele>196.67300415039</ele>
        <time>2011-01-19T16:44:52Z</time>
      </trkpt>
      <trkpt lat="45.11192" lon="4.92155">
        <ele>196.37300109863</ele>
        <time>2011-01-19T16:44:59Z</time>
      </trkpt>
      <trkpt lat="45.11182" lon="4.92203">
        <ele>196.46099853516</ele>
        <time>2011-01-19T16:45:03Z</time>
      </trkpt>
      <trkpt lat="45.11177" lon="4.92233">
        <ele>196.97700500488</ele>
        <time>2011-01-19T16:45:06Z</time>
      </trkpt>
      <trkpt lat="45.11173" lon="4.92262">
        <ele>197.10299682617</ele>
        <time>2011-01-19T16:45:09Z</time>
      </trkpt>
      <trkpt lat="45.11175" lon="4.923">
        <ele>197.36000061035</ele>
        <time>2011-01-19T16:45:13Z</time>
      </trkpt>
      <trkpt lat="45.1118" lon="4.92329">
        <ele>197.86500549316</ele>
        <time>2011-01-19T16:45:16Z</time>
      </trkpt>
      <trkpt lat="45.11176" lon="4.92374">
        <ele>198.30499267578</ele>
        <time>2011-01-19T16:45:21Z</time>
      </trkpt>
      <trkpt lat="45.11158" lon="4.92402">
        <ele>198.5299987793</ele>
        <time>2011-01-19T16:45:25Z</time>
      </trkpt>
      <trkpt lat="45.11111" lon="4.92446">
        <ele>197.22599792481</ele>
        <time>2011-01-19T16:45:33Z</time>
      </trkpt>
      <trkpt lat="45.11068" lon="4.92486">
        <ele>196.96200561523</ele>
        <time>2011-01-19T16:45:40Z</time>
      </trkpt>
      <trkpt lat="45.11018" lon="4.92533">
        <ele>197.00799560547</ele>
        <time>2011-01-19T16:45:48Z</time>
      </trkpt>
      <trkpt lat="45.10989" lon="4.9256">
        <ele>196.56900024414</ele>
        <time>2011-01-19T16:45:53Z</time>
      </trkpt>
      <trkpt lat="45.10984" lon="4.92588">
        <ele>196.71699523926</ele>
        <time>2011-01-19T16:45:57Z</time>
      </trkpt>
      <trkpt lat="45.10986" lon="4.92595">
        <ele>196.59399414062</ele>
        <time>2011-01-19T16:45:58Z</time>
      </trkpt>
      <trkpt lat="45.11003" lon="4.92644">
        <ele>198.31900024414</ele>
        <time>2011-01-19T16:46:05Z</time>
      </trkpt>
      <trkpt lat="45.11018" lon="4.92692">
        <ele>199.86799621582</ele>
        <time>2011-01-19T16:46:12Z</time>
      </trkpt>
      <trkpt lat="45.11036" lon="4.92754">
        <ele>200.14100646973</ele>
        <time>2011-01-19T16:46:20Z</time>
      </trkpt>
      <trkpt lat="45.11051" lon="4.92822">
        <ele>199.90800476074</ele>
        <time>2011-01-19T16:46:28Z</time>
      </trkpt>
      <trkpt lat="45.11066" lon="4.92895">
        <ele>200.23699951172</ele>
        <time>2011-01-19T16:46:37Z</time>
      </trkpt>
      <trkpt lat="45.11074" lon="4.92941">
        <ele>199.76499938965</ele>
        <time>2011-01-19T16:46:43Z</time>
      </trkpt>
      <trkpt lat="45.11089" lon="4.93005">
        <ele>200.25500488281</ele>
        <time>2011-01-19T16:46:51Z</time>
      </trkpt>
      <trkpt lat="45.11105" lon="4.93081">
        <ele>201.26100158691</ele>
        <time>2011-01-19T16:47:01Z</time>
      </trkpt>
      <trkpt lat="45.11121" lon="4.93166">
        <ele>202.04100036621</ele>
        <time>2011-01-19T16:47:12Z</time>
      </trkpt>
      <trkpt lat="45.11134" lon="4.93209">
        <ele>202.87800598144</ele>
        <time>2011-01-19T16:47:18Z</time>
      </trkpt>
      <trkpt lat="45.1115" lon="4.93246">
        <ele>203.55900573731</ele>
        <time>2011-01-19T16:47:24Z</time>
      </trkpt>
      <trkpt lat="45.11169" lon="4.93287">
        <ele>204.95700073242</ele>
        <time>2011-01-19T16:47:31Z</time>
      </trkpt>
      <trkpt lat="45.11187" lon="4.93325">
        <ele>206.41400146484</ele>
        <time>2011-01-19T16:47:38Z</time>
      </trkpt>
      <trkpt lat="45.11204" lon="4.9336">
        <ele>207.64300537109</ele>
        <time>2011-01-19T16:47:45Z</time>
      </trkpt>
      <trkpt lat="45.11227" lon="4.93398">
        <ele>209.94400024414</ele>
        <time>2011-01-19T16:47:53Z</time>
      </trkpt>
      <trkpt lat="45.11245" lon="4.93428">
        <ele>211.89599609375</ele>
        <time>2011-01-19T16:48:00Z</time>
      </trkpt>
      <trkpt lat="45.11263" lon="4.93453">
        <ele>211.99699401856</ele>
        <time>2011-01-19T16:48:07Z</time>
      </trkpt>
      <trkpt lat="45.11278" lon="4.93474">
        <ele>213.59899902344</ele>
        <time>2011-01-19T16:48:13Z</time>
      </trkpt>
      <trkpt lat="45.11294" lon="4.93498">
        <ele>215.23399353027</ele>
        <time>2011-01-19T16:48:20Z</time>
      </trkpt>
      <trkpt lat="45.11314" lon="4.93529">
        <ele>217.02099609375</ele>
        <time>2011-01-19T16:48:27Z</time>
      </trkpt>
      <trkpt lat="45.11343" lon="4.93582">
        <ele>219.97700500488</ele>
        <time>2011-01-19T16:48:37Z</time>
      </trkpt>
      <trkpt lat="45.11357" lon="4.9362">
        <ele>222.06900024414</ele>
        <time>2011-01-19T16:48:44Z</time>
      </trkpt>
      <trkpt lat="45.11366" lon="4.93648">
        <ele>223.17700195312</ele>
        <time>2011-01-19T16:48:49Z</time>
      </trkpt>
      <trkpt lat="45.11371" lon="4.93664">
        <ele>223.56399536133</ele>
        <time>2011-01-19T16:48:52Z</time>
      </trkpt>
      <trkpt lat="45.11386" lon="4.93711">
        <ele>224.13200378418</ele>
        <time>2011-01-19T16:49:00Z</time>
      </trkpt>
      <trkpt lat="45.11401" lon="4.93755">
        <ele>223.76600646973</ele>
        <time>2011-01-19T16:49:07Z</time>
      </trkpt>
      <trkpt lat="45.11406" lon="4.9377">
        <ele>223.07899475098</ele>
        <time>2011-01-19T16:49:09Z</time>
      </trkpt>
      <trkpt lat="45.11432" lon="4.9383">
        <ele>221.15800476074</ele>
        <time>2011-01-19T16:49:17Z</time>
      </trkpt>
      <trkpt lat="45.11461" lon="4.93879">
        <ele>217.74499511719</ele>
        <time>2011-01-19T16:49:23Z</time>
      </trkpt>
      <trkpt lat="45.11494" lon="4.9392">
        <ele>216.47700500488</ele>
        <time>2011-01-19T16:49:29Z</time>
      </trkpt>
      <trkpt lat="45.11515" lon="4.93942">
        <ele>215.48500061035</ele>
        <time>2011-01-19T16:49:33Z</time>
      </trkpt>
      <trkpt lat="45.11519" lon="4.93947">
        <ele>215.2799987793</ele>
        <time>2011-01-19T16:49:34Z</time>
      </trkpt>
      <trkpt lat="45.11534" lon="4.93971">
        <ele>214.64199829102</ele>
        <time>2011-01-19T16:49:38Z</time>
      </trkpt>
      <trkpt lat="45.11552" lon="4.94024">
        <ele>214.08399963379</ele>
        <time>2011-01-19T16:49:45Z</time>
      </trkpt>
      <trkpt lat="45.11559" lon="4.94045">
        <ele>214.30400085449</ele>
        <time>2011-01-19T16:49:48Z</time>
      </trkpt>
      <trkpt lat="45.11562" lon="4.94052">
        <ele>214.39100646973</ele>
        <time>2011-01-19T16:49:49Z</time>
      </trkpt>
      <trkpt lat="45.11566" lon="4.94059">
        <ele>214.69200134277</ele>
        <time>2011-01-19T16:49:50Z</time>
      </trkpt>
      <trkpt lat="45.1158" lon="4.94074">
        <ele>213.38299560547</ele>
        <time>2011-01-19T16:49:53Z</time>
      </trkpt>
      <trkpt lat="45.11602" lon="4.94091">
        <ele>213.39500427246</ele>
        <time>2011-01-19T16:49:58Z</time>
      </trkpt>
      <trkpt lat="45.11607" lon="4.94094">
        <ele>213.6609954834</ele>
        <time>2011-01-19T16:49:59Z</time>
      </trkpt>
      <trkpt lat="45.11639" lon="4.94114">
        <ele>213.72200012207</ele>
        <time>2011-01-19T16:50:06Z</time>
      </trkpt>
      <trkpt lat="45.11648" lon="4.9412">
        <ele>213.91799926758</ele>
        <time>2011-01-19T16:50:08Z</time>
      </trkpt>
      <trkpt lat="45.11659" lon="4.9414">
        <ele>213.91700744629</ele>
        <time>2011-01-19T16:50:12Z</time>
      </trkpt>
      <trkpt lat="45.11659" lon="4.94168">
        <ele>214.3690032959</ele>
        <time>2011-01-19T16:50:16Z</time>
      </trkpt>
      <trkpt lat="45.11654" lon="4.94214">
        <ele>213.70899963379</ele>
        <time>2011-01-19T16:50:22Z</time>
      </trkpt>
      <trkpt lat="45.11654" lon="4.94261">
        <ele>213.61500549316</ele>
        <time>2011-01-19T16:50:28Z</time>
      </trkpt>
      <trkpt lat="45.11653" lon="4.94307">
        <ele>214.27699279785</ele>
        <time>2011-01-19T16:50:34Z</time>
      </trkpt>
      <trkpt lat="45.11657" lon="4.94337">
        <ele>214.66700744629</ele>
        <time>2011-01-19T16:50:38Z</time>
      </trkpt>
      <trkpt lat="45.11661" lon="4.94378">
        <ele>215.49099731445</ele>
        <time>2011-01-19T16:50:44Z</time>
      </trkpt>
      <trkpt lat="45.11671" lon="4.94424">
        <ele>218.30000305176</ele>
        <time>2011-01-19T16:50:53Z</time>
      </trkpt>
      <trkpt lat="45.11673" lon="4.94431">
        <ele>218.84399414062</ele>
        <time>2011-01-19T16:50:55Z</time>
      </trkpt>
      <trkpt lat="45.11666" lon="4.94439">
        <ele>219.86099243164</ele>
        <time>2011-01-19T16:50:59Z</time>
      </trkpt>
      <trkpt lat="45.11659" lon="4.94442">
        <ele>220.18400573731</ele>
        <time>2011-01-19T16:51:01Z</time>
      </trkpt>
      <trkpt lat="45.11635" lon="4.94454">
        <ele>221.83000183106</ele>
        <time>2011-01-19T16:51:08Z</time>
      </trkpt>
      <trkpt lat="45.11618" lon="4.94461">
        <ele>223.41700744629</ele>
        <time>2011-01-19T16:51:13Z</time>
      </trkpt>
      <trkpt lat="45.11603" lon="4.94474">
        <ele>224.82600402832</ele>
        <time>2011-01-19T16:51:18Z</time>
      </trkpt>
      <trkpt lat="45.11591" lon="4.94492">
        <ele>226.38200378418</ele>
        <time>2011-01-19T16:51:23Z</time>
      </trkpt>
      <trkpt lat="45.11582" lon="4.94503">
        <ele>227.03500366211</ele>
        <time>2011-01-19T16:51:26Z</time>
      </trkpt>
      <trkpt lat="45.11565" lon="4.94529">
        <ele>228.6130065918</ele>
        <time>2011-01-19T16:51:31Z</time>
      </trkpt>
      <trkpt lat="45.11561" lon="4.94543">
        <ele>229.07899475098</ele>
        <time>2011-01-19T16:51:33Z</time>
      </trkpt>
      <trkpt lat="45.11558" lon="4.94555">
        <ele>229.86599731445</ele>
        <time>2011-01-19T16:51:35Z</time>
      </trkpt>
      <trkpt lat="45.11558" lon="4.94596">
        <ele>230.07400512695</ele>
        <time>2011-01-19T16:51:41Z</time>
      </trkpt>
      <trkpt lat="45.11557" lon="4.94609">
        <ele>230.54800415039</ele>
        <time>2011-01-19T16:51:43Z</time>
      </trkpt>
      <trkpt lat="45.11558" lon="4.94658">
        <ele>231.20799255371</ele>
        <time>2011-01-19T16:51:50Z</time>
      </trkpt>
      <trkpt lat="45.11557" lon="4.94721">
        <ele>231.39999389648</ele>
        <time>2011-01-19T16:51:59Z</time>
      </trkpt>
      <trkpt lat="45.1156" lon="4.94768">
        <ele>232.14100646973</ele>
        <time>2011-01-19T16:52:06Z</time>
      </trkpt>
      <trkpt lat="45.11567" lon="4.94826">
        <ele>234.02000427246</ele>
        <time>2011-01-19T16:52:15Z</time>
      </trkpt>
      <trkpt lat="45.11569" lon="4.9484">
        <ele>234.33799743652</ele>
        <time>2011-01-19T16:52:17Z</time>
      </trkpt>
      <trkpt lat="45.11582" lon="4.94898">
        <ele>236.96699523926</ele>
        <time>2011-01-19T16:52:26Z</time>
      </trkpt>
      <trkpt lat="45.11591" lon="4.94939">
        <ele>236.79600524902</ele>
        <time>2011-01-19T16:52:33Z</time>
      </trkpt>
      <trkpt lat="45.116" lon="4.94966">
        <ele>236.23899841309</ele>
        <time>2011-01-19T16:52:39Z</time>
      </trkpt>
      <trkpt lat="45.1161" lon="4.94992">
        <ele>236.69000244141</ele>
        <time>2011-01-19T16:52:45Z</time>
      </trkpt>
      <trkpt lat="45.11617" lon="4.95008">
        <ele>236.51300048828</ele>
        <time>2011-01-19T16:52:48Z</time>
      </trkpt>
      <trkpt lat="45.11639" lon="4.95053">
        <ele>235.78799438477</ele>
        <time>2011-01-19T16:52:56Z</time>
      </trkpt>
      <trkpt lat="45.1166" lon="4.95103">
        <ele>234.92799377441</ele>
        <time>2011-01-19T16:53:03Z</time>
      </trkpt>
      <trkpt lat="45.11666" lon="4.95118">
        <ele>234.23699951172</ele>
        <time>2011-01-19T16:53:05Z</time>
      </trkpt>
      <trkpt lat="45.11671" lon="4.95134">
        <ele>233.87899780273</ele>
        <time>2011-01-19T16:53:07Z</time>
      </trkpt>
      <trkpt lat="45.11679" lon="4.95169">
        <ele>233.07600402832</ele>
        <time>2011-01-19T16:53:11Z</time>
      </trkpt>
      <trkpt lat="45.117" lon="4.95238">
        <ele>232.86700439453</ele>
        <time>2011-01-19T16:53:19Z</time>
      </trkpt>
      <trkpt lat="45.11717" lon="4.95281">
        <ele>230.49200439453</ele>
        <time>2011-01-19T16:53:24Z</time>
      </trkpt>
      <trkpt lat="45.11724" lon="4.95321">
        <ele>228.74000549316</ele>
        <time>2011-01-19T16:53:28Z</time>
      </trkpt>
      <trkpt lat="45.11723" lon="4.95332">
        <ele>228.32600402832</ele>
        <time>2011-01-19T16:53:29Z</time>
      </trkpt>
      <trkpt lat="45.11718" lon="4.95356">
        <ele>227.16200256348</ele>
        <time>2011-01-19T16:53:31Z</time>
      </trkpt>
      <trkpt lat="45.11722" lon="4.95405">
        <ele>224.95500183106</ele>
        <time>2011-01-19T16:53:35Z</time>
      </trkpt>
      <trkpt lat="45.11737" lon="4.95422">
        <ele>223.16499328613</ele>
        <time>2011-01-19T16:53:37Z</time>
      </trkpt>
      <trkpt lat="45.11766" lon="4.95433">
        <ele>220.89300537109</ele>
        <time>2011-01-19T16:53:40Z</time>
      </trkpt>
      <trkpt lat="45.11797" lon="4.95441">
        <ele>217.71000671387</ele>
        <time>2011-01-19T16:53:43Z</time>
      </trkpt>
      <trkpt lat="45.11827" lon="4.95471">
        <ele>214.38400268555</ele>
        <time>2011-01-19T16:53:47Z</time>
      </trkpt>
      <trkpt lat="45.11829" lon="4.95483">
        <ele>214.09399414062</ele>
        <time>2011-01-19T16:53:48Z</time>
      </trkpt>
      <trkpt lat="45.11822" lon="4.95518">
        <ele>213.31700134277</ele>
        <time>2011-01-19T16:53:51Z</time>
      </trkpt>
      <trkpt lat="45.11805" lon="4.95536">
        <ele>214.35000610352</ele>
        <time>2011-01-19T16:53:54Z</time>
      </trkpt>
      <trkpt lat="45.11795" lon="4.95556">
        <ele>216.35699462891</ele>
        <time>2011-01-19T16:53:57Z</time>
      </trkpt>
      <trkpt lat="45.11795" lon="4.95563">
        <ele>216.62199401856</ele>
        <time>2011-01-19T16:53:58Z</time>
      </trkpt>
      <trkpt lat="45.11797" lon="4.95582">
        <ele>218.38800048828</ele>
        <time>2011-01-19T16:54:01Z</time>
      </trkpt>
      <trkpt lat="45.11799" lon="4.95593">
        <ele>218.79600524902</ele>
        <time>2011-01-19T16:54:03Z</time>
      </trkpt>
      <trkpt lat="45.118" lon="4.95599">
        <ele>219.17700195312</ele>
        <time>2011-01-19T16:54:04Z</time>
      </trkpt>
      <trkpt lat="45.118" lon="4.9561">
        <ele>219.94799804688</ele>
        <time>2011-01-19T16:54:06Z</time>
      </trkpt>
      <trkpt lat="45.11789" lon="4.95625">
        <ele>221.22099304199</ele>
        <time>2011-01-19T16:54:10Z</time>
      </trkpt>
      <trkpt lat="45.11785" lon="4.95626">
        <ele>221.78700256348</ele>
        <time>2011-01-19T16:54:11Z</time>
      </trkpt>
      <trkpt lat="45.1177" lon="4.95626">
        <ele>223.33700561523</ele>
        <time>2011-01-19T16:54:15Z</time>
      </trkpt>
      <trkpt lat="45.11762" lon="4.9563">
        <ele>223.97099304199</ele>
        <time>2011-01-19T16:54:17Z</time>
      </trkpt>
      <trkpt lat="45.11749" lon="4.95646">
        <ele>225.43600463867</ele>
        <time>2011-01-19T16:54:21Z</time>
      </trkpt>
      <trkpt lat="45.11747" lon="4.95667">
        <ele>227.03399658203</ele>
        <time>2011-01-19T16:54:24Z</time>
      </trkpt>
      <trkpt lat="45.11747" lon="4.95681">
        <ele>227.96000671387</ele>
        <time>2011-01-19T16:54:26Z</time>
      </trkpt>
      <trkpt lat="45.11746" lon="4.95719">
        <ele>230.23300170898</ele>
        <time>2011-01-19T16:54:32Z</time>
      </trkpt>
      <trkpt lat="45.11744" lon="4.9576">
        <ele>232.42300415039</ele>
        <time>2011-01-19T16:54:38Z</time>
      </trkpt>
      <trkpt lat="45.11744" lon="4.95774">
        <ele>232.90899658203</ele>
        <time>2011-01-19T16:54:40Z</time>
      </trkpt>
      <trkpt lat="45.1175" lon="4.95825">
        <ele>233.63400268555</ele>
        <time>2011-01-19T16:54:48Z</time>
      </trkpt>
      <trkpt lat="45.1176" lon="4.95866">
        <ele>232.65699768066</ele>
        <time>2011-01-19T16:54:55Z</time>
      </trkpt>
      <trkpt lat="45.11772" lon="4.95909">
        <ele>231.08799743652</ele>
        <time>2011-01-19T16:55:01Z</time>
      </trkpt>
      <trkpt lat="45.11773" lon="4.95916">
        <ele>230.68099975586</ele>
        <time>2011-01-19T16:55:02Z</time>
      </trkpt>
      <trkpt lat="45.11769" lon="4.95933">
        <ele>229.53300476074</ele>
        <time>2011-01-19T16:55:06Z</time>
      </trkpt>
      <trkpt lat="45.11758" lon="4.9593">
        <ele>229.47099304199</ele>
        <time>2011-01-19T16:55:09Z</time>
      </trkpt>
      <trkpt lat="45.11749" lon="4.95922">
        <ele>230.12600708008</ele>
        <time>2011-01-19T16:55:12Z</time>
      </trkpt>
      <trkpt lat="45.11718" lon="4.95902">
        <ele>231.37600708008</ele>
        <time>2011-01-19T16:55:20Z</time>
      </trkpt>
      <trkpt lat="45.1169" lon="4.95884">
        <ele>233.07899475098</ele>
        <time>2011-01-19T16:55:27Z</time>
      </trkpt>
      <trkpt lat="45.11671" lon="4.95881">
        <ele>234.47500610352</ele>
        <time>2011-01-19T16:55:32Z</time>
      </trkpt>
      <trkpt lat="45.11665" lon="4.95897">
        <ele>235.25199890137</ele>
        <time>2011-01-19T16:55:36Z</time>
      </trkpt>
      <trkpt lat="45.11657" lon="4.95933">
        <ele>234.73899841309</ele>
        <time>2011-01-19T16:55:43Z</time>
      </trkpt>
      <trkpt lat="45.11653" lon="4.95945">
        <ele>234.32000732422</ele>
        <time>2011-01-19T16:55:45Z</time>
      </trkpt>
      <trkpt lat="45.1164" lon="4.95983">
        <ele>232.93899536133</ele>
        <time>2011-01-19T16:55:50Z</time>
      </trkpt>
      <trkpt lat="45.11622" lon="4.96037">
        <ele>230.05299377441</ele>
        <time>2011-01-19T16:55:55Z</time>
      </trkpt>
      <trkpt lat="45.11605" lon="4.96105">
        <ele>225.42199707031</ele>
        <time>2011-01-19T16:56:00Z</time>
      </trkpt>
      <trkpt lat="45.11596" lon="4.96149">
        <ele>223.2619934082</ele>
        <time>2011-01-19T16:56:03Z</time>
      </trkpt>
      <trkpt lat="45.11578" lon="4.96179">
        <ele>221.59800720215</ele>
        <time>2011-01-19T16:56:06Z</time>
      </trkpt>
      <trkpt lat="45.11559" lon="4.96185">
        <ele>220.84100341797</ele>
        <time>2011-01-19T16:56:08Z</time>
      </trkpt>
      <trkpt lat="45.1154" lon="4.96187">
        <ele>220.0890045166</ele>
        <time>2011-01-19T16:56:10Z</time>
      </trkpt>
      <trkpt lat="45.11533" lon="4.96188">
        <ele>219.57800292969</ele>
        <time>2011-01-19T16:56:11Z</time>
      </trkpt>
      <trkpt lat="45.11523" lon="4.96199">
        <ele>218.0359954834</ele>
        <time>2011-01-19T16:56:14Z</time>
      </trkpt>
      <trkpt lat="45.11534" lon="4.96218">
        <ele>215.87699890137</ele>
        <time>2011-01-19T16:56:17Z</time>
      </trkpt>
      <trkpt lat="45.11547" lon="4.96229">
        <ele>214.91900634766</ele>
        <time>2011-01-19T16:56:19Z</time>
      </trkpt>
      <trkpt lat="45.11567" lon="4.96251">
        <ele>212.3390045166</ele>
        <time>2011-01-19T16:56:22Z</time>
      </trkpt>
      <trkpt lat="45.11583" lon="4.96306">
        <ele>207.16000366211</ele>
        <time>2011-01-19T16:56:26Z</time>
      </trkpt>
      <trkpt lat="45.11587" lon="4.9639">
        <ele>201.75900268555</ele>
        <time>2011-01-19T16:56:31Z</time>
      </trkpt>
      <trkpt lat="45.11585" lon="4.96421">
        <ele>198.90699768066</ele>
        <time>2011-01-19T16:56:34Z</time>
      </trkpt>
      <trkpt lat="45.11585" lon="4.96431">
        <ele>197.54299926758</ele>
        <time>2011-01-19T16:56:37Z</time>
      </trkpt>
      <trkpt lat="45.11583" lon="4.96451">
        <ele>196.81199645996</ele>
        <time>2011-01-19T16:56:41Z</time>
      </trkpt>
      <trkpt lat="45.11577" lon="4.96453">
        <ele>196.17199707031</ele>
        <time>2011-01-19T16:56:46Z</time>
      </trkpt>
    </trkseg>
  </trk>
</gpx>